<?xml version="1.0" encoding="UTF-8" standalone="no" ?>
<gpx xmlns="http://www.topografix.com/GPX/1/1" xmlns:xsi="http://www.w3.org/2001/XMLSchema-instance" xsi:schemaLocation="http://www.topografix.com/GPX/1/1 http://www.topografix.com/GPX/1/1/gpx.xsd" version="1.1" creator="VisuGPX - https://www.visugpx.com">
  <metadata>
    <name>Rando des 3 châteaux 2013 (43 Kms)</name>
    <desc><![CDATA[Parcours Tronqué de 1h de marche, et donc de 7 kms car la batterie du Traker à lâché !!

Le parcours ne faisait que 42 kms, en comptant l\'arrivée aux cars
]]></desc>
  </metadata>
  <trk>
    <name><![CDATA[Rando des 3 châteaux 2013 (43 Kms)_1]]></name>
    <trkseg>
      <trkpt lat="48.40211" lon="2.69689">
        <ele>75.2</ele>
        <time>2013-04-14T14:41:59Z</time>
      </trkpt>
      <trkpt lat="48.40211" lon="2.69689">
        <ele>75.2</ele>
        <time>2013-04-14T14:42:03Z</time>
      </trkpt>
      <trkpt lat="48.40201" lon="2.69707">
        <ele>75</ele>
        <time>2013-04-14T14:42:03Z</time>
      </trkpt>
      <trkpt lat="48.40201" lon="2.69707">
        <ele>75</ele>
        <time>2013-04-14T13:42:04Z</time>
      </trkpt>
      <trkpt lat="48.40203" lon="2.69718">
        <ele>75</ele>
        <time>2013-04-14T13:42:08Z</time>
      </trkpt>
      <trkpt lat="48.40204" lon="2.69727">
        <ele>74.8</ele>
        <time>2013-04-14T13:42:19Z</time>
      </trkpt>
      <trkpt lat="48.40204" lon="2.69727">
        <ele>74.8</ele>
        <time>2013-04-14T13:42:21Z</time>
      </trkpt>
      <trkpt lat="48.40207" lon="2.69757">
        <ele>74</ele>
        <time>2013-04-14T13:42:25Z</time>
      </trkpt>
      <trkpt lat="48.40207" lon="2.69757">
        <ele>74</ele>
        <time>2013-04-14T13:42:32Z</time>
      </trkpt>
      <trkpt lat="48.40203" lon="2.69772">
        <ele>74</ele>
        <time>2013-04-14T13:42:36Z</time>
      </trkpt>
      <trkpt lat="48.40203" lon="2.69789">
        <ele>74</ele>
        <time>2013-04-14T13:42:45Z</time>
      </trkpt>
      <trkpt lat="48.40203" lon="2.69789">
        <ele>74</ele>
        <time>2013-04-14T13:42:53Z</time>
      </trkpt>
      <trkpt lat="48.40203" lon="2.69789">
        <ele>74</ele>
        <time>2013-04-14T13:42:55Z</time>
      </trkpt>
      <trkpt lat="48.40204" lon="2.69791">
        <ele>74</ele>
        <time>2013-04-14T13:42:57Z</time>
      </trkpt>
      <trkpt lat="48.40204" lon="2.69806">
        <ele>74</ele>
        <time>2013-04-14T13:43:01Z</time>
      </trkpt>
      <trkpt lat="48.40204" lon="2.69806">
        <ele>74</ele>
        <time>2013-04-14T13:43:09Z</time>
      </trkpt>
      <trkpt lat="48.40203" lon="2.6984">
        <ele>74</ele>
        <time>2013-04-14T13:43:14Z</time>
      </trkpt>
      <trkpt lat="48.40203" lon="2.6984">
        <ele>74</ele>
        <time>2013-04-14T13:43:20Z</time>
      </trkpt>
      <trkpt lat="48.40203" lon="2.69862">
        <ele>74</ele>
        <time>2013-04-14T13:43:23Z</time>
      </trkpt>
      <trkpt lat="48.40203" lon="2.69862">
        <ele>74</ele>
        <time>2013-04-14T13:43:25Z</time>
      </trkpt>
      <trkpt lat="48.40202" lon="2.69877">
        <ele>74</ele>
        <time>2013-04-14T13:43:28Z</time>
      </trkpt>
      <trkpt lat="48.40202" lon="2.69877">
        <ele>74</ele>
        <time>2013-04-14T13:43:33Z</time>
      </trkpt>
      <trkpt lat="48.40202" lon="2.69877">
        <ele>74</ele>
        <time>2013-04-14T13:43:35Z</time>
      </trkpt>
      <trkpt lat="48.40202" lon="2.69877">
        <ele>74</ele>
        <time>2013-04-14T13:43:44Z</time>
      </trkpt>
      <trkpt lat="48.40202" lon="2.69916">
        <ele>73</ele>
        <time>2013-04-14T13:43:49Z</time>
      </trkpt>
      <trkpt lat="48.40202" lon="2.69916">
        <ele>73</ele>
        <time>2013-04-14T13:43:55Z</time>
      </trkpt>
      <trkpt lat="48.40202" lon="2.69916">
        <ele>73</ele>
        <time>2013-04-14T13:43:59Z</time>
      </trkpt>
      <trkpt lat="48.40202" lon="2.69916">
        <ele>73</ele>
        <time>2013-04-14T13:44:04Z</time>
      </trkpt>
      <trkpt lat="48.40196" lon="2.69931">
        <ele>73</ele>
        <time>2013-04-14T13:44:08Z</time>
      </trkpt>
      <trkpt lat="48.40196" lon="2.69931">
        <ele>73</ele>
        <time>2013-04-14T13:44:15Z</time>
      </trkpt>
      <trkpt lat="48.40196" lon="2.69931">
        <ele>73</ele>
        <time>2013-04-14T13:44:17Z</time>
      </trkpt>
      <trkpt lat="48.40196" lon="2.69931">
        <ele>73</ele>
        <time>2013-04-14T13:44:19Z</time>
      </trkpt>
      <trkpt lat="48.40196" lon="2.69931">
        <ele>73</ele>
        <time>2013-04-14T13:44:19Z</time>
      </trkpt>
      <trkpt lat="48.40196" lon="2.69931">
        <ele>73</ele>
        <time>2013-04-14T13:44:37Z</time>
      </trkpt>
      <trkpt lat="48.40196" lon="2.69931">
        <ele>73</ele>
        <time>2013-04-14T13:44:39Z</time>
      </trkpt>
      <trkpt lat="48.40196" lon="2.69931">
        <ele>73</ele>
        <time>2013-04-14T13:44:42Z</time>
      </trkpt>
      <trkpt lat="48.40187" lon="2.69982">
        <ele>72.7</ele>
        <time>2013-04-14T13:44:49Z</time>
      </trkpt>
      <trkpt lat="48.40185" lon="2.69984">
        <ele>72.7</ele>
        <time>2013-04-14T13:44:53Z</time>
      </trkpt>
      <trkpt lat="48.40179" lon="2.69997">
        <ele>72.4</ele>
        <time>2013-04-14T13:44:57Z</time>
      </trkpt>
      <trkpt lat="48.40177" lon="2.70008">
        <ele>72.4</ele>
        <time>2013-04-14T13:45:06Z</time>
      </trkpt>
      <trkpt lat="48.40177" lon="2.70008">
        <ele>72.4</ele>
        <time>2013-04-14T13:45:08Z</time>
      </trkpt>
      <trkpt lat="48.40177" lon="2.70008">
        <ele>72.4</ele>
        <time>2013-04-14T13:45:10Z</time>
      </trkpt>
      <trkpt lat="48.40177" lon="2.70008">
        <ele>72.4</ele>
        <time>2013-04-14T13:45:15Z</time>
      </trkpt>
      <trkpt lat="48.40177" lon="2.70008">
        <ele>72.4</ele>
        <time>2013-04-14T13:45:15Z</time>
      </trkpt>
      <trkpt lat="48.40177" lon="2.70008">
        <ele>72.4</ele>
        <time>2013-04-14T13:45:39Z</time>
      </trkpt>
      <trkpt lat="48.40177" lon="2.70008">
        <ele>72.4</ele>
        <time>2013-04-14T13:45:41Z</time>
      </trkpt>
      <trkpt lat="48.40159" lon="2.70042">
        <ele>72.5</ele>
        <time>2013-04-14T13:45:46Z</time>
      </trkpt>
      <trkpt lat="48.40136" lon="2.70076">
        <ele>72.2</ele>
        <time>2013-04-14T13:45:58Z</time>
      </trkpt>
      <trkpt lat="48.40136" lon="2.70076">
        <ele>72.2</ele>
        <time>2013-04-14T13:46:02Z</time>
      </trkpt>
      <trkpt lat="48.40126" lon="2.70092">
        <ele>71.7</ele>
        <time>2013-04-14T13:46:07Z</time>
      </trkpt>
      <trkpt lat="48.40122" lon="2.70096">
        <ele>71.5</ele>
        <time>2013-04-14T13:46:14Z</time>
      </trkpt>
      <trkpt lat="48.40122" lon="2.70096">
        <ele>71.5</ele>
        <time>2013-04-14T13:46:18Z</time>
      </trkpt>
      <trkpt lat="48.40122" lon="2.70096">
        <ele>71.5</ele>
        <time>2013-04-14T13:46:24Z</time>
      </trkpt>
      <trkpt lat="48.40113" lon="2.70098">
        <ele>71.5</ele>
        <time>2013-04-14T13:46:28Z</time>
      </trkpt>
      <trkpt lat="48.40111" lon="2.70098">
        <ele>71.5</ele>
        <time>2013-04-14T13:46:35Z</time>
      </trkpt>
      <trkpt lat="48.40111" lon="2.70098">
        <ele>71.5</ele>
        <time>2013-04-14T13:46:40Z</time>
      </trkpt>
      <trkpt lat="48.40111" lon="2.70098">
        <ele>71.5</ele>
        <time>2013-04-14T13:46:44Z</time>
      </trkpt>
      <trkpt lat="48.40111" lon="2.70098">
        <ele>71.5</ele>
        <time>2013-04-14T13:47:11Z</time>
      </trkpt>
      <trkpt lat="48.40088" lon="2.70102">
        <ele>71.3</ele>
        <time>2013-04-14T13:47:16Z</time>
      </trkpt>
      <trkpt lat="48.40083" lon="2.70104">
        <ele>71.3</ele>
        <time>2013-04-14T13:47:22Z</time>
      </trkpt>
      <trkpt lat="48.4008" lon="2.70104">
        <ele>71.3</ele>
        <time>2013-04-14T13:47:30Z</time>
      </trkpt>
      <trkpt lat="48.40062" lon="2.70113">
        <ele>71.7</ele>
        <time>2013-04-14T13:47:36Z</time>
      </trkpt>
      <trkpt lat="48.40053" lon="2.70115">
        <ele>71.9</ele>
        <time>2013-04-14T13:47:43Z</time>
      </trkpt>
      <trkpt lat="48.40041" lon="2.70115">
        <ele>71.9</ele>
        <time>2013-04-14T13:47:52Z</time>
      </trkpt>
      <trkpt lat="48.40039" lon="2.70117">
        <ele>71.8</ele>
        <time>2013-04-14T13:47:57Z</time>
      </trkpt>
      <trkpt lat="48.40039" lon="2.70117">
        <ele>71.8</ele>
        <time>2013-04-14T13:48:06Z</time>
      </trkpt>
      <trkpt lat="48.4002" lon="2.70119">
        <ele>71.5</ele>
        <time>2013-04-14T13:48:10Z</time>
      </trkpt>
      <trkpt lat="48.40018" lon="2.70119">
        <ele>71.5</ele>
        <time>2013-04-14T13:48:17Z</time>
      </trkpt>
      <trkpt lat="48.40003" lon="2.70124">
        <ele>71.1</ele>
        <time>2013-04-14T13:48:21Z</time>
      </trkpt>
      <trkpt lat="48.39995" lon="2.70126">
        <ele>71.1</ele>
        <time>2013-04-14T13:48:29Z</time>
      </trkpt>
      <trkpt lat="48.39995" lon="2.70126">
        <ele>71.1</ele>
        <time>2013-04-14T13:48:34Z</time>
      </trkpt>
      <trkpt lat="48.39986" lon="2.7013">
        <ele>71.2</ele>
        <time>2013-04-14T13:48:38Z</time>
      </trkpt>
      <trkpt lat="48.39969" lon="2.70139">
        <ele>71.1</ele>
        <time>2013-04-14T13:48:56Z</time>
      </trkpt>
      <trkpt lat="48.39965" lon="2.70141">
        <ele>71.2</ele>
        <time>2013-04-14T13:48:58Z</time>
      </trkpt>
      <trkpt lat="48.39958" lon="2.70143">
        <ele>71.4</ele>
        <time>2013-04-14T13:49:07Z</time>
      </trkpt>
      <trkpt lat="48.3995" lon="2.70145">
        <ele>71.6</ele>
        <time>2013-04-14T13:49:11Z</time>
      </trkpt>
      <trkpt lat="48.39945" lon="2.70147">
        <ele>71.7</ele>
        <time>2013-04-14T13:49:18Z</time>
      </trkpt>
      <trkpt lat="48.39937" lon="2.70147">
        <ele>71.8</ele>
        <time>2013-04-14T13:49:23Z</time>
      </trkpt>
      <trkpt lat="48.39934" lon="2.70147">
        <ele>71.8</ele>
        <time>2013-04-14T13:49:29Z</time>
      </trkpt>
      <trkpt lat="48.39923" lon="2.70149">
        <ele>71.9</ele>
        <time>2013-04-14T13:49:34Z</time>
      </trkpt>
      <trkpt lat="48.39912" lon="2.70147">
        <ele>72</ele>
        <time>2013-04-14T13:49:43Z</time>
      </trkpt>
      <trkpt lat="48.3991" lon="2.70145">
        <ele>72</ele>
        <time>2013-04-14T13:49:48Z</time>
      </trkpt>
      <trkpt lat="48.39906" lon="2.70143">
        <ele>72</ele>
        <time>2013-04-14T13:49:52Z</time>
      </trkpt>
      <trkpt lat="48.39901" lon="2.70143">
        <ele>72</ele>
        <time>2013-04-14T13:49:55Z</time>
      </trkpt>
      <trkpt lat="48.39893" lon="2.70147">
        <ele>72</ele>
        <time>2013-04-14T13:50:00Z</time>
      </trkpt>
      <trkpt lat="48.39887" lon="2.7016">
        <ele>72</ele>
        <time>2013-04-14T13:50:11Z</time>
      </trkpt>
      <trkpt lat="48.39887" lon="2.7016">
        <ele>72</ele>
        <time>2013-04-14T13:50:13Z</time>
      </trkpt>
      <trkpt lat="48.39886" lon="2.70162">
        <ele>72</ele>
        <time>2013-04-14T13:50:15Z</time>
      </trkpt>
      <trkpt lat="48.3988" lon="2.70167">
        <ele>72</ele>
        <time>2013-04-14T13:50:21Z</time>
      </trkpt>
      <trkpt lat="48.3988" lon="2.70167">
        <ele>72</ele>
        <time>2013-04-14T13:50:26Z</time>
      </trkpt>
      <trkpt lat="48.39874" lon="2.70173">
        <ele>72</ele>
        <time>2013-04-14T13:50:29Z</time>
      </trkpt>
      <trkpt lat="48.39874" lon="2.70173">
        <ele>72</ele>
        <time>2013-04-14T13:50:39Z</time>
      </trkpt>
      <trkpt lat="48.39859" lon="2.70188">
        <ele>72</ele>
        <time>2013-04-14T13:50:43Z</time>
      </trkpt>
      <trkpt lat="48.39853" lon="2.70199">
        <ele>72</ele>
        <time>2013-04-14T13:50:52Z</time>
      </trkpt>
      <trkpt lat="48.39853" lon="2.70199">
        <ele>72</ele>
        <time>2013-04-14T13:50:56Z</time>
      </trkpt>
      <trkpt lat="48.39848" lon="2.70201">
        <ele>72</ele>
        <time>2013-04-14T13:51:01Z</time>
      </trkpt>
      <trkpt lat="48.39848" lon="2.70201">
        <ele>72</ele>
        <time>2013-04-14T13:51:09Z</time>
      </trkpt>
      <trkpt lat="48.39843" lon="2.70199">
        <ele>72</ele>
        <time>2013-04-14T13:51:14Z</time>
      </trkpt>
      <trkpt lat="48.39843" lon="2.70199">
        <ele>72</ele>
        <time>2013-04-14T13:51:20Z</time>
      </trkpt>
      <trkpt lat="48.39843" lon="2.70199">
        <ele>72</ele>
        <time>2013-04-14T13:51:22Z</time>
      </trkpt>
      <trkpt lat="48.39843" lon="2.70199">
        <ele>72</ele>
        <time>2013-04-14T13:51:28Z</time>
      </trkpt>
      <trkpt lat="48.39842" lon="2.70214">
        <ele>72</ele>
        <time>2013-04-14T13:51:35Z</time>
      </trkpt>
      <trkpt lat="48.39843" lon="2.70237">
        <ele>72</ele>
        <time>2013-04-14T13:51:39Z</time>
      </trkpt>
      <trkpt lat="48.39843" lon="2.70242">
        <ele>72</ele>
        <time>2013-04-14T13:51:46Z</time>
      </trkpt>
      <trkpt lat="48.39842" lon="2.70259">
        <ele>71.9</ele>
        <time>2013-04-14T13:51:51Z</time>
      </trkpt>
      <trkpt lat="48.3984" lon="2.70282">
        <ele>71.8</ele>
        <time>2013-04-14T13:52:04Z</time>
      </trkpt>
      <trkpt lat="48.3984" lon="2.70282">
        <ele>71.8</ele>
        <time>2013-04-14T13:52:07Z</time>
      </trkpt>
      <trkpt lat="48.3984" lon="2.70282">
        <ele>71.8</ele>
        <time>2013-04-14T13:52:10Z</time>
      </trkpt>
      <trkpt lat="48.39836" lon="2.7031">
        <ele>71.8</ele>
        <time>2013-04-14T13:52:14Z</time>
      </trkpt>
      <trkpt lat="48.39835" lon="2.70321">
        <ele>71.4</ele>
        <time>2013-04-14T13:52:18Z</time>
      </trkpt>
      <trkpt lat="48.39835" lon="2.7034">
        <ele>71</ele>
        <time>2013-04-14T13:52:27Z</time>
      </trkpt>
      <trkpt lat="48.39836" lon="2.70349">
        <ele>71</ele>
        <time>2013-04-14T13:52:29Z</time>
      </trkpt>
      <trkpt lat="48.39838" lon="2.70353">
        <ele>71</ele>
        <time>2013-04-14T13:52:36Z</time>
      </trkpt>
      <trkpt lat="48.39842" lon="2.70373">
        <ele>71</ele>
        <time>2013-04-14T13:52:40Z</time>
      </trkpt>
      <trkpt lat="48.39845" lon="2.70392">
        <ele>71.1</ele>
        <time>2013-04-14T13:52:49Z</time>
      </trkpt>
      <trkpt lat="48.39848" lon="2.70409">
        <ele>71.7</ele>
        <time>2013-04-14T13:53:01Z</time>
      </trkpt>
      <trkpt lat="48.39848" lon="2.70409">
        <ele>71.7</ele>
        <time>2013-04-14T13:53:04Z</time>
      </trkpt>
      <trkpt lat="48.39848" lon="2.70409">
        <ele>71.7</ele>
        <time>2013-04-14T13:53:06Z</time>
      </trkpt>
      <trkpt lat="48.39848" lon="2.70409">
        <ele>71.7</ele>
        <time>2013-04-14T13:53:08Z</time>
      </trkpt>
      <trkpt lat="48.39854" lon="2.70422">
        <ele>72.1</ele>
        <time>2013-04-14T13:53:12Z</time>
      </trkpt>
      <trkpt lat="48.39854" lon="2.70422">
        <ele>72.1</ele>
        <time>2013-04-14T13:53:20Z</time>
      </trkpt>
      <trkpt lat="48.39854" lon="2.70422">
        <ele>72.1</ele>
        <time>2013-04-14T13:53:22Z</time>
      </trkpt>
      <trkpt lat="48.39854" lon="2.70422">
        <ele>72.1</ele>
        <time>2013-04-14T13:53:25Z</time>
      </trkpt>
      <trkpt lat="48.39855" lon="2.70465">
        <ele>72.8</ele>
        <time>2013-04-14T13:53:31Z</time>
      </trkpt>
      <trkpt lat="48.39856" lon="2.70501">
        <ele>72.8</ele>
        <time>2013-04-14T13:53:43Z</time>
      </trkpt>
      <trkpt lat="48.39849" lon="2.70503">
        <ele>72.6</ele>
        <time>2013-04-14T13:53:47Z</time>
      </trkpt>
      <trkpt lat="48.39845" lon="2.70488">
        <ele>72.4</ele>
        <time>2013-04-14T13:54:00Z</time>
      </trkpt>
      <trkpt lat="48.39845" lon="2.70488">
        <ele>72.4</ele>
        <time>2013-04-14T13:54:04Z</time>
      </trkpt>
      <trkpt lat="48.39871" lon="2.70501">
        <ele>72.6</ele>
        <time>2013-04-14T13:54:09Z</time>
      </trkpt>
      <trkpt lat="48.39876" lon="2.70508">
        <ele>72.5</ele>
        <time>2013-04-14T13:54:13Z</time>
      </trkpt>
      <trkpt lat="48.39878" lon="2.70512">
        <ele>72.4</ele>
        <time>2013-04-14T13:54:18Z</time>
      </trkpt>
      <trkpt lat="48.39878" lon="2.70512">
        <ele>72.4</ele>
        <time>2013-04-14T13:54:22Z</time>
      </trkpt>
      <trkpt lat="48.39884" lon="2.70525">
        <ele>72.2</ele>
        <time>2013-04-14T13:54:26Z</time>
      </trkpt>
      <trkpt lat="48.39884" lon="2.70525">
        <ele>72.2</ele>
        <time>2013-04-14T13:54:33Z</time>
      </trkpt>
      <trkpt lat="48.39884" lon="2.70525">
        <ele>72.2</ele>
        <time>2013-04-14T13:54:35Z</time>
      </trkpt>
      <trkpt lat="48.39887" lon="2.70544">
        <ele>72</ele>
        <time>2013-04-14T13:54:40Z</time>
      </trkpt>
      <trkpt lat="48.39892" lon="2.7057">
        <ele>71.9</ele>
        <time>2013-04-14T13:54:53Z</time>
      </trkpt>
      <trkpt lat="48.39892" lon="2.7057">
        <ele>71.9</ele>
        <time>2013-04-14T13:54:55Z</time>
      </trkpt>
      <trkpt lat="48.39892" lon="2.7057">
        <ele>71.9</ele>
        <time>2013-04-14T13:54:59Z</time>
      </trkpt>
      <trkpt lat="48.39892" lon="2.7057">
        <ele>71.9</ele>
        <time>2013-04-14T13:55:03Z</time>
      </trkpt>
      <trkpt lat="48.39898" lon="2.70587">
        <ele>71.7</ele>
        <time>2013-04-14T13:55:07Z</time>
      </trkpt>
      <trkpt lat="48.39905" lon="2.70598">
        <ele>71.7</ele>
        <time>2013-04-14T13:55:16Z</time>
      </trkpt>
      <trkpt lat="48.39913" lon="2.706">
        <ele>71.7</ele>
        <time>2013-04-14T13:55:24Z</time>
      </trkpt>
      <trkpt lat="48.39913" lon="2.706">
        <ele>71.7</ele>
        <time>2013-04-14T13:55:28Z</time>
      </trkpt>
      <trkpt lat="48.39913" lon="2.706">
        <ele>71.7</ele>
        <time>2013-04-14T13:55:33Z</time>
      </trkpt>
      <trkpt lat="48.39944" lon="2.70602">
        <ele>71.7</ele>
        <time>2013-04-14T13:55:39Z</time>
      </trkpt>
      <trkpt lat="48.39954" lon="2.70602">
        <ele>71.7</ele>
        <time>2013-04-14T13:55:46Z</time>
      </trkpt>
      <trkpt lat="48.39957" lon="2.70602">
        <ele>71.7</ele>
        <time>2013-04-14T13:55:52Z</time>
      </trkpt>
      <trkpt lat="48.39957" lon="2.70602">
        <ele>71.7</ele>
        <time>2013-04-14T13:56:00Z</time>
      </trkpt>
      <trkpt lat="48.39978" lon="2.70615">
        <ele>71.9</ele>
        <time>2013-04-14T13:56:05Z</time>
      </trkpt>
      <trkpt lat="48.39987" lon="2.70628">
        <ele>72.1</ele>
        <time>2013-04-14T13:56:11Z</time>
      </trkpt>
      <trkpt lat="48.39998" lon="2.70647">
        <ele>72.1</ele>
        <time>2013-04-14T13:56:24Z</time>
      </trkpt>
      <trkpt lat="48.40001" lon="2.70652">
        <ele>71.9</ele>
        <time>2013-04-14T13:56:31Z</time>
      </trkpt>
      <trkpt lat="48.40005" lon="2.70664">
        <ele>71.6</ele>
        <time>2013-04-14T13:56:34Z</time>
      </trkpt>
      <trkpt lat="48.40006" lon="2.70669">
        <ele>71.6</ele>
        <time>2013-04-14T13:56:36Z</time>
      </trkpt>
      <trkpt lat="48.40015" lon="2.70697">
        <ele>71.5</ele>
        <time>2013-04-14T13:56:48Z</time>
      </trkpt>
      <trkpt lat="48.40024" lon="2.70722">
        <ele>71.1</ele>
        <time>2013-04-14T13:57:02Z</time>
      </trkpt>
      <trkpt lat="48.40026" lon="2.70731">
        <ele>71.1</ele>
        <time>2013-04-14T13:57:10Z</time>
      </trkpt>
      <trkpt lat="48.40026" lon="2.70731">
        <ele>71.1</ele>
        <time>2013-04-14T13:57:14Z</time>
      </trkpt>
      <trkpt lat="48.40026" lon="2.70731">
        <ele>71.1</ele>
        <time>2013-04-14T13:57:16Z</time>
      </trkpt>
      <trkpt lat="48.4003" lon="2.70752">
        <ele>70.9</ele>
        <time>2013-04-14T13:57:20Z</time>
      </trkpt>
      <trkpt lat="48.40039" lon="2.70763">
        <ele>70.6</ele>
        <time>2013-04-14T13:57:27Z</time>
      </trkpt>
      <trkpt lat="48.40046" lon="2.70765">
        <ele>70.3</ele>
        <time>2013-04-14T13:57:31Z</time>
      </trkpt>
      <trkpt lat="48.40053" lon="2.70765">
        <ele>70.1</ele>
        <time>2013-04-14T13:57:40Z</time>
      </trkpt>
      <trkpt lat="48.40053" lon="2.70765">
        <ele>70.1</ele>
        <time>2013-04-14T13:57:44Z</time>
      </trkpt>
      <trkpt lat="48.40053" lon="2.70765">
        <ele>70.1</ele>
        <time>2013-04-14T13:57:49Z</time>
      </trkpt>
      <trkpt lat="48.40053" lon="2.70765">
        <ele>70.1</ele>
        <time>2013-04-14T13:57:58Z</time>
      </trkpt>
      <trkpt lat="48.4008" lon="2.7075">
        <ele>69.1</ele>
        <time>2013-04-14T13:58:05Z</time>
      </trkpt>
      <trkpt lat="48.40098" lon="2.70733">
        <ele>68.5</ele>
        <time>2013-04-14T13:58:13Z</time>
      </trkpt>
      <trkpt lat="48.40098" lon="2.70733">
        <ele>68.5</ele>
        <time>2013-04-14T13:58:18Z</time>
      </trkpt>
      <trkpt lat="48.40109" lon="2.70725">
        <ele>68.1</ele>
        <time>2013-04-14T13:58:22Z</time>
      </trkpt>
      <trkpt lat="48.40118" lon="2.70716">
        <ele>67.6</ele>
        <time>2013-04-14T13:58:33Z</time>
      </trkpt>
      <trkpt lat="48.40118" lon="2.70716">
        <ele>67.6</ele>
        <time>2013-04-14T13:58:37Z</time>
      </trkpt>
      <trkpt lat="48.40118" lon="2.70716">
        <ele>67.6</ele>
        <time>2013-04-14T13:58:42Z</time>
      </trkpt>
      <trkpt lat="48.40118" lon="2.70716">
        <ele>67.6</ele>
        <time>2013-04-14T13:58:52Z</time>
      </trkpt>
      <trkpt lat="48.4014" lon="2.7069">
        <ele>66.8</ele>
        <time>2013-04-14T13:58:57Z</time>
      </trkpt>
      <trkpt lat="48.4014" lon="2.7069">
        <ele>66.8</ele>
        <time>2013-04-14T13:59:06Z</time>
      </trkpt>
      <trkpt lat="48.40165" lon="2.70673">
        <ele>65.1</ele>
        <time>2013-04-14T13:59:11Z</time>
      </trkpt>
      <trkpt lat="48.40175" lon="2.70669">
        <ele>64.7</ele>
        <time>2013-04-14T13:59:17Z</time>
      </trkpt>
      <trkpt lat="48.40175" lon="2.70669">
        <ele>64.7</ele>
        <time>2013-04-14T13:59:22Z</time>
      </trkpt>
      <trkpt lat="48.40188" lon="2.70664">
        <ele>64.2</ele>
        <time>2013-04-14T13:59:26Z</time>
      </trkpt>
      <trkpt lat="48.40204" lon="2.70675">
        <ele>64.2</ele>
        <time>2013-04-14T13:59:35Z</time>
      </trkpt>
      <trkpt lat="48.40211" lon="2.70684">
        <ele>64.3</ele>
        <time>2013-04-14T13:59:40Z</time>
      </trkpt>
      <trkpt lat="48.40223" lon="2.70709">
        <ele>64.5</ele>
        <time>2013-04-14T13:59:50Z</time>
      </trkpt>
      <trkpt lat="48.40229" lon="2.70731">
        <ele>64.8</ele>
        <time>2013-04-14T14:00:01Z</time>
      </trkpt>
      <trkpt lat="48.40229" lon="2.70731">
        <ele>64.8</ele>
        <time>2013-04-14T14:00:03Z</time>
      </trkpt>
      <trkpt lat="48.40229" lon="2.70731">
        <ele>64.8</ele>
        <time>2013-04-14T14:00:05Z</time>
      </trkpt>
      <trkpt lat="48.40229" lon="2.70731">
        <ele>64.8</ele>
        <time>2013-04-14T14:00:09Z</time>
      </trkpt>
      <trkpt lat="48.40239" lon="2.70752">
        <ele>64.4</ele>
        <time>2013-04-14T14:00:13Z</time>
      </trkpt>
      <trkpt lat="48.40242" lon="2.70759">
        <ele>64.5</ele>
        <time>2013-04-14T14:00:20Z</time>
      </trkpt>
      <trkpt lat="48.40242" lon="2.70759">
        <ele>64.5</ele>
        <time>2013-04-14T14:00:24Z</time>
      </trkpt>
      <trkpt lat="48.40245" lon="2.70778">
        <ele>65</ele>
        <time>2013-04-14T14:00:27Z</time>
      </trkpt>
      <trkpt lat="48.40248" lon="2.70789">
        <ele>65</ele>
        <time>2013-04-14T14:00:36Z</time>
      </trkpt>
      <trkpt lat="48.40255" lon="2.70806">
        <ele>64.8</ele>
        <time>2013-04-14T14:00:46Z</time>
      </trkpt>
      <trkpt lat="48.40265" lon="2.70838">
        <ele>64.6</ele>
        <time>2013-04-14T14:01:02Z</time>
      </trkpt>
      <trkpt lat="48.40275" lon="2.7087">
        <ele>65</ele>
        <time>2013-04-14T14:01:15Z</time>
      </trkpt>
      <trkpt lat="48.40275" lon="2.7087">
        <ele>65</ele>
        <time>2013-04-14T14:01:17Z</time>
      </trkpt>
      <trkpt lat="48.4028" lon="2.70888">
        <ele>64.9</ele>
        <time>2013-04-14T14:01:21Z</time>
      </trkpt>
      <trkpt lat="48.40286" lon="2.70907">
        <ele>64.7</ele>
        <time>2013-04-14T14:01:32Z</time>
      </trkpt>
      <trkpt lat="48.40292" lon="2.70926">
        <ele>64.5</ele>
        <time>2013-04-14T14:01:46Z</time>
      </trkpt>
      <trkpt lat="48.40292" lon="2.70926">
        <ele>64.5</ele>
        <time>2013-04-14T14:01:48Z</time>
      </trkpt>
      <trkpt lat="48.40299" lon="2.70943">
        <ele>64.2</ele>
        <time>2013-04-14T14:01:52Z</time>
      </trkpt>
      <trkpt lat="48.40302" lon="2.70954">
        <ele>64.1</ele>
        <time>2013-04-14T14:02:01Z</time>
      </trkpt>
      <trkpt lat="48.40311" lon="2.70973">
        <ele>64</ele>
        <time>2013-04-14T14:02:14Z</time>
      </trkpt>
      <trkpt lat="48.40317" lon="2.70999">
        <ele>64.6</ele>
        <time>2013-04-14T14:02:27Z</time>
      </trkpt>
      <trkpt lat="48.40318" lon="2.71001">
        <ele>64.6</ele>
        <time>2013-04-14T14:02:31Z</time>
      </trkpt>
      <trkpt lat="48.4032" lon="2.7101">
        <ele>64.5</ele>
        <time>2013-04-14T14:02:34Z</time>
      </trkpt>
      <trkpt lat="48.40326" lon="2.71023">
        <ele>64.3</ele>
        <time>2013-04-14T14:02:40Z</time>
      </trkpt>
      <trkpt lat="48.40335" lon="2.71053">
        <ele>63.9</ele>
        <time>2013-04-14T14:02:55Z</time>
      </trkpt>
      <trkpt lat="48.4035" lon="2.71109">
        <ele>63.4</ele>
        <time>2013-04-14T14:03:26Z</time>
      </trkpt>
      <trkpt lat="48.40361" lon="2.71139">
        <ele>64</ele>
        <time>2013-04-14T14:03:46Z</time>
      </trkpt>
      <trkpt lat="48.40364" lon="2.71147">
        <ele>63.9</ele>
        <time>2013-04-14T14:03:48Z</time>
      </trkpt>
      <trkpt lat="48.40368" lon="2.71158">
        <ele>63.8</ele>
        <time>2013-04-14T14:03:55Z</time>
      </trkpt>
      <trkpt lat="48.40374" lon="2.71173">
        <ele>63.6</ele>
        <time>2013-04-14T14:04:06Z</time>
      </trkpt>
      <trkpt lat="48.40379" lon="2.71197">
        <ele>64</ele>
        <time>2013-04-14T14:04:17Z</time>
      </trkpt>
      <trkpt lat="48.40393" lon="2.71235">
        <ele>63.9</ele>
        <time>2013-04-14T14:04:35Z</time>
      </trkpt>
      <trkpt lat="48.40393" lon="2.71235">
        <ele>63.9</ele>
        <time>2013-04-14T14:04:37Z</time>
      </trkpt>
      <trkpt lat="48.40393" lon="2.71235">
        <ele>63.9</ele>
        <time>2013-04-14T14:04:39Z</time>
      </trkpt>
      <trkpt lat="48.40403" lon="2.71255">
        <ele>64.1</ele>
        <time>2013-04-14T14:04:43Z</time>
      </trkpt>
      <trkpt lat="48.40412" lon="2.71274">
        <ele>64.1</ele>
        <time>2013-04-14T14:04:54Z</time>
      </trkpt>
      <trkpt lat="48.40416" lon="2.71295">
        <ele>64</ele>
        <time>2013-04-14T14:05:05Z</time>
      </trkpt>
      <trkpt lat="48.40423" lon="2.7131">
        <ele>64.1</ele>
        <time>2013-04-14T14:05:12Z</time>
      </trkpt>
      <trkpt lat="48.40432" lon="2.71336">
        <ele>64.4</ele>
        <time>2013-04-14T14:05:27Z</time>
      </trkpt>
      <trkpt lat="48.40436" lon="2.71355">
        <ele>64.3</ele>
        <time>2013-04-14T14:05:41Z</time>
      </trkpt>
      <trkpt lat="48.40438" lon="2.71375">
        <ele>64.7</ele>
        <time>2013-04-14T14:05:56Z</time>
      </trkpt>
      <trkpt lat="48.40439" lon="2.71379">
        <ele>64.8</ele>
        <time>2013-04-14T14:05:58Z</time>
      </trkpt>
      <trkpt lat="48.40439" lon="2.71379">
        <ele>64.8</ele>
        <time>2013-04-14T14:06:02Z</time>
      </trkpt>
      <trkpt lat="48.40444" lon="2.71392">
        <ele>65</ele>
        <time>2013-04-14T14:06:05Z</time>
      </trkpt>
      <trkpt lat="48.40447" lon="2.71405">
        <ele>64.9</ele>
        <time>2013-04-14T14:06:09Z</time>
      </trkpt>
      <trkpt lat="48.4045" lon="2.71411">
        <ele>64.8</ele>
        <time>2013-04-14T14:06:18Z</time>
      </trkpt>
      <trkpt lat="48.4045" lon="2.71411">
        <ele>64.8</ele>
        <time>2013-04-14T14:06:22Z</time>
      </trkpt>
      <trkpt lat="48.4045" lon="2.71411">
        <ele>64.8</ele>
        <time>2013-04-14T14:06:24Z</time>
      </trkpt>
      <trkpt lat="48.4045" lon="2.71411">
        <ele>64.8</ele>
        <time>2013-04-14T14:06:33Z</time>
      </trkpt>
      <trkpt lat="48.40468" lon="2.71456">
        <ele>64.7</ele>
        <time>2013-04-14T14:06:38Z</time>
      </trkpt>
      <trkpt lat="48.40473" lon="2.71467">
        <ele>64.8</ele>
        <time>2013-04-14T14:06:44Z</time>
      </trkpt>
      <trkpt lat="48.40479" lon="2.71484">
        <ele>64.9</ele>
        <time>2013-04-14T14:06:50Z</time>
      </trkpt>
      <trkpt lat="48.40495" lon="2.71521">
        <ele>64.6</ele>
        <time>2013-04-14T14:07:05Z</time>
      </trkpt>
      <trkpt lat="48.40495" lon="2.71521">
        <ele>64.6</ele>
        <time>2013-04-14T14:07:07Z</time>
      </trkpt>
      <trkpt lat="48.40495" lon="2.71521">
        <ele>64.6</ele>
        <time>2013-04-14T14:07:10Z</time>
      </trkpt>
      <trkpt lat="48.40495" lon="2.71521">
        <ele>64.6</ele>
        <time>2013-04-14T14:07:14Z</time>
      </trkpt>
      <trkpt lat="48.40503" lon="2.71548">
        <ele>64.5</ele>
        <time>2013-04-14T14:07:18Z</time>
      </trkpt>
      <trkpt lat="48.40504" lon="2.71553">
        <ele>64.6</ele>
        <time>2013-04-14T14:07:26Z</time>
      </trkpt>
      <trkpt lat="48.40504" lon="2.71553">
        <ele>64.6</ele>
        <time>2013-04-14T14:07:30Z</time>
      </trkpt>
      <trkpt lat="48.40504" lon="2.71553">
        <ele>64.6</ele>
        <time>2013-04-14T14:07:33Z</time>
      </trkpt>
      <trkpt lat="48.40504" lon="2.71553">
        <ele>64.6</ele>
        <time>2013-04-14T14:07:35Z</time>
      </trkpt>
      <trkpt lat="48.40516" lon="2.71583">
        <ele>64.8</ele>
        <time>2013-04-14T14:07:39Z</time>
      </trkpt>
      <trkpt lat="48.40518" lon="2.71585">
        <ele>64.7</ele>
        <time>2013-04-14T14:07:46Z</time>
      </trkpt>
      <trkpt lat="48.40522" lon="2.71604">
        <ele>64.6</ele>
        <time>2013-04-14T14:07:50Z</time>
      </trkpt>
      <trkpt lat="48.40526" lon="2.71619">
        <ele>64.5</ele>
        <time>2013-04-14T14:07:57Z</time>
      </trkpt>
      <trkpt lat="48.40538" lon="2.71656">
        <ele>64.9</ele>
        <time>2013-04-14T14:08:17Z</time>
      </trkpt>
      <trkpt lat="48.40542" lon="2.71664">
        <ele>64.9</ele>
        <time>2013-04-14T14:08:19Z</time>
      </trkpt>
      <trkpt lat="48.4055" lon="2.71682">
        <ele>64.5</ele>
        <time>2013-04-14T14:08:28Z</time>
      </trkpt>
      <trkpt lat="48.4055" lon="2.71682">
        <ele>64.5</ele>
        <time>2013-04-14T14:08:30Z</time>
      </trkpt>
      <trkpt lat="48.40555" lon="2.71694">
        <ele>64.1</ele>
        <time>2013-04-14T14:08:33Z</time>
      </trkpt>
      <trkpt lat="48.40562" lon="2.71709">
        <ele>64.1</ele>
        <time>2013-04-14T14:08:43Z</time>
      </trkpt>
      <trkpt lat="48.40562" lon="2.71709">
        <ele>64.1</ele>
        <time>2013-04-14T14:08:45Z</time>
      </trkpt>
      <trkpt lat="48.40562" lon="2.71709">
        <ele>64.1</ele>
        <time>2013-04-14T14:08:47Z</time>
      </trkpt>
      <trkpt lat="48.40562" lon="2.71709">
        <ele>64.1</ele>
        <time>2013-04-14T14:08:51Z</time>
      </trkpt>
      <trkpt lat="48.40574" lon="2.71746">
        <ele>64.5</ele>
        <time>2013-04-14T14:08:57Z</time>
      </trkpt>
      <trkpt lat="48.40574" lon="2.71746">
        <ele>64.5</ele>
        <time>2013-04-14T14:09:02Z</time>
      </trkpt>
      <trkpt lat="48.40574" lon="2.71746">
        <ele>64.5</ele>
        <time>2013-04-14T14:09:04Z</time>
      </trkpt>
      <trkpt lat="48.40574" lon="2.71746">
        <ele>64.5</ele>
        <time>2013-04-14T14:09:12Z</time>
      </trkpt>
      <trkpt lat="48.40593" lon="2.71791">
        <ele>63.8</ele>
        <time>2013-04-14T14:09:18Z</time>
      </trkpt>
      <trkpt lat="48.40594" lon="2.71806">
        <ele>64.2</ele>
        <time>2013-04-14T14:09:25Z</time>
      </trkpt>
      <trkpt lat="48.40599" lon="2.71821">
        <ele>63.9</ele>
        <time>2013-04-14T14:09:34Z</time>
      </trkpt>
      <trkpt lat="48.40599" lon="2.71821">
        <ele>63.9</ele>
        <time>2013-04-14T14:09:36Z</time>
      </trkpt>
      <trkpt lat="48.40599" lon="2.71821">
        <ele>63.9</ele>
        <time>2013-04-14T14:09:38Z</time>
      </trkpt>
      <trkpt lat="48.40599" lon="2.71821">
        <ele>63.9</ele>
        <time>2013-04-14T14:09:40Z</time>
      </trkpt>
      <trkpt lat="48.40608" lon="2.71845">
        <ele>63.6</ele>
        <time>2013-04-14T14:09:44Z</time>
      </trkpt>
      <trkpt lat="48.40622" lon="2.71877">
        <ele>63.4</ele>
        <time>2013-04-14T14:10:02Z</time>
      </trkpt>
      <trkpt lat="48.40622" lon="2.71877">
        <ele>63.4</ele>
        <time>2013-04-14T14:10:04Z</time>
      </trkpt>
      <trkpt lat="48.40625" lon="2.71885">
        <ele>63.4</ele>
        <time>2013-04-14T14:10:09Z</time>
      </trkpt>
      <trkpt lat="48.40625" lon="2.71885">
        <ele>63.4</ele>
        <time>2013-04-14T14:10:15Z</time>
      </trkpt>
      <trkpt lat="48.40625" lon="2.71885">
        <ele>63.4</ele>
        <time>2013-04-14T14:10:17Z</time>
      </trkpt>
      <trkpt lat="48.40625" lon="2.71885">
        <ele>63.4</ele>
        <time>2013-04-14T14:10:19Z</time>
      </trkpt>
      <trkpt lat="48.40634" lon="2.71918">
        <ele>63.2</ele>
        <time>2013-04-14T14:10:23Z</time>
      </trkpt>
      <trkpt lat="48.40634" lon="2.71918">
        <ele>63.2</ele>
        <time>2013-04-14T14:10:30Z</time>
      </trkpt>
      <trkpt lat="48.40634" lon="2.71918">
        <ele>63.2</ele>
        <time>2013-04-14T14:10:30Z</time>
      </trkpt>
      <trkpt lat="48.40646" lon="2.71965">
        <ele>63.9</ele>
        <time>2013-04-14T14:10:45Z</time>
      </trkpt>
      <trkpt lat="48.40658" lon="2.71993">
        <ele>64</ele>
        <time>2013-04-14T14:10:58Z</time>
      </trkpt>
      <trkpt lat="48.40658" lon="2.71993">
        <ele>64</ele>
        <time>2013-04-14T14:11:00Z</time>
      </trkpt>
      <trkpt lat="48.40658" lon="2.71993">
        <ele>64</ele>
        <time>2013-04-14T14:11:02Z</time>
      </trkpt>
      <trkpt lat="48.40662" lon="2.71999">
        <ele>64</ele>
        <time>2013-04-14T14:11:05Z</time>
      </trkpt>
      <trkpt lat="48.40665" lon="2.72008">
        <ele>64</ele>
        <time>2013-04-14T14:11:11Z</time>
      </trkpt>
      <trkpt lat="48.40667" lon="2.72014">
        <ele>64</ele>
        <time>2013-04-14T14:11:19Z</time>
      </trkpt>
      <trkpt lat="48.40667" lon="2.72014">
        <ele>64</ele>
        <time>2013-04-14T14:11:24Z</time>
      </trkpt>
      <trkpt lat="48.40667" lon="2.72014">
        <ele>64</ele>
        <time>2013-04-14T14:11:26Z</time>
      </trkpt>
      <trkpt lat="48.40669" lon="2.72027">
        <ele>63.9</ele>
        <time>2013-04-14T14:11:29Z</time>
      </trkpt>
      <trkpt lat="48.4067" lon="2.72031">
        <ele>63.8</ele>
        <time>2013-04-14T14:11:31Z</time>
      </trkpt>
      <trkpt lat="48.4067" lon="2.72044">
        <ele>63.7</ele>
        <time>2013-04-14T14:11:40Z</time>
      </trkpt>
      <trkpt lat="48.4067" lon="2.72044">
        <ele>63.7</ele>
        <time>2013-04-14T14:11:43Z</time>
      </trkpt>
      <trkpt lat="48.4067" lon="2.72044">
        <ele>63.7</ele>
        <time>2013-04-14T14:11:45Z</time>
      </trkpt>
      <trkpt lat="48.4067" lon="2.72044">
        <ele>63.7</ele>
        <time>2013-04-14T14:11:53Z</time>
      </trkpt>
      <trkpt lat="48.40667" lon="2.72042">
        <ele>64</ele>
        <time>2013-04-14T14:11:58Z</time>
      </trkpt>
      <trkpt lat="48.40667" lon="2.72042">
        <ele>64</ele>
        <time>2013-04-14T14:12:04Z</time>
      </trkpt>
      <trkpt lat="48.40673" lon="2.72044">
        <ele>63.4</ele>
        <time>2013-04-14T14:12:09Z</time>
      </trkpt>
      <trkpt lat="48.40683" lon="2.72061">
        <ele>61.6</ele>
        <time>2013-04-14T14:12:14Z</time>
      </trkpt>
      <trkpt lat="48.40697" lon="2.72091">
        <ele>60.2</ele>
        <time>2013-04-14T14:12:29Z</time>
      </trkpt>
      <trkpt lat="48.40697" lon="2.72091">
        <ele>60.2</ele>
        <time>2013-04-14T14:12:32Z</time>
      </trkpt>
      <trkpt lat="48.40705" lon="2.72111">
        <ele>60.6</ele>
        <time>2013-04-14T14:12:36Z</time>
      </trkpt>
      <trkpt lat="48.4071" lon="2.72106">
        <ele>60.3</ele>
        <time>2013-04-14T14:12:44Z</time>
      </trkpt>
      <trkpt lat="48.40713" lon="2.721">
        <ele>59.9</ele>
        <time>2013-04-14T14:12:48Z</time>
      </trkpt>
      <trkpt lat="48.40714" lon="2.72091">
        <ele>59.6</ele>
        <time>2013-04-14T14:12:57Z</time>
      </trkpt>
      <trkpt lat="48.40714" lon="2.72091">
        <ele>59.6</ele>
        <time>2013-04-14T14:13:01Z</time>
      </trkpt>
      <trkpt lat="48.40714" lon="2.72091">
        <ele>59.6</ele>
        <time>2013-04-14T14:13:05Z</time>
      </trkpt>
      <trkpt lat="48.40714" lon="2.72091">
        <ele>59.6</ele>
        <time>2013-04-14T14:13:14Z</time>
      </trkpt>
      <trkpt lat="48.40734" lon="2.72078">
        <ele>58.8</ele>
        <time>2013-04-14T14:13:20Z</time>
      </trkpt>
      <trkpt lat="48.40737" lon="2.72076">
        <ele>58.7</ele>
        <time>2013-04-14T14:13:25Z</time>
      </trkpt>
      <trkpt lat="48.40745" lon="2.72072">
        <ele>58.6</ele>
        <time>2013-04-14T14:13:29Z</time>
      </trkpt>
      <trkpt lat="48.40745" lon="2.72072">
        <ele>58.6</ele>
        <time>2013-04-14T14:13:39Z</time>
      </trkpt>
      <trkpt lat="48.40745" lon="2.72072">
        <ele>58.6</ele>
        <time>2013-04-14T14:13:44Z</time>
      </trkpt>
      <trkpt lat="48.40766" lon="2.72059">
        <ele>58.1</ele>
        <time>2013-04-14T14:13:48Z</time>
      </trkpt>
      <trkpt lat="48.40766" lon="2.72059">
        <ele>58.1</ele>
        <time>2013-04-14T14:13:56Z</time>
      </trkpt>
      <trkpt lat="48.40766" lon="2.72059">
        <ele>58.1</ele>
        <time>2013-04-14T14:13:58Z</time>
      </trkpt>
      <trkpt lat="48.40766" lon="2.72059">
        <ele>58.1</ele>
        <time>2013-04-14T14:14:03Z</time>
      </trkpt>
      <trkpt lat="48.40784" lon="2.72042">
        <ele>58</ele>
        <time>2013-04-14T14:14:07Z</time>
      </trkpt>
      <trkpt lat="48.40789" lon="2.72036">
        <ele>58</ele>
        <time>2013-04-14T14:14:14Z</time>
      </trkpt>
      <trkpt lat="48.40789" lon="2.72036">
        <ele>58</ele>
        <time>2013-04-14T14:14:19Z</time>
      </trkpt>
      <trkpt lat="48.40789" lon="2.72036">
        <ele>58</ele>
        <time>2013-04-14T14:14:24Z</time>
      </trkpt>
      <trkpt lat="48.40814" lon="2.72012">
        <ele>58.3</ele>
        <time>2013-04-14T14:14:30Z</time>
      </trkpt>
      <trkpt lat="48.40814" lon="2.72012">
        <ele>58.3</ele>
        <time>2013-04-14T14:14:39Z</time>
      </trkpt>
      <trkpt lat="48.40814" lon="2.72012">
        <ele>58.3</ele>
        <time>2013-04-14T14:14:43Z</time>
      </trkpt>
      <trkpt lat="48.40841" lon="2.72012">
        <ele>59</ele>
        <time>2013-04-14T14:14:50Z</time>
      </trkpt>
      <trkpt lat="48.40841" lon="2.72012">
        <ele>59</ele>
        <time>2013-04-14T14:14:55Z</time>
      </trkpt>
      <trkpt lat="48.40841" lon="2.72012">
        <ele>59</ele>
        <time>2013-04-14T14:14:59Z</time>
      </trkpt>
      <trkpt lat="48.40864" lon="2.72038">
        <ele>58.9</ele>
        <time>2013-04-14T14:15:07Z</time>
      </trkpt>
      <trkpt lat="48.40864" lon="2.72038">
        <ele>58.9</ele>
        <time>2013-04-14T14:15:11Z</time>
      </trkpt>
      <trkpt lat="48.40864" lon="2.72038">
        <ele>58.9</ele>
        <time>2013-04-14T14:15:15Z</time>
      </trkpt>
      <trkpt lat="48.40884" lon="2.72066">
        <ele>58.1</ele>
        <time>2013-04-14T14:15:21Z</time>
      </trkpt>
      <trkpt lat="48.40893" lon="2.72081">
        <ele>58</ele>
        <time>2013-04-14T14:15:30Z</time>
      </trkpt>
      <trkpt lat="48.40893" lon="2.72081">
        <ele>58</ele>
        <time>2013-04-14T14:15:34Z</time>
      </trkpt>
      <trkpt lat="48.40893" lon="2.72081">
        <ele>58</ele>
        <time>2013-04-14T14:15:38Z</time>
      </trkpt>
      <trkpt lat="48.40893" lon="2.72081">
        <ele>58</ele>
        <time>2013-04-14T14:15:42Z</time>
      </trkpt>
      <trkpt lat="48.40907" lon="2.72109">
        <ele>58</ele>
        <time>2013-04-14T14:15:46Z</time>
      </trkpt>
      <trkpt lat="48.40909" lon="2.72124">
        <ele>58</ele>
        <time>2013-04-14T14:15:51Z</time>
      </trkpt>
      <trkpt lat="48.40911" lon="2.72132">
        <ele>58</ele>
        <time>2013-04-14T14:15:57Z</time>
      </trkpt>
      <trkpt lat="48.40911" lon="2.72132">
        <ele>58</ele>
        <time>2013-04-14T14:16:04Z</time>
      </trkpt>
      <trkpt lat="48.40911" lon="2.72132">
        <ele>58</ele>
        <time>2013-04-14T14:16:06Z</time>
      </trkpt>
      <trkpt lat="48.40913" lon="2.72134">
        <ele>58</ele>
        <time>2013-04-14T14:16:08Z</time>
      </trkpt>
      <trkpt lat="48.40913" lon="2.72134">
        <ele>58</ele>
        <time>2013-04-14T14:16:14Z</time>
      </trkpt>
      <trkpt lat="48.4093" lon="2.72175">
        <ele>58</ele>
        <time>2013-04-14T14:16:21Z</time>
      </trkpt>
      <trkpt lat="48.4093" lon="2.72175">
        <ele>58</ele>
        <time>2013-04-14T14:16:25Z</time>
      </trkpt>
      <trkpt lat="48.4093" lon="2.72175">
        <ele>58</ele>
        <time>2013-04-14T14:16:28Z</time>
      </trkpt>
      <trkpt lat="48.40936" lon="2.72201">
        <ele>57.8</ele>
        <time>2013-04-14T14:16:33Z</time>
      </trkpt>
      <trkpt lat="48.40936" lon="2.72201">
        <ele>57.8</ele>
        <time>2013-04-14T14:16:40Z</time>
      </trkpt>
      <trkpt lat="48.40936" lon="2.72201">
        <ele>57.8</ele>
        <time>2013-04-14T14:16:42Z</time>
      </trkpt>
      <trkpt lat="48.40945" lon="2.72222">
        <ele>57</ele>
        <time>2013-04-14T14:16:47Z</time>
      </trkpt>
      <trkpt lat="48.40945" lon="2.72222">
        <ele>57</ele>
        <time>2013-04-14T14:16:55Z</time>
      </trkpt>
      <trkpt lat="48.40945" lon="2.72222">
        <ele>57</ele>
        <time>2013-04-14T14:16:58Z</time>
      </trkpt>
      <trkpt lat="48.40945" lon="2.72222">
        <ele>57</ele>
        <time>2013-04-14T14:17:02Z</time>
      </trkpt>
      <trkpt lat="48.40965" lon="2.72246">
        <ele>57</ele>
        <time>2013-04-14T14:17:07Z</time>
      </trkpt>
      <trkpt lat="48.4097" lon="2.72252">
        <ele>57</ele>
        <time>2013-04-14T14:17:13Z</time>
      </trkpt>
      <trkpt lat="48.40978" lon="2.72257">
        <ele>57</ele>
        <time>2013-04-14T14:17:17Z</time>
      </trkpt>
      <trkpt lat="48.40989" lon="2.72265">
        <ele>57</ele>
        <time>2013-04-14T14:17:29Z</time>
      </trkpt>
      <trkpt lat="48.40989" lon="2.72265">
        <ele>57</ele>
        <time>2013-04-14T14:17:33Z</time>
      </trkpt>
      <trkpt lat="48.40989" lon="2.72265">
        <ele>57</ele>
        <time>2013-04-14T14:17:37Z</time>
      </trkpt>
      <trkpt lat="48.40989" lon="2.72265">
        <ele>57</ele>
        <time>2013-04-14T14:17:43Z</time>
      </trkpt>
      <trkpt lat="48.41004" lon="2.72282">
        <ele>56.8</ele>
        <time>2013-04-14T14:17:48Z</time>
      </trkpt>
      <trkpt lat="48.41008" lon="2.72289">
        <ele>56.6</ele>
        <time>2013-04-14T14:17:54Z</time>
      </trkpt>
      <trkpt lat="48.41012" lon="2.72291">
        <ele>56.5</ele>
        <time>2013-04-14T14:18:03Z</time>
      </trkpt>
      <trkpt lat="48.41012" lon="2.72291">
        <ele>56.5</ele>
        <time>2013-04-14T14:18:09Z</time>
      </trkpt>
      <trkpt lat="48.41012" lon="2.72291">
        <ele>56.5</ele>
        <time>2013-04-14T14:18:15Z</time>
      </trkpt>
      <trkpt lat="48.41043" lon="2.72302">
        <ele>56.1</ele>
        <time>2013-04-14T14:18:21Z</time>
      </trkpt>
      <trkpt lat="48.41043" lon="2.72302">
        <ele>56.1</ele>
        <time>2013-04-14T14:18:27Z</time>
      </trkpt>
      <trkpt lat="48.41068" lon="2.72321">
        <ele>56.6</ele>
        <time>2013-04-14T14:18:33Z</time>
      </trkpt>
      <trkpt lat="48.41079" lon="2.72334">
        <ele>56.8</ele>
        <time>2013-04-14T14:18:37Z</time>
      </trkpt>
      <trkpt lat="48.41087" lon="2.72347">
        <ele>57.1</ele>
        <time>2013-04-14T14:18:45Z</time>
      </trkpt>
      <trkpt lat="48.41095" lon="2.72351">
        <ele>57.4</ele>
        <time>2013-04-14T14:18:50Z</time>
      </trkpt>
      <trkpt lat="48.41102" lon="2.72362">
        <ele>57.7</ele>
        <time>2013-04-14T14:18:56Z</time>
      </trkpt>
      <trkpt lat="48.4111" lon="2.72372">
        <ele>57.6</ele>
        <time>2013-04-14T14:19:08Z</time>
      </trkpt>
      <trkpt lat="48.4111" lon="2.72372">
        <ele>57.6</ele>
        <time>2013-04-14T14:19:12Z</time>
      </trkpt>
      <trkpt lat="48.4111" lon="2.72372">
        <ele>57.6</ele>
        <time>2013-04-14T14:19:16Z</time>
      </trkpt>
      <trkpt lat="48.41125" lon="2.72398">
        <ele>57.8</ele>
        <time>2013-04-14T14:19:23Z</time>
      </trkpt>
      <trkpt lat="48.41127" lon="2.72403">
        <ele>57.9</ele>
        <time>2013-04-14T14:19:30Z</time>
      </trkpt>
      <trkpt lat="48.41131" lon="2.72411">
        <ele>57.9</ele>
        <time>2013-04-14T14:19:32Z</time>
      </trkpt>
      <trkpt lat="48.41134" lon="2.72413">
        <ele>57.9</ele>
        <time>2013-04-14T14:19:34Z</time>
      </trkpt>
      <trkpt lat="48.41134" lon="2.72413">
        <ele>57.9</ele>
        <time>2013-04-14T14:19:42Z</time>
      </trkpt>
      <trkpt lat="48.41153" lon="2.72441">
        <ele>56.8</ele>
        <time>2013-04-14T14:19:47Z</time>
      </trkpt>
      <trkpt lat="48.41161" lon="2.7245">
        <ele>56.8</ele>
        <time>2013-04-14T14:19:53Z</time>
      </trkpt>
      <trkpt lat="48.41167" lon="2.72463">
        <ele>57</ele>
        <time>2013-04-14T14:20:00Z</time>
      </trkpt>
      <trkpt lat="48.41167" lon="2.72465">
        <ele>57</ele>
        <time>2013-04-14T14:20:04Z</time>
      </trkpt>
      <trkpt lat="48.41167" lon="2.72465">
        <ele>57</ele>
        <time>2013-04-14T14:20:08Z</time>
      </trkpt>
      <trkpt lat="48.41167" lon="2.72465">
        <ele>57</ele>
        <time>2013-04-14T14:20:10Z</time>
      </trkpt>
      <trkpt lat="48.41167" lon="2.72465">
        <ele>57</ele>
        <time>2013-04-14T14:20:13Z</time>
      </trkpt>
      <trkpt lat="48.41183" lon="2.72495">
        <ele>56.7</ele>
        <time>2013-04-14T14:20:17Z</time>
      </trkpt>
      <trkpt lat="48.41193" lon="2.72503">
        <ele>56.8</ele>
        <time>2013-04-14T14:20:24Z</time>
      </trkpt>
      <trkpt lat="48.41196" lon="2.72508">
        <ele>56.8</ele>
        <time>2013-04-14T14:20:30Z</time>
      </trkpt>
      <trkpt lat="48.41196" lon="2.72508">
        <ele>56.8</ele>
        <time>2013-04-14T14:20:36Z</time>
      </trkpt>
      <trkpt lat="48.41196" lon="2.72508">
        <ele>56.8</ele>
        <time>2013-04-14T14:20:41Z</time>
      </trkpt>
      <trkpt lat="48.41227" lon="2.7254">
        <ele>57.4</ele>
        <time>2013-04-14T14:20:48Z</time>
      </trkpt>
      <trkpt lat="48.41227" lon="2.7254">
        <ele>57.4</ele>
        <time>2013-04-14T14:20:52Z</time>
      </trkpt>
      <trkpt lat="48.41227" lon="2.7254">
        <ele>57.4</ele>
        <time>2013-04-14T14:20:57Z</time>
      </trkpt>
      <trkpt lat="48.41241" lon="2.72561">
        <ele>57.5</ele>
        <time>2013-04-14T14:21:01Z</time>
      </trkpt>
      <trkpt lat="48.41241" lon="2.72561">
        <ele>57.5</ele>
        <time>2013-04-14T14:21:11Z</time>
      </trkpt>
      <trkpt lat="48.41241" lon="2.72561">
        <ele>57.5</ele>
        <time>2013-04-14T14:21:15Z</time>
      </trkpt>
      <trkpt lat="48.41253" lon="2.72553">
        <ele>59</ele>
        <time>2013-04-14T14:21:20Z</time>
      </trkpt>
      <trkpt lat="48.41259" lon="2.72548">
        <ele>60.5</ele>
        <time>2013-04-14T14:21:30Z</time>
      </trkpt>
      <trkpt lat="48.41259" lon="2.72548">
        <ele>60.5</ele>
        <time>2013-04-14T14:21:35Z</time>
      </trkpt>
      <trkpt lat="48.41274" lon="2.72531">
        <ele>61.3</ele>
        <time>2013-04-14T14:21:41Z</time>
      </trkpt>
      <trkpt lat="48.41282" lon="2.72527">
        <ele>61.5</ele>
        <time>2013-04-14T14:21:50Z</time>
      </trkpt>
      <trkpt lat="48.41292" lon="2.72527">
        <ele>62.5</ele>
        <time>2013-04-14T14:21:59Z</time>
      </trkpt>
      <trkpt lat="48.4131" lon="2.72531">
        <ele>65.5</ele>
        <time>2013-04-14T14:22:06Z</time>
      </trkpt>
      <trkpt lat="48.4131" lon="2.72531">
        <ele>65.5</ele>
        <time>2013-04-14T14:22:10Z</time>
      </trkpt>
      <trkpt lat="48.4131" lon="2.72531">
        <ele>65.5</ele>
        <time>2013-04-14T14:22:14Z</time>
      </trkpt>
      <trkpt lat="48.41329" lon="2.72531">
        <ele>66</ele>
        <time>2013-04-14T14:22:21Z</time>
      </trkpt>
      <trkpt lat="48.41334" lon="2.72531">
        <ele>66.2</ele>
        <time>2013-04-14T14:22:27Z</time>
      </trkpt>
      <trkpt lat="48.41343" lon="2.72529">
        <ele>65.8</ele>
        <time>2013-04-14T14:22:30Z</time>
      </trkpt>
      <trkpt lat="48.41348" lon="2.72529">
        <ele>65.9</ele>
        <time>2013-04-14T14:22:39Z</time>
      </trkpt>
      <trkpt lat="48.41348" lon="2.72529">
        <ele>65.9</ele>
        <time>2013-04-14T14:22:43Z</time>
      </trkpt>
      <trkpt lat="48.41366" lon="2.72529">
        <ele>66.5</ele>
        <time>2013-04-14T14:22:48Z</time>
      </trkpt>
      <trkpt lat="48.41386" lon="2.72529">
        <ele>67.2</ele>
        <time>2013-04-14T14:23:02Z</time>
      </trkpt>
      <trkpt lat="48.41389" lon="2.72533">
        <ele>68.1</ele>
        <time>2013-04-14T14:23:06Z</time>
      </trkpt>
      <trkpt lat="48.41396" lon="2.7254">
        <ele>69.7</ele>
        <time>2013-04-14T14:23:19Z</time>
      </trkpt>
      <trkpt lat="48.41418" lon="2.72533">
        <ele>68.8</ele>
        <time>2013-04-14T14:23:28Z</time>
      </trkpt>
      <trkpt lat="48.41429" lon="2.72536">
        <ele>69.8</ele>
        <time>2013-04-14T14:23:34Z</time>
      </trkpt>
      <trkpt lat="48.41447" lon="2.7254">
        <ele>71</ele>
        <time>2013-04-14T14:23:47Z</time>
      </trkpt>
      <trkpt lat="48.41455" lon="2.72538">
        <ele>71.3</ele>
        <time>2013-04-14T14:23:53Z</time>
      </trkpt>
      <trkpt lat="48.4146" lon="2.72538">
        <ele>71.5</ele>
        <time>2013-04-14T14:24:03Z</time>
      </trkpt>
      <trkpt lat="48.41481" lon="2.7254">
        <ele>72.8</ele>
        <time>2013-04-14T14:24:07Z</time>
      </trkpt>
      <trkpt lat="48.41491" lon="2.72538">
        <ele>73</ele>
        <time>2013-04-14T14:24:13Z</time>
      </trkpt>
      <trkpt lat="48.41491" lon="2.72538">
        <ele>73</ele>
        <time>2013-04-14T14:24:18Z</time>
      </trkpt>
      <trkpt lat="48.41497" lon="2.72536">
        <ele>73</ele>
        <time>2013-04-14T14:24:20Z</time>
      </trkpt>
      <trkpt lat="48.41497" lon="2.72536">
        <ele>73</ele>
        <time>2013-04-14T14:24:30Z</time>
      </trkpt>
      <trkpt lat="48.41499" lon="2.72536">
        <ele>73.1</ele>
        <time>2013-04-14T14:24:32Z</time>
      </trkpt>
      <trkpt lat="48.41499" lon="2.72536">
        <ele>73.1</ele>
        <time>2013-04-14T14:24:36Z</time>
      </trkpt>
      <trkpt lat="48.41528" lon="2.72544">
        <ele>75.8</ele>
        <time>2013-04-14T14:24:41Z</time>
      </trkpt>
      <trkpt lat="48.41544" lon="2.72548">
        <ele>76.5</ele>
        <time>2013-04-14T14:24:50Z</time>
      </trkpt>
      <trkpt lat="48.41544" lon="2.72548">
        <ele>76.5</ele>
        <time>2013-04-14T14:24:54Z</time>
      </trkpt>
      <trkpt lat="48.41544" lon="2.72548">
        <ele>76.5</ele>
        <time>2013-04-14T14:24:58Z</time>
      </trkpt>
      <trkpt lat="48.41544" lon="2.72548">
        <ele>76.5</ele>
        <time>2013-04-14T14:25:03Z</time>
      </trkpt>
      <trkpt lat="48.41566" lon="2.72568">
        <ele>76.8</ele>
        <time>2013-04-14T14:25:07Z</time>
      </trkpt>
      <trkpt lat="48.4157" lon="2.7257">
        <ele>76.8</ele>
        <time>2013-04-14T14:25:09Z</time>
      </trkpt>
      <trkpt lat="48.4157" lon="2.7257">
        <ele>76.8</ele>
        <time>2013-04-14T14:25:15Z</time>
      </trkpt>
      <trkpt lat="48.4161" lon="2.72585">
        <ele>77</ele>
        <time>2013-04-14T14:25:22Z</time>
      </trkpt>
      <trkpt lat="48.4161" lon="2.72585">
        <ele>77</ele>
        <time>2013-04-14T14:25:26Z</time>
      </trkpt>
      <trkpt lat="48.4161" lon="2.72585">
        <ele>77</ele>
        <time>2013-04-14T14:25:33Z</time>
      </trkpt>
      <trkpt lat="48.4161" lon="2.72585">
        <ele>77</ele>
        <time>2013-04-14T14:25:55Z</time>
      </trkpt>
      <trkpt lat="48.41625" lon="2.72621">
        <ele>77</ele>
        <time>2013-04-14T14:26:01Z</time>
      </trkpt>
      <trkpt lat="48.41625" lon="2.72621">
        <ele>77</ele>
        <time>2013-04-14T14:26:08Z</time>
      </trkpt>
      <trkpt lat="48.41625" lon="2.72622">
        <ele>77</ele>
        <time>2013-04-14T14:26:08Z</time>
      </trkpt>
      <trkpt lat="48.41625" lon="2.72621">
        <ele>77</ele>
        <time>2013-04-14T14:26:24Z</time>
      </trkpt>
      <trkpt lat="48.41642" lon="2.72636">
        <ele>77</ele>
        <time>2013-04-14T14:26:29Z</time>
      </trkpt>
      <trkpt lat="48.4167" lon="2.72636">
        <ele>77.2</ele>
        <time>2013-04-14T14:26:38Z</time>
      </trkpt>
      <trkpt lat="48.41691" lon="2.72636">
        <ele>78.1</ele>
        <time>2013-04-14T14:26:49Z</time>
      </trkpt>
      <trkpt lat="48.41691" lon="2.72636">
        <ele>78.1</ele>
        <time>2013-04-14T14:26:54Z</time>
      </trkpt>
      <trkpt lat="48.41691" lon="2.72636">
        <ele>78.1</ele>
        <time>2013-04-14T14:26:58Z</time>
      </trkpt>
      <trkpt lat="48.41701" lon="2.72628">
        <ele>80.1</ele>
        <time>2013-04-14T14:27:02Z</time>
      </trkpt>
      <trkpt lat="48.41701" lon="2.72628">
        <ele>80.1</ele>
        <time>2013-04-14T14:27:09Z</time>
      </trkpt>
      <trkpt lat="48.41701" lon="2.72628">
        <ele>80.1</ele>
        <time>2013-04-14T14:27:13Z</time>
      </trkpt>
      <trkpt lat="48.41709" lon="2.72626">
        <ele>81.8</ele>
        <time>2013-04-14T14:27:17Z</time>
      </trkpt>
      <trkpt lat="48.41712" lon="2.72628">
        <ele>82.3</ele>
        <time>2013-04-14T14:27:23Z</time>
      </trkpt>
      <trkpt lat="48.41712" lon="2.72628">
        <ele>82.3</ele>
        <time>2013-04-14T14:27:29Z</time>
      </trkpt>
      <trkpt lat="48.41712" lon="2.72628">
        <ele>82.3</ele>
        <time>2013-04-14T14:27:33Z</time>
      </trkpt>
      <trkpt lat="48.41712" lon="2.72628">
        <ele>82.3</ele>
        <time>2013-04-14T14:27:43Z</time>
      </trkpt>
      <trkpt lat="48.41722" lon="2.72647">
        <ele>84</ele>
        <time>2013-04-14T14:27:47Z</time>
      </trkpt>
      <trkpt lat="48.41722" lon="2.72647">
        <ele>84</ele>
        <time>2013-04-14T14:27:54Z</time>
      </trkpt>
      <trkpt lat="48.41722" lon="2.72647">
        <ele>84</ele>
        <time>2013-04-14T14:27:58Z</time>
      </trkpt>
      <trkpt lat="48.41727" lon="2.72666">
        <ele>84.2</ele>
        <time>2013-04-14T14:28:01Z</time>
      </trkpt>
      <trkpt lat="48.41729" lon="2.72671">
        <ele>83.5</ele>
        <time>2013-04-14T14:28:09Z</time>
      </trkpt>
      <trkpt lat="48.41729" lon="2.72671">
        <ele>83.5</ele>
        <time>2013-04-14T14:28:13Z</time>
      </trkpt>
      <trkpt lat="48.41729" lon="2.72671">
        <ele>83.5</ele>
        <time>2013-04-14T14:28:16Z</time>
      </trkpt>
      <trkpt lat="48.41729" lon="2.72671">
        <ele>83.5</ele>
        <time>2013-04-14T14:28:18Z</time>
      </trkpt>
      <trkpt lat="48.41741" lon="2.72681">
        <ele>83.3</ele>
        <time>2013-04-14T14:28:23Z</time>
      </trkpt>
      <trkpt lat="48.41753" lon="2.72688">
        <ele>84.1</ele>
        <time>2013-04-14T14:28:34Z</time>
      </trkpt>
      <trkpt lat="48.41753" lon="2.72688">
        <ele>84.1</ele>
        <time>2013-04-14T14:28:38Z</time>
      </trkpt>
      <trkpt lat="48.41753" lon="2.72688">
        <ele>84.1</ele>
        <time>2013-04-14T14:28:43Z</time>
      </trkpt>
      <trkpt lat="48.41767" lon="2.72692">
        <ele>83.5</ele>
        <time>2013-04-14T14:28:48Z</time>
      </trkpt>
      <trkpt lat="48.41772" lon="2.72692">
        <ele>83.4</ele>
        <time>2013-04-14T14:28:50Z</time>
      </trkpt>
      <trkpt lat="48.41772" lon="2.72692">
        <ele>83.4</ele>
        <time>2013-04-14T14:28:57Z</time>
      </trkpt>
      <trkpt lat="48.41772" lon="2.72692">
        <ele>83.4</ele>
        <time>2013-04-14T14:28:59Z</time>
      </trkpt>
      <trkpt lat="48.41772" lon="2.72692">
        <ele>83.4</ele>
        <time>2013-04-14T14:29:01Z</time>
      </trkpt>
      <trkpt lat="48.41786" lon="2.72696">
        <ele>83.6</ele>
        <time>2013-04-14T14:29:05Z</time>
      </trkpt>
      <trkpt lat="48.4179" lon="2.72699">
        <ele>83.5</ele>
        <time>2013-04-14T14:29:13Z</time>
      </trkpt>
      <trkpt lat="48.41794" lon="2.72703">
        <ele>83.2</ele>
        <time>2013-04-14T14:29:16Z</time>
      </trkpt>
      <trkpt lat="48.41801" lon="2.72707">
        <ele>83.2</ele>
        <time>2013-04-14T14:29:24Z</time>
      </trkpt>
      <trkpt lat="48.41801" lon="2.72707">
        <ele>83.2</ele>
        <time>2013-04-14T14:29:28Z</time>
      </trkpt>
      <trkpt lat="48.41801" lon="2.72707">
        <ele>83.2</ele>
        <time>2013-04-14T14:29:32Z</time>
      </trkpt>
      <trkpt lat="48.41814" lon="2.72716">
        <ele>83.7</ele>
        <time>2013-04-14T14:29:35Z</time>
      </trkpt>
      <trkpt lat="48.41816" lon="2.72718">
        <ele>83.8</ele>
        <time>2013-04-14T14:29:43Z</time>
      </trkpt>
      <trkpt lat="48.41816" lon="2.72718">
        <ele>83.8</ele>
        <time>2013-04-14T14:29:49Z</time>
      </trkpt>
      <trkpt lat="48.41844" lon="2.72731">
        <ele>86.2</ele>
        <time>2013-04-14T14:29:55Z</time>
      </trkpt>
      <trkpt lat="48.41855" lon="2.72737">
        <ele>86.4</ele>
        <time>2013-04-14T14:30:02Z</time>
      </trkpt>
      <trkpt lat="48.41862" lon="2.72746">
        <ele>85.9</ele>
        <time>2013-04-14T14:30:08Z</time>
      </trkpt>
      <trkpt lat="48.41871" lon="2.7275">
        <ele>87.1</ele>
        <time>2013-04-14T14:30:15Z</time>
      </trkpt>
      <trkpt lat="48.41881" lon="2.72757">
        <ele>87.4</ele>
        <time>2013-04-14T14:30:27Z</time>
      </trkpt>
      <trkpt lat="48.41892" lon="2.72763">
        <ele>87.9</ele>
        <time>2013-04-14T14:30:31Z</time>
      </trkpt>
      <trkpt lat="48.41904" lon="2.72769">
        <ele>89</ele>
        <time>2013-04-14T14:30:39Z</time>
      </trkpt>
      <trkpt lat="48.41931" lon="2.72787">
        <ele>88.6</ele>
        <time>2013-04-14T14:30:55Z</time>
      </trkpt>
      <trkpt lat="48.41943" lon="2.72797">
        <ele>88.7</ele>
        <time>2013-04-14T14:31:06Z</time>
      </trkpt>
      <trkpt lat="48.41949" lon="2.72799">
        <ele>88.5</ele>
        <time>2013-04-14T14:31:09Z</time>
      </trkpt>
      <trkpt lat="48.41949" lon="2.72799">
        <ele>88.5</ele>
        <time>2013-04-14T14:31:17Z</time>
      </trkpt>
      <trkpt lat="48.41968" lon="2.72821">
        <ele>86</ele>
        <time>2013-04-14T14:31:21Z</time>
      </trkpt>
      <trkpt lat="48.41975" lon="2.72825">
        <ele>86.3</ele>
        <time>2013-04-14T14:31:28Z</time>
      </trkpt>
      <trkpt lat="48.41975" lon="2.72825">
        <ele>86.3</ele>
        <time>2013-04-14T14:31:32Z</time>
      </trkpt>
      <trkpt lat="48.4198" lon="2.7283">
        <ele>86.1</ele>
        <time>2013-04-14T14:31:34Z</time>
      </trkpt>
      <trkpt lat="48.41988" lon="2.72836">
        <ele>85.7</ele>
        <time>2013-04-14T14:31:42Z</time>
      </trkpt>
      <trkpt lat="48.41988" lon="2.72836">
        <ele>85.7</ele>
        <time>2013-04-14T14:31:46Z</time>
      </trkpt>
      <trkpt lat="48.41996" lon="2.7284">
        <ele>85.6</ele>
        <time>2013-04-14T14:31:51Z</time>
      </trkpt>
      <trkpt lat="48.42007" lon="2.72849">
        <ele>85.2</ele>
        <time>2013-04-14T14:31:55Z</time>
      </trkpt>
      <trkpt lat="48.4201" lon="2.72857">
        <ele>84.8</ele>
        <time>2013-04-14T14:31:59Z</time>
      </trkpt>
      <trkpt lat="48.42011" lon="2.7286">
        <ele>84.6</ele>
        <time>2013-04-14T14:32:05Z</time>
      </trkpt>
      <trkpt lat="48.42011" lon="2.7286">
        <ele>84.6</ele>
        <time>2013-04-14T14:32:09Z</time>
      </trkpt>
      <trkpt lat="48.42024" lon="2.72877">
        <ele>83.2</ele>
        <time>2013-04-14T14:32:14Z</time>
      </trkpt>
      <trkpt lat="48.42031" lon="2.72892">
        <ele>82.6</ele>
        <time>2013-04-14T14:32:21Z</time>
      </trkpt>
      <trkpt lat="48.42031" lon="2.72892">
        <ele>82.6</ele>
        <time>2013-04-14T14:32:26Z</time>
      </trkpt>
      <trkpt lat="48.42037" lon="2.72905">
        <ele>81.3</ele>
        <time>2013-04-14T14:32:31Z</time>
      </trkpt>
      <trkpt lat="48.42044" lon="2.72913">
        <ele>81</ele>
        <time>2013-04-14T14:32:35Z</time>
      </trkpt>
      <trkpt lat="48.42059" lon="2.7293">
        <ele>80.6</ele>
        <time>2013-04-14T14:32:47Z</time>
      </trkpt>
      <trkpt lat="48.42073" lon="2.72948">
        <ele>79.5</ele>
        <time>2013-04-14T14:33:02Z</time>
      </trkpt>
      <trkpt lat="48.42073" lon="2.72948">
        <ele>79.5</ele>
        <time>2013-04-14T14:33:07Z</time>
      </trkpt>
      <trkpt lat="48.42083" lon="2.72958">
        <ele>79.5</ele>
        <time>2013-04-14T14:33:11Z</time>
      </trkpt>
      <trkpt lat="48.42103" lon="2.7298">
        <ele>79.5</ele>
        <time>2013-04-14T14:33:27Z</time>
      </trkpt>
      <trkpt lat="48.42112" lon="2.72988">
        <ele>79.5</ele>
        <time>2013-04-14T14:33:39Z</time>
      </trkpt>
      <trkpt lat="48.42112" lon="2.72988">
        <ele>79.5</ele>
        <time>2013-04-14T14:33:44Z</time>
      </trkpt>
      <trkpt lat="48.42137" lon="2.7301">
        <ele>79.6</ele>
        <time>2013-04-14T14:33:50Z</time>
      </trkpt>
      <trkpt lat="48.42137" lon="2.7301">
        <ele>79.6</ele>
        <time>2013-04-14T14:33:55Z</time>
      </trkpt>
      <trkpt lat="48.42154" lon="2.73029">
        <ele>79</ele>
        <time>2013-04-14T14:33:59Z</time>
      </trkpt>
      <trkpt lat="48.42154" lon="2.73029">
        <ele>79</ele>
        <time>2013-04-14T14:34:07Z</time>
      </trkpt>
      <trkpt lat="48.42161" lon="2.7304">
        <ele>79</ele>
        <time>2013-04-14T14:34:11Z</time>
      </trkpt>
      <trkpt lat="48.42174" lon="2.73057">
        <ele>79.3</ele>
        <time>2013-04-14T14:34:22Z</time>
      </trkpt>
      <trkpt lat="48.42179" lon="2.7307">
        <ele>79.4</ele>
        <time>2013-04-14T14:34:27Z</time>
      </trkpt>
      <trkpt lat="48.42179" lon="2.7307">
        <ele>79.4</ele>
        <time>2013-04-14T14:34:33Z</time>
      </trkpt>
      <trkpt lat="48.42179" lon="2.7307">
        <ele>79.4</ele>
        <time>2013-04-14T14:34:35Z</time>
      </trkpt>
      <trkpt lat="48.42194" lon="2.73083">
        <ele>80</ele>
        <time>2013-04-14T14:34:40Z</time>
      </trkpt>
      <trkpt lat="48.42195" lon="2.73085">
        <ele>80</ele>
        <time>2013-04-14T14:34:46Z</time>
      </trkpt>
      <trkpt lat="48.42201" lon="2.73091">
        <ele>80</ele>
        <time>2013-04-14T14:34:49Z</time>
      </trkpt>
      <trkpt lat="48.42203" lon="2.73096">
        <ele>79.9</ele>
        <time>2013-04-14T14:34:51Z</time>
      </trkpt>
      <trkpt lat="48.42205" lon="2.73102">
        <ele>79.7</ele>
        <time>2013-04-14T14:34:59Z</time>
      </trkpt>
      <trkpt lat="48.42224" lon="2.73115">
        <ele>79.9</ele>
        <time>2013-04-14T14:35:06Z</time>
      </trkpt>
      <trkpt lat="48.42224" lon="2.73115">
        <ele>79.9</ele>
        <time>2013-04-14T14:35:10Z</time>
      </trkpt>
      <trkpt lat="48.42224" lon="2.73115">
        <ele>79.9</ele>
        <time>2013-04-14T14:35:15Z</time>
      </trkpt>
      <trkpt lat="48.4224" lon="2.7313">
        <ele>80</ele>
        <time>2013-04-14T14:35:19Z</time>
      </trkpt>
      <trkpt lat="48.42248" lon="2.73136">
        <ele>80</ele>
        <time>2013-04-14T14:35:23Z</time>
      </trkpt>
      <trkpt lat="48.42262" lon="2.73147">
        <ele>79.9</ele>
        <time>2013-04-14T14:35:32Z</time>
      </trkpt>
      <trkpt lat="48.42269" lon="2.73151">
        <ele>79.7</ele>
        <time>2013-04-14T14:35:34Z</time>
      </trkpt>
      <trkpt lat="48.42292" lon="2.73162">
        <ele>79.1</ele>
        <time>2013-04-14T14:35:45Z</time>
      </trkpt>
      <trkpt lat="48.42292" lon="2.73162">
        <ele>79.1</ele>
        <time>2013-04-14T14:35:49Z</time>
      </trkpt>
      <trkpt lat="48.42305" lon="2.73169">
        <ele>78.9</ele>
        <time>2013-04-14T14:35:53Z</time>
      </trkpt>
      <trkpt lat="48.42309" lon="2.73175">
        <ele>78.7</ele>
        <time>2013-04-14T14:35:57Z</time>
      </trkpt>
      <trkpt lat="48.42314" lon="2.73179">
        <ele>78.6</ele>
        <time>2013-04-14T14:36:04Z</time>
      </trkpt>
      <trkpt lat="48.42318" lon="2.73186">
        <ele>78.3</ele>
        <time>2013-04-14T14:36:16Z</time>
      </trkpt>
      <trkpt lat="48.42327" lon="2.73199">
        <ele>77.9</ele>
        <time>2013-04-14T14:36:20Z</time>
      </trkpt>
      <trkpt lat="48.42332" lon="2.73203">
        <ele>77.7</ele>
        <time>2013-04-14T14:36:27Z</time>
      </trkpt>
      <trkpt lat="48.42338" lon="2.73211">
        <ele>77.6</ele>
        <time>2013-04-14T14:36:41Z</time>
      </trkpt>
      <trkpt lat="48.42347" lon="2.7322">
        <ele>77.6</ele>
        <time>2013-04-14T14:36:44Z</time>
      </trkpt>
      <trkpt lat="48.42357" lon="2.73229">
        <ele>77.7</ele>
        <time>2013-04-14T14:36:53Z</time>
      </trkpt>
      <trkpt lat="48.42365" lon="2.73244">
        <ele>77.2</ele>
        <time>2013-04-14T14:36:57Z</time>
      </trkpt>
      <trkpt lat="48.42383" lon="2.73265">
        <ele>76.7</ele>
        <time>2013-04-14T14:37:07Z</time>
      </trkpt>
      <trkpt lat="48.42394" lon="2.73274">
        <ele>76.3</ele>
        <time>2013-04-14T14:37:16Z</time>
      </trkpt>
      <trkpt lat="48.42394" lon="2.73274">
        <ele>76.3</ele>
        <time>2013-04-14T14:37:20Z</time>
      </trkpt>
      <trkpt lat="48.42402" lon="2.73282">
        <ele>76.6</ele>
        <time>2013-04-14T14:37:24Z</time>
      </trkpt>
      <trkpt lat="48.42404" lon="2.73284">
        <ele>76.7</ele>
        <time>2013-04-14T14:37:31Z</time>
      </trkpt>
      <trkpt lat="48.42404" lon="2.73284">
        <ele>76.7</ele>
        <time>2013-04-14T14:37:35Z</time>
      </trkpt>
      <trkpt lat="48.42414" lon="2.73306">
        <ele>76.3</ele>
        <time>2013-04-14T14:37:39Z</time>
      </trkpt>
      <trkpt lat="48.42416" lon="2.7331">
        <ele>76.1</ele>
        <time>2013-04-14T14:37:47Z</time>
      </trkpt>
      <trkpt lat="48.42416" lon="2.7331">
        <ele>76.1</ele>
        <time>2013-04-14T14:37:51Z</time>
      </trkpt>
      <trkpt lat="48.42416" lon="2.7331">
        <ele>76.1</ele>
        <time>2013-04-14T14:37:56Z</time>
      </trkpt>
      <trkpt lat="48.42416" lon="2.7331">
        <ele>76.1</ele>
        <time>2013-04-14T14:38:01Z</time>
      </trkpt>
      <trkpt lat="48.42395" lon="2.73355">
        <ele>76.3</ele>
        <time>2013-04-14T14:38:08Z</time>
      </trkpt>
      <trkpt lat="48.42385" lon="2.73379">
        <ele>73.2</ele>
        <time>2013-04-14T14:38:17Z</time>
      </trkpt>
      <trkpt lat="48.42383" lon="2.73381">
        <ele>73.1</ele>
        <time>2013-04-14T14:38:21Z</time>
      </trkpt>
      <trkpt lat="48.42383" lon="2.73381">
        <ele>73.1</ele>
        <time>2013-04-14T14:38:26Z</time>
      </trkpt>
      <trkpt lat="48.42383" lon="2.73381">
        <ele>73.1</ele>
        <time>2013-04-14T14:38:29Z</time>
      </trkpt>
      <trkpt lat="48.42383" lon="2.73381">
        <ele>73.1</ele>
        <time>2013-04-14T14:38:33Z</time>
      </trkpt>
      <trkpt lat="48.4238" lon="2.73383">
        <ele>72.9</ele>
        <time>2013-04-14T14:38:35Z</time>
      </trkpt>
      <trkpt lat="48.42373" lon="2.73402">
        <ele>71.8</ele>
        <time>2013-04-14T14:38:45Z</time>
      </trkpt>
      <trkpt lat="48.4237" lon="2.73447">
        <ele>70.3</ele>
        <time>2013-04-14T14:39:00Z</time>
      </trkpt>
      <trkpt lat="48.42371" lon="2.73452">
        <ele>70.3</ele>
        <time>2013-04-14T14:39:06Z</time>
      </trkpt>
      <trkpt lat="48.42371" lon="2.73452">
        <ele>70.3</ele>
        <time>2013-04-14T14:39:13Z</time>
      </trkpt>
      <trkpt lat="48.4239" lon="2.73473">
        <ele>70.1</ele>
        <time>2013-04-14T14:39:17Z</time>
      </trkpt>
      <trkpt lat="48.42391" lon="2.73478">
        <ele>70.1</ele>
        <time>2013-04-14T14:39:24Z</time>
      </trkpt>
      <trkpt lat="48.42391" lon="2.73478">
        <ele>70.1</ele>
        <time>2013-04-14T14:39:28Z</time>
      </trkpt>
      <trkpt lat="48.42391" lon="2.73478">
        <ele>70.1</ele>
        <time>2013-04-14T14:39:31Z</time>
      </trkpt>
      <trkpt lat="48.42391" lon="2.73478">
        <ele>70.1</ele>
        <time>2013-04-14T14:39:33Z</time>
      </trkpt>
      <trkpt lat="48.42403" lon="2.7349">
        <ele>70.7</ele>
        <time>2013-04-14T14:39:37Z</time>
      </trkpt>
      <trkpt lat="48.42408" lon="2.73497">
        <ele>70.8</ele>
        <time>2013-04-14T14:39:45Z</time>
      </trkpt>
      <trkpt lat="48.42408" lon="2.73497">
        <ele>70.8</ele>
        <time>2013-04-14T14:39:50Z</time>
      </trkpt>
      <trkpt lat="48.4241" lon="2.73499">
        <ele>70.8</ele>
        <time>2013-04-14T14:39:52Z</time>
      </trkpt>
      <trkpt lat="48.4241" lon="2.73499">
        <ele>70.8</ele>
        <time>2013-04-14T14:40:02Z</time>
      </trkpt>
      <trkpt lat="48.4241" lon="2.73499">
        <ele>70.8</ele>
        <time>2013-04-14T14:40:08Z</time>
      </trkpt>
      <trkpt lat="48.42415" lon="2.73501">
        <ele>70.9</ele>
        <time>2013-04-14T14:40:11Z</time>
      </trkpt>
      <trkpt lat="48.42416" lon="2.73501">
        <ele>71</ele>
        <time>2013-04-14T14:40:13Z</time>
      </trkpt>
      <trkpt lat="48.42424" lon="2.73508">
        <ele>71.3</ele>
        <time>2013-04-14T14:40:23Z</time>
      </trkpt>
      <trkpt lat="48.42429" lon="2.73516">
        <ele>71.7</ele>
        <time>2013-04-14T14:40:30Z</time>
      </trkpt>
      <trkpt lat="48.42429" lon="2.73516">
        <ele>71.7</ele>
        <time>2013-04-14T14:40:34Z</time>
      </trkpt>
      <trkpt lat="48.42429" lon="2.73516">
        <ele>71.7</ele>
        <time>2013-04-14T14:40:36Z</time>
      </trkpt>
      <trkpt lat="48.42429" lon="2.73516">
        <ele>71.7</ele>
        <time>2013-04-14T14:40:38Z</time>
      </trkpt>
      <trkpt lat="48.42434" lon="2.73527">
        <ele>72.2</ele>
        <time>2013-04-14T14:40:41Z</time>
      </trkpt>
      <trkpt lat="48.42439" lon="2.73535">
        <ele>72.6</ele>
        <time>2013-04-14T14:40:53Z</time>
      </trkpt>
      <trkpt lat="48.42439" lon="2.73535">
        <ele>72.6</ele>
        <time>2013-04-14T14:40:55Z</time>
      </trkpt>
      <trkpt lat="48.42446" lon="2.73546">
        <ele>73.1</ele>
        <time>2013-04-14T14:41:00Z</time>
      </trkpt>
      <trkpt lat="48.42446" lon="2.73546">
        <ele>73.1</ele>
        <time>2013-04-14T14:41:06Z</time>
      </trkpt>
      <trkpt lat="48.4246" lon="2.73561">
        <ele>73.6</ele>
        <time>2013-04-14T14:41:11Z</time>
      </trkpt>
      <trkpt lat="48.4247" lon="2.7357">
        <ele>73.9</ele>
        <time>2013-04-14T14:41:21Z</time>
      </trkpt>
      <trkpt lat="48.42479" lon="2.73578">
        <ele>74.3</ele>
        <time>2013-04-14T14:41:25Z</time>
      </trkpt>
      <trkpt lat="48.42493" lon="2.73598">
        <ele>74.7</ele>
        <time>2013-04-14T14:41:33Z</time>
      </trkpt>
      <trkpt lat="48.42493" lon="2.73598">
        <ele>74.7</ele>
        <time>2013-04-14T14:41:37Z</time>
      </trkpt>
      <trkpt lat="48.42493" lon="2.73598">
        <ele>74.7</ele>
        <time>2013-04-14T14:41:41Z</time>
      </trkpt>
      <trkpt lat="48.42507" lon="2.73617">
        <ele>75</ele>
        <time>2013-04-14T14:41:47Z</time>
      </trkpt>
      <trkpt lat="48.42515" lon="2.73623">
        <ele>75.1</ele>
        <time>2013-04-14T14:41:49Z</time>
      </trkpt>
      <trkpt lat="48.42527" lon="2.73636">
        <ele>75.1</ele>
        <time>2013-04-14T14:41:59Z</time>
      </trkpt>
      <trkpt lat="48.42527" lon="2.73636">
        <ele>75.1</ele>
        <time>2013-04-14T14:42:04Z</time>
      </trkpt>
      <trkpt lat="48.42535" lon="2.73645">
        <ele>74.8</ele>
        <time>2013-04-14T14:42:08Z</time>
      </trkpt>
      <trkpt lat="48.42536" lon="2.73647">
        <ele>74.7</ele>
        <time>2013-04-14T14:42:10Z</time>
      </trkpt>
      <trkpt lat="48.42545" lon="2.73666">
        <ele>74</ele>
        <time>2013-04-14T14:42:22Z</time>
      </trkpt>
      <trkpt lat="48.42551" lon="2.73675">
        <ele>73.7</ele>
        <time>2013-04-14T14:42:24Z</time>
      </trkpt>
      <trkpt lat="48.42555" lon="2.73688">
        <ele>73.2</ele>
        <time>2013-04-14T14:42:32Z</time>
      </trkpt>
      <trkpt lat="48.42557" lon="2.73694">
        <ele>73.1</ele>
        <time>2013-04-14T14:42:40Z</time>
      </trkpt>
      <trkpt lat="48.42557" lon="2.73694">
        <ele>73.1</ele>
        <time>2013-04-14T14:42:44Z</time>
      </trkpt>
      <trkpt lat="48.42565" lon="2.73718">
        <ele>71.9</ele>
        <time>2013-04-14T14:42:49Z</time>
      </trkpt>
      <trkpt lat="48.42569" lon="2.73731">
        <ele>71.5</ele>
        <time>2013-04-14T14:42:51Z</time>
      </trkpt>
      <trkpt lat="48.42571" lon="2.73737">
        <ele>71.3</ele>
        <time>2013-04-14T14:42:58Z</time>
      </trkpt>
      <trkpt lat="48.42571" lon="2.73737">
        <ele>71.3</ele>
        <time>2013-04-14T14:43:02Z</time>
      </trkpt>
      <trkpt lat="48.42571" lon="2.73737">
        <ele>71.3</ele>
        <time>2013-04-14T14:43:04Z</time>
      </trkpt>
      <trkpt lat="48.42579" lon="2.73754">
        <ele>70.7</ele>
        <time>2013-04-14T14:43:08Z</time>
      </trkpt>
      <trkpt lat="48.42582" lon="2.73767">
        <ele>70.3</ele>
        <time>2013-04-14T14:43:13Z</time>
      </trkpt>
      <trkpt lat="48.42584" lon="2.73776">
        <ele>70.1</ele>
        <time>2013-04-14T14:43:20Z</time>
      </trkpt>
      <trkpt lat="48.42587" lon="2.73789">
        <ele>69.9</ele>
        <time>2013-04-14T14:43:25Z</time>
      </trkpt>
      <trkpt lat="48.42592" lon="2.73806">
        <ele>69.6</ele>
        <time>2013-04-14T14:43:36Z</time>
      </trkpt>
      <trkpt lat="48.42592" lon="2.73806">
        <ele>69.6</ele>
        <time>2013-04-14T14:43:39Z</time>
      </trkpt>
      <trkpt lat="48.42592" lon="2.73806">
        <ele>69.6</ele>
        <time>2013-04-14T14:43:41Z</time>
      </trkpt>
      <trkpt lat="48.42599" lon="2.73838">
        <ele>69</ele>
        <time>2013-04-14T14:43:45Z</time>
      </trkpt>
      <trkpt lat="48.42607" lon="2.73859">
        <ele>68.8</ele>
        <time>2013-04-14T14:43:56Z</time>
      </trkpt>
      <trkpt lat="48.42607" lon="2.73859">
        <ele>68.8</ele>
        <time>2013-04-14T14:43:58Z</time>
      </trkpt>
      <trkpt lat="48.4261" lon="2.73868">
        <ele>68.9</ele>
        <time>2013-04-14T14:44:01Z</time>
      </trkpt>
      <trkpt lat="48.42614" lon="2.73881">
        <ele>69.2</ele>
        <time>2013-04-14T14:44:13Z</time>
      </trkpt>
      <trkpt lat="48.42614" lon="2.73898">
        <ele>68.9</ele>
        <time>2013-04-14T14:44:17Z</time>
      </trkpt>
      <trkpt lat="48.42615" lon="2.73915">
        <ele>68.5</ele>
        <time>2013-04-14T14:44:25Z</time>
      </trkpt>
      <trkpt lat="48.42615" lon="2.73915">
        <ele>68.5</ele>
        <time>2013-04-14T14:44:29Z</time>
      </trkpt>
      <trkpt lat="48.42618" lon="2.73932">
        <ele>69.2</ele>
        <time>2013-04-14T14:44:34Z</time>
      </trkpt>
      <trkpt lat="48.42623" lon="2.73956">
        <ele>69.9</ele>
        <time>2013-04-14T14:44:50Z</time>
      </trkpt>
      <trkpt lat="48.42622" lon="2.73973">
        <ele>69.8</ele>
        <time>2013-04-14T14:44:54Z</time>
      </trkpt>
      <trkpt lat="48.42622" lon="2.73997">
        <ele>69.8</ele>
        <time>2013-04-14T14:45:04Z</time>
      </trkpt>
      <trkpt lat="48.42622" lon="2.73997">
        <ele>69.8</ele>
        <time>2013-04-14T14:45:06Z</time>
      </trkpt>
      <trkpt lat="48.42622" lon="2.73997">
        <ele>69.8</ele>
        <time>2013-04-14T14:45:08Z</time>
      </trkpt>
      <trkpt lat="48.42625" lon="2.74012">
        <ele>69.6</ele>
        <time>2013-04-14T14:45:12Z</time>
      </trkpt>
      <trkpt lat="48.42625" lon="2.74012">
        <ele>69.6</ele>
        <time>2013-04-14T14:45:20Z</time>
      </trkpt>
      <trkpt lat="48.42625" lon="2.74012">
        <ele>69.6</ele>
        <time>2013-04-14T14:45:22Z</time>
      </trkpt>
      <trkpt lat="48.42635" lon="2.74057">
        <ele>69.7</ele>
        <time>2013-04-14T14:45:28Z</time>
      </trkpt>
      <trkpt lat="48.42637" lon="2.74072">
        <ele>69.3</ele>
        <time>2013-04-14T14:45:34Z</time>
      </trkpt>
      <trkpt lat="48.42643" lon="2.74098">
        <ele>68.8</ele>
        <time>2013-04-14T14:45:48Z</time>
      </trkpt>
      <trkpt lat="48.42645" lon="2.74113">
        <ele>68.4</ele>
        <time>2013-04-14T14:45:51Z</time>
      </trkpt>
      <trkpt lat="48.42651" lon="2.74123">
        <ele>68.7</ele>
        <time>2013-04-14T14:45:58Z</time>
      </trkpt>
      <trkpt lat="48.42652" lon="2.74128">
        <ele>68.7</ele>
        <time>2013-04-14T14:46:03Z</time>
      </trkpt>
      <trkpt lat="48.42656" lon="2.74132">
        <ele>68.8</ele>
        <time>2013-04-14T14:46:05Z</time>
      </trkpt>
      <trkpt lat="48.42661" lon="2.74143">
        <ele>68.6</ele>
        <time>2013-04-14T14:46:13Z</time>
      </trkpt>
      <trkpt lat="48.42673" lon="2.7416">
        <ele>68.6</ele>
        <time>2013-04-14T14:46:27Z</time>
      </trkpt>
      <trkpt lat="48.42677" lon="2.74166">
        <ele>68.4</ele>
        <time>2013-04-14T14:46:30Z</time>
      </trkpt>
      <trkpt lat="48.42684" lon="2.74171">
        <ele>68.3</ele>
        <time>2013-04-14T14:46:38Z</time>
      </trkpt>
      <trkpt lat="48.42691" lon="2.74175">
        <ele>68.3</ele>
        <time>2013-04-14T14:46:42Z</time>
      </trkpt>
      <trkpt lat="48.42703" lon="2.74177">
        <ele>68.6</ele>
        <time>2013-04-14T14:46:49Z</time>
      </trkpt>
      <trkpt lat="48.42703" lon="2.74177">
        <ele>68.6</ele>
        <time>2013-04-14T14:46:53Z</time>
      </trkpt>
      <trkpt lat="48.42715" lon="2.74177">
        <ele>69</ele>
        <time>2013-04-14T14:46:57Z</time>
      </trkpt>
      <trkpt lat="48.42726" lon="2.74177">
        <ele>69.5</ele>
        <time>2013-04-14T14:47:09Z</time>
      </trkpt>
      <trkpt lat="48.42738" lon="2.74181">
        <ele>69.8</ele>
        <time>2013-04-14T14:47:13Z</time>
      </trkpt>
      <trkpt lat="48.42746" lon="2.74183">
        <ele>70</ele>
        <time>2013-04-14T14:47:21Z</time>
      </trkpt>
      <trkpt lat="48.42746" lon="2.74183">
        <ele>70</ele>
        <time>2013-04-14T14:47:26Z</time>
      </trkpt>
      <trkpt lat="48.42753" lon="2.74186">
        <ele>69.9</ele>
        <time>2013-04-14T14:47:29Z</time>
      </trkpt>
      <trkpt lat="48.42762" lon="2.74188">
        <ele>69.8</ele>
        <time>2013-04-14T14:47:33Z</time>
      </trkpt>
      <trkpt lat="48.42776" lon="2.74188">
        <ele>69.9</ele>
        <time>2013-04-14T14:47:41Z</time>
      </trkpt>
      <trkpt lat="48.42795" lon="2.7419">
        <ele>69.6</ele>
        <time>2013-04-14T14:47:56Z</time>
      </trkpt>
      <trkpt lat="48.42803" lon="2.74192">
        <ele>69.4</ele>
        <time>2013-04-14T14:47:58Z</time>
      </trkpt>
      <trkpt lat="48.42803" lon="2.74192">
        <ele>69.4</ele>
        <time>2013-04-14T14:48:04Z</time>
      </trkpt>
      <trkpt lat="48.42814" lon="2.74196">
        <ele>69.1</ele>
        <time>2013-04-14T14:48:07Z</time>
      </trkpt>
      <trkpt lat="48.42818" lon="2.74199">
        <ele>68.8</ele>
        <time>2013-04-14T14:48:10Z</time>
      </trkpt>
      <trkpt lat="48.42831" lon="2.74203">
        <ele>68.7</ele>
        <time>2013-04-14T14:48:19Z</time>
      </trkpt>
      <trkpt lat="48.4285" lon="2.74207">
        <ele>68.5</ele>
        <time>2013-04-14T14:48:34Z</time>
      </trkpt>
      <trkpt lat="48.4285" lon="2.74207">
        <ele>68.5</ele>
        <time>2013-04-14T14:48:38Z</time>
      </trkpt>
      <trkpt lat="48.42864" lon="2.74209">
        <ele>68.3</ele>
        <time>2013-04-14T14:48:43Z</time>
      </trkpt>
      <trkpt lat="48.42896" lon="2.74211">
        <ele>67.3</ele>
        <time>2013-04-14T14:49:00Z</time>
      </trkpt>
      <trkpt lat="48.4292" lon="2.74209">
        <ele>67.8</ele>
        <time>2013-04-14T14:49:13Z</time>
      </trkpt>
      <trkpt lat="48.4292" lon="2.74209">
        <ele>67.8</ele>
        <time>2013-04-14T14:49:17Z</time>
      </trkpt>
      <trkpt lat="48.4292" lon="2.74209">
        <ele>67.8</ele>
        <time>2013-04-14T14:49:19Z</time>
      </trkpt>
      <trkpt lat="48.42927" lon="2.74209">
        <ele>67.7</ele>
        <time>2013-04-14T14:49:22Z</time>
      </trkpt>
      <trkpt lat="48.42932" lon="2.74209">
        <ele>67.6</ele>
        <time>2013-04-14T14:49:28Z</time>
      </trkpt>
      <trkpt lat="48.42952" lon="2.74211">
        <ele>67.5</ele>
        <time>2013-04-14T14:49:46Z</time>
      </trkpt>
      <trkpt lat="48.42962" lon="2.74209">
        <ele>68.1</ele>
        <time>2013-04-14T14:49:49Z</time>
      </trkpt>
      <trkpt lat="48.42967" lon="2.74211">
        <ele>68</ele>
        <time>2013-04-14T14:49:57Z</time>
      </trkpt>
      <trkpt lat="48.42976" lon="2.74211">
        <ele>68.2</ele>
        <time>2013-04-14T14:50:07Z</time>
      </trkpt>
      <trkpt lat="48.42985" lon="2.74207">
        <ele>68.6</ele>
        <time>2013-04-14T14:50:14Z</time>
      </trkpt>
      <trkpt lat="48.42996" lon="2.74203">
        <ele>69.1</ele>
        <time>2013-04-14T14:50:18Z</time>
      </trkpt>
      <trkpt lat="48.43001" lon="2.74196">
        <ele>69.8</ele>
        <time>2013-04-14T14:50:22Z</time>
      </trkpt>
      <trkpt lat="48.43011" lon="2.74179">
        <ele>72.2</ele>
        <time>2013-04-14T14:50:35Z</time>
      </trkpt>
      <trkpt lat="48.4302" lon="2.74153">
        <ele>76.3</ele>
        <time>2013-04-14T14:50:49Z</time>
      </trkpt>
      <trkpt lat="48.4302" lon="2.74151">
        <ele>76.7</ele>
        <time>2013-04-14T14:50:53Z</time>
      </trkpt>
      <trkpt lat="48.43023" lon="2.74143">
        <ele>78.1</ele>
        <time>2013-04-14T14:50:55Z</time>
      </trkpt>
      <trkpt lat="48.43027" lon="2.74128">
        <ele>80.1</ele>
        <time>2013-04-14T14:51:08Z</time>
      </trkpt>
      <trkpt lat="48.43027" lon="2.74128">
        <ele>80.1</ele>
        <time>2013-04-14T14:51:12Z</time>
      </trkpt>
      <trkpt lat="48.43037" lon="2.74126">
        <ele>80.2</ele>
        <time>2013-04-14T14:51:18Z</time>
      </trkpt>
      <trkpt lat="48.43047" lon="2.74132">
        <ele>79.6</ele>
        <time>2013-04-14T14:51:22Z</time>
      </trkpt>
      <trkpt lat="48.4305" lon="2.74136">
        <ele>79.2</ele>
        <time>2013-04-14T14:51:29Z</time>
      </trkpt>
      <trkpt lat="48.4305" lon="2.74136">
        <ele>79.2</ele>
        <time>2013-04-14T14:51:38Z</time>
      </trkpt>
      <trkpt lat="48.43058" lon="2.74136">
        <ele>79.1</ele>
        <time>2013-04-14T14:51:43Z</time>
      </trkpt>
      <trkpt lat="48.43069" lon="2.74121">
        <ele>79.8</ele>
        <time>2013-04-14T14:51:53Z</time>
      </trkpt>
      <trkpt lat="48.43073" lon="2.74106">
        <ele>80.7</ele>
        <time>2013-04-14T14:52:02Z</time>
      </trkpt>
      <trkpt lat="48.43081" lon="2.74093">
        <ele>81.4</ele>
        <time>2013-04-14T14:52:14Z</time>
      </trkpt>
      <trkpt lat="48.43083" lon="2.74091">
        <ele>81.5</ele>
        <time>2013-04-14T14:52:22Z</time>
      </trkpt>
      <trkpt lat="48.43091" lon="2.74074">
        <ele>82.2</ele>
        <time>2013-04-14T14:52:27Z</time>
      </trkpt>
      <trkpt lat="48.43098" lon="2.74061">
        <ele>82.7</ele>
        <time>2013-04-14T14:52:35Z</time>
      </trkpt>
      <trkpt lat="48.43103" lon="2.74044">
        <ele>83.4</ele>
        <time>2013-04-14T14:52:48Z</time>
      </trkpt>
      <trkpt lat="48.43107" lon="2.74038">
        <ele>83.6</ele>
        <time>2013-04-14T14:52:50Z</time>
      </trkpt>
      <trkpt lat="48.43107" lon="2.74038">
        <ele>83.6</ele>
        <time>2013-04-14T14:52:56Z</time>
      </trkpt>
      <trkpt lat="48.43107" lon="2.74038">
        <ele>83.6</ele>
        <time>2013-04-14T14:52:59Z</time>
      </trkpt>
      <trkpt lat="48.43112" lon="2.74025">
        <ele>84</ele>
        <time>2013-04-14T14:53:03Z</time>
      </trkpt>
      <trkpt lat="48.43116" lon="2.74025">
        <ele>83.8</ele>
        <time>2013-04-14T14:53:08Z</time>
      </trkpt>
      <trkpt lat="48.43122" lon="2.74023">
        <ele>83.7</ele>
        <time>2013-04-14T14:53:17Z</time>
      </trkpt>
      <trkpt lat="48.43127" lon="2.74016">
        <ele>83.7</ele>
        <time>2013-04-14T14:53:21Z</time>
      </trkpt>
      <trkpt lat="48.43132" lon="2.74005">
        <ele>83.9</ele>
        <time>2013-04-14T14:53:30Z</time>
      </trkpt>
      <trkpt lat="48.43138" lon="2.74003">
        <ele>83.9</ele>
        <time>2013-04-14T14:53:34Z</time>
      </trkpt>
      <trkpt lat="48.43143" lon="2.74005">
        <ele>83.7</ele>
        <time>2013-04-14T14:53:43Z</time>
      </trkpt>
      <trkpt lat="48.43147" lon="2.74008">
        <ele>83.4</ele>
        <time>2013-04-14T14:53:54Z</time>
      </trkpt>
      <trkpt lat="48.43157" lon="2.74012">
        <ele>82.9</ele>
        <time>2013-04-14T14:53:59Z</time>
      </trkpt>
      <trkpt lat="48.43157" lon="2.74012">
        <ele>82.9</ele>
        <time>2013-04-14T14:54:08Z</time>
      </trkpt>
      <trkpt lat="48.43166" lon="2.7402">
        <ele>82.3</ele>
        <time>2013-04-14T14:54:11Z</time>
      </trkpt>
      <trkpt lat="48.43166" lon="2.7402">
        <ele>82.3</ele>
        <time>2013-04-14T14:54:16Z</time>
      </trkpt>
      <trkpt lat="48.43173" lon="2.74027">
        <ele>82</ele>
        <time>2013-04-14T14:54:20Z</time>
      </trkpt>
      <trkpt lat="48.43182" lon="2.74031">
        <ele>81.9</ele>
        <time>2013-04-14T14:54:22Z</time>
      </trkpt>
      <trkpt lat="48.4319" lon="2.74035">
        <ele>81.7</ele>
        <time>2013-04-14T14:54:31Z</time>
      </trkpt>
      <trkpt lat="48.43191" lon="2.74038">
        <ele>81.6</ele>
        <time>2013-04-14T14:54:36Z</time>
      </trkpt>
      <trkpt lat="48.43202" lon="2.74042">
        <ele>81.6</ele>
        <time>2013-04-14T14:54:43Z</time>
      </trkpt>
      <trkpt lat="48.4321" lon="2.74048">
        <ele>81.7</ele>
        <time>2013-04-14T14:54:49Z</time>
      </trkpt>
      <trkpt lat="48.4321" lon="2.74048">
        <ele>81.7</ele>
        <time>2013-04-14T14:54:54Z</time>
      </trkpt>
      <trkpt lat="48.43222" lon="2.7405">
        <ele>82</ele>
        <time>2013-04-14T14:55:00Z</time>
      </trkpt>
      <trkpt lat="48.43236" lon="2.74048">
        <ele>82.3</ele>
        <time>2013-04-14T14:55:06Z</time>
      </trkpt>
      <trkpt lat="48.43236" lon="2.74048">
        <ele>82.3</ele>
        <time>2013-04-14T14:55:12Z</time>
      </trkpt>
      <trkpt lat="48.43236" lon="2.74048">
        <ele>82.3</ele>
        <time>2013-04-14T14:55:14Z</time>
      </trkpt>
      <trkpt lat="48.43236" lon="2.74048">
        <ele>82.3</ele>
        <time>2013-04-14T14:55:16Z</time>
      </trkpt>
      <trkpt lat="48.43259" lon="2.74044">
        <ele>83.5</ele>
        <time>2013-04-14T14:55:21Z</time>
      </trkpt>
      <trkpt lat="48.43268" lon="2.74046">
        <ele>84</ele>
        <time>2013-04-14T14:55:30Z</time>
      </trkpt>
      <trkpt lat="48.43283" lon="2.74055">
        <ele>84.2</ele>
        <time>2013-04-14T14:55:40Z</time>
      </trkpt>
      <trkpt lat="48.43286" lon="2.74057">
        <ele>84.2</ele>
        <time>2013-04-14T14:55:46Z</time>
      </trkpt>
      <trkpt lat="48.43293" lon="2.74059">
        <ele>84.4</ele>
        <time>2013-04-14T14:55:55Z</time>
      </trkpt>
      <trkpt lat="48.433" lon="2.7406">
        <ele>84.6</ele>
        <time>2013-04-14T14:56:00Z</time>
      </trkpt>
      <trkpt lat="48.43339" lon="2.74053">
        <ele>84.3</ele>
        <time>2013-04-14T14:56:13Z</time>
      </trkpt>
      <trkpt lat="48.43349" lon="2.74061">
        <ele>84.5</ele>
        <time>2013-04-14T14:56:18Z</time>
      </trkpt>
      <trkpt lat="48.43349" lon="2.74061">
        <ele>84.5</ele>
        <time>2013-04-14T14:56:29Z</time>
      </trkpt>
      <trkpt lat="48.43356" lon="2.74072">
        <ele>84.7</ele>
        <time>2013-04-14T14:56:32Z</time>
      </trkpt>
      <trkpt lat="48.43361" lon="2.74078">
        <ele>85</ele>
        <time>2013-04-14T14:56:40Z</time>
      </trkpt>
      <trkpt lat="48.43371" lon="2.74091">
        <ele>84.9</ele>
        <time>2013-04-14T14:56:49Z</time>
      </trkpt>
      <trkpt lat="48.43371" lon="2.74091">
        <ele>84.9</ele>
        <time>2013-04-14T14:56:53Z</time>
      </trkpt>
      <trkpt lat="48.43378" lon="2.74098">
        <ele>84.9</ele>
        <time>2013-04-14T14:56:57Z</time>
      </trkpt>
      <trkpt lat="48.43387" lon="2.74111">
        <ele>84.9</ele>
        <time>2013-04-14T14:57:09Z</time>
      </trkpt>
      <trkpt lat="48.43387" lon="2.74111">
        <ele>84.9</ele>
        <time>2013-04-14T14:57:13Z</time>
      </trkpt>
      <trkpt lat="48.43391" lon="2.74121">
        <ele>84.4</ele>
        <time>2013-04-14T14:57:16Z</time>
      </trkpt>
      <trkpt lat="48.43393" lon="2.74128">
        <ele>83.9</ele>
        <time>2013-04-14T14:57:24Z</time>
      </trkpt>
      <trkpt lat="48.434" lon="2.74138">
        <ele>83.5</ele>
        <time>2013-04-14T14:57:27Z</time>
      </trkpt>
      <trkpt lat="48.43404" lon="2.74149">
        <ele>82.7</ele>
        <time>2013-04-14T14:57:35Z</time>
      </trkpt>
      <trkpt lat="48.43411" lon="2.74168">
        <ele>81.4</ele>
        <time>2013-04-14T14:57:45Z</time>
      </trkpt>
      <trkpt lat="48.43411" lon="2.74168">
        <ele>81.4</ele>
        <time>2013-04-14T14:57:47Z</time>
      </trkpt>
      <trkpt lat="48.43411" lon="2.74168">
        <ele>81.4</ele>
        <time>2013-04-14T14:57:50Z</time>
      </trkpt>
      <trkpt lat="48.43411" lon="2.74168">
        <ele>81.4</ele>
        <time>2013-04-14T14:57:53Z</time>
      </trkpt>
      <trkpt lat="48.43424" lon="2.74183">
        <ele>80</ele>
        <time>2013-04-14T14:57:59Z</time>
      </trkpt>
      <trkpt lat="48.43428" lon="2.74196">
        <ele>78.6</ele>
        <time>2013-04-14T14:58:04Z</time>
      </trkpt>
      <trkpt lat="48.43428" lon="2.74196">
        <ele>78.6</ele>
        <time>2013-04-14T14:58:11Z</time>
      </trkpt>
      <trkpt lat="48.43428" lon="2.74196">
        <ele>78.6</ele>
        <time>2013-04-14T14:58:13Z</time>
      </trkpt>
      <trkpt lat="48.43436" lon="2.74214">
        <ele>76.6</ele>
        <time>2013-04-14T14:58:17Z</time>
      </trkpt>
      <trkpt lat="48.43437" lon="2.7422">
        <ele>75.8</ele>
        <time>2013-04-14T14:58:25Z</time>
      </trkpt>
      <trkpt lat="48.43437" lon="2.7422">
        <ele>75.8</ele>
        <time>2013-04-14T14:58:28Z</time>
      </trkpt>
      <trkpt lat="48.43437" lon="2.7422">
        <ele>75.8</ele>
        <time>2013-04-14T14:58:32Z</time>
      </trkpt>
      <trkpt lat="48.43431" lon="2.74233">
        <ele>73.7</ele>
        <time>2013-04-14T14:58:37Z</time>
      </trkpt>
      <trkpt lat="48.43432" lon="2.74241">
        <ele>72.7</ele>
        <time>2013-04-14T14:58:45Z</time>
      </trkpt>
      <trkpt lat="48.43437" lon="2.74244">
        <ele>72.5</ele>
        <time>2013-04-14T14:58:50Z</time>
      </trkpt>
      <trkpt lat="48.43452" lon="2.74246">
        <ele>72.9</ele>
        <time>2013-04-14T14:59:05Z</time>
      </trkpt>
      <trkpt lat="48.43459" lon="2.7425">
        <ele>72.5</ele>
        <time>2013-04-14T14:59:13Z</time>
      </trkpt>
      <trkpt lat="48.43466" lon="2.74254">
        <ele>72.3</ele>
        <time>2013-04-14T14:59:16Z</time>
      </trkpt>
      <trkpt lat="48.43476" lon="2.74265">
        <ele>71.5</ele>
        <time>2013-04-14T14:59:24Z</time>
      </trkpt>
      <trkpt lat="48.43481" lon="2.74271">
        <ele>71</ele>
        <time>2013-04-14T14:59:33Z</time>
      </trkpt>
      <trkpt lat="48.43481" lon="2.74271">
        <ele>71</ele>
        <time>2013-04-14T14:59:37Z</time>
      </trkpt>
      <trkpt lat="48.43481" lon="2.74271">
        <ele>71</ele>
        <time>2013-04-14T14:59:41Z</time>
      </trkpt>
      <trkpt lat="48.43499" lon="2.74293">
        <ele>69.3</ele>
        <time>2013-04-14T14:59:46Z</time>
      </trkpt>
      <trkpt lat="48.43511" lon="2.74304">
        <ele>68.9</ele>
        <time>2013-04-14T14:59:56Z</time>
      </trkpt>
      <trkpt lat="48.43522" lon="2.74308">
        <ele>69.3</ele>
        <time>2013-04-14T15:00:01Z</time>
      </trkpt>
      <trkpt lat="48.43534" lon="2.7431">
        <ele>69.7</ele>
        <time>2013-04-14T15:00:11Z</time>
      </trkpt>
      <trkpt lat="48.43554" lon="2.74314">
        <ele>70</ele>
        <time>2013-04-14T15:00:34Z</time>
      </trkpt>
      <trkpt lat="48.43557" lon="2.74314">
        <ele>70.2</ele>
        <time>2013-04-14T15:00:36Z</time>
      </trkpt>
      <trkpt lat="48.43582" lon="2.74319">
        <ele>71.9</ele>
        <time>2013-04-14T15:00:53Z</time>
      </trkpt>
      <trkpt lat="48.43604" lon="2.74321">
        <ele>72.1</ele>
        <time>2013-04-14T15:01:12Z</time>
      </trkpt>
      <trkpt lat="48.43612" lon="2.74323">
        <ele>71.8</ele>
        <time>2013-04-14T15:01:14Z</time>
      </trkpt>
      <trkpt lat="48.43626" lon="2.74327">
        <ele>70.9</ele>
        <time>2013-04-14T15:01:24Z</time>
      </trkpt>
      <trkpt lat="48.43637" lon="2.74334">
        <ele>69.9</ele>
        <time>2013-04-14T15:01:37Z</time>
      </trkpt>
      <trkpt lat="48.43643" lon="2.7434">
        <ele>69.4</ele>
        <time>2013-04-14T15:01:39Z</time>
      </trkpt>
      <trkpt lat="48.43646" lon="2.74342">
        <ele>69.2</ele>
        <time>2013-04-14T15:01:46Z</time>
      </trkpt>
      <trkpt lat="48.43663" lon="2.7434">
        <ele>69.9</ele>
        <time>2013-04-14T15:01:52Z</time>
      </trkpt>
      <trkpt lat="48.43671" lon="2.7434">
        <ele>70.2</ele>
        <time>2013-04-14T15:01:59Z</time>
      </trkpt>
      <trkpt lat="48.43687" lon="2.7434">
        <ele>70.8</ele>
        <time>2013-04-14T15:02:05Z</time>
      </trkpt>
      <trkpt lat="48.437" lon="2.74344">
        <ele>70.5</ele>
        <time>2013-04-14T15:02:10Z</time>
      </trkpt>
      <trkpt lat="48.43706" lon="2.74349">
        <ele>70</ele>
        <time>2013-04-14T15:02:16Z</time>
      </trkpt>
      <trkpt lat="48.43715" lon="2.74351">
        <ele>69.9</ele>
        <time>2013-04-14T15:02:26Z</time>
      </trkpt>
      <trkpt lat="48.43718" lon="2.74349">
        <ele>70.2</ele>
        <time>2013-04-14T15:02:30Z</time>
      </trkpt>
      <trkpt lat="48.43722" lon="2.74351">
        <ele>70.1</ele>
        <time>2013-04-14T15:02:34Z</time>
      </trkpt>
      <trkpt lat="48.43735" lon="2.74353">
        <ele>70.9</ele>
        <time>2013-04-14T15:02:47Z</time>
      </trkpt>
      <trkpt lat="48.43747" lon="2.74359">
        <ele>71.1</ele>
        <time>2013-04-14T15:02:55Z</time>
      </trkpt>
      <trkpt lat="48.43759" lon="2.74366">
        <ele>71.1</ele>
        <time>2013-04-14T15:03:08Z</time>
      </trkpt>
      <trkpt lat="48.43771" lon="2.74383">
        <ele>70.1</ele>
        <time>2013-04-14T15:03:13Z</time>
      </trkpt>
      <trkpt lat="48.43772" lon="2.74385">
        <ele>70</ele>
        <time>2013-04-14T15:03:19Z</time>
      </trkpt>
      <trkpt lat="48.43783" lon="2.744">
        <ele>69.2</ele>
        <time>2013-04-14T15:03:24Z</time>
      </trkpt>
      <trkpt lat="48.43788" lon="2.74409">
        <ele>68.6</ele>
        <time>2013-04-14T15:03:32Z</time>
      </trkpt>
      <trkpt lat="48.43788" lon="2.74409">
        <ele>68.6</ele>
        <time>2013-04-14T15:03:37Z</time>
      </trkpt>
      <trkpt lat="48.43788" lon="2.74409">
        <ele>68.6</ele>
        <time>2013-04-14T15:03:39Z</time>
      </trkpt>
      <trkpt lat="48.43788" lon="2.74409">
        <ele>68.6</ele>
        <time>2013-04-14T15:03:42Z</time>
      </trkpt>
      <trkpt lat="48.43808" lon="2.74426">
        <ele>67.9</ele>
        <time>2013-04-14T15:03:46Z</time>
      </trkpt>
      <trkpt lat="48.43816" lon="2.74428">
        <ele>68.3</ele>
        <time>2013-04-14T15:03:49Z</time>
      </trkpt>
      <trkpt lat="48.43824" lon="2.7443">
        <ele>68.7</ele>
        <time>2013-04-14T15:03:57Z</time>
      </trkpt>
      <trkpt lat="48.43824" lon="2.7443">
        <ele>68.7</ele>
        <time>2013-04-14T15:04:03Z</time>
      </trkpt>
      <trkpt lat="48.43824" lon="2.7443">
        <ele>68.7</ele>
        <time>2013-04-14T15:04:07Z</time>
      </trkpt>
      <trkpt lat="48.43824" lon="2.7443">
        <ele>68.7</ele>
        <time>2013-04-14T15:04:13Z</time>
      </trkpt>
      <trkpt lat="48.43843" lon="2.74445">
        <ele>68.7</ele>
        <time>2013-04-14T15:04:18Z</time>
      </trkpt>
      <trkpt lat="48.43852" lon="2.74452">
        <ele>68.8</ele>
        <time>2013-04-14T15:04:24Z</time>
      </trkpt>
      <trkpt lat="48.43854" lon="2.74454">
        <ele>68.8</ele>
        <time>2013-04-14T15:04:29Z</time>
      </trkpt>
      <trkpt lat="48.43863" lon="2.74462">
        <ele>68.9</ele>
        <time>2013-04-14T15:04:33Z</time>
      </trkpt>
      <trkpt lat="48.43876" lon="2.74473">
        <ele>69</ele>
        <time>2013-04-14T15:04:47Z</time>
      </trkpt>
      <trkpt lat="48.43883" lon="2.74477">
        <ele>68.9</ele>
        <time>2013-04-14T15:04:49Z</time>
      </trkpt>
      <trkpt lat="48.43886" lon="2.7448">
        <ele>68.7</ele>
        <time>2013-04-14T15:04:55Z</time>
      </trkpt>
      <trkpt lat="48.43906" lon="2.7449">
        <ele>68.5</ele>
        <time>2013-04-14T15:05:05Z</time>
      </trkpt>
      <trkpt lat="48.43919" lon="2.74497">
        <ele>68.5</ele>
        <time>2013-04-14T15:05:16Z</time>
      </trkpt>
      <trkpt lat="48.43919" lon="2.74497">
        <ele>68.5</ele>
        <time>2013-04-14T15:05:21Z</time>
      </trkpt>
      <trkpt lat="48.43932" lon="2.74505">
        <ele>68.6</ele>
        <time>2013-04-14T15:05:25Z</time>
      </trkpt>
      <trkpt lat="48.4394" lon="2.74514">
        <ele>68.2</ele>
        <time>2013-04-14T15:05:31Z</time>
      </trkpt>
      <trkpt lat="48.43942" lon="2.74516">
        <ele>68.1</ele>
        <time>2013-04-14T15:05:36Z</time>
      </trkpt>
      <trkpt lat="48.43955" lon="2.7452">
        <ele>68.9</ele>
        <time>2013-04-14T15:05:43Z</time>
      </trkpt>
      <trkpt lat="48.43967" lon="2.74529">
        <ele>69.3</ele>
        <time>2013-04-14T15:05:50Z</time>
      </trkpt>
      <trkpt lat="48.43968" lon="2.74531">
        <ele>69.2</ele>
        <time>2013-04-14T15:05:54Z</time>
      </trkpt>
      <trkpt lat="48.43976" lon="2.7454">
        <ele>69</ele>
        <time>2013-04-14T15:06:00Z</time>
      </trkpt>
      <trkpt lat="48.43976" lon="2.7454">
        <ele>69</ele>
        <time>2013-04-14T15:06:05Z</time>
      </trkpt>
      <trkpt lat="48.43987" lon="2.7455">
        <ele>68.7</ele>
        <time>2013-04-14T15:06:09Z</time>
      </trkpt>
      <trkpt lat="48.43995" lon="2.74555">
        <ele>68.7</ele>
        <time>2013-04-14T15:06:18Z</time>
      </trkpt>
      <trkpt lat="48.44006" lon="2.74559">
        <ele>69.3</ele>
        <time>2013-04-14T15:06:22Z</time>
      </trkpt>
      <trkpt lat="48.44017" lon="2.74568">
        <ele>69.5</ele>
        <time>2013-04-14T15:06:30Z</time>
      </trkpt>
      <trkpt lat="48.44017" lon="2.74568">
        <ele>69.5</ele>
        <time>2013-04-14T15:06:34Z</time>
      </trkpt>
      <trkpt lat="48.44017" lon="2.74568">
        <ele>69.5</ele>
        <time>2013-04-14T15:06:39Z</time>
      </trkpt>
      <trkpt lat="48.44031" lon="2.74578">
        <ele>69.8</ele>
        <time>2013-04-14T15:06:43Z</time>
      </trkpt>
      <trkpt lat="48.44045" lon="2.74589">
        <ele>69.3</ele>
        <time>2013-04-14T15:06:57Z</time>
      </trkpt>
      <trkpt lat="48.44045" lon="2.74589">
        <ele>69.3</ele>
        <time>2013-04-14T15:07:01Z</time>
      </trkpt>
      <trkpt lat="48.44045" lon="2.74589">
        <ele>69.3</ele>
        <time>2013-04-14T15:07:05Z</time>
      </trkpt>
      <trkpt lat="48.44063" lon="2.74604">
        <ele>69.1</ele>
        <time>2013-04-14T15:07:10Z</time>
      </trkpt>
      <trkpt lat="48.44078" lon="2.74615">
        <ele>68.1</ele>
        <time>2013-04-14T15:07:21Z</time>
      </trkpt>
      <trkpt lat="48.44089" lon="2.74621">
        <ele>68.2</ele>
        <time>2013-04-14T15:07:26Z</time>
      </trkpt>
      <trkpt lat="48.44089" lon="2.74621">
        <ele>68.2</ele>
        <time>2013-04-14T15:07:34Z</time>
      </trkpt>
      <trkpt lat="48.44089" lon="2.74621">
        <ele>68.2</ele>
        <time>2013-04-14T15:07:39Z</time>
      </trkpt>
      <trkpt lat="48.44109" lon="2.74641">
        <ele>67.4</ele>
        <time>2013-04-14T15:07:46Z</time>
      </trkpt>
      <trkpt lat="48.4411" lon="2.74643">
        <ele>67.1</ele>
        <time>2013-04-14T15:07:51Z</time>
      </trkpt>
      <trkpt lat="48.4412" lon="2.74649">
        <ele>66.9</ele>
        <time>2013-04-14T15:07:56Z</time>
      </trkpt>
      <trkpt lat="48.44141" lon="2.7466">
        <ele>67.2</ele>
        <time>2013-04-14T15:08:10Z</time>
      </trkpt>
      <trkpt lat="48.44166" lon="2.74673">
        <ele>68</ele>
        <time>2013-04-14T15:08:25Z</time>
      </trkpt>
      <trkpt lat="48.44177" lon="2.74679">
        <ele>68.1</ele>
        <time>2013-04-14T15:08:29Z</time>
      </trkpt>
      <trkpt lat="48.44177" lon="2.74679">
        <ele>68.1</ele>
        <time>2013-04-14T15:08:38Z</time>
      </trkpt>
      <trkpt lat="48.44195" lon="2.74688">
        <ele>68.7</ele>
        <time>2013-04-14T15:08:43Z</time>
      </trkpt>
      <trkpt lat="48.44202" lon="2.74696">
        <ele>68.3</ele>
        <time>2013-04-14T15:08:48Z</time>
      </trkpt>
      <trkpt lat="48.44208" lon="2.74703">
        <ele>67.7</ele>
        <time>2013-04-14T15:08:56Z</time>
      </trkpt>
      <trkpt lat="48.44223" lon="2.74718">
        <ele>66.7</ele>
        <time>2013-04-14T15:09:12Z</time>
      </trkpt>
      <trkpt lat="48.44223" lon="2.74718">
        <ele>66.7</ele>
        <time>2013-04-14T15:09:16Z</time>
      </trkpt>
      <trkpt lat="48.44231" lon="2.74722">
        <ele>67</ele>
        <time>2013-04-14T15:09:19Z</time>
      </trkpt>
      <trkpt lat="48.44231" lon="2.74722">
        <ele>67</ele>
        <time>2013-04-14T15:09:27Z</time>
      </trkpt>
      <trkpt lat="48.44245" lon="2.74731">
        <ele>67.3</ele>
        <time>2013-04-14T15:09:33Z</time>
      </trkpt>
      <trkpt lat="48.44256" lon="2.74733">
        <ele>68.5</ele>
        <time>2013-04-14T15:09:40Z</time>
      </trkpt>
      <trkpt lat="48.44261" lon="2.74737">
        <ele>68.6</ele>
        <time>2013-04-14T15:09:42Z</time>
      </trkpt>
      <trkpt lat="48.44272" lon="2.74741">
        <ele>69.3</ele>
        <time>2013-04-14T15:09:48Z</time>
      </trkpt>
      <trkpt lat="48.4428" lon="2.74748">
        <ele>69.5</ele>
        <time>2013-04-14T15:09:58Z</time>
      </trkpt>
      <trkpt lat="48.4428" lon="2.74748">
        <ele>69.5</ele>
        <time>2013-04-14T15:10:03Z</time>
      </trkpt>
      <trkpt lat="48.44293" lon="2.74754">
        <ele>70.1</ele>
        <time>2013-04-14T15:10:08Z</time>
      </trkpt>
      <trkpt lat="48.44306" lon="2.74765">
        <ele>69.9</ele>
        <time>2013-04-14T15:10:12Z</time>
      </trkpt>
      <trkpt lat="48.44314" lon="2.74774">
        <ele>69.4</ele>
        <time>2013-04-14T15:10:19Z</time>
      </trkpt>
      <trkpt lat="48.44315" lon="2.74776">
        <ele>69.3</ele>
        <time>2013-04-14T15:10:23Z</time>
      </trkpt>
      <trkpt lat="48.4432" lon="2.7478">
        <ele>69.1</ele>
        <time>2013-04-14T15:10:25Z</time>
      </trkpt>
      <trkpt lat="48.44326" lon="2.74791">
        <ele>67.9</ele>
        <time>2013-04-14T15:10:33Z</time>
      </trkpt>
      <trkpt lat="48.44326" lon="2.74791">
        <ele>67.9</ele>
        <time>2013-04-14T15:10:39Z</time>
      </trkpt>
      <trkpt lat="48.44326" lon="2.74791">
        <ele>67.9</ele>
        <time>2013-04-14T15:10:41Z</time>
      </trkpt>
      <trkpt lat="48.44326" lon="2.74791">
        <ele>67.9</ele>
        <time>2013-04-14T15:10:45Z</time>
      </trkpt>
      <trkpt lat="48.44348" lon="2.74808">
        <ele>67.5</ele>
        <time>2013-04-14T15:10:49Z</time>
      </trkpt>
      <trkpt lat="48.44357" lon="2.74812">
        <ele>67.6</ele>
        <time>2013-04-14T15:10:58Z</time>
      </trkpt>
      <trkpt lat="48.44366" lon="2.74823">
        <ele>67</ele>
        <time>2013-04-14T15:11:04Z</time>
      </trkpt>
      <trkpt lat="48.44374" lon="2.74834">
        <ele>66.2</ele>
        <time>2013-04-14T15:11:13Z</time>
      </trkpt>
      <trkpt lat="48.44382" lon="2.7484">
        <ele>66</ele>
        <time>2013-04-14T15:11:19Z</time>
      </trkpt>
      <trkpt lat="48.44384" lon="2.74842">
        <ele>65.9</ele>
        <time>2013-04-14T15:11:28Z</time>
      </trkpt>
      <trkpt lat="48.44407" lon="2.74853">
        <ele>67.1</ele>
        <time>2013-04-14T15:11:34Z</time>
      </trkpt>
      <trkpt lat="48.44417" lon="2.74859">
        <ele>67.3</ele>
        <time>2013-04-14T15:11:41Z</time>
      </trkpt>
      <trkpt lat="48.4442" lon="2.74859">
        <ele>67.5</ele>
        <time>2013-04-14T15:11:47Z</time>
      </trkpt>
      <trkpt lat="48.44429" lon="2.74868">
        <ele>66.9</ele>
        <time>2013-04-14T15:11:53Z</time>
      </trkpt>
      <trkpt lat="48.44441" lon="2.74877">
        <ele>66.9</ele>
        <time>2013-04-14T15:12:06Z</time>
      </trkpt>
      <trkpt lat="48.44444" lon="2.74879">
        <ele>67</ele>
        <time>2013-04-14T15:12:13Z</time>
      </trkpt>
      <trkpt lat="48.4445" lon="2.74881">
        <ele>67.5</ele>
        <time>2013-04-14T15:12:17Z</time>
      </trkpt>
      <trkpt lat="48.4445" lon="2.74881">
        <ele>67.5</ele>
        <time>2013-04-14T15:12:25Z</time>
      </trkpt>
      <trkpt lat="48.44458" lon="2.74902">
        <ele>65.3</ele>
        <time>2013-04-14T15:12:31Z</time>
      </trkpt>
      <trkpt lat="48.44457" lon="2.74911">
        <ele>63.6</ele>
        <time>2013-04-14T15:12:35Z</time>
      </trkpt>
      <trkpt lat="48.44456" lon="2.74919">
        <ele>61.5</ele>
        <time>2013-04-14T15:12:43Z</time>
      </trkpt>
      <trkpt lat="48.44454" lon="2.74926">
        <ele>58.5</ele>
        <time>2013-04-14T15:12:55Z</time>
      </trkpt>
      <trkpt lat="48.44448" lon="2.74939">
        <ele>52.6</ele>
        <time>2013-04-14T15:13:00Z</time>
      </trkpt>
      <trkpt lat="48.4444" lon="2.74967">
        <ele>46.4</ele>
        <time>2013-04-14T15:13:12Z</time>
      </trkpt>
      <trkpt lat="48.44441" lon="2.74969">
        <ele>46.2</ele>
        <time>2013-04-14T15:13:16Z</time>
      </trkpt>
      <trkpt lat="48.44441" lon="2.74969">
        <ele>46.2</ele>
        <time>2013-04-14T15:13:21Z</time>
      </trkpt>
      <trkpt lat="48.44451" lon="2.74986">
        <ele>45.5</ele>
        <time>2013-04-14T15:13:25Z</time>
      </trkpt>
      <trkpt lat="48.44455" lon="2.7499">
        <ele>45.5</ele>
        <time>2013-04-14T15:13:32Z</time>
      </trkpt>
      <trkpt lat="48.44455" lon="2.7499">
        <ele>45.5</ele>
        <time>2013-04-14T15:13:37Z</time>
      </trkpt>
      <trkpt lat="48.44455" lon="2.7499">
        <ele>45.5</ele>
        <time>2013-04-14T15:13:41Z</time>
      </trkpt>
      <trkpt lat="48.44469" lon="2.75005">
        <ele>45.2</ele>
        <time>2013-04-14T15:13:45Z</time>
      </trkpt>
      <trkpt lat="48.44479" lon="2.7501">
        <ele>45.5</ele>
        <time>2013-04-14T15:13:48Z</time>
      </trkpt>
      <trkpt lat="48.44487" lon="2.75016">
        <ele>45.6</ele>
        <time>2013-04-14T15:13:56Z</time>
      </trkpt>
      <trkpt lat="48.44497" lon="2.75027">
        <ele>45.7</ele>
        <time>2013-04-14T15:14:00Z</time>
      </trkpt>
      <trkpt lat="48.44508" lon="2.75038">
        <ele>45.7</ele>
        <time>2013-04-14T15:14:08Z</time>
      </trkpt>
      <trkpt lat="48.44508" lon="2.75038">
        <ele>45.7</ele>
        <time>2013-04-14T15:14:13Z</time>
      </trkpt>
      <trkpt lat="48.44519" lon="2.75044">
        <ele>45.9</ele>
        <time>2013-04-14T15:14:17Z</time>
      </trkpt>
      <trkpt lat="48.44527" lon="2.7505">
        <ele>46.1</ele>
        <time>2013-04-14T15:14:21Z</time>
      </trkpt>
      <trkpt lat="48.4454" lon="2.75057">
        <ele>46.3</ele>
        <time>2013-04-14T15:14:31Z</time>
      </trkpt>
      <trkpt lat="48.44547" lon="2.75065">
        <ele>46.1</ele>
        <time>2013-04-14T15:14:35Z</time>
      </trkpt>
      <trkpt lat="48.44556" lon="2.75076">
        <ele>46.3</ele>
        <time>2013-04-14T15:14:44Z</time>
      </trkpt>
      <trkpt lat="48.44556" lon="2.75076">
        <ele>46.3</ele>
        <time>2013-04-14T15:14:49Z</time>
      </trkpt>
      <trkpt lat="48.44564" lon="2.75085">
        <ele>45.9</ele>
        <time>2013-04-14T15:14:54Z</time>
      </trkpt>
      <trkpt lat="48.4457" lon="2.75091">
        <ele>45.5</ele>
        <time>2013-04-14T15:15:07Z</time>
      </trkpt>
      <trkpt lat="48.44583" lon="2.75102">
        <ele>45.3</ele>
        <time>2013-04-14T15:15:10Z</time>
      </trkpt>
      <trkpt lat="48.44588" lon="2.75108">
        <ele>45.3</ele>
        <time>2013-04-14T15:15:17Z</time>
      </trkpt>
      <trkpt lat="48.44602" lon="2.75125">
        <ele>44.8</ele>
        <time>2013-04-14T15:15:30Z</time>
      </trkpt>
      <trkpt lat="48.44602" lon="2.75125">
        <ele>44.8</ele>
        <time>2013-04-14T15:15:35Z</time>
      </trkpt>
      <trkpt lat="48.44602" lon="2.75125">
        <ele>44.8</ele>
        <time>2013-04-14T15:15:39Z</time>
      </trkpt>
      <trkpt lat="48.44602" lon="2.75125">
        <ele>44.8</ele>
        <time>2013-04-14T15:15:43Z</time>
      </trkpt>
      <trkpt lat="48.44626" lon="2.75143">
        <ele>45.3</ele>
        <time>2013-04-14T15:15:48Z</time>
      </trkpt>
      <trkpt lat="48.44633" lon="2.75149">
        <ele>45.3</ele>
        <time>2013-04-14T15:15:56Z</time>
      </trkpt>
      <trkpt lat="48.44646" lon="2.75162">
        <ele>45.5</ele>
        <time>2013-04-14T15:16:06Z</time>
      </trkpt>
      <trkpt lat="48.44658" lon="2.75175">
        <ele>45.3</ele>
        <time>2013-04-14T15:16:19Z</time>
      </trkpt>
      <trkpt lat="48.44658" lon="2.75175">
        <ele>45.3</ele>
        <time>2013-04-14T15:16:23Z</time>
      </trkpt>
      <trkpt lat="48.44668" lon="2.75181">
        <ele>45.6</ele>
        <time>2013-04-14T15:16:27Z</time>
      </trkpt>
      <trkpt lat="48.44674" lon="2.75186">
        <ele>45.7</ele>
        <time>2013-04-14T15:16:31Z</time>
      </trkpt>
      <trkpt lat="48.44674" lon="2.75186">
        <ele>45.7</ele>
        <time>2013-04-14T15:16:38Z</time>
      </trkpt>
      <trkpt lat="48.44674" lon="2.75186">
        <ele>45.7</ele>
        <time>2013-04-14T15:16:40Z</time>
      </trkpt>
      <trkpt lat="48.44684" lon="2.75203">
        <ele>45.2</ele>
        <time>2013-04-14T15:16:44Z</time>
      </trkpt>
      <trkpt lat="48.44687" lon="2.75213">
        <ele>44.9</ele>
        <time>2013-04-14T15:16:51Z</time>
      </trkpt>
      <trkpt lat="48.44696" lon="2.75231">
        <ele>44.7</ele>
        <time>2013-04-14T15:17:07Z</time>
      </trkpt>
      <trkpt lat="48.44698" lon="2.75235">
        <ele>44.7</ele>
        <time>2013-04-14T15:17:09Z</time>
      </trkpt>
      <trkpt lat="48.44713" lon="2.75269">
        <ele>44</ele>
        <time>2013-04-14T15:17:28Z</time>
      </trkpt>
      <trkpt lat="48.44713" lon="2.75269">
        <ele>44</ele>
        <time>2013-04-14T15:17:30Z</time>
      </trkpt>
      <trkpt lat="48.44719" lon="2.75291">
        <ele>43</ele>
        <time>2013-04-14T15:17:34Z</time>
      </trkpt>
      <trkpt lat="48.44725" lon="2.75306">
        <ele>42</ele>
        <time>2013-04-14T15:17:43Z</time>
      </trkpt>
      <trkpt lat="48.44732" lon="2.75314">
        <ele>42</ele>
        <time>2013-04-14T15:17:47Z</time>
      </trkpt>
      <trkpt lat="48.44738" lon="2.75331">
        <ele>42</ele>
        <time>2013-04-14T15:17:56Z</time>
      </trkpt>
      <trkpt lat="48.4475" lon="2.75353">
        <ele>42.7</ele>
        <time>2013-04-14T15:18:11Z</time>
      </trkpt>
      <trkpt lat="48.4475" lon="2.75353">
        <ele>42.7</ele>
        <time>2013-04-14T15:18:12Z</time>
      </trkpt>
      <trkpt lat="48.44756" lon="2.75364">
        <ele>42.7</ele>
        <time>2013-04-14T15:18:15Z</time>
      </trkpt>
      <trkpt lat="48.44766" lon="2.75398">
        <ele>42.8</ele>
        <time>2013-04-14T15:18:29Z</time>
      </trkpt>
      <trkpt lat="48.44771" lon="2.75411">
        <ele>43.4</ele>
        <time>2013-04-14T15:18:38Z</time>
      </trkpt>
      <trkpt lat="48.44771" lon="2.75411">
        <ele>43.4</ele>
        <time>2013-04-14T15:18:40Z</time>
      </trkpt>
      <trkpt lat="48.44771" lon="2.75411">
        <ele>43.4</ele>
        <time>2013-04-14T15:18:42Z</time>
      </trkpt>
      <trkpt lat="48.44778" lon="2.75419">
        <ele>43.8</ele>
        <time>2013-04-14T15:18:46Z</time>
      </trkpt>
      <trkpt lat="48.44785" lon="2.7543">
        <ele>43.2</ele>
        <time>2013-04-14T15:18:52Z</time>
      </trkpt>
      <trkpt lat="48.44795" lon="2.75441">
        <ele>43.3</ele>
        <time>2013-04-14T15:19:01Z</time>
      </trkpt>
      <trkpt lat="48.44801" lon="2.75452">
        <ele>43.7</ele>
        <time>2013-04-14T15:19:07Z</time>
      </trkpt>
      <trkpt lat="48.44816" lon="2.75477">
        <ele>43.8</ele>
        <time>2013-04-14T15:19:19Z</time>
      </trkpt>
      <trkpt lat="48.44833" lon="2.75507">
        <ele>43.7</ele>
        <time>2013-04-14T15:19:35Z</time>
      </trkpt>
      <trkpt lat="48.44843" lon="2.75518">
        <ele>43.5</ele>
        <time>2013-04-14T15:19:47Z</time>
      </trkpt>
      <trkpt lat="48.44843" lon="2.75518">
        <ele>43.5</ele>
        <time>2013-04-14T15:19:51Z</time>
      </trkpt>
      <trkpt lat="48.44843" lon="2.75518">
        <ele>43.5</ele>
        <time>2013-04-14T15:19:55Z</time>
      </trkpt>
      <trkpt lat="48.44854" lon="2.7554">
        <ele>43.6</ele>
        <time>2013-04-14T15:20:00Z</time>
      </trkpt>
      <trkpt lat="48.44862" lon="2.75548">
        <ele>44</ele>
        <time>2013-04-14T15:20:09Z</time>
      </trkpt>
      <trkpt lat="48.44866" lon="2.75552">
        <ele>44</ele>
        <time>2013-04-14T15:20:22Z</time>
      </trkpt>
      <trkpt lat="48.44866" lon="2.75552">
        <ele>44</ele>
        <time>2013-04-14T15:20:26Z</time>
      </trkpt>
      <trkpt lat="48.44866" lon="2.75552">
        <ele>44</ele>
        <time>2013-04-14T15:20:30Z</time>
      </trkpt>
      <trkpt lat="48.44889" lon="2.7558">
        <ele>44</ele>
        <time>2013-04-14T15:20:35Z</time>
      </trkpt>
      <trkpt lat="48.44897" lon="2.75589">
        <ele>43.9</ele>
        <time>2013-04-14T15:20:43Z</time>
      </trkpt>
      <trkpt lat="48.44909" lon="2.75602">
        <ele>43.8</ele>
        <time>2013-04-14T15:20:47Z</time>
      </trkpt>
      <trkpt lat="48.4492" lon="2.75623">
        <ele>43.6</ele>
        <time>2013-04-14T15:20:56Z</time>
      </trkpt>
      <trkpt lat="48.44921" lon="2.75625">
        <ele>43.5</ele>
        <time>2013-04-14T15:21:00Z</time>
      </trkpt>
      <trkpt lat="48.44921" lon="2.75625">
        <ele>43.5</ele>
        <time>2013-04-14T15:21:06Z</time>
      </trkpt>
      <trkpt lat="48.44934" lon="2.75643">
        <ele>43.5</ele>
        <time>2013-04-14T15:21:11Z</time>
      </trkpt>
      <trkpt lat="48.44942" lon="2.75647">
        <ele>43.6</ele>
        <time>2013-04-14T15:21:17Z</time>
      </trkpt>
      <trkpt lat="48.44949" lon="2.75653">
        <ele>43.3</ele>
        <time>2013-04-14T15:21:26Z</time>
      </trkpt>
      <trkpt lat="48.44957" lon="2.75658">
        <ele>43</ele>
        <time>2013-04-14T15:21:30Z</time>
      </trkpt>
      <trkpt lat="48.44966" lon="2.75662">
        <ele>42.9</ele>
        <time>2013-04-14T15:21:39Z</time>
      </trkpt>
      <trkpt lat="48.44966" lon="2.75662">
        <ele>42.9</ele>
        <time>2013-04-14T15:21:43Z</time>
      </trkpt>
      <trkpt lat="48.44977" lon="2.75671">
        <ele>43</ele>
        <time>2013-04-14T15:21:46Z</time>
      </trkpt>
      <trkpt lat="48.4498" lon="2.75675">
        <ele>43</ele>
        <time>2013-04-14T15:21:55Z</time>
      </trkpt>
      <trkpt lat="48.4499" lon="2.75686">
        <ele>43</ele>
        <time>2013-04-14T15:22:00Z</time>
      </trkpt>
      <trkpt lat="48.4499" lon="2.75686">
        <ele>43</ele>
        <time>2013-04-14T15:22:09Z</time>
      </trkpt>
      <trkpt lat="48.45001" lon="2.75707">
        <ele>43</ele>
        <time>2013-04-14T15:22:14Z</time>
      </trkpt>
      <trkpt lat="48.45009" lon="2.75722">
        <ele>43.3</ele>
        <time>2013-04-14T15:22:22Z</time>
      </trkpt>
      <trkpt lat="48.45016" lon="2.75731">
        <ele>43.6</ele>
        <time>2013-04-14T15:22:32Z</time>
      </trkpt>
      <trkpt lat="48.45027" lon="2.75741">
        <ele>44</ele>
        <time>2013-04-14T15:22:36Z</time>
      </trkpt>
      <trkpt lat="48.45027" lon="2.75741">
        <ele>44</ele>
        <time>2013-04-14T15:22:45Z</time>
      </trkpt>
      <trkpt lat="48.45027" lon="2.75741">
        <ele>44</ele>
        <time>2013-04-14T15:22:50Z</time>
      </trkpt>
      <trkpt lat="48.45027" lon="2.75741">
        <ele>44</ele>
        <time>2013-04-14T15:22:59Z</time>
      </trkpt>
      <trkpt lat="48.45055" lon="2.75728">
        <ele>45.8</ele>
        <time>2013-04-14T15:23:04Z</time>
      </trkpt>
      <trkpt lat="48.45055" lon="2.75728">
        <ele>45.8</ele>
        <time>2013-04-14T15:23:13Z</time>
      </trkpt>
      <trkpt lat="48.45079" lon="2.75698">
        <ele>44.9</ele>
        <time>2013-04-14T15:23:20Z</time>
      </trkpt>
      <trkpt lat="48.45079" lon="2.75698">
        <ele>44.9</ele>
        <time>2013-04-14T15:23:24Z</time>
      </trkpt>
      <trkpt lat="48.45079" lon="2.75698">
        <ele>44.9</ele>
        <time>2013-04-14T15:23:31Z</time>
      </trkpt>
      <trkpt lat="48.45099" lon="2.75668">
        <ele>45.1</ele>
        <time>2013-04-14T15:23:37Z</time>
      </trkpt>
      <trkpt lat="48.45102" lon="2.7566">
        <ele>45.6</ele>
        <time>2013-04-14T15:23:42Z</time>
      </trkpt>
      <trkpt lat="48.45103" lon="2.75655">
        <ele>45.8</ele>
        <time>2013-04-14T15:23:49Z</time>
      </trkpt>
      <trkpt lat="48.45103" lon="2.75655">
        <ele>45.8</ele>
        <time>2013-04-14T15:23:53Z</time>
      </trkpt>
      <trkpt lat="48.45103" lon="2.75655">
        <ele>45.8</ele>
        <time>2013-04-14T15:23:58Z</time>
      </trkpt>
      <trkpt lat="48.45103" lon="2.75655">
        <ele>45.8</ele>
        <time>2013-04-14T15:24:04Z</time>
      </trkpt>
      <trkpt lat="48.45112" lon="2.75613">
        <ele>47</ele>
        <time>2013-04-14T15:24:09Z</time>
      </trkpt>
      <trkpt lat="48.45121" lon="2.75585">
        <ele>47.7</ele>
        <time>2013-04-14T15:24:19Z</time>
      </trkpt>
      <trkpt lat="48.45121" lon="2.75585">
        <ele>47.7</ele>
        <time>2013-04-14T15:24:23Z</time>
      </trkpt>
      <trkpt lat="48.45125" lon="2.7557">
        <ele>49</ele>
        <time>2013-04-14T15:24:26Z</time>
      </trkpt>
      <trkpt lat="48.45125" lon="2.7557">
        <ele>49</ele>
        <time>2013-04-14T15:24:37Z</time>
      </trkpt>
      <trkpt lat="48.45125" lon="2.7557">
        <ele>49</ele>
        <time>2013-04-14T15:24:41Z</time>
      </trkpt>
      <trkpt lat="48.45125" lon="2.7557">
        <ele>49</ele>
        <time>2013-04-14T15:24:47Z</time>
      </trkpt>
      <trkpt lat="48.4513" lon="2.75525">
        <ele>52.6</ele>
        <time>2013-04-14T15:24:52Z</time>
      </trkpt>
      <trkpt lat="48.45133" lon="2.75507">
        <ele>54.1</ele>
        <time>2013-04-14T15:24:59Z</time>
      </trkpt>
      <trkpt lat="48.45139" lon="2.75495">
        <ele>55.6</ele>
        <time>2013-04-14T15:25:09Z</time>
      </trkpt>
      <trkpt lat="48.45139" lon="2.75495">
        <ele>55.6</ele>
        <time>2013-04-14T15:25:14Z</time>
      </trkpt>
      <trkpt lat="48.45142" lon="2.75465">
        <ele>59.1</ele>
        <time>2013-04-14T15:25:18Z</time>
      </trkpt>
      <trkpt lat="48.45144" lon="2.75452">
        <ele>60.4</ele>
        <time>2013-04-14T15:25:26Z</time>
      </trkpt>
      <trkpt lat="48.45144" lon="2.75447">
        <ele>60.7</ele>
        <time>2013-04-14T15:25:33Z</time>
      </trkpt>
      <trkpt lat="48.45147" lon="2.75428">
        <ele>63.1</ele>
        <time>2013-04-14T15:25:37Z</time>
      </trkpt>
      <trkpt lat="48.45148" lon="2.75417">
        <ele>64.3</ele>
        <time>2013-04-14T15:25:45Z</time>
      </trkpt>
      <trkpt lat="48.45148" lon="2.75417">
        <ele>64.3</ele>
        <time>2013-04-14T15:25:51Z</time>
      </trkpt>
      <trkpt lat="48.45148" lon="2.75417">
        <ele>64.3</ele>
        <time>2013-04-14T15:25:57Z</time>
      </trkpt>
      <trkpt lat="48.45148" lon="2.75417">
        <ele>64.3</ele>
        <time>2013-04-14T15:26:01Z</time>
      </trkpt>
      <trkpt lat="48.45142" lon="2.75377">
        <ele>67.1</ele>
        <time>2013-04-14T15:26:09Z</time>
      </trkpt>
      <trkpt lat="48.45142" lon="2.75377">
        <ele>67.1</ele>
        <time>2013-04-14T15:26:13Z</time>
      </trkpt>
      <trkpt lat="48.45137" lon="2.75362">
        <ele>68.1</ele>
        <time>2013-04-14T15:26:17Z</time>
      </trkpt>
      <trkpt lat="48.45138" lon="2.75346">
        <ele>69.7</ele>
        <time>2013-04-14T15:26:26Z</time>
      </trkpt>
      <trkpt lat="48.45138" lon="2.75346">
        <ele>69.7</ele>
        <time>2013-04-14T15:26:30Z</time>
      </trkpt>
      <trkpt lat="48.45139" lon="2.75331">
        <ele>71.1</ele>
        <time>2013-04-14T15:26:34Z</time>
      </trkpt>
      <trkpt lat="48.45139" lon="2.75331">
        <ele>71.1</ele>
        <time>2013-04-14T15:26:43Z</time>
      </trkpt>
      <trkpt lat="48.45139" lon="2.75331">
        <ele>71.1</ele>
        <time>2013-04-14T15:26:47Z</time>
      </trkpt>
      <trkpt lat="48.45143" lon="2.75306">
        <ele>72.3</ele>
        <time>2013-04-14T15:26:52Z</time>
      </trkpt>
      <trkpt lat="48.45143" lon="2.75306">
        <ele>72.3</ele>
        <time>2013-04-14T15:26:58Z</time>
      </trkpt>
      <trkpt lat="48.45143" lon="2.75306">
        <ele>72.3</ele>
        <time>2013-04-14T15:27:02Z</time>
      </trkpt>
      <trkpt lat="48.45143" lon="2.75306">
        <ele>72.3</ele>
        <time>2013-04-14T15:27:06Z</time>
      </trkpt>
      <trkpt lat="48.45149" lon="2.75265">
        <ele>75.3</ele>
        <time>2013-04-14T15:27:11Z</time>
      </trkpt>
      <trkpt lat="48.45147" lon="2.75243">
        <ele>76.5</ele>
        <time>2013-04-14T15:27:20Z</time>
      </trkpt>
      <trkpt lat="48.45147" lon="2.75239">
        <ele>76.7</ele>
        <time>2013-04-14T15:27:27Z</time>
      </trkpt>
      <trkpt lat="48.45148" lon="2.75224">
        <ele>77.3</ele>
        <time>2013-04-14T15:27:30Z</time>
      </trkpt>
      <trkpt lat="48.45168" lon="2.75203">
        <ele>78.7</ele>
        <time>2013-04-14T15:27:46Z</time>
      </trkpt>
      <trkpt lat="48.45177" lon="2.75201">
        <ele>79</ele>
        <time>2013-04-14T15:27:54Z</time>
      </trkpt>
      <trkpt lat="48.45177" lon="2.75201">
        <ele>79</ele>
        <time>2013-04-14T15:27:58Z</time>
      </trkpt>
      <trkpt lat="48.45177" lon="2.75201">
        <ele>79</ele>
        <time>2013-04-14T15:28:03Z</time>
      </trkpt>
      <trkpt lat="48.45177" lon="2.75201">
        <ele>79</ele>
        <time>2013-04-14T15:28:11Z</time>
      </trkpt>
      <trkpt lat="48.45205" lon="2.75207">
        <ele>79.1</ele>
        <time>2013-04-14T15:28:17Z</time>
      </trkpt>
      <trkpt lat="48.45214" lon="2.7522">
        <ele>78.2</ele>
        <time>2013-04-14T15:28:21Z</time>
      </trkpt>
      <trkpt lat="48.45219" lon="2.75228">
        <ele>77.8</ele>
        <time>2013-04-14T15:28:29Z</time>
      </trkpt>
      <trkpt lat="48.45222" lon="2.75241">
        <ele>77.3</ele>
        <time>2013-04-14T15:28:37Z</time>
      </trkpt>
      <trkpt lat="48.45222" lon="2.75241">
        <ele>77.3</ele>
        <time>2013-04-14T15:28:41Z</time>
      </trkpt>
      <trkpt lat="48.4522" lon="2.75259">
        <ele>76.7</ele>
        <time>2013-04-14T15:28:44Z</time>
      </trkpt>
      <trkpt lat="48.45218" lon="2.75271">
        <ele>76.2</ele>
        <time>2013-04-14T15:28:53Z</time>
      </trkpt>
      <trkpt lat="48.45217" lon="2.7528">
        <ele>75.9</ele>
        <time>2013-04-14T15:29:03Z</time>
      </trkpt>
      <trkpt lat="48.45216" lon="2.75293">
        <ele>75.3</ele>
        <time>2013-04-14T15:29:07Z</time>
      </trkpt>
      <trkpt lat="48.45216" lon="2.75319">
        <ele>74</ele>
        <time>2013-04-14T15:29:19Z</time>
      </trkpt>
      <trkpt lat="48.45216" lon="2.75319">
        <ele>74</ele>
        <time>2013-04-14T15:29:21Z</time>
      </trkpt>
      <trkpt lat="48.45217" lon="2.75336">
        <ele>73.1</ele>
        <time>2013-04-14T15:29:24Z</time>
      </trkpt>
      <trkpt lat="48.45216" lon="2.75351">
        <ele>72.3</ele>
        <time>2013-04-14T15:29:33Z</time>
      </trkpt>
      <trkpt lat="48.45216" lon="2.75351">
        <ele>72.3</ele>
        <time>2013-04-14T15:29:35Z</time>
      </trkpt>
      <trkpt lat="48.45215" lon="2.75366">
        <ele>71.4</ele>
        <time>2013-04-14T15:29:40Z</time>
      </trkpt>
      <trkpt lat="48.45215" lon="2.75385">
        <ele>70.2</ele>
        <time>2013-04-14T15:29:52Z</time>
      </trkpt>
      <trkpt lat="48.45215" lon="2.75385">
        <ele>70.2</ele>
        <time>2013-04-14T15:29:54Z</time>
      </trkpt>
      <trkpt lat="48.45215" lon="2.75385">
        <ele>70.2</ele>
        <time>2013-04-14T15:29:56Z</time>
      </trkpt>
      <trkpt lat="48.45215" lon="2.75385">
        <ele>70.2</ele>
        <time>2013-04-14T15:29:58Z</time>
      </trkpt>
      <trkpt lat="48.45223" lon="2.75394">
        <ele>69.8</ele>
        <time>2013-04-14T15:30:05Z</time>
      </trkpt>
      <trkpt lat="48.45223" lon="2.75394">
        <ele>69.8</ele>
        <time>2013-04-14T15:30:10Z</time>
      </trkpt>
      <trkpt lat="48.45241" lon="2.75407">
        <ele>70</ele>
        <time>2013-04-14T15:30:14Z</time>
      </trkpt>
      <trkpt lat="48.45265" lon="2.7543">
        <ele>69.3</ele>
        <time>2013-04-14T15:30:29Z</time>
      </trkpt>
      <trkpt lat="48.45276" lon="2.75443">
        <ele>69</ele>
        <time>2013-04-14T15:30:40Z</time>
      </trkpt>
      <trkpt lat="48.45276" lon="2.75443">
        <ele>69</ele>
        <time>2013-04-14T15:30:45Z</time>
      </trkpt>
      <trkpt lat="48.45276" lon="2.75443">
        <ele>69</ele>
        <time>2013-04-14T15:30:49Z</time>
      </trkpt>
      <trkpt lat="48.45291" lon="2.75449">
        <ele>68.7</ele>
        <time>2013-04-14T15:30:53Z</time>
      </trkpt>
      <trkpt lat="48.45303" lon="2.75449">
        <ele>68.7</ele>
        <time>2013-04-14T15:30:59Z</time>
      </trkpt>
      <trkpt lat="48.45303" lon="2.75449">
        <ele>68.7</ele>
        <time>2013-04-14T15:31:07Z</time>
      </trkpt>
      <trkpt lat="48.45314" lon="2.75456">
        <ele>68</ele>
        <time>2013-04-14T15:31:10Z</time>
      </trkpt>
      <trkpt lat="48.45318" lon="2.75454">
        <ele>68</ele>
        <time>2013-04-14T15:31:18Z</time>
      </trkpt>
      <trkpt lat="48.45318" lon="2.75454">
        <ele>68</ele>
        <time>2013-04-14T15:31:24Z</time>
      </trkpt>
      <trkpt lat="48.45322" lon="2.75441">
        <ele>68.5</ele>
        <time>2013-04-14T15:31:31Z</time>
      </trkpt>
      <trkpt lat="48.45322" lon="2.75441">
        <ele>68.5</ele>
        <time>2013-04-14T15:31:35Z</time>
      </trkpt>
      <trkpt lat="48.45322" lon="2.75441">
        <ele>68.5</ele>
        <time>2013-04-14T15:31:39Z</time>
      </trkpt>
      <trkpt lat="48.45333" lon="2.75402">
        <ele>69.5</ele>
        <time>2013-04-14T15:31:44Z</time>
      </trkpt>
      <trkpt lat="48.45338" lon="2.75389">
        <ele>69.8</ele>
        <time>2013-04-14T15:31:52Z</time>
      </trkpt>
      <trkpt lat="48.45341" lon="2.75381">
        <ele>70.2</ele>
        <time>2013-04-14T15:32:01Z</time>
      </trkpt>
      <trkpt lat="48.45345" lon="2.75357">
        <ele>71.2</ele>
        <time>2013-04-14T15:32:06Z</time>
      </trkpt>
      <trkpt lat="48.45347" lon="2.75344">
        <ele>71.3</ele>
        <time>2013-04-14T15:32:15Z</time>
      </trkpt>
      <trkpt lat="48.45349" lon="2.75331">
        <ele>71.5</ele>
        <time>2013-04-14T15:32:19Z</time>
      </trkpt>
      <trkpt lat="48.45353" lon="2.75312">
        <ele>72.1</ele>
        <time>2013-04-14T15:32:29Z</time>
      </trkpt>
      <trkpt lat="48.45355" lon="2.75297">
        <ele>72.5</ele>
        <time>2013-04-14T15:32:32Z</time>
      </trkpt>
      <trkpt lat="48.45355" lon="2.75297">
        <ele>72.5</ele>
        <time>2013-04-14T15:32:37Z</time>
      </trkpt>
      <trkpt lat="48.45355" lon="2.75278">
        <ele>73.2</ele>
        <time>2013-04-14T15:32:41Z</time>
      </trkpt>
      <trkpt lat="48.45355" lon="2.75278">
        <ele>73.2</ele>
        <time>2013-04-14T15:32:49Z</time>
      </trkpt>
      <trkpt lat="48.45355" lon="2.75261">
        <ele>74</ele>
        <time>2013-04-14T15:32:52Z</time>
      </trkpt>
      <trkpt lat="48.45358" lon="2.75252">
        <ele>74.1</ele>
        <time>2013-04-14T15:33:00Z</time>
      </trkpt>
      <trkpt lat="48.45365" lon="2.75239">
        <ele>74.6</ele>
        <time>2013-04-14T15:33:11Z</time>
      </trkpt>
      <trkpt lat="48.45366" lon="2.75237">
        <ele>74.7</ele>
        <time>2013-04-14T15:33:17Z</time>
      </trkpt>
      <trkpt lat="48.45366" lon="2.75237">
        <ele>74.7</ele>
        <time>2013-04-14T15:33:22Z</time>
      </trkpt>
      <trkpt lat="48.45386" lon="2.7522">
        <ele>74.4</ele>
        <time>2013-04-14T15:33:26Z</time>
      </trkpt>
      <trkpt lat="48.45391" lon="2.75218">
        <ele>74.4</ele>
        <time>2013-04-14T15:33:33Z</time>
      </trkpt>
      <trkpt lat="48.45397" lon="2.75211">
        <ele>75</ele>
        <time>2013-04-14T15:33:38Z</time>
      </trkpt>
      <trkpt lat="48.45409" lon="2.75205">
        <ele>75</ele>
        <time>2013-04-14T15:33:46Z</time>
      </trkpt>
      <trkpt lat="48.45409" lon="2.75205">
        <ele>75</ele>
        <time>2013-04-14T15:33:51Z</time>
      </trkpt>
      <trkpt lat="48.45419" lon="2.75201">
        <ele>74.7</ele>
        <time>2013-04-14T15:33:56Z</time>
      </trkpt>
      <trkpt lat="48.45419" lon="2.75201">
        <ele>74.7</ele>
        <time>2013-04-14T15:34:02Z</time>
      </trkpt>
      <trkpt lat="48.45429" lon="2.75198">
        <ele>74.4</ele>
        <time>2013-04-14T15:34:08Z</time>
      </trkpt>
      <trkpt lat="48.45434" lon="2.75201">
        <ele>74.1</ele>
        <time>2013-04-14T15:34:14Z</time>
      </trkpt>
      <trkpt lat="48.45444" lon="2.75198">
        <ele>73.9</ele>
        <time>2013-04-14T15:34:18Z</time>
      </trkpt>
      <trkpt lat="48.45457" lon="2.75192">
        <ele>74.1</ele>
        <time>2013-04-14T15:34:25Z</time>
      </trkpt>
      <trkpt lat="48.45459" lon="2.75192">
        <ele>74.1</ele>
        <time>2013-04-14T15:34:29Z</time>
      </trkpt>
      <trkpt lat="48.45459" lon="2.75192">
        <ele>74.1</ele>
        <time>2013-04-14T15:34:35Z</time>
      </trkpt>
      <trkpt lat="48.4547" lon="2.7519">
        <ele>74.2</ele>
        <time>2013-04-14T15:34:40Z</time>
      </trkpt>
      <trkpt lat="48.45504" lon="2.75186">
        <ele>75.2</ele>
        <time>2013-04-14T15:34:59Z</time>
      </trkpt>
      <trkpt lat="48.4554" lon="2.75179">
        <ele>75.3</ele>
        <time>2013-04-14T15:35:21Z</time>
      </trkpt>
      <trkpt lat="48.4554" lon="2.75179">
        <ele>75.3</ele>
        <time>2013-04-14T15:35:27Z</time>
      </trkpt>
      <trkpt lat="48.4554" lon="2.75179">
        <ele>75.3</ele>
        <time>2013-04-14T15:35:31Z</time>
      </trkpt>
      <trkpt lat="48.4554" lon="2.75179">
        <ele>75.3</ele>
        <time>2013-04-14T15:35:33Z</time>
      </trkpt>
      <trkpt lat="48.45556" lon="2.75186">
        <ele>75.3</ele>
        <time>2013-04-14T15:35:39Z</time>
      </trkpt>
      <trkpt lat="48.45574" lon="2.75183">
        <ele>75.4</ele>
        <time>2013-04-14T15:35:46Z</time>
      </trkpt>
      <trkpt lat="48.45574" lon="2.75183">
        <ele>75.4</ele>
        <time>2013-04-14T15:35:50Z</time>
      </trkpt>
      <trkpt lat="48.45574" lon="2.75183">
        <ele>75.4</ele>
        <time>2013-04-14T15:35:53Z</time>
      </trkpt>
      <trkpt lat="48.45574" lon="2.75183">
        <ele>75.4</ele>
        <time>2013-04-14T15:36:03Z</time>
      </trkpt>
      <trkpt lat="48.45596" lon="2.7519">
        <ele>75.2</ele>
        <time>2013-04-14T15:36:07Z</time>
      </trkpt>
      <trkpt lat="48.45607" lon="2.75188">
        <ele>75.2</ele>
        <time>2013-04-14T15:36:14Z</time>
      </trkpt>
      <trkpt lat="48.45611" lon="2.75188">
        <ele>75.2</ele>
        <time>2013-04-14T15:36:19Z</time>
      </trkpt>
      <trkpt lat="48.4562" lon="2.75188">
        <ele>75.2</ele>
        <time>2013-04-14T15:36:30Z</time>
      </trkpt>
      <trkpt lat="48.45628" lon="2.75188">
        <ele>75.2</ele>
        <time>2013-04-14T15:36:33Z</time>
      </trkpt>
      <trkpt lat="48.4564" lon="2.75188">
        <ele>75.2</ele>
        <time>2013-04-14T15:36:44Z</time>
      </trkpt>
      <trkpt lat="48.45648" lon="2.75183">
        <ele>75.3</ele>
        <time>2013-04-14T15:36:49Z</time>
      </trkpt>
      <trkpt lat="48.45662" lon="2.75181">
        <ele>75.1</ele>
        <time>2013-04-14T15:36:58Z</time>
      </trkpt>
      <trkpt lat="48.45675" lon="2.75179">
        <ele>74.7</ele>
        <time>2013-04-14T15:37:03Z</time>
      </trkpt>
      <trkpt lat="48.45684" lon="2.75179">
        <ele>74.4</ele>
        <time>2013-04-14T15:37:11Z</time>
      </trkpt>
      <trkpt lat="48.45695" lon="2.75175">
        <ele>74</ele>
        <time>2013-04-14T15:37:16Z</time>
      </trkpt>
      <trkpt lat="48.45706" lon="2.75175">
        <ele>73.9</ele>
        <time>2013-04-14T15:37:23Z</time>
      </trkpt>
      <trkpt lat="48.45714" lon="2.75175">
        <ele>73.8</ele>
        <time>2013-04-14T15:37:33Z</time>
      </trkpt>
      <trkpt lat="48.45723" lon="2.75175">
        <ele>73.7</ele>
        <time>2013-04-14T15:37:36Z</time>
      </trkpt>
      <trkpt lat="48.45733" lon="2.75179">
        <ele>73.6</ele>
        <time>2013-04-14T15:37:40Z</time>
      </trkpt>
      <trkpt lat="48.45748" lon="2.75183">
        <ele>73.4</ele>
        <time>2013-04-14T15:37:51Z</time>
      </trkpt>
      <trkpt lat="48.45758" lon="2.75188">
        <ele>72.9</ele>
        <time>2013-04-14T15:38:03Z</time>
      </trkpt>
      <trkpt lat="48.45758" lon="2.75188">
        <ele>72.9</ele>
        <time>2013-04-14T15:38:07Z</time>
      </trkpt>
      <trkpt lat="48.45787" lon="2.75188">
        <ele>72.2</ele>
        <time>2013-04-14T15:38:12Z</time>
      </trkpt>
      <trkpt lat="48.45787" lon="2.75188">
        <ele>72.2</ele>
        <time>2013-04-14T15:38:21Z</time>
      </trkpt>
      <trkpt lat="48.45817" lon="2.7519">
        <ele>71.6</ele>
        <time>2013-04-14T15:38:27Z</time>
      </trkpt>
      <trkpt lat="48.45817" lon="2.7519">
        <ele>71.6</ele>
        <time>2013-04-14T15:38:32Z</time>
      </trkpt>
      <trkpt lat="48.45817" lon="2.7519">
        <ele>71.6</ele>
        <time>2013-04-14T15:38:38Z</time>
      </trkpt>
      <trkpt lat="48.45835" lon="2.75203">
        <ele>70.7</ele>
        <time>2013-04-14T15:38:43Z</time>
      </trkpt>
      <trkpt lat="48.45849" lon="2.75205">
        <ele>70.6</ele>
        <time>2013-04-14T15:38:48Z</time>
      </trkpt>
      <trkpt lat="48.45857" lon="2.75207">
        <ele>70.5</ele>
        <time>2013-04-14T15:38:55Z</time>
      </trkpt>
      <trkpt lat="48.45857" lon="2.75207">
        <ele>70.5</ele>
        <time>2013-04-14T15:38:59Z</time>
      </trkpt>
      <trkpt lat="48.45857" lon="2.75207">
        <ele>70.5</ele>
        <time>2013-04-14T15:39:02Z</time>
      </trkpt>
      <trkpt lat="48.45857" lon="2.75207">
        <ele>70.5</ele>
        <time>2013-04-14T15:39:13Z</time>
      </trkpt>
      <trkpt lat="48.45884" lon="2.75222">
        <ele>70</ele>
        <time>2013-04-14T15:39:19Z</time>
      </trkpt>
      <trkpt lat="48.45884" lon="2.75222">
        <ele>70</ele>
        <time>2013-04-14T15:39:28Z</time>
      </trkpt>
      <trkpt lat="48.45907" lon="2.75233">
        <ele>70</ele>
        <time>2013-04-14T15:39:32Z</time>
      </trkpt>
      <trkpt lat="48.45921" lon="2.75231">
        <ele>70</ele>
        <time>2013-04-14T15:39:41Z</time>
      </trkpt>
      <trkpt lat="48.45932" lon="2.75235">
        <ele>70</ele>
        <time>2013-04-14T15:39:48Z</time>
      </trkpt>
      <trkpt lat="48.45939" lon="2.75235">
        <ele>70</ele>
        <time>2013-04-14T15:39:54Z</time>
      </trkpt>
      <trkpt lat="48.4595" lon="2.75239">
        <ele>70</ele>
        <time>2013-04-14T15:40:01Z</time>
      </trkpt>
      <trkpt lat="48.45956" lon="2.75248">
        <ele>70</ele>
        <time>2013-04-14T15:40:08Z</time>
      </trkpt>
      <trkpt lat="48.4596" lon="2.75261">
        <ele>70</ele>
        <time>2013-04-14T15:40:14Z</time>
      </trkpt>
      <trkpt lat="48.45972" lon="2.75282">
        <ele>70</ele>
        <time>2013-04-14T15:40:26Z</time>
      </trkpt>
      <trkpt lat="48.45987" lon="2.75301">
        <ele>70</ele>
        <time>2013-04-14T15:40:39Z</time>
      </trkpt>
      <trkpt lat="48.45998" lon="2.75308">
        <ele>70</ele>
        <time>2013-04-14T15:40:46Z</time>
      </trkpt>
      <trkpt lat="48.46" lon="2.75308">
        <ele>70</ele>
        <time>2013-04-14T15:40:50Z</time>
      </trkpt>
      <trkpt lat="48.46009" lon="2.75312">
        <ele>70.2</ele>
        <time>2013-04-14T15:40:54Z</time>
      </trkpt>
      <trkpt lat="48.46022" lon="2.75316">
        <ele>70.5</ele>
        <time>2013-04-14T15:41:00Z</time>
      </trkpt>
      <trkpt lat="48.46031" lon="2.75321">
        <ele>70.5</ele>
        <time>2013-04-14T15:41:10Z</time>
      </trkpt>
      <trkpt lat="48.46042" lon="2.75327">
        <ele>70.6</ele>
        <time>2013-04-14T15:41:13Z</time>
      </trkpt>
      <trkpt lat="48.46061" lon="2.75338">
        <ele>70.7</ele>
        <time>2013-04-14T15:41:23Z</time>
      </trkpt>
      <trkpt lat="48.46066" lon="2.7534">
        <ele>70.5</ele>
        <time>2013-04-14T15:41:29Z</time>
      </trkpt>
      <trkpt lat="48.46078" lon="2.75346">
        <ele>70.1</ele>
        <time>2013-04-14T15:41:33Z</time>
      </trkpt>
      <trkpt lat="48.4609" lon="2.75355">
        <ele>70</ele>
        <time>2013-04-14T15:41:45Z</time>
      </trkpt>
      <trkpt lat="48.461" lon="2.75357">
        <ele>70</ele>
        <time>2013-04-14T15:41:49Z</time>
      </trkpt>
      <trkpt lat="48.46106" lon="2.75357">
        <ele>70</ele>
        <time>2013-04-14T15:41:56Z</time>
      </trkpt>
      <trkpt lat="48.46106" lon="2.75357">
        <ele>70</ele>
        <time>2013-04-14T15:42:01Z</time>
      </trkpt>
      <trkpt lat="48.46118" lon="2.75362">
        <ele>70</ele>
        <time>2013-04-14T15:42:05Z</time>
      </trkpt>
      <trkpt lat="48.46125" lon="2.75364">
        <ele>70</ele>
        <time>2013-04-14T15:42:07Z</time>
      </trkpt>
      <trkpt lat="48.4614" lon="2.75372">
        <ele>70</ele>
        <time>2013-04-14T15:42:17Z</time>
      </trkpt>
      <trkpt lat="48.46153" lon="2.75381">
        <ele>70</ele>
        <time>2013-04-14T15:42:30Z</time>
      </trkpt>
      <trkpt lat="48.46162" lon="2.75389">
        <ele>70</ele>
        <time>2013-04-14T15:42:34Z</time>
      </trkpt>
      <trkpt lat="48.46169" lon="2.75392">
        <ele>70</ele>
        <time>2013-04-14T15:42:41Z</time>
      </trkpt>
      <trkpt lat="48.46169" lon="2.75392">
        <ele>70</ele>
        <time>2013-04-14T15:42:45Z</time>
      </trkpt>
      <trkpt lat="48.46184" lon="2.75394">
        <ele>70</ele>
        <time>2013-04-14T15:42:49Z</time>
      </trkpt>
      <trkpt lat="48.46205" lon="2.754">
        <ele>69.8</ele>
        <time>2013-04-14T15:43:01Z</time>
      </trkpt>
      <trkpt lat="48.46216" lon="2.754">
        <ele>69.7</ele>
        <time>2013-04-14T15:43:08Z</time>
      </trkpt>
      <trkpt lat="48.46227" lon="2.75404">
        <ele>69.4</ele>
        <time>2013-04-14T15:43:18Z</time>
      </trkpt>
      <trkpt lat="48.46227" lon="2.75404">
        <ele>69.4</ele>
        <time>2013-04-14T15:43:22Z</time>
      </trkpt>
      <trkpt lat="48.46231" lon="2.75404">
        <ele>69.3</ele>
        <time>2013-04-14T15:43:24Z</time>
      </trkpt>
      <trkpt lat="48.46237" lon="2.75409">
        <ele>69.1</ele>
        <time>2013-04-14T15:43:36Z</time>
      </trkpt>
      <trkpt lat="48.4624" lon="2.75411">
        <ele>69.1</ele>
        <time>2013-04-14T15:43:47Z</time>
      </trkpt>
      <trkpt lat="48.46249" lon="2.75415">
        <ele>69</ele>
        <time>2013-04-14T15:43:52Z</time>
      </trkpt>
      <trkpt lat="48.46257" lon="2.75417">
        <ele>69</ele>
        <time>2013-04-14T15:44:00Z</time>
      </trkpt>
      <trkpt lat="48.46257" lon="2.75417">
        <ele>69</ele>
        <time>2013-04-14T15:44:05Z</time>
      </trkpt>
      <trkpt lat="48.46264" lon="2.75419">
        <ele>69</ele>
        <time>2013-04-14T15:44:09Z</time>
      </trkpt>
      <trkpt lat="48.46273" lon="2.75422">
        <ele>68.8</ele>
        <time>2013-04-14T15:44:14Z</time>
      </trkpt>
      <trkpt lat="48.46297" lon="2.75424">
        <ele>68.2</ele>
        <time>2013-04-14T15:44:24Z</time>
      </trkpt>
      <trkpt lat="48.46303" lon="2.75426">
        <ele>68.1</ele>
        <time>2013-04-14T15:44:30Z</time>
      </trkpt>
      <trkpt lat="48.46312" lon="2.7543">
        <ele>67.8</ele>
        <time>2013-04-14T15:44:36Z</time>
      </trkpt>
      <trkpt lat="48.46321" lon="2.75434">
        <ele>67.4</ele>
        <time>2013-04-14T15:44:45Z</time>
      </trkpt>
      <trkpt lat="48.46321" lon="2.75434">
        <ele>67.4</ele>
        <time>2013-04-14T15:44:49Z</time>
      </trkpt>
      <trkpt lat="48.46321" lon="2.75434">
        <ele>67.4</ele>
        <time>2013-04-14T15:44:55Z</time>
      </trkpt>
      <trkpt lat="48.46339" lon="2.75437">
        <ele>67</ele>
        <time>2013-04-14T15:45:00Z</time>
      </trkpt>
      <trkpt lat="48.46356" lon="2.75441">
        <ele>67</ele>
        <time>2013-04-14T15:45:09Z</time>
      </trkpt>
      <trkpt lat="48.46369" lon="2.75447">
        <ele>66.7</ele>
        <time>2013-04-14T15:45:15Z</time>
      </trkpt>
      <trkpt lat="48.46375" lon="2.75456">
        <ele>66.5</ele>
        <time>2013-04-14T15:45:19Z</time>
      </trkpt>
      <trkpt lat="48.4638" lon="2.75471">
        <ele>66.3</ele>
        <time>2013-04-14T15:45:30Z</time>
      </trkpt>
      <trkpt lat="48.46383" lon="2.75477">
        <ele>66.2</ele>
        <time>2013-04-14T15:45:32Z</time>
      </trkpt>
      <trkpt lat="48.46384" lon="2.75482">
        <ele>66.1</ele>
        <time>2013-04-14T15:45:38Z</time>
      </trkpt>
      <trkpt lat="48.46386" lon="2.7549">
        <ele>66</ele>
        <time>2013-04-14T15:45:48Z</time>
      </trkpt>
      <trkpt lat="48.46391" lon="2.75503">
        <ele>65.9</ele>
        <time>2013-04-14T15:45:51Z</time>
      </trkpt>
      <trkpt lat="48.46391" lon="2.75503">
        <ele>65.9</ele>
        <time>2013-04-14T15:45:57Z</time>
      </trkpt>
      <trkpt lat="48.46397" lon="2.75516">
        <ele>65.7</ele>
        <time>2013-04-14T15:46:01Z</time>
      </trkpt>
      <trkpt lat="48.464" lon="2.75522">
        <ele>65.6</ele>
        <time>2013-04-14T15:46:03Z</time>
      </trkpt>
      <trkpt lat="48.46407" lon="2.75537">
        <ele>65.3</ele>
        <time>2013-04-14T15:46:12Z</time>
      </trkpt>
      <trkpt lat="48.46407" lon="2.75537">
        <ele>65.3</ele>
        <time>2013-04-14T15:46:14Z</time>
      </trkpt>
      <trkpt lat="48.46407" lon="2.75537">
        <ele>65.3</ele>
        <time>2013-04-14T15:46:17Z</time>
      </trkpt>
      <trkpt lat="48.46412" lon="2.75559">
        <ele>65.1</ele>
        <time>2013-04-14T15:46:21Z</time>
      </trkpt>
      <trkpt lat="48.46415" lon="2.75578">
        <ele>65</ele>
        <time>2013-04-14T15:46:25Z</time>
      </trkpt>
      <trkpt lat="48.4642" lon="2.75595">
        <ele>64.9</ele>
        <time>2013-04-14T15:46:33Z</time>
      </trkpt>
      <trkpt lat="48.46423" lon="2.7561">
        <ele>64.8</ele>
        <time>2013-04-14T15:46:36Z</time>
      </trkpt>
      <trkpt lat="48.46425" lon="2.75619">
        <ele>64.7</ele>
        <time>2013-04-14T15:46:44Z</time>
      </trkpt>
      <trkpt lat="48.46425" lon="2.75619">
        <ele>64.7</ele>
        <time>2013-04-14T15:46:48Z</time>
      </trkpt>
      <trkpt lat="48.46425" lon="2.75619">
        <ele>64.7</ele>
        <time>2013-04-14T15:46:50Z</time>
      </trkpt>
      <trkpt lat="48.46425" lon="2.75619">
        <ele>64.7</ele>
        <time>2013-04-14T15:46:52Z</time>
      </trkpt>
      <trkpt lat="48.46431" lon="2.7564">
        <ele>64.5</ele>
        <time>2013-04-14T15:46:58Z</time>
      </trkpt>
      <trkpt lat="48.46437" lon="2.75647">
        <ele>64.2</ele>
        <time>2013-04-14T15:47:07Z</time>
      </trkpt>
      <trkpt lat="48.46442" lon="2.75658">
        <ele>64</ele>
        <time>2013-04-14T15:47:11Z</time>
      </trkpt>
      <trkpt lat="48.46451" lon="2.75677">
        <ele>63.9</ele>
        <time>2013-04-14T15:47:22Z</time>
      </trkpt>
      <trkpt lat="48.46451" lon="2.75677">
        <ele>63.9</ele>
        <time>2013-04-14T15:47:24Z</time>
      </trkpt>
      <trkpt lat="48.46453" lon="2.75688">
        <ele>63.8</ele>
        <time>2013-04-14T15:47:28Z</time>
      </trkpt>
      <trkpt lat="48.4646" lon="2.7572">
        <ele>63.4</ele>
        <time>2013-04-14T15:47:41Z</time>
      </trkpt>
      <trkpt lat="48.4647" lon="2.75761">
        <ele>63.1</ele>
        <time>2013-04-14T15:47:55Z</time>
      </trkpt>
      <trkpt lat="48.4647" lon="2.75761">
        <ele>63.1</ele>
        <time>2013-04-14T15:47:57Z</time>
      </trkpt>
      <trkpt lat="48.46473" lon="2.75774">
        <ele>63</ele>
        <time>2013-04-14T15:48:02Z</time>
      </trkpt>
      <trkpt lat="48.4648" lon="2.75791">
        <ele>63.3</ele>
        <time>2013-04-14T15:48:16Z</time>
      </trkpt>
      <trkpt lat="48.4648" lon="2.75791">
        <ele>63.3</ele>
        <time>2013-04-14T15:48:18Z</time>
      </trkpt>
      <trkpt lat="48.46485" lon="2.75804">
        <ele>63.5</ele>
        <time>2013-04-14T15:48:22Z</time>
      </trkpt>
      <trkpt lat="48.46485" lon="2.75804">
        <ele>63.5</ele>
        <time>2013-04-14T15:48:29Z</time>
      </trkpt>
      <trkpt lat="48.46488" lon="2.75816">
        <ele>63.4</ele>
        <time>2013-04-14T15:48:33Z</time>
      </trkpt>
      <trkpt lat="48.46488" lon="2.75816">
        <ele>63.4</ele>
        <time>2013-04-14T15:48:39Z</time>
      </trkpt>
      <trkpt lat="48.46488" lon="2.75816">
        <ele>63.4</ele>
        <time>2013-04-14T15:48:41Z</time>
      </trkpt>
      <trkpt lat="48.46488" lon="2.75816">
        <ele>63.4</ele>
        <time>2013-04-14T15:48:43Z</time>
      </trkpt>
      <trkpt lat="48.46495" lon="2.75829">
        <ele>63.2</ele>
        <time>2013-04-14T15:48:47Z</time>
      </trkpt>
      <trkpt lat="48.46499" lon="2.75838">
        <ele>63</ele>
        <time>2013-04-14T15:48:56Z</time>
      </trkpt>
      <trkpt lat="48.46505" lon="2.75857">
        <ele>63</ele>
        <time>2013-04-14T15:49:00Z</time>
      </trkpt>
      <trkpt lat="48.4651" lon="2.75872">
        <ele>63</ele>
        <time>2013-04-14T15:49:08Z</time>
      </trkpt>
      <trkpt lat="48.46516" lon="2.75881">
        <ele>63</ele>
        <time>2013-04-14T15:49:16Z</time>
      </trkpt>
      <trkpt lat="48.46519" lon="2.75892">
        <ele>62.9</ele>
        <time>2013-04-14T15:49:20Z</time>
      </trkpt>
      <trkpt lat="48.46523" lon="2.759">
        <ele>62.7</ele>
        <time>2013-04-14T15:49:27Z</time>
      </trkpt>
      <trkpt lat="48.46527" lon="2.75919">
        <ele>62</ele>
        <time>2013-04-14T15:49:31Z</time>
      </trkpt>
      <trkpt lat="48.4653" lon="2.75924">
        <ele>62</ele>
        <time>2013-04-14T15:49:39Z</time>
      </trkpt>
      <trkpt lat="48.46537" lon="2.75943">
        <ele>62</ele>
        <time>2013-04-14T15:49:43Z</time>
      </trkpt>
      <trkpt lat="48.46539" lon="2.75949">
        <ele>62</ele>
        <time>2013-04-14T15:49:50Z</time>
      </trkpt>
      <trkpt lat="48.46542" lon="2.75958">
        <ele>62</ele>
        <time>2013-04-14T15:49:52Z</time>
      </trkpt>
      <trkpt lat="48.46544" lon="2.75975">
        <ele>61.9</ele>
        <time>2013-04-14T15:49:58Z</time>
      </trkpt>
      <trkpt lat="48.46551" lon="2.75999">
        <ele>61.2</ele>
        <time>2013-04-14T15:50:10Z</time>
      </trkpt>
      <trkpt lat="48.46554" lon="2.7601">
        <ele>61</ele>
        <time>2013-04-14T15:50:12Z</time>
      </trkpt>
      <trkpt lat="48.46557" lon="2.7602">
        <ele>61</ele>
        <time>2013-04-14T15:50:19Z</time>
      </trkpt>
      <trkpt lat="48.46558" lon="2.76025">
        <ele>60.9</ele>
        <time>2013-04-14T15:50:25Z</time>
      </trkpt>
      <trkpt lat="48.4656" lon="2.76042">
        <ele>60.4</ele>
        <time>2013-04-14T15:50:29Z</time>
      </trkpt>
      <trkpt lat="48.46567" lon="2.76061">
        <ele>59.9</ele>
        <time>2013-04-14T15:50:42Z</time>
      </trkpt>
      <trkpt lat="48.46567" lon="2.76061">
        <ele>59.9</ele>
        <time>2013-04-14T15:50:44Z</time>
      </trkpt>
      <trkpt lat="48.46567" lon="2.76061">
        <ele>59.9</ele>
        <time>2013-04-14T15:50:46Z</time>
      </trkpt>
      <trkpt lat="48.46571" lon="2.76078">
        <ele>59.6</ele>
        <time>2013-04-14T15:50:50Z</time>
      </trkpt>
      <trkpt lat="48.46573" lon="2.76095">
        <ele>59.2</ele>
        <time>2013-04-14T15:50:55Z</time>
      </trkpt>
      <trkpt lat="48.46575" lon="2.76113">
        <ele>59</ele>
        <time>2013-04-14T15:51:05Z</time>
      </trkpt>
      <trkpt lat="48.46577" lon="2.76128">
        <ele>59</ele>
        <time>2013-04-14T15:51:09Z</time>
      </trkpt>
      <trkpt lat="48.46581" lon="2.7616">
        <ele>58.3</ele>
        <time>2013-04-14T15:51:24Z</time>
      </trkpt>
      <trkpt lat="48.46581" lon="2.7616">
        <ele>58.3</ele>
        <time>2013-04-14T15:51:26Z</time>
      </trkpt>
      <trkpt lat="48.46581" lon="2.76179">
        <ele>58</ele>
        <time>2013-04-14T15:51:30Z</time>
      </trkpt>
      <trkpt lat="48.46582" lon="2.76205">
        <ele>57.6</ele>
        <time>2013-04-14T15:51:42Z</time>
      </trkpt>
      <trkpt lat="48.46582" lon="2.76205">
        <ele>57.6</ele>
        <time>2013-04-14T15:51:43Z</time>
      </trkpt>
      <trkpt lat="48.46584" lon="2.76216">
        <ele>57.2</ele>
        <time>2013-04-14T15:51:47Z</time>
      </trkpt>
      <trkpt lat="48.46587" lon="2.76241">
        <ele>57</ele>
        <time>2013-04-14T15:52:02Z</time>
      </trkpt>
      <trkpt lat="48.46588" lon="2.76248">
        <ele>57</ele>
        <time>2013-04-14T15:52:04Z</time>
      </trkpt>
      <trkpt lat="48.46589" lon="2.76256">
        <ele>56.8</ele>
        <time>2013-04-14T15:52:12Z</time>
      </trkpt>
      <trkpt lat="48.4659" lon="2.76269">
        <ele>56.5</ele>
        <time>2013-04-14T15:52:17Z</time>
      </trkpt>
      <trkpt lat="48.46591" lon="2.76304">
        <ele>56</ele>
        <time>2013-04-14T15:52:33Z</time>
      </trkpt>
      <trkpt lat="48.46591" lon="2.76323">
        <ele>55.4</ele>
        <time>2013-04-14T15:52:37Z</time>
      </trkpt>
      <trkpt lat="48.46592" lon="2.76346">
        <ele>54.5</ele>
        <time>2013-04-14T15:52:47Z</time>
      </trkpt>
      <trkpt lat="48.46592" lon="2.76355">
        <ele>54.2</ele>
        <time>2013-04-14T15:52:49Z</time>
      </trkpt>
      <trkpt lat="48.46593" lon="2.76381">
        <ele>54</ele>
        <time>2013-04-14T15:53:00Z</time>
      </trkpt>
      <trkpt lat="48.46593" lon="2.76381">
        <ele>54</ele>
        <time>2013-04-14T15:53:02Z</time>
      </trkpt>
      <trkpt lat="48.46595" lon="2.76404">
        <ele>53.5</ele>
        <time>2013-04-14T15:53:06Z</time>
      </trkpt>
      <trkpt lat="48.46592" lon="2.76428">
        <ele>52.6</ele>
        <time>2013-04-14T15:53:16Z</time>
      </trkpt>
      <trkpt lat="48.46587" lon="2.76479">
        <ele>51</ele>
        <time>2013-04-14T15:53:42Z</time>
      </trkpt>
      <trkpt lat="48.46587" lon="2.76479">
        <ele>51</ele>
        <time>2013-04-14T15:53:44Z</time>
      </trkpt>
      <trkpt lat="48.46585" lon="2.76499">
        <ele>50.9</ele>
        <time>2013-04-14T15:53:48Z</time>
      </trkpt>
      <trkpt lat="48.46583" lon="2.76516">
        <ele>50.4</ele>
        <time>2013-04-14T15:53:57Z</time>
      </trkpt>
      <trkpt lat="48.46583" lon="2.76516">
        <ele>50.4</ele>
        <time>2013-04-14T15:53:59Z</time>
      </trkpt>
      <trkpt lat="48.46583" lon="2.76516">
        <ele>50.4</ele>
        <time>2013-04-14T15:54:01Z</time>
      </trkpt>
      <trkpt lat="48.46581" lon="2.76531">
        <ele>49.9</ele>
        <time>2013-04-14T15:54:05Z</time>
      </trkpt>
      <trkpt lat="48.4658" lon="2.76546">
        <ele>49.3</ele>
        <time>2013-04-14T15:54:11Z</time>
      </trkpt>
      <trkpt lat="48.4658" lon="2.76565">
        <ele>49</ele>
        <time>2013-04-14T15:54:22Z</time>
      </trkpt>
      <trkpt lat="48.4658" lon="2.76597">
        <ele>48.5</ele>
        <time>2013-04-14T15:54:38Z</time>
      </trkpt>
      <trkpt lat="48.4658" lon="2.76597">
        <ele>48.5</ele>
        <time>2013-04-14T15:54:39Z</time>
      </trkpt>
      <trkpt lat="48.4658" lon="2.76606">
        <ele>48.2</ele>
        <time>2013-04-14T15:54:41Z</time>
      </trkpt>
      <trkpt lat="48.46578" lon="2.7663">
        <ele>48</ele>
        <time>2013-04-14T15:54:53Z</time>
      </trkpt>
      <trkpt lat="48.46577" lon="2.76649">
        <ele>47.9</ele>
        <time>2013-04-14T15:54:59Z</time>
      </trkpt>
      <trkpt lat="48.46576" lon="2.76681">
        <ele>47.4</ele>
        <time>2013-04-14T15:55:12Z</time>
      </trkpt>
      <trkpt lat="48.46575" lon="2.76713">
        <ele>47</ele>
        <time>2013-04-14T15:55:27Z</time>
      </trkpt>
      <trkpt lat="48.46574" lon="2.76726">
        <ele>47</ele>
        <time>2013-04-14T15:55:38Z</time>
      </trkpt>
      <trkpt lat="48.46574" lon="2.76726">
        <ele>47</ele>
        <time>2013-04-14T15:55:40Z</time>
      </trkpt>
      <trkpt lat="48.46573" lon="2.76741">
        <ele>47</ele>
        <time>2013-04-14T15:55:43Z</time>
      </trkpt>
      <trkpt lat="48.46574" lon="2.76756">
        <ele>46.9</ele>
        <time>2013-04-14T15:55:52Z</time>
      </trkpt>
      <trkpt lat="48.46577" lon="2.7678">
        <ele>46.2</ele>
        <time>2013-04-14T15:56:02Z</time>
      </trkpt>
      <trkpt lat="48.46577" lon="2.76782">
        <ele>46.2</ele>
        <time>2013-04-14T15:56:06Z</time>
      </trkpt>
      <trkpt lat="48.46577" lon="2.76793">
        <ele>46.1</ele>
        <time>2013-04-14T15:56:08Z</time>
      </trkpt>
      <trkpt lat="48.46577" lon="2.76806">
        <ele>46</ele>
        <time>2013-04-14T15:56:19Z</time>
      </trkpt>
      <trkpt lat="48.46577" lon="2.76806">
        <ele>46</ele>
        <time>2013-04-14T15:56:21Z</time>
      </trkpt>
      <trkpt lat="48.46578" lon="2.76823">
        <ele>46</ele>
        <time>2013-04-14T15:56:24Z</time>
      </trkpt>
      <trkpt lat="48.46578" lon="2.76844">
        <ele>45.9</ele>
        <time>2013-04-14T15:56:34Z</time>
      </trkpt>
      <trkpt lat="48.46578" lon="2.76846">
        <ele>45.9</ele>
        <time>2013-04-14T15:56:38Z</time>
      </trkpt>
      <trkpt lat="48.4658" lon="2.76861">
        <ele>45.9</ele>
        <time>2013-04-14T15:56:42Z</time>
      </trkpt>
      <trkpt lat="48.46578" lon="2.76898">
        <ele>45</ele>
        <time>2013-04-14T15:56:57Z</time>
      </trkpt>
      <trkpt lat="48.46578" lon="2.76928">
        <ele>44.6</ele>
        <time>2013-04-14T15:57:12Z</time>
      </trkpt>
      <trkpt lat="48.46578" lon="2.76939">
        <ele>44.2</ele>
        <time>2013-04-14T15:57:14Z</time>
      </trkpt>
      <trkpt lat="48.46578" lon="2.76939">
        <ele>44.2</ele>
        <time>2013-04-14T15:57:18Z</time>
      </trkpt>
      <trkpt lat="48.46578" lon="2.76962">
        <ele>44</ele>
        <time>2013-04-14T15:57:24Z</time>
      </trkpt>
      <trkpt lat="48.46578" lon="2.76973">
        <ele>44</ele>
        <time>2013-04-14T15:57:34Z</time>
      </trkpt>
      <trkpt lat="48.46578" lon="2.76984">
        <ele>44</ele>
        <time>2013-04-14T15:57:36Z</time>
      </trkpt>
      <trkpt lat="48.46578" lon="2.76997">
        <ele>44</ele>
        <time>2013-04-14T15:57:43Z</time>
      </trkpt>
      <trkpt lat="48.46578" lon="2.76999">
        <ele>44</ele>
        <time>2013-04-14T15:57:47Z</time>
      </trkpt>
      <trkpt lat="48.46581" lon="2.77012">
        <ele>44</ele>
        <time>2013-04-14T15:57:51Z</time>
      </trkpt>
      <trkpt lat="48.46586" lon="2.77027">
        <ele>44</ele>
        <time>2013-04-14T15:58:04Z</time>
      </trkpt>
      <trkpt lat="48.46586" lon="2.77027">
        <ele>44</ele>
        <time>2013-04-14T15:58:06Z</time>
      </trkpt>
      <trkpt lat="48.46586" lon="2.77027">
        <ele>44</ele>
        <time>2013-04-14T15:58:08Z</time>
      </trkpt>
      <trkpt lat="48.46586" lon="2.77027">
        <ele>44</ele>
        <time>2013-04-14T15:58:10Z</time>
      </trkpt>
      <trkpt lat="48.46591" lon="2.7704">
        <ele>43.6</ele>
        <time>2013-04-14T15:58:14Z</time>
      </trkpt>
      <trkpt lat="48.46599" lon="2.77052">
        <ele>43.1</ele>
        <time>2013-04-14T15:58:28Z</time>
      </trkpt>
      <trkpt lat="48.46615" lon="2.77065">
        <ele>43</ele>
        <time>2013-04-14T15:58:32Z</time>
      </trkpt>
      <trkpt lat="48.4662" lon="2.7707">
        <ele>43</ele>
        <time>2013-04-14T15:58:39Z</time>
      </trkpt>
      <trkpt lat="48.46629" lon="2.77072">
        <ele>43</ele>
        <time>2013-04-14T15:58:43Z</time>
      </trkpt>
      <trkpt lat="48.46645" lon="2.77072">
        <ele>43</ele>
        <time>2013-04-14T15:58:51Z</time>
      </trkpt>
      <trkpt lat="48.46647" lon="2.77072">
        <ele>43</ele>
        <time>2013-04-14T15:58:55Z</time>
      </trkpt>
      <trkpt lat="48.46657" lon="2.77072">
        <ele>43</ele>
        <time>2013-04-14T15:59:02Z</time>
      </trkpt>
      <trkpt lat="48.46657" lon="2.77072">
        <ele>43</ele>
        <time>2013-04-14T15:59:06Z</time>
      </trkpt>
      <trkpt lat="48.46657" lon="2.77072">
        <ele>43</ele>
        <time>2013-04-14T15:59:10Z</time>
      </trkpt>
      <trkpt lat="48.46665" lon="2.77074">
        <ele>43</ele>
        <time>2013-04-14T15:59:15Z</time>
      </trkpt>
      <trkpt lat="48.46669" lon="2.77076">
        <ele>43</ele>
        <time>2013-04-14T15:59:17Z</time>
      </trkpt>
      <trkpt lat="48.46669" lon="2.77076">
        <ele>43</ele>
        <time>2013-04-14T15:59:23Z</time>
      </trkpt>
      <trkpt lat="48.46676" lon="2.77074">
        <ele>43</ele>
        <time>2013-04-14T15:59:27Z</time>
      </trkpt>
      <trkpt lat="48.46679" lon="2.77074">
        <ele>43</ele>
        <time>2013-04-14T15:59:30Z</time>
      </trkpt>
      <trkpt lat="48.46698" lon="2.7707">
        <ele>43</ele>
        <time>2013-04-14T15:59:39Z</time>
      </trkpt>
      <trkpt lat="48.46708" lon="2.77067">
        <ele>43</ele>
        <time>2013-04-14T15:59:49Z</time>
      </trkpt>
      <trkpt lat="48.46721" lon="2.77065">
        <ele>43</ele>
        <time>2013-04-14T15:59:53Z</time>
      </trkpt>
      <trkpt lat="48.46733" lon="2.77063">
        <ele>42.9</ele>
        <time>2013-04-14T16:00:03Z</time>
      </trkpt>
      <trkpt lat="48.46755" lon="2.77061">
        <ele>42.8</ele>
        <time>2013-04-14T16:00:15Z</time>
      </trkpt>
      <trkpt lat="48.46781" lon="2.77055">
        <ele>43</ele>
        <time>2013-04-14T16:00:31Z</time>
      </trkpt>
      <trkpt lat="48.46788" lon="2.77057">
        <ele>42.9</ele>
        <time>2013-04-14T16:00:36Z</time>
      </trkpt>
      <trkpt lat="48.46797" lon="2.77055">
        <ele>43</ele>
        <time>2013-04-14T16:00:42Z</time>
      </trkpt>
      <trkpt lat="48.46802" lon="2.77052">
        <ele>43</ele>
        <time>2013-04-14T16:00:49Z</time>
      </trkpt>
      <trkpt lat="48.46814" lon="2.7705">
        <ele>43</ele>
        <time>2013-04-14T16:00:53Z</time>
      </trkpt>
      <trkpt lat="48.46824" lon="2.7705">
        <ele>43</ele>
        <time>2013-04-14T16:01:00Z</time>
      </trkpt>
      <trkpt lat="48.46836" lon="2.77046">
        <ele>43</ele>
        <time>2013-04-14T16:01:11Z</time>
      </trkpt>
      <trkpt lat="48.46847" lon="2.77046">
        <ele>43</ele>
        <time>2013-04-14T16:01:20Z</time>
      </trkpt>
      <trkpt lat="48.46863" lon="2.77044">
        <ele>43</ele>
        <time>2013-04-14T16:01:36Z</time>
      </trkpt>
      <trkpt lat="48.46873" lon="2.7704">
        <ele>43</ele>
        <time>2013-04-14T16:01:42Z</time>
      </trkpt>
      <trkpt lat="48.46882" lon="2.7704">
        <ele>43</ele>
        <time>2013-04-14T16:01:49Z</time>
      </trkpt>
      <trkpt lat="48.4689" lon="2.77037">
        <ele>43</ele>
        <time>2013-04-14T16:02:00Z</time>
      </trkpt>
      <trkpt lat="48.4689" lon="2.77037">
        <ele>43</ele>
        <time>2013-04-14T16:02:04Z</time>
      </trkpt>
      <trkpt lat="48.46907" lon="2.77031">
        <ele>42.9</ele>
        <time>2013-04-14T16:02:09Z</time>
      </trkpt>
      <trkpt lat="48.46926" lon="2.77024">
        <ele>43.1</ele>
        <time>2013-04-14T16:02:22Z</time>
      </trkpt>
      <trkpt lat="48.46929" lon="2.77022">
        <ele>43.2</ele>
        <time>2013-04-14T16:02:29Z</time>
      </trkpt>
      <trkpt lat="48.46929" lon="2.77022">
        <ele>43.2</ele>
        <time>2013-04-14T16:02:33Z</time>
      </trkpt>
      <trkpt lat="48.46949" lon="2.77009">
        <ele>43.7</ele>
        <time>2013-04-14T16:02:38Z</time>
      </trkpt>
      <trkpt lat="48.46961" lon="2.77001">
        <ele>44</ele>
        <time>2013-04-14T16:02:42Z</time>
      </trkpt>
      <trkpt lat="48.46974" lon="2.76994">
        <ele>44</ele>
        <time>2013-04-14T16:02:49Z</time>
      </trkpt>
      <trkpt lat="48.46987" lon="2.76988">
        <ele>43.8</ele>
        <time>2013-04-14T16:03:00Z</time>
      </trkpt>
      <trkpt lat="48.46994" lon="2.76988">
        <ele>43.7</ele>
        <time>2013-04-14T16:03:02Z</time>
      </trkpt>
      <trkpt lat="48.46998" lon="2.76986">
        <ele>43.5</ele>
        <time>2013-04-14T16:03:09Z</time>
      </trkpt>
      <trkpt lat="48.47001" lon="2.76984">
        <ele>43.4</ele>
        <time>2013-04-14T16:03:16Z</time>
      </trkpt>
      <trkpt lat="48.47005" lon="2.76979">
        <ele>43.3</ele>
        <time>2013-04-14T16:03:20Z</time>
      </trkpt>
      <trkpt lat="48.47012" lon="2.76977">
        <ele>43.5</ele>
        <time>2013-04-14T16:03:25Z</time>
      </trkpt>
      <trkpt lat="48.47033" lon="2.76971">
        <ele>44</ele>
        <time>2013-04-14T16:03:40Z</time>
      </trkpt>
      <trkpt lat="48.47041" lon="2.76969">
        <ele>44</ele>
        <time>2013-04-14T16:03:43Z</time>
      </trkpt>
      <trkpt lat="48.47063" lon="2.76958">
        <ele>43.9</ele>
        <time>2013-04-14T16:03:54Z</time>
      </trkpt>
      <trkpt lat="48.47076" lon="2.76952">
        <ele>43.8</ele>
        <time>2013-04-14T16:04:05Z</time>
      </trkpt>
      <trkpt lat="48.47087" lon="2.76945">
        <ele>44</ele>
        <time>2013-04-14T16:04:10Z</time>
      </trkpt>
      <trkpt lat="48.47095" lon="2.76939">
        <ele>44</ele>
        <time>2013-04-14T16:04:18Z</time>
      </trkpt>
      <trkpt lat="48.47102" lon="2.76934">
        <ele>44</ele>
        <time>2013-04-14T16:04:21Z</time>
      </trkpt>
      <trkpt lat="48.47111" lon="2.76926">
        <ele>44</ele>
        <time>2013-04-14T16:04:31Z</time>
      </trkpt>
      <trkpt lat="48.47115" lon="2.76924">
        <ele>43.9</ele>
        <time>2013-04-14T16:04:33Z</time>
      </trkpt>
      <trkpt lat="48.47127" lon="2.76919">
        <ele>43.9</ele>
        <time>2013-04-14T16:04:44Z</time>
      </trkpt>
      <trkpt lat="48.47136" lon="2.76915">
        <ele>43.9</ele>
        <time>2013-04-14T16:04:49Z</time>
      </trkpt>
      <trkpt lat="48.47158" lon="2.76906">
        <ele>43.6</ele>
        <time>2013-04-14T16:05:04Z</time>
      </trkpt>
      <trkpt lat="48.47166" lon="2.76904">
        <ele>43.5</ele>
        <time>2013-04-14T16:05:06Z</time>
      </trkpt>
      <trkpt lat="48.47173" lon="2.76902">
        <ele>43.5</ele>
        <time>2013-04-14T16:05:13Z</time>
      </trkpt>
      <trkpt lat="48.47181" lon="2.76896">
        <ele>43.5</ele>
        <time>2013-04-14T16:05:22Z</time>
      </trkpt>
      <trkpt lat="48.47181" lon="2.76896">
        <ele>43.5</ele>
        <time>2013-04-14T16:05:26Z</time>
      </trkpt>
      <trkpt lat="48.47205" lon="2.76874">
        <ele>43.7</ele>
        <time>2013-04-14T16:05:31Z</time>
      </trkpt>
      <trkpt lat="48.47217" lon="2.76868">
        <ele>43.9</ele>
        <time>2013-04-14T16:05:38Z</time>
      </trkpt>
      <trkpt lat="48.47225" lon="2.76864">
        <ele>43.9</ele>
        <time>2013-04-14T16:05:47Z</time>
      </trkpt>
      <trkpt lat="48.4724" lon="2.76857">
        <ele>43.4</ele>
        <time>2013-04-14T16:05:58Z</time>
      </trkpt>
      <trkpt lat="48.47259" lon="2.76849">
        <ele>43.4</ele>
        <time>2013-04-14T16:06:14Z</time>
      </trkpt>
      <trkpt lat="48.47263" lon="2.76846">
        <ele>43.5</ele>
        <time>2013-04-14T16:06:16Z</time>
      </trkpt>
      <trkpt lat="48.47277" lon="2.7684">
        <ele>43.8</ele>
        <time>2013-04-14T16:06:27Z</time>
      </trkpt>
      <trkpt lat="48.4729" lon="2.76838">
        <ele>43.4</ele>
        <time>2013-04-14T16:06:38Z</time>
      </trkpt>
      <trkpt lat="48.47297" lon="2.76836">
        <ele>43.2</ele>
        <time>2013-04-14T16:06:48Z</time>
      </trkpt>
      <trkpt lat="48.47303" lon="2.76831">
        <ele>43.2</ele>
        <time>2013-04-14T16:06:51Z</time>
      </trkpt>
      <trkpt lat="48.4731" lon="2.76829">
        <ele>43.1</ele>
        <time>2013-04-14T16:06:54Z</time>
      </trkpt>
      <trkpt lat="48.47317" lon="2.76825">
        <ele>43.2</ele>
        <time>2013-04-14T16:07:03Z</time>
      </trkpt>
      <trkpt lat="48.4732" lon="2.76823">
        <ele>43.2</ele>
        <time>2013-04-14T16:07:05Z</time>
      </trkpt>
      <trkpt lat="48.47321" lon="2.76821">
        <ele>43.2</ele>
        <time>2013-04-14T16:07:11Z</time>
      </trkpt>
      <trkpt lat="48.47336" lon="2.76821">
        <ele>43</ele>
        <time>2013-04-14T16:07:16Z</time>
      </trkpt>
      <trkpt lat="48.47348" lon="2.76812">
        <ele>43</ele>
        <time>2013-04-14T16:07:20Z</time>
      </trkpt>
      <trkpt lat="48.47367" lon="2.76799">
        <ele>43</ele>
        <time>2013-04-14T16:07:32Z</time>
      </trkpt>
      <trkpt lat="48.47386" lon="2.76786">
        <ele>43</ele>
        <time>2013-04-14T16:07:40Z</time>
      </trkpt>
      <trkpt lat="48.47397" lon="2.7678">
        <ele>43</ele>
        <time>2013-04-14T16:07:48Z</time>
      </trkpt>
      <trkpt lat="48.47406" lon="2.76773">
        <ele>43</ele>
        <time>2013-04-14T16:07:52Z</time>
      </trkpt>
      <trkpt lat="48.47411" lon="2.76769">
        <ele>43</ele>
        <time>2013-04-14T16:07:59Z</time>
      </trkpt>
      <trkpt lat="48.4742" lon="2.76765">
        <ele>43</ele>
        <time>2013-04-14T16:08:13Z</time>
      </trkpt>
      <trkpt lat="48.47428" lon="2.76761">
        <ele>43</ele>
        <time>2013-04-14T16:08:17Z</time>
      </trkpt>
      <trkpt lat="48.47438" lon="2.76752">
        <ele>43</ele>
        <time>2013-04-14T16:08:22Z</time>
      </trkpt>
      <trkpt lat="48.47446" lon="2.76746">
        <ele>43</ele>
        <time>2013-04-14T16:08:30Z</time>
      </trkpt>
      <trkpt lat="48.47456" lon="2.76739">
        <ele>43</ele>
        <time>2013-04-14T16:08:35Z</time>
      </trkpt>
      <trkpt lat="48.47456" lon="2.76739">
        <ele>43</ele>
        <time>2013-04-14T16:08:42Z</time>
      </trkpt>
      <trkpt lat="48.47466" lon="2.76731">
        <ele>43</ele>
        <time>2013-04-14T16:08:46Z</time>
      </trkpt>
      <trkpt lat="48.47472" lon="2.76724">
        <ele>43</ele>
        <time>2013-04-14T16:08:53Z</time>
      </trkpt>
      <trkpt lat="48.47483" lon="2.7672">
        <ele>43</ele>
        <time>2013-04-14T16:09:01Z</time>
      </trkpt>
      <trkpt lat="48.47494" lon="2.76711">
        <ele>43</ele>
        <time>2013-04-14T16:09:10Z</time>
      </trkpt>
      <trkpt lat="48.47505" lon="2.767">
        <ele>43</ele>
        <time>2013-04-14T16:09:16Z</time>
      </trkpt>
      <trkpt lat="48.4751" lon="2.76698">
        <ele>43</ele>
        <time>2013-04-14T16:09:21Z</time>
      </trkpt>
      <trkpt lat="48.47518" lon="2.76696">
        <ele>43</ele>
        <time>2013-04-14T16:09:24Z</time>
      </trkpt>
      <trkpt lat="48.47537" lon="2.76688">
        <ele>43</ele>
        <time>2013-04-14T16:09:34Z</time>
      </trkpt>
      <trkpt lat="48.47553" lon="2.76675">
        <ele>43</ele>
        <time>2013-04-14T16:09:43Z</time>
      </trkpt>
      <trkpt lat="48.47561" lon="2.76668">
        <ele>43</ele>
        <time>2013-04-14T16:09:52Z</time>
      </trkpt>
      <trkpt lat="48.47564" lon="2.76666">
        <ele>43</ele>
        <time>2013-04-14T16:10:00Z</time>
      </trkpt>
      <trkpt lat="48.4757" lon="2.7666">
        <ele>43</ele>
        <time>2013-04-14T16:10:05Z</time>
      </trkpt>
      <trkpt lat="48.47578" lon="2.76647">
        <ele>43</ele>
        <time>2013-04-14T16:10:17Z</time>
      </trkpt>
      <trkpt lat="48.47579" lon="2.76645">
        <ele>43</ele>
        <time>2013-04-14T16:10:23Z</time>
      </trkpt>
      <trkpt lat="48.47584" lon="2.76638">
        <ele>43</ele>
        <time>2013-04-14T16:10:26Z</time>
      </trkpt>
      <trkpt lat="48.47586" lon="2.76634">
        <ele>43</ele>
        <time>2013-04-14T16:10:28Z</time>
      </trkpt>
      <trkpt lat="48.47593" lon="2.76628">
        <ele>43</ele>
        <time>2013-04-14T16:10:35Z</time>
      </trkpt>
      <trkpt lat="48.47602" lon="2.76621">
        <ele>43</ele>
        <time>2013-04-14T16:10:39Z</time>
      </trkpt>
      <trkpt lat="48.47616" lon="2.76615">
        <ele>43</ele>
        <time>2013-04-14T16:10:46Z</time>
      </trkpt>
      <trkpt lat="48.4762" lon="2.76612">
        <ele>43</ele>
        <time>2013-04-14T16:10:52Z</time>
      </trkpt>
      <trkpt lat="48.47632" lon="2.76608">
        <ele>43</ele>
        <time>2013-04-14T16:10:57Z</time>
      </trkpt>
      <trkpt lat="48.47641" lon="2.76602">
        <ele>43</ele>
        <time>2013-04-14T16:11:03Z</time>
      </trkpt>
      <trkpt lat="48.47655" lon="2.76587">
        <ele>43</ele>
        <time>2013-04-14T16:11:15Z</time>
      </trkpt>
      <trkpt lat="48.47667" lon="2.76574">
        <ele>43.3</ele>
        <time>2013-04-14T16:11:21Z</time>
      </trkpt>
      <trkpt lat="48.47678" lon="2.76567">
        <ele>43.3</ele>
        <time>2013-04-14T16:11:28Z</time>
      </trkpt>
      <trkpt lat="48.47695" lon="2.76559">
        <ele>43</ele>
        <time>2013-04-14T16:11:43Z</time>
      </trkpt>
      <trkpt lat="48.47708" lon="2.76548">
        <ele>43.5</ele>
        <time>2013-04-14T16:11:47Z</time>
      </trkpt>
      <trkpt lat="48.47716" lon="2.76542">
        <ele>43.5</ele>
        <time>2013-04-14T16:11:55Z</time>
      </trkpt>
      <trkpt lat="48.47738" lon="2.76527">
        <ele>43</ele>
        <time>2013-04-14T16:12:18Z</time>
      </trkpt>
      <trkpt lat="48.47746" lon="2.76522">
        <ele>43</ele>
        <time>2013-04-14T16:12:21Z</time>
      </trkpt>
      <trkpt lat="48.4776" lon="2.7651">
        <ele>43</ele>
        <time>2013-04-14T16:12:30Z</time>
      </trkpt>
      <trkpt lat="48.47767" lon="2.76499">
        <ele>43</ele>
        <time>2013-04-14T16:12:41Z</time>
      </trkpt>
      <trkpt lat="48.47776" lon="2.7649">
        <ele>43</ele>
        <time>2013-04-14T16:12:44Z</time>
      </trkpt>
      <trkpt lat="48.47782" lon="2.76482">
        <ele>43</ele>
        <time>2013-04-14T16:12:52Z</time>
      </trkpt>
      <trkpt lat="48.47794" lon="2.76471">
        <ele>43</ele>
        <time>2013-04-14T16:12:59Z</time>
      </trkpt>
      <trkpt lat="48.47806" lon="2.76458">
        <ele>43.5</ele>
        <time>2013-04-14T16:13:10Z</time>
      </trkpt>
      <trkpt lat="48.47822" lon="2.76447">
        <ele>43.9</ele>
        <time>2013-04-14T16:13:21Z</time>
      </trkpt>
      <trkpt lat="48.47833" lon="2.76439">
        <ele>44</ele>
        <time>2013-04-14T16:13:32Z</time>
      </trkpt>
      <trkpt lat="48.47834" lon="2.76437">
        <ele>44</ele>
        <time>2013-04-14T16:13:37Z</time>
      </trkpt>
      <trkpt lat="48.47842" lon="2.76428">
        <ele>43.9</ele>
        <time>2013-04-14T16:13:41Z</time>
      </trkpt>
      <trkpt lat="48.47863" lon="2.76404">
        <ele>44</ele>
        <time>2013-04-14T16:13:57Z</time>
      </trkpt>
      <trkpt lat="48.47872" lon="2.76394">
        <ele>43.9</ele>
        <time>2013-04-14T16:14:08Z</time>
      </trkpt>
      <trkpt lat="48.47882" lon="2.76383">
        <ele>44</ele>
        <time>2013-04-14T16:14:15Z</time>
      </trkpt>
      <trkpt lat="48.479" lon="2.76366">
        <ele>43.9</ele>
        <time>2013-04-14T16:14:30Z</time>
      </trkpt>
      <trkpt lat="48.47906" lon="2.76357">
        <ele>44</ele>
        <time>2013-04-14T16:14:32Z</time>
      </trkpt>
      <trkpt lat="48.4791" lon="2.76346">
        <ele>44</ele>
        <time>2013-04-14T16:14:39Z</time>
      </trkpt>
      <trkpt lat="48.47915" lon="2.76338">
        <ele>44</ele>
        <time>2013-04-14T16:14:48Z</time>
      </trkpt>
      <trkpt lat="48.47923" lon="2.76334">
        <ele>44</ele>
        <time>2013-04-14T16:14:50Z</time>
      </trkpt>
      <trkpt lat="48.4793" lon="2.76331">
        <ele>44</ele>
        <time>2013-04-14T16:14:57Z</time>
      </trkpt>
      <trkpt lat="48.47941" lon="2.76323">
        <ele>44</ele>
        <time>2013-04-14T16:15:04Z</time>
      </trkpt>
      <trkpt lat="48.47955" lon="2.7631">
        <ele>43.9</ele>
        <time>2013-04-14T16:15:17Z</time>
      </trkpt>
      <trkpt lat="48.47962" lon="2.76297">
        <ele>44</ele>
        <time>2013-04-14T16:15:25Z</time>
      </trkpt>
      <trkpt lat="48.47979" lon="2.76273">
        <ele>44</ele>
        <time>2013-04-14T16:15:43Z</time>
      </trkpt>
      <trkpt lat="48.47979" lon="2.76273">
        <ele>44</ele>
        <time>2013-04-14T16:15:49Z</time>
      </trkpt>
      <trkpt lat="48.47995" lon="2.76252">
        <ele>44</ele>
        <time>2013-04-14T16:15:54Z</time>
      </trkpt>
      <trkpt lat="48.48004" lon="2.76239">
        <ele>43.9</ele>
        <time>2013-04-14T16:16:01Z</time>
      </trkpt>
      <trkpt lat="48.48015" lon="2.76228">
        <ele>43.5</ele>
        <time>2013-04-14T16:16:12Z</time>
      </trkpt>
      <trkpt lat="48.48033" lon="2.76211">
        <ele>43.4</ele>
        <time>2013-04-14T16:16:28Z</time>
      </trkpt>
      <trkpt lat="48.48052" lon="2.76192">
        <ele>44</ele>
        <time>2013-04-14T16:16:43Z</time>
      </trkpt>
      <trkpt lat="48.48069" lon="2.7617">
        <ele>43.5</ele>
        <time>2013-04-14T16:17:04Z</time>
      </trkpt>
      <trkpt lat="48.48084" lon="2.76149">
        <ele>43.6</ele>
        <time>2013-04-14T16:17:08Z</time>
      </trkpt>
      <trkpt lat="48.48093" lon="2.76138">
        <ele>43.7</ele>
        <time>2013-04-14T16:17:15Z</time>
      </trkpt>
      <trkpt lat="48.48111" lon="2.76121">
        <ele>43.6</ele>
        <time>2013-04-14T16:17:30Z</time>
      </trkpt>
      <trkpt lat="48.48126" lon="2.76102">
        <ele>43.5</ele>
        <time>2013-04-14T16:17:46Z</time>
      </trkpt>
      <trkpt lat="48.4814" lon="2.7608">
        <ele>43.1</ele>
        <time>2013-04-14T16:18:04Z</time>
      </trkpt>
      <trkpt lat="48.48146" lon="2.76063">
        <ele>43.5</ele>
        <time>2013-04-14T16:18:13Z</time>
      </trkpt>
      <trkpt lat="48.48156" lon="2.76031">
        <ele>43.4</ele>
        <time>2013-04-14T16:18:26Z</time>
      </trkpt>
      <trkpt lat="48.48156" lon="2.76029">
        <ele>43.4</ele>
        <time>2013-04-14T16:18:29Z</time>
      </trkpt>
      <trkpt lat="48.48155" lon="2.76022">
        <ele>43.5</ele>
        <time>2013-04-14T16:18:31Z</time>
      </trkpt>
      <trkpt lat="48.48151" lon="2.76007">
        <ele>43.9</ele>
        <time>2013-04-14T16:18:44Z</time>
      </trkpt>
      <trkpt lat="48.4815" lon="2.75997">
        <ele>44</ele>
        <time>2013-04-14T16:18:46Z</time>
      </trkpt>
      <trkpt lat="48.48145" lon="2.75979">
        <ele>44</ele>
        <time>2013-04-14T16:18:55Z</time>
      </trkpt>
      <trkpt lat="48.48144" lon="2.75977">
        <ele>44</ele>
        <time>2013-04-14T16:18:59Z</time>
      </trkpt>
      <trkpt lat="48.48141" lon="2.75964">
        <ele>43.7</ele>
        <time>2013-04-14T16:19:02Z</time>
      </trkpt>
      <trkpt lat="48.48134" lon="2.75954">
        <ele>43.3</ele>
        <time>2013-04-14T16:19:11Z</time>
      </trkpt>
      <trkpt lat="48.48133" lon="2.75949">
        <ele>43.1</ele>
        <time>2013-04-14T16:19:18Z</time>
      </trkpt>
      <trkpt lat="48.48128" lon="2.75937">
        <ele>43.1</ele>
        <time>2013-04-14T16:19:23Z</time>
      </trkpt>
      <trkpt lat="48.48121" lon="2.75922">
        <ele>43.5</ele>
        <time>2013-04-14T16:19:33Z</time>
      </trkpt>
      <trkpt lat="48.48121" lon="2.75922">
        <ele>43.5</ele>
        <time>2013-04-14T16:19:36Z</time>
      </trkpt>
      <trkpt lat="48.48115" lon="2.75904">
        <ele>43.9</ele>
        <time>2013-04-14T16:19:39Z</time>
      </trkpt>
      <trkpt lat="48.48111" lon="2.75892">
        <ele>44</ele>
        <time>2013-04-14T16:19:48Z</time>
      </trkpt>
      <trkpt lat="48.48106" lon="2.75883">
        <ele>44.2</ele>
        <time>2013-04-14T16:19:50Z</time>
      </trkpt>
      <trkpt lat="48.48105" lon="2.75879">
        <ele>44.2</ele>
        <time>2013-04-14T16:19:57Z</time>
      </trkpt>
      <trkpt lat="48.48094" lon="2.75861">
        <ele>44.6</ele>
        <time>2013-04-14T16:20:02Z</time>
      </trkpt>
      <trkpt lat="48.48087" lon="2.75846">
        <ele>45.4</ele>
        <time>2013-04-14T16:20:10Z</time>
      </trkpt>
      <trkpt lat="48.48077" lon="2.75821">
        <ele>46.1</ele>
        <time>2013-04-14T16:20:26Z</time>
      </trkpt>
      <trkpt lat="48.48075" lon="2.75806">
        <ele>46.3</ele>
        <time>2013-04-14T16:20:31Z</time>
      </trkpt>
      <trkpt lat="48.48069" lon="2.75791">
        <ele>46.8</ele>
        <time>2013-04-14T16:20:39Z</time>
      </trkpt>
      <trkpt lat="48.48063" lon="2.75782">
        <ele>47</ele>
        <time>2013-04-14T16:20:48Z</time>
      </trkpt>
      <trkpt lat="48.48063" lon="2.75782">
        <ele>47</ele>
        <time>2013-04-14T16:20:51Z</time>
      </trkpt>
      <trkpt lat="48.48058" lon="2.75771">
        <ele>47</ele>
        <time>2013-04-14T16:20:55Z</time>
      </trkpt>
      <trkpt lat="48.48052" lon="2.75756">
        <ele>47</ele>
        <time>2013-04-14T16:21:01Z</time>
      </trkpt>
      <trkpt lat="48.48052" lon="2.75756">
        <ele>47</ele>
        <time>2013-04-14T16:21:07Z</time>
      </trkpt>
      <trkpt lat="48.48052" lon="2.75756">
        <ele>47</ele>
        <time>2013-04-14T16:21:09Z</time>
      </trkpt>
      <trkpt lat="48.48045" lon="2.75739">
        <ele>47</ele>
        <time>2013-04-14T16:21:13Z</time>
      </trkpt>
      <trkpt lat="48.48039" lon="2.75724">
        <ele>47</ele>
        <time>2013-04-14T16:21:25Z</time>
      </trkpt>
      <trkpt lat="48.48031" lon="2.75703">
        <ele>47.6</ele>
        <time>2013-04-14T16:21:29Z</time>
      </trkpt>
      <trkpt lat="48.48027" lon="2.75694">
        <ele>48</ele>
        <time>2013-04-14T16:21:36Z</time>
      </trkpt>
      <trkpt lat="48.48018" lon="2.75683">
        <ele>48</ele>
        <time>2013-04-14T16:21:40Z</time>
      </trkpt>
      <trkpt lat="48.48018" lon="2.75683">
        <ele>48</ele>
        <time>2013-04-14T16:21:48Z</time>
      </trkpt>
      <trkpt lat="48.48012" lon="2.75671">
        <ele>48</ele>
        <time>2013-04-14T16:21:52Z</time>
      </trkpt>
      <trkpt lat="48.48009" lon="2.75662">
        <ele>48</ele>
        <time>2013-04-14T16:21:59Z</time>
      </trkpt>
      <trkpt lat="48.48003" lon="2.75649">
        <ele>48</ele>
        <time>2013-04-14T16:22:06Z</time>
      </trkpt>
      <trkpt lat="48.48002" lon="2.75645">
        <ele>48</ele>
        <time>2013-04-14T16:22:13Z</time>
      </trkpt>
      <trkpt lat="48.48002" lon="2.75645">
        <ele>48</ele>
        <time>2013-04-14T16:22:17Z</time>
      </trkpt>
      <trkpt lat="48.47996" lon="2.75632">
        <ele>48.2</ele>
        <time>2013-04-14T16:22:20Z</time>
      </trkpt>
      <trkpt lat="48.47993" lon="2.75623">
        <ele>48.6</ele>
        <time>2013-04-14T16:22:29Z</time>
      </trkpt>
      <trkpt lat="48.47988" lon="2.7561">
        <ele>49</ele>
        <time>2013-04-14T16:22:34Z</time>
      </trkpt>
      <trkpt lat="48.47974" lon="2.75561">
        <ele>49</ele>
        <time>2013-04-14T16:22:48Z</time>
      </trkpt>
      <trkpt lat="48.47974" lon="2.75561">
        <ele>49</ele>
        <time>2013-04-14T16:22:52Z</time>
      </trkpt>
      <trkpt lat="48.4797" lon="2.75548">
        <ele>49.1</ele>
        <time>2013-04-14T16:22:57Z</time>
      </trkpt>
      <trkpt lat="48.47967" lon="2.75525">
        <ele>49.3</ele>
        <time>2013-04-14T16:23:04Z</time>
      </trkpt>
      <trkpt lat="48.4797" lon="2.75503">
        <ele>49.9</ele>
        <time>2013-04-14T16:23:13Z</time>
      </trkpt>
      <trkpt lat="48.47971" lon="2.75499">
        <ele>50</ele>
        <time>2013-04-14T16:23:18Z</time>
      </trkpt>
      <trkpt lat="48.47976" lon="2.75488">
        <ele>49.9</ele>
        <time>2013-04-14T16:23:22Z</time>
      </trkpt>
      <trkpt lat="48.47984" lon="2.75467">
        <ele>49.7</ele>
        <time>2013-04-14T16:23:29Z</time>
      </trkpt>
      <trkpt lat="48.47984" lon="2.75467">
        <ele>49.7</ele>
        <time>2013-04-14T16:23:34Z</time>
      </trkpt>
      <trkpt lat="48.47988" lon="2.75454">
        <ele>49.8</ele>
        <time>2013-04-14T16:23:38Z</time>
      </trkpt>
      <trkpt lat="48.47991" lon="2.75445">
        <ele>50</ele>
        <time>2013-04-14T16:23:43Z</time>
      </trkpt>
      <trkpt lat="48.47998" lon="2.75428">
        <ele>50</ele>
        <time>2013-04-14T16:23:54Z</time>
      </trkpt>
      <trkpt lat="48.47998" lon="2.75428">
        <ele>50</ele>
        <time>2013-04-14T16:23:58Z</time>
      </trkpt>
      <trkpt lat="48.48003" lon="2.75402">
        <ele>49.9</ele>
        <time>2013-04-14T16:24:03Z</time>
      </trkpt>
      <trkpt lat="48.48008" lon="2.75389">
        <ele>50</ele>
        <time>2013-04-14T16:24:12Z</time>
      </trkpt>
      <trkpt lat="48.48012" lon="2.75377">
        <ele>50</ele>
        <time>2013-04-14T16:24:16Z</time>
      </trkpt>
      <trkpt lat="48.48014" lon="2.75366">
        <ele>50</ele>
        <time>2013-04-14T16:24:24Z</time>
      </trkpt>
      <trkpt lat="48.48018" lon="2.75351">
        <ele>50.1</ele>
        <time>2013-04-14T16:24:28Z</time>
      </trkpt>
      <trkpt lat="48.48024" lon="2.75338">
        <ele>50.1</ele>
        <time>2013-04-14T16:24:36Z</time>
      </trkpt>
      <trkpt lat="48.48027" lon="2.75329">
        <ele>50</ele>
        <time>2013-04-14T16:24:46Z</time>
      </trkpt>
      <trkpt lat="48.48031" lon="2.75314">
        <ele>50</ele>
        <time>2013-04-14T16:24:51Z</time>
      </trkpt>
      <trkpt lat="48.4804" lon="2.75284">
        <ele>50.4</ele>
        <time>2013-04-14T16:25:05Z</time>
      </trkpt>
      <trkpt lat="48.48042" lon="2.75271">
        <ele>50.4</ele>
        <time>2013-04-14T16:25:16Z</time>
      </trkpt>
      <trkpt lat="48.48045" lon="2.75259">
        <ele>50.1</ele>
        <time>2013-04-14T16:25:19Z</time>
      </trkpt>
      <trkpt lat="48.4805" lon="2.75243">
        <ele>50.1</ele>
        <time>2013-04-14T16:25:28Z</time>
      </trkpt>
      <trkpt lat="48.48055" lon="2.75231">
        <ele>50</ele>
        <time>2013-04-14T16:25:32Z</time>
      </trkpt>
      <trkpt lat="48.48058" lon="2.75216">
        <ele>50</ele>
        <time>2013-04-14T16:25:40Z</time>
      </trkpt>
      <trkpt lat="48.48063" lon="2.75198">
        <ele>50</ele>
        <time>2013-04-14T16:25:53Z</time>
      </trkpt>
      <trkpt lat="48.48068" lon="2.75175">
        <ele>50.4</ele>
        <time>2013-04-14T16:25:58Z</time>
      </trkpt>
      <trkpt lat="48.48073" lon="2.75156">
        <ele>50.4</ele>
        <time>2013-04-14T16:26:06Z</time>
      </trkpt>
      <trkpt lat="48.48073" lon="2.75156">
        <ele>50.4</ele>
        <time>2013-04-14T16:26:12Z</time>
      </trkpt>
      <trkpt lat="48.48082" lon="2.75138">
        <ele>50</ele>
        <time>2013-04-14T16:26:17Z</time>
      </trkpt>
      <trkpt lat="48.48085" lon="2.75125">
        <ele>50</ele>
        <time>2013-04-14T16:26:24Z</time>
      </trkpt>
      <trkpt lat="48.48085" lon="2.75125">
        <ele>50</ele>
        <time>2013-04-14T16:26:30Z</time>
      </trkpt>
      <trkpt lat="48.48088" lon="2.75093">
        <ele>50.5</ele>
        <time>2013-04-14T16:26:34Z</time>
      </trkpt>
      <trkpt lat="48.48098" lon="2.75068">
        <ele>50.5</ele>
        <time>2013-04-14T16:26:42Z</time>
      </trkpt>
      <trkpt lat="48.48098" lon="2.75068">
        <ele>50.5</ele>
        <time>2013-04-14T16:26:46Z</time>
      </trkpt>
      <trkpt lat="48.48098" lon="2.75068">
        <ele>50.5</ele>
        <time>2013-04-14T16:26:50Z</time>
      </trkpt>
      <trkpt lat="48.48098" lon="2.75068">
        <ele>50.5</ele>
        <time>2013-04-14T16:26:55Z</time>
      </trkpt>
      <trkpt lat="48.48103" lon="2.75046">
        <ele>50.2</ele>
        <time>2013-04-14T16:27:00Z</time>
      </trkpt>
      <trkpt lat="48.48106" lon="2.75033">
        <ele>50</ele>
        <time>2013-04-14T16:27:11Z</time>
      </trkpt>
      <trkpt lat="48.48106" lon="2.75033">
        <ele>50</ele>
        <time>2013-04-14T16:27:15Z</time>
      </trkpt>
      <trkpt lat="48.48113" lon="2.75016">
        <ele>50</ele>
        <time>2013-04-14T16:27:19Z</time>
      </trkpt>
      <trkpt lat="48.48118" lon="2.75007">
        <ele>50</ele>
        <time>2013-04-14T16:27:29Z</time>
      </trkpt>
      <trkpt lat="48.48118" lon="2.75007">
        <ele>50</ele>
        <time>2013-04-14T16:27:33Z</time>
      </trkpt>
      <trkpt lat="48.48123" lon="2.74986">
        <ele>50</ele>
        <time>2013-04-14T16:27:38Z</time>
      </trkpt>
      <trkpt lat="48.4813" lon="2.7495">
        <ele>50.3</ele>
        <time>2013-04-14T16:27:56Z</time>
      </trkpt>
      <trkpt lat="48.48131" lon="2.7493">
        <ele>50.1</ele>
        <time>2013-04-14T16:28:01Z</time>
      </trkpt>
      <trkpt lat="48.48131" lon="2.7493">
        <ele>50.1</ele>
        <time>2013-04-14T16:28:08Z</time>
      </trkpt>
      <trkpt lat="48.48131" lon="2.7493">
        <ele>50.1</ele>
        <time>2013-04-14T16:28:12Z</time>
      </trkpt>
      <trkpt lat="48.48133" lon="2.74909">
        <ele>50</ele>
        <time>2013-04-14T16:28:15Z</time>
      </trkpt>
      <trkpt lat="48.48135" lon="2.74892">
        <ele>50</ele>
        <time>2013-04-14T16:28:25Z</time>
      </trkpt>
      <trkpt lat="48.48135" lon="2.74883">
        <ele>49.8</ele>
        <time>2013-04-14T16:28:27Z</time>
      </trkpt>
      <trkpt lat="48.48137" lon="2.74864">
        <ele>49.2</ele>
        <time>2013-04-14T16:28:36Z</time>
      </trkpt>
      <trkpt lat="48.48138" lon="2.74827">
        <ele>49.3</ele>
        <time>2013-04-14T16:28:56Z</time>
      </trkpt>
      <trkpt lat="48.48141" lon="2.74795">
        <ele>50</ele>
        <time>2013-04-14T16:29:11Z</time>
      </trkpt>
      <trkpt lat="48.48137" lon="2.74767">
        <ele>50</ele>
        <time>2013-04-14T16:29:22Z</time>
      </trkpt>
      <trkpt lat="48.48136" lon="2.74756">
        <ele>50</ele>
        <time>2013-04-14T16:29:30Z</time>
      </trkpt>
      <trkpt lat="48.48136" lon="2.74756">
        <ele>50</ele>
        <time>2013-04-14T16:29:36Z</time>
      </trkpt>
      <trkpt lat="48.48134" lon="2.74741">
        <ele>50.1</ele>
        <time>2013-04-14T16:29:40Z</time>
      </trkpt>
      <trkpt lat="48.48133" lon="2.74731">
        <ele>50.1</ele>
        <time>2013-04-14T16:29:43Z</time>
      </trkpt>
      <trkpt lat="48.48133" lon="2.74724">
        <ele>50.2</ele>
        <time>2013-04-14T16:29:51Z</time>
      </trkpt>
      <trkpt lat="48.48132" lon="2.74713">
        <ele>50.5</ele>
        <time>2013-04-14T16:29:54Z</time>
      </trkpt>
      <trkpt lat="48.48132" lon="2.74713">
        <ele>50.5</ele>
        <time>2013-04-14T16:30:05Z</time>
      </trkpt>
      <trkpt lat="48.48132" lon="2.74709">
        <ele>50.6</ele>
        <time>2013-04-14T16:30:08Z</time>
      </trkpt>
      <trkpt lat="48.48128" lon="2.74658">
        <ele>51</ele>
        <time>2013-04-14T16:30:14Z</time>
      </trkpt>
      <trkpt lat="48.48128" lon="2.74645">
        <ele>51</ele>
        <time>2013-04-14T16:30:20Z</time>
      </trkpt>
      <trkpt lat="48.48128" lon="2.74645">
        <ele>51</ele>
        <time>2013-04-14T16:30:28Z</time>
      </trkpt>
      <trkpt lat="48.48128" lon="2.74645">
        <ele>51</ele>
        <time>2013-04-14T16:30:30Z</time>
      </trkpt>
      <trkpt lat="48.48124" lon="2.74621">
        <ele>51</ele>
        <time>2013-04-14T16:30:35Z</time>
      </trkpt>
      <trkpt lat="48.48124" lon="2.74606">
        <ele>51</ele>
        <time>2013-04-14T16:30:43Z</time>
      </trkpt>
      <trkpt lat="48.48126" lon="2.74593">
        <ele>51</ele>
        <time>2013-04-14T16:30:46Z</time>
      </trkpt>
      <trkpt lat="48.48126" lon="2.74576">
        <ele>51</ele>
        <time>2013-04-14T16:30:55Z</time>
      </trkpt>
      <trkpt lat="48.48127" lon="2.74574">
        <ele>51</ele>
        <time>2013-04-14T16:31:01Z</time>
      </trkpt>
      <trkpt lat="48.48127" lon="2.74553">
        <ele>51</ele>
        <time>2013-04-14T16:31:06Z</time>
      </trkpt>
      <trkpt lat="48.48127" lon="2.74535">
        <ele>51</ele>
        <time>2013-04-14T16:31:14Z</time>
      </trkpt>
      <trkpt lat="48.48127" lon="2.74535">
        <ele>51</ele>
        <time>2013-04-14T16:31:20Z</time>
      </trkpt>
      <trkpt lat="48.48127" lon="2.74535">
        <ele>51</ele>
        <time>2013-04-14T16:31:26Z</time>
      </trkpt>
      <trkpt lat="48.48126" lon="2.74503">
        <ele>51</ele>
        <time>2013-04-14T16:31:31Z</time>
      </trkpt>
      <trkpt lat="48.48126" lon="2.74482">
        <ele>51</ele>
        <time>2013-04-14T16:31:38Z</time>
      </trkpt>
      <trkpt lat="48.48127" lon="2.7448">
        <ele>51</ele>
        <time>2013-04-14T16:31:44Z</time>
      </trkpt>
      <trkpt lat="48.48126" lon="2.74462">
        <ele>51</ele>
        <time>2013-04-14T16:31:49Z</time>
      </trkpt>
      <trkpt lat="48.48127" lon="2.74445">
        <ele>51</ele>
        <time>2013-04-14T16:31:58Z</time>
      </trkpt>
      <trkpt lat="48.48127" lon="2.74441">
        <ele>51</ele>
        <time>2013-04-14T16:32:04Z</time>
      </trkpt>
      <trkpt lat="48.48127" lon="2.74424">
        <ele>51</ele>
        <time>2013-04-14T16:32:08Z</time>
      </trkpt>
      <trkpt lat="48.48126" lon="2.74409">
        <ele>51</ele>
        <time>2013-04-14T16:32:12Z</time>
      </trkpt>
      <trkpt lat="48.48123" lon="2.74398">
        <ele>51</ele>
        <time>2013-04-14T16:32:19Z</time>
      </trkpt>
      <trkpt lat="48.48122" lon="2.74385">
        <ele>51</ele>
        <time>2013-04-14T16:32:31Z</time>
      </trkpt>
      <trkpt lat="48.48122" lon="2.74364">
        <ele>51</ele>
        <time>2013-04-14T16:32:35Z</time>
      </trkpt>
      <trkpt lat="48.48122" lon="2.74364">
        <ele>51</ele>
        <time>2013-04-14T16:32:43Z</time>
      </trkpt>
      <trkpt lat="48.48119" lon="2.74344">
        <ele>51</ele>
        <time>2013-04-14T16:32:47Z</time>
      </trkpt>
      <trkpt lat="48.48119" lon="2.74329">
        <ele>51</ele>
        <time>2013-04-14T16:32:54Z</time>
      </trkpt>
      <trkpt lat="48.48119" lon="2.74329">
        <ele>51</ele>
        <time>2013-04-14T16:32:58Z</time>
      </trkpt>
      <trkpt lat="48.48118" lon="2.74306">
        <ele>51</ele>
        <time>2013-04-14T16:33:03Z</time>
      </trkpt>
      <trkpt lat="48.48117" lon="2.74295">
        <ele>51.3</ele>
        <time>2013-04-14T16:33:12Z</time>
      </trkpt>
      <trkpt lat="48.48117" lon="2.7428">
        <ele>51.7</ele>
        <time>2013-04-14T16:33:17Z</time>
      </trkpt>
      <trkpt lat="48.4812" lon="2.7425">
        <ele>51.7</ele>
        <time>2013-04-14T16:33:30Z</time>
      </trkpt>
      <trkpt lat="48.48121" lon="2.74246">
        <ele>51.6</ele>
        <time>2013-04-14T16:33:36Z</time>
      </trkpt>
      <trkpt lat="48.48122" lon="2.74233">
        <ele>51.2</ele>
        <time>2013-04-14T16:33:41Z</time>
      </trkpt>
      <trkpt lat="48.48123" lon="2.74222">
        <ele>51</ele>
        <time>2013-04-14T16:33:50Z</time>
      </trkpt>
      <trkpt lat="48.48123" lon="2.74203">
        <ele>51</ele>
        <time>2013-04-14T16:33:55Z</time>
      </trkpt>
      <trkpt lat="48.48123" lon="2.7419">
        <ele>51</ele>
        <time>2013-04-14T16:34:02Z</time>
      </trkpt>
      <trkpt lat="48.48123" lon="2.7419">
        <ele>51</ele>
        <time>2013-04-14T16:34:08Z</time>
      </trkpt>
      <trkpt lat="48.48126" lon="2.74171">
        <ele>51</ele>
        <time>2013-04-14T16:34:12Z</time>
      </trkpt>
      <trkpt lat="48.48127" lon="2.7416">
        <ele>51</ele>
        <time>2013-04-14T16:34:17Z</time>
      </trkpt>
      <trkpt lat="48.48126" lon="2.74145">
        <ele>51</ele>
        <time>2013-04-14T16:34:27Z</time>
      </trkpt>
      <trkpt lat="48.48126" lon="2.7413">
        <ele>51</ele>
        <time>2013-04-14T16:34:32Z</time>
      </trkpt>
      <trkpt lat="48.48124" lon="2.74106">
        <ele>51</ele>
        <time>2013-04-14T16:34:45Z</time>
      </trkpt>
      <trkpt lat="48.48124" lon="2.74106">
        <ele>51</ele>
        <time>2013-04-14T16:34:49Z</time>
      </trkpt>
      <trkpt lat="48.48124" lon="2.74106">
        <ele>51</ele>
        <time>2013-04-14T16:34:53Z</time>
      </trkpt>
      <trkpt lat="48.48118" lon="2.74068">
        <ele>51</ele>
        <time>2013-04-14T16:34:58Z</time>
      </trkpt>
      <trkpt lat="48.48118" lon="2.74057">
        <ele>51</ele>
        <time>2013-04-14T16:35:04Z</time>
      </trkpt>
      <trkpt lat="48.48118" lon="2.74057">
        <ele>51</ele>
        <time>2013-04-14T16:35:10Z</time>
      </trkpt>
      <trkpt lat="48.48117" lon="2.7404">
        <ele>51</ele>
        <time>2013-04-14T16:35:14Z</time>
      </trkpt>
      <trkpt lat="48.48119" lon="2.7401">
        <ele>51</ele>
        <time>2013-04-14T16:35:34Z</time>
      </trkpt>
      <trkpt lat="48.48119" lon="2.7401">
        <ele>51</ele>
        <time>2013-04-14T16:35:38Z</time>
      </trkpt>
      <trkpt lat="48.48119" lon="2.73986">
        <ele>51</ele>
        <time>2013-04-14T16:35:42Z</time>
      </trkpt>
      <trkpt lat="48.48118" lon="2.73971">
        <ele>51</ele>
        <time>2013-04-14T16:35:51Z</time>
      </trkpt>
      <trkpt lat="48.48118" lon="2.73962">
        <ele>51</ele>
        <time>2013-04-14T16:35:53Z</time>
      </trkpt>
      <trkpt lat="48.48118" lon="2.73941">
        <ele>51</ele>
        <time>2013-04-14T16:36:02Z</time>
      </trkpt>
      <trkpt lat="48.48117" lon="2.73932">
        <ele>51</ele>
        <time>2013-04-14T16:36:10Z</time>
      </trkpt>
      <trkpt lat="48.48115" lon="2.73911">
        <ele>51</ele>
        <time>2013-04-14T16:36:14Z</time>
      </trkpt>
      <trkpt lat="48.48115" lon="2.73911">
        <ele>51</ele>
        <time>2013-04-14T16:36:22Z</time>
      </trkpt>
      <trkpt lat="48.48114" lon="2.73894">
        <ele>50.9</ele>
        <time>2013-04-14T16:36:25Z</time>
      </trkpt>
      <trkpt lat="48.48114" lon="2.73874">
        <ele>50.4</ele>
        <time>2013-04-14T16:36:33Z</time>
      </trkpt>
      <trkpt lat="48.48114" lon="2.73862">
        <ele>49.9</ele>
        <time>2013-04-14T16:36:42Z</time>
      </trkpt>
      <trkpt lat="48.48114" lon="2.73862">
        <ele>49.9</ele>
        <time>2013-04-14T16:36:46Z</time>
      </trkpt>
      <trkpt lat="48.48112" lon="2.73838">
        <ele>49.9</ele>
        <time>2013-04-14T16:36:50Z</time>
      </trkpt>
      <trkpt lat="48.48112" lon="2.73834">
        <ele>49.9</ele>
        <time>2013-04-14T16:36:57Z</time>
      </trkpt>
      <trkpt lat="48.48109" lon="2.73812">
        <ele>49.3</ele>
        <time>2013-04-14T16:37:01Z</time>
      </trkpt>
      <trkpt lat="48.48109" lon="2.73812">
        <ele>49.3</ele>
        <time>2013-04-14T16:37:08Z</time>
      </trkpt>
      <trkpt lat="48.48109" lon="2.73812">
        <ele>49.3</ele>
        <time>2013-04-14T16:37:13Z</time>
      </trkpt>
      <trkpt lat="48.48109" lon="2.73778">
        <ele>48.1</ele>
        <time>2013-04-14T16:37:17Z</time>
      </trkpt>
      <trkpt lat="48.48109" lon="2.73778">
        <ele>48.1</ele>
        <time>2013-04-14T16:37:28Z</time>
      </trkpt>
      <trkpt lat="48.48108" lon="2.73741">
        <ele>47.1</ele>
        <time>2013-04-14T16:37:33Z</time>
      </trkpt>
      <trkpt lat="48.48108" lon="2.73733">
        <ele>47.1</ele>
        <time>2013-04-14T16:37:40Z</time>
      </trkpt>
      <trkpt lat="48.48111" lon="2.73724">
        <ele>47</ele>
        <time>2013-04-14T16:37:44Z</time>
      </trkpt>
      <trkpt lat="48.48111" lon="2.73724">
        <ele>47</ele>
        <time>2013-04-14T16:37:53Z</time>
      </trkpt>
      <trkpt lat="48.48111" lon="2.73724">
        <ele>47</ele>
        <time>2013-04-14T16:37:58Z</time>
      </trkpt>
      <trkpt lat="48.48111" lon="2.73724">
        <ele>47</ele>
        <time>2013-04-14T16:38:02Z</time>
      </trkpt>
      <trkpt lat="48.48116" lon="2.73681">
        <ele>48.1</ele>
        <time>2013-04-14T16:38:09Z</time>
      </trkpt>
      <trkpt lat="48.48116" lon="2.73681">
        <ele>48.1</ele>
        <time>2013-04-14T16:38:13Z</time>
      </trkpt>
      <trkpt lat="48.48108" lon="2.73649">
        <ele>48.6</ele>
        <time>2013-04-14T16:38:17Z</time>
      </trkpt>
      <trkpt lat="48.48108" lon="2.73649">
        <ele>48.6</ele>
        <time>2013-04-14T16:38:25Z</time>
      </trkpt>
      <trkpt lat="48.48108" lon="2.73649">
        <ele>48.6</ele>
        <time>2013-04-14T16:38:30Z</time>
      </trkpt>
      <trkpt lat="48.48092" lon="2.73617">
        <ele>49</ele>
        <time>2013-04-14T16:38:35Z</time>
      </trkpt>
      <trkpt lat="48.48092" lon="2.73617">
        <ele>49</ele>
        <time>2013-04-14T16:38:45Z</time>
      </trkpt>
      <trkpt lat="48.48092" lon="2.73617">
        <ele>49</ele>
        <time>2013-04-14T16:38:49Z</time>
      </trkpt>
      <trkpt lat="48.48073" lon="2.73585">
        <ele>49.9</ele>
        <time>2013-04-14T16:38:54Z</time>
      </trkpt>
      <trkpt lat="48.48073" lon="2.73585">
        <ele>49.9</ele>
        <time>2013-04-14T16:39:02Z</time>
      </trkpt>
      <trkpt lat="48.48073" lon="2.73585">
        <ele>49.9</ele>
        <time>2013-04-14T16:39:06Z</time>
      </trkpt>
      <trkpt lat="48.48073" lon="2.73585">
        <ele>49.9</ele>
        <time>2013-04-14T16:39:10Z</time>
      </trkpt>
      <trkpt lat="48.48073" lon="2.73544">
        <ele>50.2</ele>
        <time>2013-04-14T16:39:16Z</time>
      </trkpt>
      <trkpt lat="48.48073" lon="2.73544">
        <ele>50.2</ele>
        <time>2013-04-14T16:39:24Z</time>
      </trkpt>
      <trkpt lat="48.48073" lon="2.73544">
        <ele>50.2</ele>
        <time>2013-04-14T16:39:31Z</time>
      </trkpt>
      <trkpt lat="48.48069" lon="2.73503">
        <ele>50.9</ele>
        <time>2013-04-14T16:39:36Z</time>
      </trkpt>
      <trkpt lat="48.48069" lon="2.73503">
        <ele>50.9</ele>
        <time>2013-04-14T16:39:44Z</time>
      </trkpt>
      <trkpt lat="48.48065" lon="2.73463">
        <ele>51.2</ele>
        <time>2013-04-14T16:39:50Z</time>
      </trkpt>
      <trkpt lat="48.48065" lon="2.73463">
        <ele>51.2</ele>
        <time>2013-04-14T16:39:56Z</time>
      </trkpt>
      <trkpt lat="48.48065" lon="2.73463">
        <ele>51.2</ele>
        <time>2013-04-14T16:40:00Z</time>
      </trkpt>
      <trkpt lat="48.48065" lon="2.73463">
        <ele>51.2</ele>
        <time>2013-04-14T16:40:10Z</time>
      </trkpt>
      <trkpt lat="48.48061" lon="2.7342">
        <ele>51.8</ele>
        <time>2013-04-14T16:40:15Z</time>
      </trkpt>
      <trkpt lat="48.48061" lon="2.7342">
        <ele>51.8</ele>
        <time>2013-04-14T16:40:24Z</time>
      </trkpt>
      <trkpt lat="48.48053" lon="2.73381">
        <ele>52</ele>
        <time>2013-04-14T16:40:29Z</time>
      </trkpt>
      <trkpt lat="48.48053" lon="2.73381">
        <ele>52</ele>
        <time>2013-04-14T16:40:38Z</time>
      </trkpt>
      <trkpt lat="48.48046" lon="2.7334">
        <ele>52</ele>
        <time>2013-04-14T16:40:43Z</time>
      </trkpt>
      <trkpt lat="48.48046" lon="2.7334">
        <ele>52</ele>
        <time>2013-04-14T16:40:52Z</time>
      </trkpt>
      <trkpt lat="48.48046" lon="2.7334">
        <ele>52</ele>
        <time>2013-04-14T16:40:56Z</time>
      </trkpt>
      <trkpt lat="48.48045" lon="2.73299">
        <ele>52</ele>
        <time>2013-04-14T16:41:01Z</time>
      </trkpt>
      <trkpt lat="48.48045" lon="2.73299">
        <ele>52</ele>
        <time>2013-04-14T16:41:11Z</time>
      </trkpt>
      <trkpt lat="48.48045" lon="2.73299">
        <ele>52</ele>
        <time>2013-04-14T16:41:17Z</time>
      </trkpt>
      <trkpt lat="48.48045" lon="2.73299">
        <ele>52</ele>
        <time>2013-04-14T16:41:21Z</time>
      </trkpt>
      <trkpt lat="48.48047" lon="2.73259">
        <ele>52</ele>
        <time>2013-04-14T16:41:26Z</time>
      </trkpt>
      <trkpt lat="48.48047" lon="2.73259">
        <ele>52</ele>
        <time>2013-04-14T16:41:32Z</time>
      </trkpt>
      <trkpt lat="48.48047" lon="2.73259">
        <ele>52</ele>
        <time>2013-04-14T16:41:37Z</time>
      </trkpt>
      <trkpt lat="48.48048" lon="2.73216">
        <ele>52.1</ele>
        <time>2013-04-14T16:41:42Z</time>
      </trkpt>
      <trkpt lat="48.48048" lon="2.73216">
        <ele>52.1</ele>
        <time>2013-04-14T16:41:50Z</time>
      </trkpt>
      <trkpt lat="48.48048" lon="2.73216">
        <ele>52.1</ele>
        <time>2013-04-14T16:41:55Z</time>
      </trkpt>
      <trkpt lat="48.48048" lon="2.73216">
        <ele>52.1</ele>
        <time>2013-04-14T16:42:00Z</time>
      </trkpt>
      <trkpt lat="48.48047" lon="2.73175">
        <ele>52.3</ele>
        <time>2013-04-14T16:42:05Z</time>
      </trkpt>
      <trkpt lat="48.48047" lon="2.73175">
        <ele>52.3</ele>
        <time>2013-04-14T16:42:14Z</time>
      </trkpt>
      <trkpt lat="48.48047" lon="2.73175">
        <ele>52.3</ele>
        <time>2013-04-14T16:42:19Z</time>
      </trkpt>
      <trkpt lat="48.48047" lon="2.73175">
        <ele>52.3</ele>
        <time>2013-04-14T16:42:23Z</time>
      </trkpt>
      <trkpt lat="48.48047" lon="2.7313">
        <ele>52.3</ele>
        <time>2013-04-14T16:42:28Z</time>
      </trkpt>
      <trkpt lat="48.48047" lon="2.7313">
        <ele>52.3</ele>
        <time>2013-04-14T16:42:38Z</time>
      </trkpt>
      <trkpt lat="48.48046" lon="2.73087">
        <ele>52.3</ele>
        <time>2013-04-14T16:42:43Z</time>
      </trkpt>
      <trkpt lat="48.48046" lon="2.73087">
        <ele>52.3</ele>
        <time>2013-04-14T16:42:53Z</time>
      </trkpt>
      <trkpt lat="48.48046" lon="2.73087">
        <ele>52.3</ele>
        <time>2013-04-14T16:42:58Z</time>
      </trkpt>
      <trkpt lat="48.48046" lon="2.73087">
        <ele>52.3</ele>
        <time>2013-04-14T16:43:02Z</time>
      </trkpt>
      <trkpt lat="48.48042" lon="2.73046">
        <ele>52.5</ele>
        <time>2013-04-14T16:43:07Z</time>
      </trkpt>
      <trkpt lat="48.48042" lon="2.73046">
        <ele>52.5</ele>
        <time>2013-04-14T16:43:17Z</time>
      </trkpt>
      <trkpt lat="48.48042" lon="2.73046">
        <ele>52.5</ele>
        <time>2013-04-14T16:43:22Z</time>
      </trkpt>
      <trkpt lat="48.4804" lon="2.73005">
        <ele>52.1</ele>
        <time>2013-04-14T16:43:29Z</time>
      </trkpt>
      <trkpt lat="48.4804" lon="2.73005">
        <ele>52.1</ele>
        <time>2013-04-14T16:43:34Z</time>
      </trkpt>
      <trkpt lat="48.4804" lon="2.73005">
        <ele>52.1</ele>
        <time>2013-04-14T16:43:39Z</time>
      </trkpt>
      <trkpt lat="48.4804" lon="2.73005">
        <ele>52.1</ele>
        <time>2013-04-14T16:43:44Z</time>
      </trkpt>
      <trkpt lat="48.4804" lon="2.72965">
        <ele>52</ele>
        <time>2013-04-14T16:43:49Z</time>
      </trkpt>
      <trkpt lat="48.4804" lon="2.72965">
        <ele>52</ele>
        <time>2013-04-14T16:43:58Z</time>
      </trkpt>
      <trkpt lat="48.4804" lon="2.72965">
        <ele>52</ele>
        <time>2013-04-14T16:44:03Z</time>
      </trkpt>
      <trkpt lat="48.48042" lon="2.72922">
        <ele>52</ele>
        <time>2013-04-14T16:44:08Z</time>
      </trkpt>
      <trkpt lat="48.48042" lon="2.72922">
        <ele>52</ele>
        <time>2013-04-14T16:44:18Z</time>
      </trkpt>
      <trkpt lat="48.48042" lon="2.72922">
        <ele>52</ele>
        <time>2013-04-14T16:44:23Z</time>
      </trkpt>
      <trkpt lat="48.48033" lon="2.72881">
        <ele>52</ele>
        <time>2013-04-14T16:44:30Z</time>
      </trkpt>
      <trkpt lat="48.48033" lon="2.72881">
        <ele>52</ele>
        <time>2013-04-14T16:44:34Z</time>
      </trkpt>
      <trkpt lat="48.48033" lon="2.72881">
        <ele>52</ele>
        <time>2013-04-14T16:44:39Z</time>
      </trkpt>
      <trkpt lat="48.48033" lon="2.72881">
        <ele>52</ele>
        <time>2013-04-14T16:44:46Z</time>
      </trkpt>
      <trkpt lat="48.48026" lon="2.7284">
        <ele>52</ele>
        <time>2013-04-14T16:44:51Z</time>
      </trkpt>
      <trkpt lat="48.48026" lon="2.7284">
        <ele>52</ele>
        <time>2013-04-14T16:45:00Z</time>
      </trkpt>
      <trkpt lat="48.48026" lon="2.72799">
        <ele>52</ele>
        <time>2013-04-14T16:45:07Z</time>
      </trkpt>
      <trkpt lat="48.48026" lon="2.72799">
        <ele>52</ele>
        <time>2013-04-14T16:45:12Z</time>
      </trkpt>
      <trkpt lat="48.48026" lon="2.72799">
        <ele>52</ele>
        <time>2013-04-14T16:45:16Z</time>
      </trkpt>
      <trkpt lat="48.48026" lon="2.72799">
        <ele>52</ele>
        <time>2013-04-14T16:45:21Z</time>
      </trkpt>
      <trkpt lat="48.48024" lon="2.72759">
        <ele>52</ele>
        <time>2013-04-14T16:45:26Z</time>
      </trkpt>
      <trkpt lat="48.48024" lon="2.72759">
        <ele>52</ele>
        <time>2013-04-14T16:45:35Z</time>
      </trkpt>
      <trkpt lat="48.48024" lon="2.72759">
        <ele>52</ele>
        <time>2013-04-14T16:45:40Z</time>
      </trkpt>
      <trkpt lat="48.48024" lon="2.72759">
        <ele>52</ele>
        <time>2013-04-14T16:45:44Z</time>
      </trkpt>
      <trkpt lat="48.48028" lon="2.72718">
        <ele>52</ele>
        <time>2013-04-14T16:45:49Z</time>
      </trkpt>
      <trkpt lat="48.48028" lon="2.72718">
        <ele>52</ele>
        <time>2013-04-14T16:45:58Z</time>
      </trkpt>
      <trkpt lat="48.48028" lon="2.72718">
        <ele>52</ele>
        <time>2013-04-14T16:46:03Z</time>
      </trkpt>
      <trkpt lat="48.4803" lon="2.72677">
        <ele>51.9</ele>
        <time>2013-04-14T16:46:09Z</time>
      </trkpt>
      <trkpt lat="48.4803" lon="2.72677">
        <ele>51.9</ele>
        <time>2013-04-14T16:46:20Z</time>
      </trkpt>
      <trkpt lat="48.4803" lon="2.72677">
        <ele>51.9</ele>
        <time>2013-04-14T16:46:24Z</time>
      </trkpt>
      <trkpt lat="48.48031" lon="2.72636">
        <ele>51.9</ele>
        <time>2013-04-14T16:46:31Z</time>
      </trkpt>
      <trkpt lat="48.48031" lon="2.72636">
        <ele>51.9</ele>
        <time>2013-04-14T16:46:35Z</time>
      </trkpt>
      <trkpt lat="48.48031" lon="2.72636">
        <ele>51.9</ele>
        <time>2013-04-14T16:46:42Z</time>
      </trkpt>
      <trkpt lat="48.48031" lon="2.72636">
        <ele>51.9</ele>
        <time>2013-04-14T16:46:46Z</time>
      </trkpt>
      <trkpt lat="48.48029" lon="2.72596">
        <ele>52</ele>
        <time>2013-04-14T16:46:51Z</time>
      </trkpt>
      <trkpt lat="48.48029" lon="2.72596">
        <ele>52</ele>
        <time>2013-04-14T16:47:01Z</time>
      </trkpt>
      <trkpt lat="48.48024" lon="2.72553">
        <ele>51.1</ele>
        <time>2013-04-14T16:47:08Z</time>
      </trkpt>
      <trkpt lat="48.48024" lon="2.72553">
        <ele>51.1</ele>
        <time>2013-04-14T16:47:12Z</time>
      </trkpt>
      <trkpt lat="48.48024" lon="2.72553">
        <ele>51.1</ele>
        <time>2013-04-14T16:47:17Z</time>
      </trkpt>
      <trkpt lat="48.48018" lon="2.72512">
        <ele>51.2</ele>
        <time>2013-04-14T16:47:22Z</time>
      </trkpt>
      <trkpt lat="48.48018" lon="2.72512">
        <ele>51.2</ele>
        <time>2013-04-14T16:47:30Z</time>
      </trkpt>
      <trkpt lat="48.48018" lon="2.72512">
        <ele>51.2</ele>
        <time>2013-04-14T16:47:34Z</time>
      </trkpt>
      <trkpt lat="48.48018" lon="2.72512">
        <ele>51.2</ele>
        <time>2013-04-14T16:47:42Z</time>
      </trkpt>
      <trkpt lat="48.48018" lon="2.72471">
        <ele>50.3</ele>
        <time>2013-04-14T16:47:48Z</time>
      </trkpt>
      <trkpt lat="48.48018" lon="2.72471">
        <ele>50.3</ele>
        <time>2013-04-14T16:47:56Z</time>
      </trkpt>
      <trkpt lat="48.48018" lon="2.72471">
        <ele>50.3</ele>
        <time>2013-04-14T16:48:02Z</time>
      </trkpt>
      <trkpt lat="48.48019" lon="2.72428">
        <ele>49.4</ele>
        <time>2013-04-14T16:48:07Z</time>
      </trkpt>
      <trkpt lat="48.48019" lon="2.72428">
        <ele>49.4</ele>
        <time>2013-04-14T16:48:15Z</time>
      </trkpt>
      <trkpt lat="48.48019" lon="2.72428">
        <ele>49.4</ele>
        <time>2013-04-14T16:48:20Z</time>
      </trkpt>
      <trkpt lat="48.48019" lon="2.72428">
        <ele>49.4</ele>
        <time>2013-04-14T16:48:28Z</time>
      </trkpt>
      <trkpt lat="48.48016" lon="2.72387">
        <ele>49.1</ele>
        <time>2013-04-14T16:48:33Z</time>
      </trkpt>
      <trkpt lat="48.48016" lon="2.72387">
        <ele>49.1</ele>
        <time>2013-04-14T16:48:41Z</time>
      </trkpt>
      <trkpt lat="48.48016" lon="2.72387">
        <ele>49.1</ele>
        <time>2013-04-14T16:48:45Z</time>
      </trkpt>
      <trkpt lat="48.48016" lon="2.72387">
        <ele>49.1</ele>
        <time>2013-04-14T16:48:50Z</time>
      </trkpt>
      <trkpt lat="48.48014" lon="2.72345">
        <ele>50</ele>
        <time>2013-04-14T16:48:55Z</time>
      </trkpt>
      <trkpt lat="48.48014" lon="2.72345">
        <ele>50</ele>
        <time>2013-04-14T16:49:04Z</time>
      </trkpt>
      <trkpt lat="48.48014" lon="2.72345">
        <ele>50</ele>
        <time>2013-04-14T16:49:08Z</time>
      </trkpt>
      <trkpt lat="48.4801" lon="2.72304">
        <ele>50.7</ele>
        <time>2013-04-14T16:49:14Z</time>
      </trkpt>
      <trkpt lat="48.4801" lon="2.72304">
        <ele>50.7</ele>
        <time>2013-04-14T16:49:23Z</time>
      </trkpt>
      <trkpt lat="48.4801" lon="2.72304">
        <ele>50.7</ele>
        <time>2013-04-14T16:49:27Z</time>
      </trkpt>
      <trkpt lat="48.48006" lon="2.72261">
        <ele>51</ele>
        <time>2013-04-14T16:49:33Z</time>
      </trkpt>
      <trkpt lat="48.48006" lon="2.72261">
        <ele>51</ele>
        <time>2013-04-14T16:49:38Z</time>
      </trkpt>
      <trkpt lat="48.48006" lon="2.72261">
        <ele>51</ele>
        <time>2013-04-14T16:49:41Z</time>
      </trkpt>
      <trkpt lat="48.48006" lon="2.72261">
        <ele>51</ele>
        <time>2013-04-14T16:49:45Z</time>
      </trkpt>
      <trkpt lat="48.48001" lon="2.7222">
        <ele>51</ele>
        <time>2013-04-14T16:49:51Z</time>
      </trkpt>
      <trkpt lat="48.48001" lon="2.7222">
        <ele>51</ele>
        <time>2013-04-14T16:49:56Z</time>
      </trkpt>
      <trkpt lat="48.48001" lon="2.7222">
        <ele>51</ele>
        <time>2013-04-14T16:50:00Z</time>
      </trkpt>
      <trkpt lat="48.48001" lon="2.7222">
        <ele>51</ele>
        <time>2013-04-14T16:50:05Z</time>
      </trkpt>
      <trkpt lat="48.47999" lon="2.72179">
        <ele>51.6</ele>
        <time>2013-04-14T16:50:10Z</time>
      </trkpt>
      <trkpt lat="48.47999" lon="2.72179">
        <ele>51.6</ele>
        <time>2013-04-14T16:50:18Z</time>
      </trkpt>
      <trkpt lat="48.47999" lon="2.72179">
        <ele>51.6</ele>
        <time>2013-04-14T16:50:23Z</time>
      </trkpt>
      <trkpt lat="48.47999" lon="2.72179">
        <ele>51.6</ele>
        <time>2013-04-14T16:50:27Z</time>
      </trkpt>
      <trkpt lat="48.48005" lon="2.72139">
        <ele>52</ele>
        <time>2013-04-14T16:50:32Z</time>
      </trkpt>
      <trkpt lat="48.48005" lon="2.72139">
        <ele>52</ele>
        <time>2013-04-14T16:50:41Z</time>
      </trkpt>
      <trkpt lat="48.48005" lon="2.72139">
        <ele>52</ele>
        <time>2013-04-14T16:50:45Z</time>
      </trkpt>
      <trkpt lat="48.48005" lon="2.72139">
        <ele>52</ele>
        <time>2013-04-14T16:50:51Z</time>
      </trkpt>
      <trkpt lat="48.48006" lon="2.72098">
        <ele>52</ele>
        <time>2013-04-14T16:50:57Z</time>
      </trkpt>
      <trkpt lat="48.48006" lon="2.72098">
        <ele>52</ele>
        <time>2013-04-14T16:51:02Z</time>
      </trkpt>
      <trkpt lat="48.48006" lon="2.72098">
        <ele>52</ele>
        <time>2013-04-14T16:51:06Z</time>
      </trkpt>
      <trkpt lat="48.48006" lon="2.72098">
        <ele>52</ele>
        <time>2013-04-14T16:51:10Z</time>
      </trkpt>
      <trkpt lat="48.48008" lon="2.72057">
        <ele>52</ele>
        <time>2013-04-14T16:51:16Z</time>
      </trkpt>
      <trkpt lat="48.48008" lon="2.72057">
        <ele>52</ele>
        <time>2013-04-14T16:51:21Z</time>
      </trkpt>
      <trkpt lat="48.48008" lon="2.72057">
        <ele>52</ele>
        <time>2013-04-14T16:51:25Z</time>
      </trkpt>
      <trkpt lat="48.48008" lon="2.72057">
        <ele>52</ele>
        <time>2013-04-14T16:51:33Z</time>
      </trkpt>
      <trkpt lat="48.4802" lon="2.72021">
        <ele>52</ele>
        <time>2013-04-14T16:51:39Z</time>
      </trkpt>
      <trkpt lat="48.4802" lon="2.72021">
        <ele>52</ele>
        <time>2013-04-14T16:51:48Z</time>
      </trkpt>
      <trkpt lat="48.4802" lon="2.72021">
        <ele>52</ele>
        <time>2013-04-14T16:51:53Z</time>
      </trkpt>
      <trkpt lat="48.48028" lon="2.71975">
        <ele>51.1</ele>
        <time>2013-04-14T16:51:59Z</time>
      </trkpt>
      <trkpt lat="48.48031" lon="2.71943">
        <ele>51.9</ele>
        <time>2013-04-14T16:52:07Z</time>
      </trkpt>
      <trkpt lat="48.48032" lon="2.71941">
        <ele>51.8</ele>
        <time>2013-04-14T16:52:11Z</time>
      </trkpt>
      <trkpt lat="48.48037" lon="2.71918">
        <ele>51.7</ele>
        <time>2013-04-14T16:52:16Z</time>
      </trkpt>
      <trkpt lat="48.48043" lon="2.719">
        <ele>51.2</ele>
        <time>2013-04-14T16:52:28Z</time>
      </trkpt>
      <trkpt lat="48.48043" lon="2.719">
        <ele>51.2</ele>
        <time>2013-04-14T16:52:32Z</time>
      </trkpt>
      <trkpt lat="48.48054" lon="2.71881">
        <ele>51</ele>
        <time>2013-04-14T16:52:37Z</time>
      </trkpt>
      <trkpt lat="48.48065" lon="2.71866">
        <ele>50.6</ele>
        <time>2013-04-14T16:52:50Z</time>
      </trkpt>
      <trkpt lat="48.48065" lon="2.71866">
        <ele>50.6</ele>
        <time>2013-04-14T16:52:54Z</time>
      </trkpt>
      <trkpt lat="48.48076" lon="2.71862">
        <ele>50.2</ele>
        <time>2013-04-14T16:52:58Z</time>
      </trkpt>
      <trkpt lat="48.48084" lon="2.71855">
        <ele>49.9</ele>
        <time>2013-04-14T16:53:07Z</time>
      </trkpt>
      <trkpt lat="48.48084" lon="2.71855">
        <ele>49.9</ele>
        <time>2013-04-14T16:53:11Z</time>
      </trkpt>
      <trkpt lat="48.48084" lon="2.71855">
        <ele>49.9</ele>
        <time>2013-04-14T16:53:15Z</time>
      </trkpt>
      <trkpt lat="48.48084" lon="2.71855">
        <ele>49.9</ele>
        <time>2013-04-14T16:53:20Z</time>
      </trkpt>
      <trkpt lat="48.48091" lon="2.71847">
        <ele>49.3</ele>
        <time>2013-04-14T16:53:24Z</time>
      </trkpt>
      <trkpt lat="48.48093" lon="2.71842">
        <ele>49.2</ele>
        <time>2013-04-14T16:53:26Z</time>
      </trkpt>
      <trkpt lat="48.48104" lon="2.7183">
        <ele>48.4</ele>
        <time>2013-04-14T16:53:36Z</time>
      </trkpt>
      <trkpt lat="48.48117" lon="2.71808">
        <ele>46.3</ele>
        <time>2013-04-14T16:53:50Z</time>
      </trkpt>
      <trkpt lat="48.4813" lon="2.71797">
        <ele>44.6</ele>
        <time>2013-04-14T16:54:01Z</time>
      </trkpt>
      <trkpt lat="48.4813" lon="2.71797">
        <ele>44.6</ele>
        <time>2013-04-14T16:54:06Z</time>
      </trkpt>
      <trkpt lat="48.4813" lon="2.71797">
        <ele>44.6</ele>
        <time>2013-04-14T16:54:11Z</time>
      </trkpt>
      <trkpt lat="48.4813" lon="2.71797">
        <ele>44.6</ele>
        <time>2013-04-14T16:54:20Z</time>
      </trkpt>
      <trkpt lat="48.48149" lon="2.71785">
        <ele>45.1</ele>
        <time>2013-04-14T16:54:24Z</time>
      </trkpt>
      <trkpt lat="48.48158" lon="2.7178">
        <ele>46.2</ele>
        <time>2013-04-14T16:54:32Z</time>
      </trkpt>
      <trkpt lat="48.48158" lon="2.7178">
        <ele>46.2</ele>
        <time>2013-04-14T16:54:36Z</time>
      </trkpt>
      <trkpt lat="48.48158" lon="2.7178">
        <ele>46.2</ele>
        <time>2013-04-14T16:54:41Z</time>
      </trkpt>
      <trkpt lat="48.48158" lon="2.7178">
        <ele>46.2</ele>
        <time>2013-04-14T16:54:45Z</time>
      </trkpt>
      <trkpt lat="48.48166" lon="2.71746">
        <ele>47</ele>
        <time>2013-04-14T16:54:50Z</time>
      </trkpt>
      <trkpt lat="48.4816" lon="2.71727">
        <ele>47</ele>
        <time>2013-04-14T16:54:55Z</time>
      </trkpt>
      <trkpt lat="48.4816" lon="2.71727">
        <ele>47</ele>
        <time>2013-04-14T16:55:02Z</time>
      </trkpt>
      <trkpt lat="48.4816" lon="2.71727">
        <ele>47</ele>
        <time>2013-04-14T16:55:04Z</time>
      </trkpt>
      <trkpt lat="48.4816" lon="2.71727">
        <ele>47</ele>
        <time>2013-04-14T16:55:22Z</time>
      </trkpt>
      <trkpt lat="48.48158" lon="2.71684">
        <ele>47</ele>
        <time>2013-04-14T16:55:26Z</time>
      </trkpt>
      <trkpt lat="48.48158" lon="2.71684">
        <ele>47</ele>
        <time>2013-04-14T16:55:36Z</time>
      </trkpt>
      <trkpt lat="48.48158" lon="2.71684">
        <ele>47</ele>
        <time>2013-04-14T16:55:40Z</time>
      </trkpt>
      <trkpt lat="48.48156" lon="2.71643">
        <ele>47</ele>
        <time>2013-04-14T16:55:46Z</time>
      </trkpt>
      <trkpt lat="48.48156" lon="2.71643">
        <ele>47</ele>
        <time>2013-04-14T16:55:56Z</time>
      </trkpt>
      <trkpt lat="48.48156" lon="2.71643">
        <ele>47</ele>
        <time>2013-04-14T16:56:00Z</time>
      </trkpt>
      <trkpt lat="48.48148" lon="2.71602">
        <ele>48.7</ele>
        <time>2013-04-14T16:56:06Z</time>
      </trkpt>
      <trkpt lat="48.48148" lon="2.71602">
        <ele>48.7</ele>
        <time>2013-04-14T16:56:14Z</time>
      </trkpt>
      <trkpt lat="48.48148" lon="2.71602">
        <ele>48.7</ele>
        <time>2013-04-14T16:56:19Z</time>
      </trkpt>
      <trkpt lat="48.48148" lon="2.71602">
        <ele>48.7</ele>
        <time>2013-04-14T16:56:23Z</time>
      </trkpt>
      <trkpt lat="48.4814" lon="2.71561">
        <ele>48.6</ele>
        <time>2013-04-14T16:56:28Z</time>
      </trkpt>
      <trkpt lat="48.4814" lon="2.71561">
        <ele>48.6</ele>
        <time>2013-04-14T16:56:36Z</time>
      </trkpt>
      <trkpt lat="48.4814" lon="2.71561">
        <ele>48.6</ele>
        <time>2013-04-14T16:56:40Z</time>
      </trkpt>
      <trkpt lat="48.4814" lon="2.71561">
        <ele>48.6</ele>
        <time>2013-04-14T16:56:54Z</time>
      </trkpt>
      <trkpt lat="48.48134" lon="2.71518">
        <ele>49</ele>
        <time>2013-04-14T16:56:59Z</time>
      </trkpt>
      <trkpt lat="48.48134" lon="2.71518">
        <ele>49</ele>
        <time>2013-04-14T16:57:08Z</time>
      </trkpt>
      <trkpt lat="48.48134" lon="2.71518">
        <ele>49</ele>
        <time>2013-04-14T16:57:12Z</time>
      </trkpt>
      <trkpt lat="48.48134" lon="2.71518">
        <ele>49</ele>
        <time>2013-04-14T16:57:16Z</time>
      </trkpt>
      <trkpt lat="48.48131" lon="2.71478">
        <ele>49</ele>
        <time>2013-04-14T16:57:22Z</time>
      </trkpt>
      <trkpt lat="48.48131" lon="2.71478">
        <ele>49</ele>
        <time>2013-04-14T16:57:27Z</time>
      </trkpt>
      <trkpt lat="48.48131" lon="2.71478">
        <ele>49</ele>
        <time>2013-04-14T16:57:31Z</time>
      </trkpt>
      <trkpt lat="48.48131" lon="2.71478">
        <ele>49</ele>
        <time>2013-04-14T16:57:34Z</time>
      </trkpt>
      <trkpt lat="48.48118" lon="2.71435">
        <ele>49.8</ele>
        <time>2013-04-14T16:57:39Z</time>
      </trkpt>
      <trkpt lat="48.48118" lon="2.71435">
        <ele>49.8</ele>
        <time>2013-04-14T16:57:47Z</time>
      </trkpt>
      <trkpt lat="48.48118" lon="2.71435">
        <ele>49.8</ele>
        <time>2013-04-14T16:57:51Z</time>
      </trkpt>
      <trkpt lat="48.48107" lon="2.71394">
        <ele>49.3</ele>
        <time>2013-04-14T16:57:56Z</time>
      </trkpt>
      <trkpt lat="48.48107" lon="2.71394">
        <ele>49.3</ele>
        <time>2013-04-14T16:58:04Z</time>
      </trkpt>
      <trkpt lat="48.48107" lon="2.71394">
        <ele>49.3</ele>
        <time>2013-04-14T16:58:08Z</time>
      </trkpt>
      <trkpt lat="48.48107" lon="2.71394">
        <ele>49.3</ele>
        <time>2013-04-14T16:58:18Z</time>
      </trkpt>
      <trkpt lat="48.48104" lon="2.71353">
        <ele>50</ele>
        <time>2013-04-14T16:58:24Z</time>
      </trkpt>
      <trkpt lat="48.48104" lon="2.71353">
        <ele>50</ele>
        <time>2013-04-14T16:58:32Z</time>
      </trkpt>
      <trkpt lat="48.48104" lon="2.71353">
        <ele>50</ele>
        <time>2013-04-14T16:58:36Z</time>
      </trkpt>
      <trkpt lat="48.48097" lon="2.71315">
        <ele>49.7</ele>
        <time>2013-04-14T16:58:42Z</time>
      </trkpt>
      <trkpt lat="48.48097" lon="2.71315">
        <ele>49.7</ele>
        <time>2013-04-14T16:58:47Z</time>
      </trkpt>
      <trkpt lat="48.48079" lon="2.71282">
        <ele>50.1</ele>
        <time>2013-04-14T16:58:52Z</time>
      </trkpt>
      <trkpt lat="48.48079" lon="2.71282">
        <ele>50.1</ele>
        <time>2013-04-14T16:59:00Z</time>
      </trkpt>
      <trkpt lat="48.48079" lon="2.71282">
        <ele>50.1</ele>
        <time>2013-04-14T16:59:04Z</time>
      </trkpt>
      <trkpt lat="48.48079" lon="2.71282">
        <ele>50.1</ele>
        <time>2013-04-14T16:59:09Z</time>
      </trkpt>
      <trkpt lat="48.48069" lon="2.71235">
        <ele>50.3</ele>
        <time>2013-04-14T16:59:15Z</time>
      </trkpt>
      <trkpt lat="48.48061" lon="2.71209">
        <ele>50.4</ele>
        <time>2013-04-14T16:59:22Z</time>
      </trkpt>
      <trkpt lat="48.48065" lon="2.71194">
        <ele>50</ele>
        <time>2013-04-14T16:59:29Z</time>
      </trkpt>
      <trkpt lat="48.48065" lon="2.71194">
        <ele>50</ele>
        <time>2013-04-14T16:59:34Z</time>
      </trkpt>
      <trkpt lat="48.48067" lon="2.71179">
        <ele>50</ele>
        <time>2013-04-14T16:59:38Z</time>
      </trkpt>
      <trkpt lat="48.48065" lon="2.71175">
        <ele>50</ele>
        <time>2013-04-14T16:59:40Z</time>
      </trkpt>
      <trkpt lat="48.48068" lon="2.71158">
        <ele>50.2</ele>
        <time>2013-04-14T16:59:48Z</time>
      </trkpt>
      <trkpt lat="48.48069" lon="2.71154">
        <ele>50.2</ele>
        <time>2013-04-14T16:59:55Z</time>
      </trkpt>
      <trkpt lat="48.48069" lon="2.71154">
        <ele>50.2</ele>
        <time>2013-04-14T17:00:00Z</time>
      </trkpt>
      <trkpt lat="48.48069" lon="2.71154">
        <ele>50.2</ele>
        <time>2013-04-14T17:00:04Z</time>
      </trkpt>
      <trkpt lat="48.48069" lon="2.71154">
        <ele>50.2</ele>
        <time>2013-04-14T17:00:13Z</time>
      </trkpt>
      <trkpt lat="48.4806" lon="2.711">
        <ele>50.8</ele>
        <time>2013-04-14T17:00:18Z</time>
      </trkpt>
      <trkpt lat="48.48055" lon="2.71091">
        <ele>51</ele>
        <time>2013-04-14T17:00:23Z</time>
      </trkpt>
      <trkpt lat="48.48055" lon="2.71091">
        <ele>51</ele>
        <time>2013-04-14T17:00:27Z</time>
      </trkpt>
      <trkpt lat="48.48055" lon="2.71091">
        <ele>51</ele>
        <time>2013-04-14T17:00:31Z</time>
      </trkpt>
      <trkpt lat="48.48055" lon="2.71091">
        <ele>51</ele>
        <time>2013-04-14T17:00:41Z</time>
      </trkpt>
      <trkpt lat="48.48049" lon="2.71049">
        <ele>51</ele>
        <time>2013-04-14T17:00:46Z</time>
      </trkpt>
      <trkpt lat="48.48042" lon="2.71038">
        <ele>51</ele>
        <time>2013-04-14T17:00:48Z</time>
      </trkpt>
      <trkpt lat="48.48041" lon="2.71034">
        <ele>51</ele>
        <time>2013-04-14T17:00:53Z</time>
      </trkpt>
      <trkpt lat="48.48041" lon="2.71034">
        <ele>51</ele>
        <time>2013-04-14T17:00:58Z</time>
      </trkpt>
      <trkpt lat="48.48041" lon="2.71034">
        <ele>51</ele>
        <time>2013-04-14T17:01:02Z</time>
      </trkpt>
      <trkpt lat="48.48041" lon="2.71034">
        <ele>51</ele>
        <time>2013-04-14T17:01:11Z</time>
      </trkpt>
      <trkpt lat="48.48049" lon="2.70993">
        <ele>50.8</ele>
        <time>2013-04-14T17:01:19Z</time>
      </trkpt>
      <trkpt lat="48.48049" lon="2.70993">
        <ele>50.8</ele>
        <time>2013-04-14T17:01:23Z</time>
      </trkpt>
      <trkpt lat="48.48049" lon="2.70993">
        <ele>50.8</ele>
        <time>2013-04-14T17:01:28Z</time>
      </trkpt>
      <trkpt lat="48.48049" lon="2.70993">
        <ele>50.8</ele>
        <time>2013-04-14T17:01:44Z</time>
      </trkpt>
      <trkpt lat="48.48055" lon="2.70954">
        <ele>50</ele>
        <time>2013-04-14T17:01:50Z</time>
      </trkpt>
      <trkpt lat="48.48055" lon="2.70954">
        <ele>50</ele>
        <time>2013-04-14T17:02:01Z</time>
      </trkpt>
      <trkpt lat="48.48055" lon="2.70954">
        <ele>50</ele>
        <time>2013-04-14T17:02:05Z</time>
      </trkpt>
      <trkpt lat="48.48055" lon="2.70954">
        <ele>50</ele>
        <time>2013-04-14T17:02:09Z</time>
      </trkpt>
      <trkpt lat="48.48083" lon="2.70948">
        <ele>49</ele>
        <time>2013-04-14T17:02:18Z</time>
      </trkpt>
      <trkpt lat="48.48083" lon="2.70948">
        <ele>49</ele>
        <time>2013-04-14T17:02:23Z</time>
      </trkpt>
      <trkpt lat="48.48083" lon="2.70948">
        <ele>49</ele>
        <time>2013-04-14T17:02:27Z</time>
      </trkpt>
      <trkpt lat="48.48083" lon="2.70948">
        <ele>49</ele>
        <time>2013-04-14T17:02:31Z</time>
      </trkpt>
      <trkpt lat="48.48107" lon="2.70926">
        <ele>48</ele>
        <time>2013-04-14T17:02:38Z</time>
      </trkpt>
      <trkpt lat="48.48107" lon="2.70926">
        <ele>48</ele>
        <time>2013-04-14T17:02:42Z</time>
      </trkpt>
      <trkpt lat="48.48107" lon="2.70926">
        <ele>48</ele>
        <time>2013-04-14T17:02:48Z</time>
      </trkpt>
      <trkpt lat="48.48108" lon="2.70883">
        <ele>48.1</ele>
        <time>2013-04-14T17:02:53Z</time>
      </trkpt>
      <trkpt lat="48.48108" lon="2.70883">
        <ele>48.1</ele>
        <time>2013-04-14T17:03:03Z</time>
      </trkpt>
      <trkpt lat="48.48103" lon="2.70853">
        <ele>48.4</ele>
        <time>2013-04-14T17:03:07Z</time>
      </trkpt>
      <trkpt lat="48.481" lon="2.70838">
        <ele>48.3</ele>
        <time>2013-04-14T17:03:14Z</time>
      </trkpt>
      <trkpt lat="48.481" lon="2.70838">
        <ele>48.3</ele>
        <time>2013-04-14T17:03:22Z</time>
      </trkpt>
      <trkpt lat="48.481" lon="2.70838">
        <ele>48.3</ele>
        <time>2013-04-14T17:03:26Z</time>
      </trkpt>
      <trkpt lat="48.481" lon="2.70838">
        <ele>48.3</ele>
        <time>2013-04-14T17:03:31Z</time>
      </trkpt>
      <trkpt lat="48.48086" lon="2.70802">
        <ele>49.7</ele>
        <time>2013-04-14T17:03:36Z</time>
      </trkpt>
      <trkpt lat="48.48086" lon="2.70802">
        <ele>49.7</ele>
        <time>2013-04-14T17:03:42Z</time>
      </trkpt>
      <trkpt lat="48.48086" lon="2.70802">
        <ele>49.7</ele>
        <time>2013-04-14T17:03:44Z</time>
      </trkpt>
      <trkpt lat="48.48077" lon="2.7078">
        <ele>49.3</ele>
        <time>2013-04-14T17:03:47Z</time>
      </trkpt>
      <trkpt lat="48.48071" lon="2.70765">
        <ele>49.4</ele>
        <time>2013-04-14T17:03:58Z</time>
      </trkpt>
      <trkpt lat="48.48064" lon="2.70755">
        <ele>49.7</ele>
        <time>2013-04-14T17:04:02Z</time>
      </trkpt>
      <trkpt lat="48.48064" lon="2.70755">
        <ele>49.7</ele>
        <time>2013-04-14T17:04:11Z</time>
      </trkpt>
      <trkpt lat="48.48064" lon="2.70755">
        <ele>49.7</ele>
        <time>2013-04-14T17:04:16Z</time>
      </trkpt>
      <trkpt lat="48.48064" lon="2.70755">
        <ele>49.7</ele>
        <time>2013-04-14T17:04:21Z</time>
      </trkpt>
      <trkpt lat="48.48071" lon="2.70707">
        <ele>49.4</ele>
        <time>2013-04-14T17:04:28Z</time>
      </trkpt>
      <trkpt lat="48.48071" lon="2.70705">
        <ele>49.4</ele>
        <time>2013-04-14T17:04:33Z</time>
      </trkpt>
      <trkpt lat="48.48073" lon="2.70688">
        <ele>49.4</ele>
        <time>2013-04-14T17:04:37Z</time>
      </trkpt>
      <trkpt lat="48.48071" lon="2.70677">
        <ele>49.4</ele>
        <time>2013-04-14T17:04:47Z</time>
      </trkpt>
      <trkpt lat="48.48071" lon="2.70677">
        <ele>49.4</ele>
        <time>2013-04-14T17:04:51Z</time>
      </trkpt>
      <trkpt lat="48.48071" lon="2.70677">
        <ele>49.4</ele>
        <time>2013-04-14T17:04:56Z</time>
      </trkpt>
      <trkpt lat="48.48071" lon="2.70677">
        <ele>49.4</ele>
        <time>2013-04-14T17:05:15Z</time>
      </trkpt>
      <trkpt lat="48.48096" lon="2.70654">
        <ele>47.8</ele>
        <time>2013-04-14T17:05:23Z</time>
      </trkpt>
      <trkpt lat="48.48101" lon="2.70649">
        <ele>47.5</ele>
        <time>2013-04-14T17:05:28Z</time>
      </trkpt>
      <trkpt lat="48.48108" lon="2.70647">
        <ele>47</ele>
        <time>2013-04-14T17:05:34Z</time>
      </trkpt>
      <trkpt lat="48.48108" lon="2.70647">
        <ele>47</ele>
        <time>2013-04-14T17:05:39Z</time>
      </trkpt>
      <trkpt lat="48.48118" lon="2.70645">
        <ele>46.1</ele>
        <time>2013-04-14T17:05:43Z</time>
      </trkpt>
      <trkpt lat="48.48121" lon="2.70645">
        <ele>45.8</ele>
        <time>2013-04-14T17:05:45Z</time>
      </trkpt>
      <trkpt lat="48.48124" lon="2.70645">
        <ele>45.5</ele>
        <time>2013-04-14T17:05:51Z</time>
      </trkpt>
      <trkpt lat="48.48124" lon="2.70645">
        <ele>45.5</ele>
        <time>2013-04-14T17:05:59Z</time>
      </trkpt>
      <trkpt lat="48.48157" lon="2.70634">
        <ele>41.9</ele>
        <time>2013-04-14T17:06:05Z</time>
      </trkpt>
      <trkpt lat="48.4816" lon="2.70632">
        <ele>41.5</ele>
        <time>2013-04-14T17:06:11Z</time>
      </trkpt>
      <trkpt lat="48.48173" lon="2.70626">
        <ele>41.1</ele>
        <time>2013-04-14T17:06:16Z</time>
      </trkpt>
      <trkpt lat="48.4818" lon="2.70619">
        <ele>41.6</ele>
        <time>2013-04-14T17:06:24Z</time>
      </trkpt>
      <trkpt lat="48.4818" lon="2.70619">
        <ele>41.6</ele>
        <time>2013-04-14T17:06:30Z</time>
      </trkpt>
      <trkpt lat="48.48201" lon="2.70604">
        <ele>42.4</ele>
        <time>2013-04-14T17:06:34Z</time>
      </trkpt>
      <trkpt lat="48.48209" lon="2.70602">
        <ele>42</ele>
        <time>2013-04-14T17:06:38Z</time>
      </trkpt>
      <trkpt lat="48.48223" lon="2.706">
        <ele>41.2</ele>
        <time>2013-04-14T17:06:46Z</time>
      </trkpt>
      <trkpt lat="48.48238" lon="2.70594">
        <ele>41.5</ele>
        <time>2013-04-14T17:06:58Z</time>
      </trkpt>
      <trkpt lat="48.48241" lon="2.70587">
        <ele>41.4</ele>
        <time>2013-04-14T17:07:03Z</time>
      </trkpt>
      <trkpt lat="48.48252" lon="2.70576">
        <ele>41.2</ele>
        <time>2013-04-14T17:07:10Z</time>
      </trkpt>
      <trkpt lat="48.48264" lon="2.70568">
        <ele>40.3</ele>
        <time>2013-04-14T17:07:22Z</time>
      </trkpt>
      <trkpt lat="48.48264" lon="2.70568">
        <ele>40.3</ele>
        <time>2013-04-14T17:07:29Z</time>
      </trkpt>
      <trkpt lat="48.48273" lon="2.7057">
        <ele>40.6</ele>
        <time>2013-04-14T17:07:33Z</time>
      </trkpt>
      <trkpt lat="48.48273" lon="2.7057">
        <ele>40.6</ele>
        <time>2013-04-14T17:07:39Z</time>
      </trkpt>
      <trkpt lat="48.48276" lon="2.70566">
        <ele>40.1</ele>
        <time>2013-04-14T17:07:43Z</time>
      </trkpt>
      <trkpt lat="48.48276" lon="2.70566">
        <ele>40.1</ele>
        <time>2013-04-14T17:07:51Z</time>
      </trkpt>
      <trkpt lat="48.48276" lon="2.70566">
        <ele>40.1</ele>
        <time>2013-04-14T17:07:55Z</time>
      </trkpt>
      <trkpt lat="48.48276" lon="2.70566">
        <ele>40.1</ele>
        <time>2013-04-14T17:08:00Z</time>
      </trkpt>
      <trkpt lat="48.48274" lon="2.70572">
        <ele>40.8</ele>
        <time>2013-04-14T17:08:05Z</time>
      </trkpt>
      <trkpt lat="48.48274" lon="2.70572">
        <ele>40.8</ele>
        <time>2013-04-14T17:08:11Z</time>
      </trkpt>
      <trkpt lat="48.48276" lon="2.70585">
        <ele>42.1</ele>
        <time>2013-04-14T17:08:14Z</time>
      </trkpt>
      <trkpt lat="48.48281" lon="2.70585">
        <ele>42.2</ele>
        <time>2013-04-14T17:08:18Z</time>
      </trkpt>
      <trkpt lat="48.4829" lon="2.70581">
        <ele>42.3</ele>
        <time>2013-04-14T17:08:25Z</time>
      </trkpt>
      <trkpt lat="48.48295" lon="2.70574">
        <ele>42.2</ele>
        <time>2013-04-14T17:08:29Z</time>
      </trkpt>
      <trkpt lat="48.48297" lon="2.70572">
        <ele>42.3</ele>
        <time>2013-04-14T17:08:38Z</time>
      </trkpt>
      <trkpt lat="48.48299" lon="2.70551">
        <ele>42</ele>
        <time>2013-04-14T17:08:43Z</time>
      </trkpt>
      <trkpt lat="48.48299" lon="2.70551">
        <ele>42</ele>
        <time>2013-04-14T17:08:51Z</time>
      </trkpt>
      <trkpt lat="48.48299" lon="2.70551">
        <ele>42</ele>
        <time>2013-04-14T17:08:55Z</time>
      </trkpt>
      <trkpt lat="48.48302" lon="2.70527">
        <ele>41.8</ele>
        <time>2013-04-14T17:08:59Z</time>
      </trkpt>
      <trkpt lat="48.48302" lon="2.70523">
        <ele>41.6</ele>
        <time>2013-04-14T17:09:06Z</time>
      </trkpt>
      <trkpt lat="48.48302" lon="2.70503">
        <ele>40.2</ele>
        <time>2013-04-14T17:09:10Z</time>
      </trkpt>
      <trkpt lat="48.48303" lon="2.70491">
        <ele>40.9</ele>
        <time>2013-04-14T17:09:18Z</time>
      </trkpt>
      <trkpt lat="48.48303" lon="2.70491">
        <ele>40.9</ele>
        <time>2013-04-14T17:09:22Z</time>
      </trkpt>
      <trkpt lat="48.483" lon="2.70471">
        <ele>42.4</ele>
        <time>2013-04-14T17:09:25Z</time>
      </trkpt>
      <trkpt lat="48.483" lon="2.70471">
        <ele>42.4</ele>
        <time>2013-04-14T17:09:34Z</time>
      </trkpt>
      <trkpt lat="48.483" lon="2.70471">
        <ele>42.4</ele>
        <time>2013-04-14T17:09:39Z</time>
      </trkpt>
      <trkpt lat="48.483" lon="2.70471">
        <ele>42.4</ele>
        <time>2013-04-14T17:09:45Z</time>
      </trkpt>
      <trkpt lat="48.48294" lon="2.70441">
        <ele>42</ele>
        <time>2013-04-14T17:09:49Z</time>
      </trkpt>
      <trkpt lat="48.48294" lon="2.70441">
        <ele>42</ele>
        <time>2013-04-14T17:09:56Z</time>
      </trkpt>
      <trkpt lat="48.48294" lon="2.70441">
        <ele>42</ele>
        <time>2013-04-14T17:10:00Z</time>
      </trkpt>
      <trkpt lat="48.48293" lon="2.70398">
        <ele>42</ele>
        <time>2013-04-14T17:10:06Z</time>
      </trkpt>
      <trkpt lat="48.48296" lon="2.70383">
        <ele>42</ele>
        <time>2013-04-14T17:10:15Z</time>
      </trkpt>
      <trkpt lat="48.48296" lon="2.70383">
        <ele>42</ele>
        <time>2013-04-14T17:10:20Z</time>
      </trkpt>
      <trkpt lat="48.48296" lon="2.70383">
        <ele>42</ele>
        <time>2013-04-14T17:10:24Z</time>
      </trkpt>
      <trkpt lat="48.48296" lon="2.70383">
        <ele>42</ele>
        <time>2013-04-14T17:10:30Z</time>
      </trkpt>
      <trkpt lat="48.4832" lon="2.7037">
        <ele>42</ele>
        <time>2013-04-14T17:10:34Z</time>
      </trkpt>
      <trkpt lat="48.48324" lon="2.70368">
        <ele>42</ele>
        <time>2013-04-14T17:10:36Z</time>
      </trkpt>
      <trkpt lat="48.48334" lon="2.70362">
        <ele>42</ele>
        <time>2013-04-14T17:10:42Z</time>
      </trkpt>
      <trkpt lat="48.48338" lon="2.70353">
        <ele>42</ele>
        <time>2013-04-14T17:10:49Z</time>
      </trkpt>
      <trkpt lat="48.48342" lon="2.70347">
        <ele>42</ele>
        <time>2013-04-14T17:11:00Z</time>
      </trkpt>
      <trkpt lat="48.48342" lon="2.70347">
        <ele>42</ele>
        <time>2013-04-14T17:11:04Z</time>
      </trkpt>
      <trkpt lat="48.48342" lon="2.70347">
        <ele>42</ele>
        <time>2013-04-14T17:11:10Z</time>
      </trkpt>
      <trkpt lat="48.48342" lon="2.70347">
        <ele>42</ele>
        <time>2013-04-14T17:11:28Z</time>
      </trkpt>
      <trkpt lat="48.48373" lon="2.7034">
        <ele>42</ele>
        <time>2013-04-14T17:11:36Z</time>
      </trkpt>
      <trkpt lat="48.48373" lon="2.7034">
        <ele>42</ele>
        <time>2013-04-14T17:11:45Z</time>
      </trkpt>
      <trkpt lat="48.48373" lon="2.7034">
        <ele>42</ele>
        <time>2013-04-14T17:11:50Z</time>
      </trkpt>
      <trkpt lat="48.48398" lon="2.70336">
        <ele>42.3</ele>
        <time>2013-04-14T17:11:54Z</time>
      </trkpt>
      <trkpt lat="48.48406" lon="2.70334">
        <ele>42.6</ele>
        <time>2013-04-14T17:12:02Z</time>
      </trkpt>
      <trkpt lat="48.48406" lon="2.70334">
        <ele>42.6</ele>
        <time>2013-04-14T17:12:07Z</time>
      </trkpt>
      <trkpt lat="48.48406" lon="2.70334">
        <ele>42.6</ele>
        <time>2013-04-14T17:12:12Z</time>
      </trkpt>
      <trkpt lat="48.48406" lon="2.70334">
        <ele>42.6</ele>
        <time>2013-04-14T17:12:16Z</time>
      </trkpt>
      <trkpt lat="48.48431" lon="2.70315">
        <ele>43</ele>
        <time>2013-04-14T17:12:22Z</time>
      </trkpt>
      <trkpt lat="48.48431" lon="2.70315">
        <ele>43</ele>
        <time>2013-04-14T17:12:27Z</time>
      </trkpt>
      <trkpt lat="48.48431" lon="2.70315">
        <ele>43</ele>
        <time>2013-04-14T17:12:32Z</time>
      </trkpt>
      <trkpt lat="48.48431" lon="2.70315">
        <ele>43</ele>
        <time>2013-04-14T17:12:37Z</time>
      </trkpt>
      <trkpt lat="48.4845" lon="2.70267">
        <ele>43.2</ele>
        <time>2013-04-14T17:12:43Z</time>
      </trkpt>
      <trkpt lat="48.48452" lon="2.70265">
        <ele>43.3</ele>
        <time>2013-04-14T17:12:49Z</time>
      </trkpt>
      <trkpt lat="48.48458" lon="2.70252">
        <ele>43.5</ele>
        <time>2013-04-14T17:12:53Z</time>
      </trkpt>
      <trkpt lat="48.48457" lon="2.70237">
        <ele>43.5</ele>
        <time>2013-04-14T17:12:58Z</time>
      </trkpt>
      <trkpt lat="48.48457" lon="2.70231">
        <ele>43.5</ele>
        <time>2013-04-14T17:13:05Z</time>
      </trkpt>
      <trkpt lat="48.48457" lon="2.70231">
        <ele>43.5</ele>
        <time>2013-04-14T17:13:10Z</time>
      </trkpt>
      <trkpt lat="48.48458" lon="2.70205">
        <ele>43.5</ele>
        <time>2013-04-14T17:13:14Z</time>
      </trkpt>
      <trkpt lat="48.48458" lon="2.70205">
        <ele>43.5</ele>
        <time>2013-04-14T17:13:22Z</time>
      </trkpt>
      <trkpt lat="48.48458" lon="2.70205">
        <ele>43.5</ele>
        <time>2013-04-14T17:13:27Z</time>
      </trkpt>
      <trkpt lat="48.48458" lon="2.70205">
        <ele>43.5</ele>
        <time>2013-04-14T17:13:32Z</time>
      </trkpt>
      <trkpt lat="48.4846" lon="2.70162">
        <ele>43.6</ele>
        <time>2013-04-14T17:13:37Z</time>
      </trkpt>
      <trkpt lat="48.4846" lon="2.70162">
        <ele>43.6</ele>
        <time>2013-04-14T17:13:45Z</time>
      </trkpt>
      <trkpt lat="48.48464" lon="2.70141">
        <ele>43.7</ele>
        <time>2013-04-14T17:13:50Z</time>
      </trkpt>
      <trkpt lat="48.48466" lon="2.70126">
        <ele>43.8</ele>
        <time>2013-04-14T17:13:57Z</time>
      </trkpt>
      <trkpt lat="48.48465" lon="2.70111">
        <ele>43.7</ele>
        <time>2013-04-14T17:14:09Z</time>
      </trkpt>
      <trkpt lat="48.48465" lon="2.70111">
        <ele>43.7</ele>
        <time>2013-04-14T17:14:13Z</time>
      </trkpt>
      <trkpt lat="48.48465" lon="2.70111">
        <ele>43.7</ele>
        <time>2013-04-14T17:14:17Z</time>
      </trkpt>
      <trkpt lat="48.48469" lon="2.70064">
        <ele>44</ele>
        <time>2013-04-14T17:14:24Z</time>
      </trkpt>
      <trkpt lat="48.4847" lon="2.70049">
        <ele>44</ele>
        <time>2013-04-14T17:14:30Z</time>
      </trkpt>
      <trkpt lat="48.48471" lon="2.7004">
        <ele>44</ele>
        <time>2013-04-14T17:14:37Z</time>
      </trkpt>
      <trkpt lat="48.48473" lon="2.70031">
        <ele>44</ele>
        <time>2013-04-14T17:14:41Z</time>
      </trkpt>
      <trkpt lat="48.48473" lon="2.70031">
        <ele>44</ele>
        <time>2013-04-14T17:14:49Z</time>
      </trkpt>
      <trkpt lat="48.48473" lon="2.70031">
        <ele>44</ele>
        <time>2013-04-14T17:14:53Z</time>
      </trkpt>
      <trkpt lat="48.48473" lon="2.70031">
        <ele>44</ele>
        <time>2013-04-14T17:14:59Z</time>
      </trkpt>
      <trkpt lat="48.48473" lon="2.70016">
        <ele>44</ele>
        <time>2013-04-14T17:15:04Z</time>
      </trkpt>
      <trkpt lat="48.4848" lon="2.70001">
        <ele>44.3</ele>
        <time>2013-04-14T17:15:10Z</time>
      </trkpt>
      <trkpt lat="48.4848" lon="2.70001">
        <ele>44.3</ele>
        <time>2013-04-14T17:15:18Z</time>
      </trkpt>
      <trkpt lat="48.48491" lon="2.69982">
        <ele>44.2</ele>
        <time>2013-04-14T17:15:22Z</time>
      </trkpt>
      <trkpt lat="48.48495" lon="2.69967">
        <ele>44</ele>
        <time>2013-04-14T17:15:28Z</time>
      </trkpt>
      <trkpt lat="48.48496" lon="2.6995">
        <ele>44</ele>
        <time>2013-04-14T17:15:38Z</time>
      </trkpt>
      <trkpt lat="48.48496" lon="2.6995">
        <ele>44</ele>
        <time>2013-04-14T17:15:42Z</time>
      </trkpt>
      <trkpt lat="48.48498" lon="2.69931">
        <ele>44</ele>
        <time>2013-04-14T17:15:46Z</time>
      </trkpt>
      <trkpt lat="48.48501" lon="2.69918">
        <ele>44</ele>
        <time>2013-04-14T17:15:57Z</time>
      </trkpt>
      <trkpt lat="48.48501" lon="2.69918">
        <ele>44</ele>
        <time>2013-04-14T17:16:01Z</time>
      </trkpt>
      <trkpt lat="48.48511" lon="2.69886">
        <ele>44</ele>
        <time>2013-04-14T17:16:06Z</time>
      </trkpt>
      <trkpt lat="48.48515" lon="2.69866">
        <ele>44.4</ele>
        <time>2013-04-14T17:16:15Z</time>
      </trkpt>
      <trkpt lat="48.48515" lon="2.69866">
        <ele>44.4</ele>
        <time>2013-04-14T17:16:19Z</time>
      </trkpt>
      <trkpt lat="48.48515" lon="2.69866">
        <ele>44.4</ele>
        <time>2013-04-14T17:16:24Z</time>
      </trkpt>
      <trkpt lat="48.48525" lon="2.6984">
        <ele>44.2</ele>
        <time>2013-04-14T17:16:28Z</time>
      </trkpt>
      <trkpt lat="48.4853" lon="2.69828">
        <ele>44.2</ele>
        <time>2013-04-14T17:16:38Z</time>
      </trkpt>
      <trkpt lat="48.4853" lon="2.69828">
        <ele>44.2</ele>
        <time>2013-04-14T17:16:42Z</time>
      </trkpt>
      <trkpt lat="48.4853" lon="2.69828">
        <ele>44.2</ele>
        <time>2013-04-14T17:16:46Z</time>
      </trkpt>
      <trkpt lat="48.4853" lon="2.69828">
        <ele>44.2</ele>
        <time>2013-04-14T17:16:55Z</time>
      </trkpt>
      <trkpt lat="48.48544" lon="2.69793">
        <ele>45.4</ele>
        <time>2013-04-14T17:17:01Z</time>
      </trkpt>
      <trkpt lat="48.48544" lon="2.69793">
        <ele>45.4</ele>
        <time>2013-04-14T17:17:06Z</time>
      </trkpt>
      <trkpt lat="48.48546" lon="2.69776">
        <ele>46</ele>
        <time>2013-04-14T17:17:11Z</time>
      </trkpt>
      <trkpt lat="48.48546" lon="2.69776">
        <ele>46</ele>
        <time>2013-04-14T17:17:20Z</time>
      </trkpt>
      <trkpt lat="48.4855" lon="2.69761">
        <ele>46.4</ele>
        <time>2013-04-14T17:17:25Z</time>
      </trkpt>
      <trkpt lat="48.48556" lon="2.69718">
        <ele>46</ele>
        <time>2013-04-14T17:17:39Z</time>
      </trkpt>
      <trkpt lat="48.48559" lon="2.69699">
        <ele>46.2</ele>
        <time>2013-04-14T17:17:49Z</time>
      </trkpt>
      <trkpt lat="48.48558" lon="2.69677">
        <ele>46.7</ele>
        <time>2013-04-14T17:17:58Z</time>
      </trkpt>
      <trkpt lat="48.48556" lon="2.69665">
        <ele>47</ele>
        <time>2013-04-14T17:18:09Z</time>
      </trkpt>
      <trkpt lat="48.48557" lon="2.69652">
        <ele>47.1</ele>
        <time>2013-04-14T17:18:14Z</time>
      </trkpt>
      <trkpt lat="48.48562" lon="2.6963">
        <ele>46.9</ele>
        <time>2013-04-14T17:18:28Z</time>
      </trkpt>
      <trkpt lat="48.48562" lon="2.6963">
        <ele>46.9</ele>
        <time>2013-04-14T17:18:32Z</time>
      </trkpt>
      <trkpt lat="48.48562" lon="2.6963">
        <ele>46.9</ele>
        <time>2013-04-14T17:18:37Z</time>
      </trkpt>
      <trkpt lat="48.48575" lon="2.69607">
        <ele>46.7</ele>
        <time>2013-04-14T17:18:41Z</time>
      </trkpt>
      <trkpt lat="48.48575" lon="2.69607">
        <ele>46.7</ele>
        <time>2013-04-14T17:18:49Z</time>
      </trkpt>
      <trkpt lat="48.48577" lon="2.69592">
        <ele>46.8</ele>
        <time>2013-04-14T17:18:53Z</time>
      </trkpt>
      <trkpt lat="48.48578" lon="2.69579">
        <ele>46.8</ele>
        <time>2013-04-14T17:19:00Z</time>
      </trkpt>
      <trkpt lat="48.48585" lon="2.69566">
        <ele>47.1</ele>
        <time>2013-04-14T17:19:07Z</time>
      </trkpt>
      <trkpt lat="48.48602" lon="2.69534">
        <ele>47.8</ele>
        <time>2013-04-14T17:19:21Z</time>
      </trkpt>
      <trkpt lat="48.48604" lon="2.69529">
        <ele>47.8</ele>
        <time>2013-04-14T17:19:29Z</time>
      </trkpt>
      <trkpt lat="48.48607" lon="2.69512">
        <ele>47.9</ele>
        <time>2013-04-14T17:19:33Z</time>
      </trkpt>
      <trkpt lat="48.48612" lon="2.69493">
        <ele>48.1</ele>
        <time>2013-04-14T17:19:43Z</time>
      </trkpt>
      <trkpt lat="48.48619" lon="2.6948">
        <ele>48.4</ele>
        <time>2013-04-14T17:19:52Z</time>
      </trkpt>
      <trkpt lat="48.48626" lon="2.69476">
        <ele>48.6</ele>
        <time>2013-04-14T17:19:58Z</time>
      </trkpt>
      <trkpt lat="48.48631" lon="2.69467">
        <ele>48.7</ele>
        <time>2013-04-14T17:20:04Z</time>
      </trkpt>
      <trkpt lat="48.48636" lon="2.69456">
        <ele>48.9</ele>
        <time>2013-04-14T17:20:17Z</time>
      </trkpt>
      <trkpt lat="48.48637" lon="2.69443">
        <ele>48.9</ele>
        <time>2013-04-14T17:20:21Z</time>
      </trkpt>
      <trkpt lat="48.48642" lon="2.69431">
        <ele>49.2</ele>
        <time>2013-04-14T17:20:30Z</time>
      </trkpt>
      <trkpt lat="48.48643" lon="2.69426">
        <ele>49.2</ele>
        <time>2013-04-14T17:20:37Z</time>
      </trkpt>
      <trkpt lat="48.48643" lon="2.69426">
        <ele>49.2</ele>
        <time>2013-04-14T17:20:41Z</time>
      </trkpt>
      <trkpt lat="48.48647" lon="2.69411">
        <ele>49.3</ele>
        <time>2013-04-14T17:20:45Z</time>
      </trkpt>
      <trkpt lat="48.48654" lon="2.69398">
        <ele>49.5</ele>
        <time>2013-04-14T17:20:51Z</time>
      </trkpt>
      <trkpt lat="48.48658" lon="2.69386">
        <ele>49.6</ele>
        <time>2013-04-14T17:21:00Z</time>
      </trkpt>
      <trkpt lat="48.48662" lon="2.69371">
        <ele>49.2</ele>
        <time>2013-04-14T17:21:05Z</time>
      </trkpt>
      <trkpt lat="48.48668" lon="2.69347">
        <ele>49.1</ele>
        <time>2013-04-14T17:21:17Z</time>
      </trkpt>
      <trkpt lat="48.48675" lon="2.6934">
        <ele>49.7</ele>
        <time>2013-04-14T17:21:23Z</time>
      </trkpt>
      <trkpt lat="48.4868" lon="2.6933">
        <ele>50</ele>
        <time>2013-04-14T17:21:28Z</time>
      </trkpt>
      <trkpt lat="48.48681" lon="2.69323">
        <ele>50</ele>
        <time>2013-04-14T17:21:34Z</time>
      </trkpt>
      <trkpt lat="48.48687" lon="2.693">
        <ele>50.5</ele>
        <time>2013-04-14T17:21:38Z</time>
      </trkpt>
      <trkpt lat="48.48692" lon="2.69289">
        <ele>50.8</ele>
        <time>2013-04-14T17:21:47Z</time>
      </trkpt>
      <trkpt lat="48.487" lon="2.69268">
        <ele>51.1</ele>
        <time>2013-04-14T17:21:59Z</time>
      </trkpt>
      <trkpt lat="48.48702" lon="2.69255">
        <ele>50.9</ele>
        <time>2013-04-14T17:22:11Z</time>
      </trkpt>
      <trkpt lat="48.48705" lon="2.6925">
        <ele>51.1</ele>
        <time>2013-04-14T17:22:13Z</time>
      </trkpt>
      <trkpt lat="48.48705" lon="2.6925">
        <ele>51.1</ele>
        <time>2013-04-14T17:22:20Z</time>
      </trkpt>
      <trkpt lat="48.48705" lon="2.6925">
        <ele>51.1</ele>
        <time>2013-04-14T17:22:22Z</time>
      </trkpt>
      <trkpt lat="48.4871" lon="2.69235">
        <ele>51.4</ele>
        <time>2013-04-14T17:22:28Z</time>
      </trkpt>
      <trkpt lat="48.48717" lon="2.69212">
        <ele>51.6</ele>
        <time>2013-04-14T17:22:35Z</time>
      </trkpt>
      <trkpt lat="48.48726" lon="2.69188">
        <ele>52.2</ele>
        <time>2013-04-14T17:22:46Z</time>
      </trkpt>
      <trkpt lat="48.4873" lon="2.6918">
        <ele>52.4</ele>
        <time>2013-04-14T17:22:55Z</time>
      </trkpt>
      <trkpt lat="48.48735" lon="2.69162">
        <ele>52.5</ele>
        <time>2013-04-14T17:22:59Z</time>
      </trkpt>
      <trkpt lat="48.48736" lon="2.69158">
        <ele>52.5</ele>
        <time>2013-04-14T17:23:06Z</time>
      </trkpt>
      <trkpt lat="48.48736" lon="2.69158">
        <ele>52.5</ele>
        <time>2013-04-14T17:23:10Z</time>
      </trkpt>
      <trkpt lat="48.48736" lon="2.69158">
        <ele>52.5</ele>
        <time>2013-04-14T17:23:14Z</time>
      </trkpt>
      <trkpt lat="48.48747" lon="2.6913">
        <ele>52.9</ele>
        <time>2013-04-14T17:23:18Z</time>
      </trkpt>
      <trkpt lat="48.48752" lon="2.69126">
        <ele>53.1</ele>
        <time>2013-04-14T17:23:21Z</time>
      </trkpt>
      <trkpt lat="48.48756" lon="2.69122">
        <ele>53.4</ele>
        <time>2013-04-14T17:23:27Z</time>
      </trkpt>
      <trkpt lat="48.48756" lon="2.69122">
        <ele>53.4</ele>
        <time>2013-04-14T17:23:32Z</time>
      </trkpt>
      <trkpt lat="48.48756" lon="2.69122">
        <ele>53.4</ele>
        <time>2013-04-14T17:23:36Z</time>
      </trkpt>
      <trkpt lat="48.48756" lon="2.69122">
        <ele>53.4</ele>
        <time>2013-04-14T17:23:53Z</time>
      </trkpt>
      <trkpt lat="48.48789" lon="2.69104">
        <ele>55</ele>
        <time>2013-04-14T17:23:59Z</time>
      </trkpt>
      <trkpt lat="48.48798" lon="2.69098">
        <ele>54.9</ele>
        <time>2013-04-14T17:24:07Z</time>
      </trkpt>
      <trkpt lat="48.48798" lon="2.69098">
        <ele>54.9</ele>
        <time>2013-04-14T17:24:11Z</time>
      </trkpt>
      <trkpt lat="48.48807" lon="2.69094">
        <ele>54.9</ele>
        <time>2013-04-14T17:24:17Z</time>
      </trkpt>
      <trkpt lat="48.48816" lon="2.69085">
        <ele>55.2</ele>
        <time>2013-04-14T17:24:20Z</time>
      </trkpt>
      <trkpt lat="48.48825" lon="2.69077">
        <ele>55.8</ele>
        <time>2013-04-14T17:24:29Z</time>
      </trkpt>
      <trkpt lat="48.48828" lon="2.6907">
        <ele>55.6</ele>
        <time>2013-04-14T17:24:39Z</time>
      </trkpt>
      <trkpt lat="48.48835" lon="2.69057">
        <ele>55.3</ele>
        <time>2013-04-14T17:24:43Z</time>
      </trkpt>
      <trkpt lat="48.48835" lon="2.6904">
        <ele>55.1</ele>
        <time>2013-04-14T17:24:52Z</time>
      </trkpt>
      <trkpt lat="48.48835" lon="2.6904">
        <ele>55.1</ele>
        <time>2013-04-14T17:24:56Z</time>
      </trkpt>
      <trkpt lat="48.48842" lon="2.69019">
        <ele>55.1</ele>
        <time>2013-04-14T17:25:00Z</time>
      </trkpt>
      <trkpt lat="48.48845" lon="2.69014">
        <ele>55.1</ele>
        <time>2013-04-14T17:25:07Z</time>
      </trkpt>
      <trkpt lat="48.48854" lon="2.69004">
        <ele>55.5</ele>
        <time>2013-04-14T17:25:11Z</time>
      </trkpt>
      <trkpt lat="48.48862" lon="2.68993">
        <ele>56</ele>
        <time>2013-04-14T17:25:19Z</time>
      </trkpt>
      <trkpt lat="48.48872" lon="2.6898">
        <ele>56.2</ele>
        <time>2013-04-14T17:25:33Z</time>
      </trkpt>
      <trkpt lat="48.48872" lon="2.6898">
        <ele>56.2</ele>
        <time>2013-04-14T17:25:37Z</time>
      </trkpt>
      <trkpt lat="48.48872" lon="2.6898">
        <ele>56.2</ele>
        <time>2013-04-14T17:25:44Z</time>
      </trkpt>
      <trkpt lat="48.48872" lon="2.6898">
        <ele>56.2</ele>
        <time>2013-04-14T17:25:48Z</time>
      </trkpt>
      <trkpt lat="48.48886" lon="2.68944">
        <ele>55.9</ele>
        <time>2013-04-14T17:25:53Z</time>
      </trkpt>
      <trkpt lat="48.48892" lon="2.68937">
        <ele>55.9</ele>
        <time>2013-04-14T17:25:59Z</time>
      </trkpt>
      <trkpt lat="48.48898" lon="2.68924">
        <ele>55.7</ele>
        <time>2013-04-14T17:26:12Z</time>
      </trkpt>
      <trkpt lat="48.48898" lon="2.68924">
        <ele>55.7</ele>
        <time>2013-04-14T17:26:16Z</time>
      </trkpt>
      <trkpt lat="48.48898" lon="2.68924">
        <ele>55.7</ele>
        <time>2013-04-14T17:26:21Z</time>
      </trkpt>
      <trkpt lat="48.48898" lon="2.68924">
        <ele>55.7</ele>
        <time>2013-04-14T17:26:25Z</time>
      </trkpt>
      <trkpt lat="48.48924" lon="2.68883">
        <ele>55.5</ele>
        <time>2013-04-14T17:26:31Z</time>
      </trkpt>
      <trkpt lat="48.48928" lon="2.68879">
        <ele>55.7</ele>
        <time>2013-04-14T17:26:36Z</time>
      </trkpt>
      <trkpt lat="48.4894" lon="2.68866">
        <ele>56</ele>
        <time>2013-04-14T17:26:42Z</time>
      </trkpt>
      <trkpt lat="48.48959" lon="2.68847">
        <ele>56.5</ele>
        <time>2013-04-14T17:26:55Z</time>
      </trkpt>
      <trkpt lat="48.48965" lon="2.68836">
        <ele>56.6</ele>
        <time>2013-04-14T17:27:01Z</time>
      </trkpt>
      <trkpt lat="48.48965" lon="2.68836">
        <ele>56.6</ele>
        <time>2013-04-14T17:27:06Z</time>
      </trkpt>
      <trkpt lat="48.48973" lon="2.68828">
        <ele>56.8</ele>
        <time>2013-04-14T17:27:11Z</time>
      </trkpt>
      <trkpt lat="48.48983" lon="2.68815">
        <ele>56.7</ele>
        <time>2013-04-14T17:27:16Z</time>
      </trkpt>
      <trkpt lat="48.48988" lon="2.68813">
        <ele>56.8</ele>
        <time>2013-04-14T17:27:18Z</time>
      </trkpt>
      <trkpt lat="48.48994" lon="2.68806">
        <ele>56.8</ele>
        <time>2013-04-14T17:27:21Z</time>
      </trkpt>
      <trkpt lat="48.49" lon="2.688">
        <ele>56.8</ele>
        <time>2013-04-14T17:27:30Z</time>
      </trkpt>
      <trkpt lat="48.49005" lon="2.68791">
        <ele>56.7</ele>
        <time>2013-04-14T17:27:35Z</time>
      </trkpt>
      <trkpt lat="48.49012" lon="2.6878">
        <ele>56.5</ele>
        <time>2013-04-14T17:27:45Z</time>
      </trkpt>
      <trkpt lat="48.49021" lon="2.68761">
        <ele>56.3</ele>
        <time>2013-04-14T17:27:50Z</time>
      </trkpt>
      <trkpt lat="48.49027" lon="2.68759">
        <ele>56.3</ele>
        <time>2013-04-14T17:27:55Z</time>
      </trkpt>
      <trkpt lat="48.4903" lon="2.68753">
        <ele>56.3</ele>
        <time>2013-04-14T17:28:00Z</time>
      </trkpt>
      <trkpt lat="48.49042" lon="2.68738">
        <ele>56.8</ele>
        <time>2013-04-14T17:28:15Z</time>
      </trkpt>
      <trkpt lat="48.49048" lon="2.68731">
        <ele>57</ele>
        <time>2013-04-14T17:28:19Z</time>
      </trkpt>
      <trkpt lat="48.49058" lon="2.68718">
        <ele>56.9</ele>
        <time>2013-04-14T17:28:32Z</time>
      </trkpt>
      <trkpt lat="48.49058" lon="2.68718">
        <ele>56.9</ele>
        <time>2013-04-14T17:28:36Z</time>
      </trkpt>
      <trkpt lat="48.4907" lon="2.68714">
        <ele>57.4</ele>
        <time>2013-04-14T17:28:42Z</time>
      </trkpt>
      <trkpt lat="48.49073" lon="2.68707">
        <ele>57.4</ele>
        <time>2013-04-14T17:28:46Z</time>
      </trkpt>
      <trkpt lat="48.49083" lon="2.68692">
        <ele>57.9</ele>
        <time>2013-04-14T17:28:59Z</time>
      </trkpt>
      <trkpt lat="48.49093" lon="2.68688">
        <ele>58.1</ele>
        <time>2013-04-14T17:29:03Z</time>
      </trkpt>
      <trkpt lat="48.49102" lon="2.6868">
        <ele>58.2</ele>
        <time>2013-04-14T17:29:11Z</time>
      </trkpt>
      <trkpt lat="48.49121" lon="2.68667">
        <ele>58.7</ele>
        <time>2013-04-14T17:29:25Z</time>
      </trkpt>
      <trkpt lat="48.49133" lon="2.68654">
        <ele>59.1</ele>
        <time>2013-04-14T17:29:35Z</time>
      </trkpt>
      <trkpt lat="48.49146" lon="2.68637">
        <ele>59.2</ele>
        <time>2013-04-14T17:29:49Z</time>
      </trkpt>
      <trkpt lat="48.49146" lon="2.68637">
        <ele>59.2</ele>
        <time>2013-04-14T17:29:53Z</time>
      </trkpt>
      <trkpt lat="48.49153" lon="2.68632">
        <ele>59.3</ele>
        <time>2013-04-14T17:29:56Z</time>
      </trkpt>
      <trkpt lat="48.49161" lon="2.68624">
        <ele>59.3</ele>
        <time>2013-04-14T17:30:01Z</time>
      </trkpt>
      <trkpt lat="48.49164" lon="2.6862">
        <ele>59.2</ele>
        <time>2013-04-14T17:30:08Z</time>
      </trkpt>
      <trkpt lat="48.49173" lon="2.68607">
        <ele>58.9</ele>
        <time>2013-04-14T17:30:11Z</time>
      </trkpt>
      <trkpt lat="48.49187" lon="2.68592">
        <ele>58.3</ele>
        <time>2013-04-14T17:30:25Z</time>
      </trkpt>
      <trkpt lat="48.49195" lon="2.68587">
        <ele>58.1</ele>
        <time>2013-04-14T17:30:31Z</time>
      </trkpt>
      <trkpt lat="48.49195" lon="2.68587">
        <ele>58.1</ele>
        <time>2013-04-14T17:30:39Z</time>
      </trkpt>
      <trkpt lat="48.49204" lon="2.68572">
        <ele>58.2</ele>
        <time>2013-04-14T17:30:43Z</time>
      </trkpt>
      <trkpt lat="48.49204" lon="2.68572">
        <ele>58.2</ele>
        <time>2013-04-14T17:30:53Z</time>
      </trkpt>
      <trkpt lat="48.49204" lon="2.68572">
        <ele>58.2</ele>
        <time>2013-04-14T17:30:57Z</time>
      </trkpt>
      <trkpt lat="48.49204" lon="2.68572">
        <ele>58.2</ele>
        <time>2013-04-14T17:31:02Z</time>
      </trkpt>
      <trkpt lat="48.49226" lon="2.68549">
        <ele>58.1</ele>
        <time>2013-04-14T17:31:08Z</time>
      </trkpt>
      <trkpt lat="48.49226" lon="2.68549">
        <ele>58.1</ele>
        <time>2013-04-14T17:31:13Z</time>
      </trkpt>
      <trkpt lat="48.49232" lon="2.68536">
        <ele>58.4</ele>
        <time>2013-04-14T17:31:18Z</time>
      </trkpt>
      <trkpt lat="48.49238" lon="2.68534">
        <ele>58.6</ele>
        <time>2013-04-14T17:31:22Z</time>
      </trkpt>
      <trkpt lat="48.49254" lon="2.68525">
        <ele>59</ele>
        <time>2013-04-14T17:31:36Z</time>
      </trkpt>
      <trkpt lat="48.49254" lon="2.68525">
        <ele>59</ele>
        <time>2013-04-14T17:31:41Z</time>
      </trkpt>
      <trkpt lat="48.49262" lon="2.68519">
        <ele>59.1</ele>
        <time>2013-04-14T17:31:45Z</time>
      </trkpt>
      <trkpt lat="48.49263" lon="2.68517">
        <ele>59.1</ele>
        <time>2013-04-14T17:31:47Z</time>
      </trkpt>
      <trkpt lat="48.49267" lon="2.68514">
        <ele>59.1</ele>
        <time>2013-04-14T17:31:51Z</time>
      </trkpt>
      <trkpt lat="48.49269" lon="2.68512">
        <ele>59.1</ele>
        <time>2013-04-14T17:31:59Z</time>
      </trkpt>
      <trkpt lat="48.49284" lon="2.6851">
        <ele>59.4</ele>
        <time>2013-04-14T17:32:04Z</time>
      </trkpt>
      <trkpt lat="48.49287" lon="2.6851">
        <ele>59.4</ele>
        <time>2013-04-14T17:32:10Z</time>
      </trkpt>
      <trkpt lat="48.49309" lon="2.68508">
        <ele>59.4</ele>
        <time>2013-04-14T17:32:16Z</time>
      </trkpt>
      <trkpt lat="48.49311" lon="2.68506">
        <ele>59.4</ele>
        <time>2013-04-14T17:32:24Z</time>
      </trkpt>
      <trkpt lat="48.49321" lon="2.68499">
        <ele>59.5</ele>
        <time>2013-04-14T17:32:27Z</time>
      </trkpt>
      <trkpt lat="48.49321" lon="2.68499">
        <ele>59.5</ele>
        <time>2013-04-14T17:32:32Z</time>
      </trkpt>
      <trkpt lat="48.49321" lon="2.68499">
        <ele>59.5</ele>
        <time>2013-04-14T17:32:36Z</time>
      </trkpt>
      <trkpt lat="48.49333" lon="2.68491">
        <ele>59.7</ele>
        <time>2013-04-14T17:32:40Z</time>
      </trkpt>
      <trkpt lat="48.49355" lon="2.68474">
        <ele>59.8</ele>
        <time>2013-04-14T17:32:59Z</time>
      </trkpt>
      <trkpt lat="48.49369" lon="2.68471">
        <ele>60</ele>
        <time>2013-04-14T17:33:03Z</time>
      </trkpt>
      <trkpt lat="48.49371" lon="2.68469">
        <ele>59.9</ele>
        <time>2013-04-14T17:33:12Z</time>
      </trkpt>
      <trkpt lat="48.49371" lon="2.68469">
        <ele>59.9</ele>
        <time>2013-04-14T17:33:16Z</time>
      </trkpt>
      <trkpt lat="48.49371" lon="2.68469">
        <ele>59.9</ele>
        <time>2013-04-14T17:33:20Z</time>
      </trkpt>
      <trkpt lat="48.49372" lon="2.6845">
        <ele>59.2</ele>
        <time>2013-04-14T17:33:26Z</time>
      </trkpt>
      <trkpt lat="48.49372" lon="2.6845">
        <ele>59.2</ele>
        <time>2013-04-14T17:33:34Z</time>
      </trkpt>
      <trkpt lat="48.49372" lon="2.6845">
        <ele>59.2</ele>
        <time>2013-04-14T17:33:39Z</time>
      </trkpt>
      <trkpt lat="48.49358" lon="2.6842">
        <ele>58.9</ele>
        <time>2013-04-14T17:33:43Z</time>
      </trkpt>
      <trkpt lat="48.49352" lon="2.68399">
        <ele>58.2</ele>
        <time>2013-04-14T17:33:48Z</time>
      </trkpt>
      <trkpt lat="48.49352" lon="2.68399">
        <ele>58.2</ele>
        <time>2013-04-14T17:33:56Z</time>
      </trkpt>
      <trkpt lat="48.49352" lon="2.68399">
        <ele>58.2</ele>
        <time>2013-04-14T17:34:01Z</time>
      </trkpt>
      <trkpt lat="48.49333" lon="2.68371">
        <ele>57.3</ele>
        <time>2013-04-14T17:34:07Z</time>
      </trkpt>
      <trkpt lat="48.49324" lon="2.68364">
        <ele>56.7</ele>
        <time>2013-04-14T17:34:09Z</time>
      </trkpt>
      <trkpt lat="48.49324" lon="2.68364">
        <ele>56.7</ele>
        <time>2013-04-14T17:34:18Z</time>
      </trkpt>
      <trkpt lat="48.49324" lon="2.68364">
        <ele>56.7</ele>
        <time>2013-04-14T17:34:22Z</time>
      </trkpt>
      <trkpt lat="48.49308" lon="2.68323">
        <ele>55.1</ele>
        <time>2013-04-14T17:34:28Z</time>
      </trkpt>
      <trkpt lat="48.49304" lon="2.68311">
        <ele>54.9</ele>
        <time>2013-04-14T17:34:36Z</time>
      </trkpt>
      <trkpt lat="48.49297" lon="2.68302">
        <ele>54.6</ele>
        <time>2013-04-14T17:34:47Z</time>
      </trkpt>
      <trkpt lat="48.49297" lon="2.68302">
        <ele>54.6</ele>
        <time>2013-04-14T17:34:51Z</time>
      </trkpt>
      <trkpt lat="48.49289" lon="2.68285">
        <ele>53.7</ele>
        <time>2013-04-14T17:34:55Z</time>
      </trkpt>
      <trkpt lat="48.49289" lon="2.6828">
        <ele>53.5</ele>
        <time>2013-04-14T17:35:03Z</time>
      </trkpt>
      <trkpt lat="48.49293" lon="2.68265">
        <ele>53.3</ele>
        <time>2013-04-14T17:35:07Z</time>
      </trkpt>
      <trkpt lat="48.49296" lon="2.68265">
        <ele>53.4</ele>
        <time>2013-04-14T17:35:11Z</time>
      </trkpt>
      <trkpt lat="48.49296" lon="2.68265">
        <ele>53.4</ele>
        <time>2013-04-14T17:35:16Z</time>
      </trkpt>
      <trkpt lat="48.49296" lon="2.68265">
        <ele>53.4</ele>
        <time>2013-04-14T17:35:20Z</time>
      </trkpt>
      <trkpt lat="48.49296" lon="2.68265">
        <ele>53.4</ele>
        <time>2013-04-14T17:35:45Z</time>
      </trkpt>
      <trkpt lat="48.49297" lon="2.68257">
        <ele>53.2</ele>
        <time>2013-04-14T17:35:50Z</time>
      </trkpt>
      <trkpt lat="48.49297" lon="2.68257">
        <ele>53.2</ele>
        <time>2013-04-14T17:35:58Z</time>
      </trkpt>
      <trkpt lat="48.49297" lon="2.68257">
        <ele>53.2</ele>
        <time>2013-04-14T17:36:03Z</time>
      </trkpt>
      <trkpt lat="48.49297" lon="2.68257">
        <ele>53.2</ele>
        <time>2013-04-14T17:36:11Z</time>
      </trkpt>
      <trkpt lat="48.49303" lon="2.68263">
        <ele>53.4</ele>
        <time>2013-04-14T17:36:17Z</time>
      </trkpt>
      <trkpt lat="48.49303" lon="2.68263">
        <ele>53.4</ele>
        <time>2013-04-14T17:36:22Z</time>
      </trkpt>
      <trkpt lat="48.49303" lon="2.68263">
        <ele>53.4</ele>
        <time>2013-04-14T17:36:27Z</time>
      </trkpt>
      <trkpt lat="48.49303" lon="2.68263">
        <ele>53.4</ele>
        <time>2013-04-14T17:36:31Z</time>
      </trkpt>
      <trkpt lat="48.4931" lon="2.68255">
        <ele>53.3</ele>
        <time>2013-04-14T17:36:36Z</time>
      </trkpt>
      <trkpt lat="48.4931" lon="2.68255">
        <ele>53.3</ele>
        <time>2013-04-14T17:36:44Z</time>
      </trkpt>
      <trkpt lat="48.4931" lon="2.68255">
        <ele>53.3</ele>
        <time>2013-04-14T17:36:49Z</time>
      </trkpt>
      <trkpt lat="48.49306" lon="2.68263">
        <ele>53.5</ele>
        <time>2013-04-14T17:36:56Z</time>
      </trkpt>
      <trkpt lat="48.49306" lon="2.68265">
        <ele>53.6</ele>
        <time>2013-04-14T17:37:01Z</time>
      </trkpt>
      <trkpt lat="48.49306" lon="2.68265">
        <ele>53.6</ele>
        <time>2013-04-14T17:37:05Z</time>
      </trkpt>
      <trkpt lat="48.49306" lon="2.68265">
        <ele>53.6</ele>
        <time>2013-04-14T17:37:07Z</time>
      </trkpt>
      <trkpt lat="48.49306" lon="2.68265">
        <ele>53.6</ele>
        <time>2013-04-14T17:37:32Z</time>
      </trkpt>
      <trkpt lat="48.49301" lon="2.68257">
        <ele>53.2</ele>
        <time>2013-04-14T17:37:38Z</time>
      </trkpt>
      <trkpt lat="48.49303" lon="2.6825">
        <ele>53</ele>
        <time>2013-04-14T17:37:51Z</time>
      </trkpt>
      <trkpt lat="48.49303" lon="2.6825">
        <ele>53</ele>
        <time>2013-04-14T17:37:56Z</time>
      </trkpt>
      <trkpt lat="48.49306" lon="2.68255">
        <ele>53.2</ele>
        <time>2013-04-14T17:38:00Z</time>
      </trkpt>
      <trkpt lat="48.49309" lon="2.68257">
        <ele>53.4</ele>
        <time>2013-04-14T17:38:05Z</time>
      </trkpt>
      <trkpt lat="48.49307" lon="2.68261">
        <ele>53.4</ele>
        <time>2013-04-14T17:38:13Z</time>
      </trkpt>
      <trkpt lat="48.49305" lon="2.68257">
        <ele>53.2</ele>
        <time>2013-04-14T17:38:17Z</time>
      </trkpt>
      <trkpt lat="48.49303" lon="2.68259">
        <ele>53.3</ele>
        <time>2013-04-14T17:38:24Z</time>
      </trkpt>
      <trkpt lat="48.49306" lon="2.68259">
        <ele>53.3</ele>
        <time>2013-04-14T17:38:32Z</time>
      </trkpt>
      <trkpt lat="48.49306" lon="2.68259">
        <ele>53.3</ele>
        <time>2013-04-14T17:38:36Z</time>
      </trkpt>
      <trkpt lat="48.49306" lon="2.68263">
        <ele>53.5</ele>
        <time>2013-04-14T17:38:40Z</time>
      </trkpt>
      <trkpt lat="48.49306" lon="2.68263">
        <ele>53.5</ele>
        <time>2013-04-14T17:38:48Z</time>
      </trkpt>
      <trkpt lat="48.49306" lon="2.68263">
        <ele>53.5</ele>
        <time>2013-04-14T17:38:50Z</time>
      </trkpt>
      <trkpt lat="48.49306" lon="2.68263">
        <ele>53.5</ele>
        <time>2013-04-14T17:39:01Z</time>
      </trkpt>
      <trkpt lat="48.49308" lon="2.68259">
        <ele>53.4</ele>
        <time>2013-04-14T17:39:05Z</time>
      </trkpt>
      <trkpt lat="48.4931" lon="2.68255">
        <ele>53.3</ele>
        <time>2013-04-14T17:39:11Z</time>
      </trkpt>
      <trkpt lat="48.49315" lon="2.68242">
        <ele>53.3</ele>
        <time>2013-04-14T17:39:20Z</time>
      </trkpt>
      <trkpt lat="48.49324" lon="2.68238">
        <ele>53.7</ele>
        <time>2013-04-14T17:39:24Z</time>
      </trkpt>
      <trkpt lat="48.49338" lon="2.68225">
        <ele>54</ele>
        <time>2013-04-14T17:39:33Z</time>
      </trkpt>
      <trkpt lat="48.49351" lon="2.68208">
        <ele>53.5</ele>
        <time>2013-04-14T17:39:46Z</time>
      </trkpt>
      <trkpt lat="48.49351" lon="2.68208">
        <ele>53.5</ele>
        <time>2013-04-14T17:39:50Z</time>
      </trkpt>
      <trkpt lat="48.49356" lon="2.68199">
        <ele>53.2</ele>
        <time>2013-04-14T17:39:53Z</time>
      </trkpt>
      <trkpt lat="48.4936" lon="2.68193">
        <ele>52.8</ele>
        <time>2013-04-14T17:39:57Z</time>
      </trkpt>
      <trkpt lat="48.49364" lon="2.68184">
        <ele>51.6</ele>
        <time>2013-04-14T17:40:04Z</time>
      </trkpt>
      <trkpt lat="48.49373" lon="2.68171">
        <ele>50.7</ele>
        <time>2013-04-14T17:40:14Z</time>
      </trkpt>
      <trkpt lat="48.4939" lon="2.68154">
        <ele>50.7</ele>
        <time>2013-04-14T17:40:30Z</time>
      </trkpt>
      <trkpt lat="48.49393" lon="2.68152">
        <ele>50.6</ele>
        <time>2013-04-14T17:40:36Z</time>
      </trkpt>
      <trkpt lat="48.49404" lon="2.68145">
        <ele>50.6</ele>
        <time>2013-04-14T17:40:42Z</time>
      </trkpt>
      <trkpt lat="48.49408" lon="2.68143">
        <ele>50.7</ele>
        <time>2013-04-14T17:40:47Z</time>
      </trkpt>
      <trkpt lat="48.49424" lon="2.6813">
        <ele>51.7</ele>
        <time>2013-04-14T17:40:54Z</time>
      </trkpt>
      <trkpt lat="48.49434" lon="2.68117">
        <ele>52.1</ele>
        <time>2013-04-14T17:41:03Z</time>
      </trkpt>
      <trkpt lat="48.49442" lon="2.681">
        <ele>52</ele>
        <time>2013-04-14T17:41:12Z</time>
      </trkpt>
      <trkpt lat="48.49447" lon="2.68087">
        <ele>52.1</ele>
        <time>2013-04-14T17:41:16Z</time>
      </trkpt>
      <trkpt lat="48.49458" lon="2.68066">
        <ele>52.2</ele>
        <time>2013-04-14T17:41:27Z</time>
      </trkpt>
      <trkpt lat="48.49461" lon="2.68042">
        <ele>50.6</ele>
        <time>2013-04-14T17:41:41Z</time>
      </trkpt>
      <trkpt lat="48.49455" lon="2.68034">
        <ele>50.3</ele>
        <time>2013-04-14T17:41:45Z</time>
      </trkpt>
      <trkpt lat="48.49449" lon="2.68027">
        <ele>50.5</ele>
        <time>2013-04-14T17:41:52Z</time>
      </trkpt>
      <trkpt lat="48.49442" lon="2.68019">
        <ele>50.4</ele>
        <time>2013-04-14T17:41:58Z</time>
      </trkpt>
      <trkpt lat="48.49415" lon="2.67982">
        <ele>50.4</ele>
        <time>2013-04-14T17:42:20Z</time>
      </trkpt>
      <trkpt lat="48.49401" lon="2.67954">
        <ele>49.3</ele>
        <time>2013-04-14T17:42:36Z</time>
      </trkpt>
      <trkpt lat="48.49379" lon="2.67918">
        <ele>48.4</ele>
        <time>2013-04-14T17:42:58Z</time>
      </trkpt>
      <trkpt lat="48.49367" lon="2.67894">
        <ele>48.4</ele>
        <time>2013-04-14T17:43:13Z</time>
      </trkpt>
      <trkpt lat="48.49362" lon="2.67886">
        <ele>48.9</ele>
        <time>2013-04-14T17:43:24Z</time>
      </trkpt>
      <trkpt lat="48.49352" lon="2.67871">
        <ele>48.7</ele>
        <time>2013-04-14T17:43:28Z</time>
      </trkpt>
      <trkpt lat="48.4935" lon="2.67862">
        <ele>48.6</ele>
        <time>2013-04-14T17:43:36Z</time>
      </trkpt>
      <trkpt lat="48.49353" lon="2.67856">
        <ele>48.6</ele>
        <time>2013-04-14T17:43:41Z</time>
      </trkpt>
      <trkpt lat="48.49357" lon="2.67856">
        <ele>48.7</ele>
        <time>2013-04-14T17:43:45Z</time>
      </trkpt>
      <trkpt lat="48.4937" lon="2.67851">
        <ele>48.5</ele>
        <time>2013-04-14T17:43:55Z</time>
      </trkpt>
      <trkpt lat="48.49382" lon="2.67843">
        <ele>48.6</ele>
        <time>2013-04-14T17:44:05Z</time>
      </trkpt>
      <trkpt lat="48.494" lon="2.67832">
        <ele>49</ele>
        <time>2013-04-14T17:44:23Z</time>
      </trkpt>
      <trkpt lat="48.49417" lon="2.6783">
        <ele>49</ele>
        <time>2013-04-14T17:44:27Z</time>
      </trkpt>
      <trkpt lat="48.49428" lon="2.67826">
        <ele>48.7</ele>
        <time>2013-04-14T17:44:33Z</time>
      </trkpt>
      <trkpt lat="48.49442" lon="2.67821">
        <ele>48.5</ele>
        <time>2013-04-14T17:44:42Z</time>
      </trkpt>
      <trkpt lat="48.49457" lon="2.67815">
        <ele>48.7</ele>
        <time>2013-04-14T17:44:56Z</time>
      </trkpt>
      <trkpt lat="48.49463" lon="2.67813">
        <ele>48.7</ele>
        <time>2013-04-14T17:44:59Z</time>
      </trkpt>
      <trkpt lat="48.49473" lon="2.67813">
        <ele>48.7</ele>
        <time>2013-04-14T17:45:05Z</time>
      </trkpt>
      <trkpt lat="48.4948" lon="2.67813">
        <ele>48.5</ele>
        <time>2013-04-14T17:45:13Z</time>
      </trkpt>
      <trkpt lat="48.4948" lon="2.67813">
        <ele>48.5</ele>
        <time>2013-04-14T17:45:17Z</time>
      </trkpt>
      <trkpt lat="48.49496" lon="2.67804">
        <ele>48.2</ele>
        <time>2013-04-14T17:45:22Z</time>
      </trkpt>
      <trkpt lat="48.49504" lon="2.678">
        <ele>48.2</ele>
        <time>2013-04-14T17:45:31Z</time>
      </trkpt>
      <trkpt lat="48.49504" lon="2.678">
        <ele>48.2</ele>
        <time>2013-04-14T17:45:36Z</time>
      </trkpt>
      <trkpt lat="48.49519" lon="2.67791">
        <ele>48.5</ele>
        <time>2013-04-14T17:45:41Z</time>
      </trkpt>
      <trkpt lat="48.4953" lon="2.67787">
        <ele>48.7</ele>
        <time>2013-04-14T17:45:45Z</time>
      </trkpt>
      <trkpt lat="48.49539" lon="2.67787">
        <ele>48.7</ele>
        <time>2013-04-14T17:45:49Z</time>
      </trkpt>
      <trkpt lat="48.49539" lon="2.67787">
        <ele>48.7</ele>
        <time>2013-04-14T17:45:58Z</time>
      </trkpt>
      <trkpt lat="48.49552" lon="2.67785">
        <ele>48.7</ele>
        <time>2013-04-14T17:46:04Z</time>
      </trkpt>
      <trkpt lat="48.49563" lon="2.67781">
        <ele>48.9</ele>
        <time>2013-04-14T17:46:13Z</time>
      </trkpt>
      <trkpt lat="48.4958" lon="2.67772">
        <ele>49</ele>
        <time>2013-04-14T17:46:31Z</time>
      </trkpt>
      <trkpt lat="48.49596" lon="2.67768">
        <ele>48.7</ele>
        <time>2013-04-14T17:46:35Z</time>
      </trkpt>
      <trkpt lat="48.49609" lon="2.67763">
        <ele>48.6</ele>
        <time>2013-04-14T17:46:42Z</time>
      </trkpt>
      <trkpt lat="48.49613" lon="2.67761">
        <ele>48.5</ele>
        <time>2013-04-14T17:46:48Z</time>
      </trkpt>
      <trkpt lat="48.49619" lon="2.67759">
        <ele>48.4</ele>
        <time>2013-04-14T17:46:50Z</time>
      </trkpt>
      <trkpt lat="48.49628" lon="2.67753">
        <ele>48.3</ele>
        <time>2013-04-14T17:46:56Z</time>
      </trkpt>
      <trkpt lat="48.49628" lon="2.67753">
        <ele>48.3</ele>
        <time>2013-04-14T17:47:01Z</time>
      </trkpt>
      <trkpt lat="48.49628" lon="2.67753">
        <ele>48.3</ele>
        <time>2013-04-14T17:47:05Z</time>
      </trkpt>
      <trkpt lat="48.49639" lon="2.67744">
        <ele>48.2</ele>
        <time>2013-04-14T17:47:09Z</time>
      </trkpt>
      <trkpt lat="48.49655" lon="2.67738">
        <ele>48.4</ele>
        <time>2013-04-14T17:47:20Z</time>
      </trkpt>
      <trkpt lat="48.49655" lon="2.67738">
        <ele>48.4</ele>
        <time>2013-04-14T17:47:24Z</time>
      </trkpt>
      <trkpt lat="48.49671" lon="2.67729">
        <ele>48.6</ele>
        <time>2013-04-14T17:47:28Z</time>
      </trkpt>
      <trkpt lat="48.49676" lon="2.67725">
        <ele>48.5</ele>
        <time>2013-04-14T17:47:36Z</time>
      </trkpt>
      <trkpt lat="48.49687" lon="2.67716">
        <ele>48.4</ele>
        <time>2013-04-14T17:47:40Z</time>
      </trkpt>
      <trkpt lat="48.49693" lon="2.67708">
        <ele>48.5</ele>
        <time>2013-04-14T17:47:47Z</time>
      </trkpt>
      <trkpt lat="48.49705" lon="2.67699">
        <ele>48.4</ele>
        <time>2013-04-14T17:47:55Z</time>
      </trkpt>
      <trkpt lat="48.49712" lon="2.67688">
        <ele>48.3</ele>
        <time>2013-04-14T17:48:01Z</time>
      </trkpt>
      <trkpt lat="48.49716" lon="2.67684">
        <ele>48.1</ele>
        <time>2013-04-14T17:48:07Z</time>
      </trkpt>
      <trkpt lat="48.49722" lon="2.67675">
        <ele>48</ele>
        <time>2013-04-14T17:48:13Z</time>
      </trkpt>
      <trkpt lat="48.49735" lon="2.67665">
        <ele>48</ele>
        <time>2013-04-14T17:48:21Z</time>
      </trkpt>
      <trkpt lat="48.49743" lon="2.67663">
        <ele>48</ele>
        <time>2013-04-14T17:48:25Z</time>
      </trkpt>
      <trkpt lat="48.49757" lon="2.67658">
        <ele>47.9</ele>
        <time>2013-04-14T17:48:37Z</time>
      </trkpt>
      <trkpt lat="48.49757" lon="2.67658">
        <ele>47.9</ele>
        <time>2013-04-14T17:48:41Z</time>
      </trkpt>
      <trkpt lat="48.49772" lon="2.6765">
        <ele>47.5</ele>
        <time>2013-04-14T17:48:45Z</time>
      </trkpt>
      <trkpt lat="48.49778" lon="2.6765">
        <ele>47.4</ele>
        <time>2013-04-14T17:48:52Z</time>
      </trkpt>
      <trkpt lat="48.49778" lon="2.6765">
        <ele>47.4</ele>
        <time>2013-04-14T17:48:56Z</time>
      </trkpt>
      <trkpt lat="48.4979" lon="2.67643">
        <ele>47.5</ele>
        <time>2013-04-14T17:49:02Z</time>
      </trkpt>
      <trkpt lat="48.4979" lon="2.67643">
        <ele>47.5</ele>
        <time>2013-04-14T17:49:10Z</time>
      </trkpt>
      <trkpt lat="48.4979" lon="2.67643">
        <ele>47.5</ele>
        <time>2013-04-14T17:49:12Z</time>
      </trkpt>
      <trkpt lat="48.4979" lon="2.67643">
        <ele>47.5</ele>
        <time>2013-04-14T17:49:16Z</time>
      </trkpt>
      <trkpt lat="48.49823" lon="2.67639">
        <ele>48</ele>
        <time>2013-04-14T17:49:21Z</time>
      </trkpt>
      <trkpt lat="48.49837" lon="2.67632">
        <ele>48</ele>
        <time>2013-04-14T17:49:29Z</time>
      </trkpt>
      <trkpt lat="48.49844" lon="2.67632">
        <ele>48</ele>
        <time>2013-04-14T17:49:33Z</time>
      </trkpt>
      <trkpt lat="48.49849" lon="2.67632">
        <ele>48</ele>
        <time>2013-04-14T17:49:40Z</time>
      </trkpt>
      <trkpt lat="48.49849" lon="2.67632">
        <ele>48</ele>
        <time>2013-04-14T17:49:44Z</time>
      </trkpt>
      <trkpt lat="48.4986" lon="2.67632">
        <ele>48</ele>
        <time>2013-04-14T17:49:48Z</time>
      </trkpt>
      <trkpt lat="48.4986" lon="2.67632">
        <ele>48</ele>
        <time>2013-04-14T17:49:57Z</time>
      </trkpt>
      <trkpt lat="48.49886" lon="2.67628">
        <ele>48</ele>
        <time>2013-04-14T17:50:04Z</time>
      </trkpt>
      <trkpt lat="48.49888" lon="2.67628">
        <ele>48</ele>
        <time>2013-04-14T17:50:08Z</time>
      </trkpt>
      <trkpt lat="48.49897" lon="2.67624">
        <ele>48</ele>
        <time>2013-04-14T17:50:14Z</time>
      </trkpt>
      <trkpt lat="48.49905" lon="2.6762">
        <ele>48</ele>
        <time>2013-04-14T17:50:26Z</time>
      </trkpt>
      <trkpt lat="48.49914" lon="2.67617">
        <ele>48</ele>
        <time>2013-04-14T17:50:31Z</time>
      </trkpt>
      <trkpt lat="48.49945" lon="2.67611">
        <ele>48</ele>
        <time>2013-04-14T17:50:46Z</time>
      </trkpt>
      <trkpt lat="48.49959" lon="2.67611">
        <ele>47.5</ele>
        <time>2013-04-14T17:50:52Z</time>
      </trkpt>
      <trkpt lat="48.49966" lon="2.67609">
        <ele>47.3</ele>
        <time>2013-04-14T17:50:59Z</time>
      </trkpt>
      <trkpt lat="48.49966" lon="2.67609">
        <ele>47.3</ele>
        <time>2013-04-14T17:51:03Z</time>
      </trkpt>
      <trkpt lat="48.49985" lon="2.67605">
        <ele>47.6</ele>
        <time>2013-04-14T17:51:07Z</time>
      </trkpt>
      <trkpt lat="48.49997" lon="2.67605">
        <ele>47.9</ele>
        <time>2013-04-14T17:51:16Z</time>
      </trkpt>
      <trkpt lat="48.50027" lon="2.676">
        <ele>48</ele>
        <time>2013-04-14T17:51:39Z</time>
      </trkpt>
      <trkpt lat="48.50048" lon="2.67596">
        <ele>47.6</ele>
        <time>2013-04-14T17:51:53Z</time>
      </trkpt>
      <trkpt lat="48.50064" lon="2.6759">
        <ele>47.2</ele>
        <time>2013-04-14T17:52:06Z</time>
      </trkpt>
      <trkpt lat="48.50069" lon="2.67587">
        <ele>47.1</ele>
        <time>2013-04-14T17:52:08Z</time>
      </trkpt>
      <trkpt lat="48.50087" lon="2.67579">
        <ele>47.1</ele>
        <time>2013-04-14T17:52:21Z</time>
      </trkpt>
      <trkpt lat="48.50087" lon="2.67579">
        <ele>47.1</ele>
        <time>2013-04-14T17:52:25Z</time>
      </trkpt>
      <trkpt lat="48.50092" lon="2.67579">
        <ele>47.3</ele>
        <time>2013-04-14T17:52:28Z</time>
      </trkpt>
      <trkpt lat="48.501" lon="2.67577">
        <ele>47.5</ele>
        <time>2013-04-14T17:52:32Z</time>
      </trkpt>
      <trkpt lat="48.50113" lon="2.67577">
        <ele>47.8</ele>
        <time>2013-04-14T17:52:40Z</time>
      </trkpt>
      <trkpt lat="48.50114" lon="2.67575">
        <ele>47.7</ele>
        <time>2013-04-14T17:52:46Z</time>
      </trkpt>
      <trkpt lat="48.50114" lon="2.67575">
        <ele>47.7</ele>
        <time>2013-04-14T17:52:50Z</time>
      </trkpt>
      <trkpt lat="48.50128" lon="2.67575">
        <ele>47.9</ele>
        <time>2013-04-14T17:52:54Z</time>
      </trkpt>
      <trkpt lat="48.50142" lon="2.67572">
        <ele>48</ele>
        <time>2013-04-14T17:53:06Z</time>
      </trkpt>
      <trkpt lat="48.50152" lon="2.6757">
        <ele>48</ele>
        <time>2013-04-14T17:53:09Z</time>
      </trkpt>
      <trkpt lat="48.50168" lon="2.67566">
        <ele>48</ele>
        <time>2013-04-14T17:53:19Z</time>
      </trkpt>
      <trkpt lat="48.50185" lon="2.67566">
        <ele>48</ele>
        <time>2013-04-14T17:53:28Z</time>
      </trkpt>
      <trkpt lat="48.50201" lon="2.67566">
        <ele>47.9</ele>
        <time>2013-04-14T17:53:40Z</time>
      </trkpt>
      <trkpt lat="48.50218" lon="2.67562">
        <ele>47.3</ele>
        <time>2013-04-14T17:53:49Z</time>
      </trkpt>
      <trkpt lat="48.50231" lon="2.67562">
        <ele>47.2</ele>
        <time>2013-04-14T17:53:57Z</time>
      </trkpt>
      <trkpt lat="48.50237" lon="2.6756">
        <ele>47.2</ele>
        <time>2013-04-14T17:54:05Z</time>
      </trkpt>
      <trkpt lat="48.50237" lon="2.6756">
        <ele>47.2</ele>
        <time>2013-04-14T17:54:09Z</time>
      </trkpt>
      <trkpt lat="48.50248" lon="2.67557">
        <ele>47.1</ele>
        <time>2013-04-14T17:54:12Z</time>
      </trkpt>
      <trkpt lat="48.50277" lon="2.67551">
        <ele>47.2</ele>
        <time>2013-04-14T17:54:29Z</time>
      </trkpt>
      <trkpt lat="48.5029" lon="2.67549">
        <ele>47.6</ele>
        <time>2013-04-14T17:54:40Z</time>
      </trkpt>
      <trkpt lat="48.5029" lon="2.67549">
        <ele>47.6</ele>
        <time>2013-04-14T17:54:44Z</time>
      </trkpt>
      <trkpt lat="48.50296" lon="2.67549">
        <ele>47.7</ele>
        <time>2013-04-14T17:54:46Z</time>
      </trkpt>
      <trkpt lat="48.50304" lon="2.67547">
        <ele>48</ele>
        <time>2013-04-14T17:54:52Z</time>
      </trkpt>
      <trkpt lat="48.50322" lon="2.67544">
        <ele>48</ele>
        <time>2013-04-14T17:55:04Z</time>
      </trkpt>
      <trkpt lat="48.50335" lon="2.67542">
        <ele>48</ele>
        <time>2013-04-14T17:55:16Z</time>
      </trkpt>
      <trkpt lat="48.50357" lon="2.67538">
        <ele>48</ele>
        <time>2013-04-14T17:55:34Z</time>
      </trkpt>
      <trkpt lat="48.50359" lon="2.67536">
        <ele>48</ele>
        <time>2013-04-14T17:55:42Z</time>
      </trkpt>
      <trkpt lat="48.50373" lon="2.6754">
        <ele>48</ele>
        <time>2013-04-14T17:55:48Z</time>
      </trkpt>
      <trkpt lat="48.50388" lon="2.67551">
        <ele>48</ele>
        <time>2013-04-14T17:55:56Z</time>
      </trkpt>
      <trkpt lat="48.5039" lon="2.67551">
        <ele>48</ele>
        <time>2013-04-14T17:56:00Z</time>
      </trkpt>
      <trkpt lat="48.504" lon="2.67553">
        <ele>48</ele>
        <time>2013-04-14T17:56:06Z</time>
      </trkpt>
      <trkpt lat="48.504" lon="2.67553">
        <ele>48</ele>
        <time>2013-04-14T17:56:11Z</time>
      </trkpt>
      <trkpt lat="48.5041" lon="2.67555">
        <ele>48</ele>
        <time>2013-04-14T17:56:15Z</time>
      </trkpt>
      <trkpt lat="48.50412" lon="2.67557">
        <ele>47.9</ele>
        <time>2013-04-14T17:56:17Z</time>
      </trkpt>
      <trkpt lat="48.50425" lon="2.67557">
        <ele>47.9</ele>
        <time>2013-04-14T17:56:26Z</time>
      </trkpt>
      <trkpt lat="48.50425" lon="2.67557">
        <ele>47.9</ele>
        <time>2013-04-14T17:56:31Z</time>
      </trkpt>
      <trkpt lat="48.50445" lon="2.67564">
        <ele>47.7</ele>
        <time>2013-04-14T17:56:36Z</time>
      </trkpt>
      <trkpt lat="48.50471" lon="2.6757">
        <ele>48.4</ele>
        <time>2013-04-14T17:56:51Z</time>
      </trkpt>
      <trkpt lat="48.50477" lon="2.67568">
        <ele>48.6</ele>
        <time>2013-04-14T17:56:57Z</time>
      </trkpt>
      <trkpt lat="48.50483" lon="2.67562">
        <ele>48.9</ele>
        <time>2013-04-14T17:57:03Z</time>
      </trkpt>
      <trkpt lat="48.50487" lon="2.67557">
        <ele>49</ele>
        <time>2013-04-14T17:57:12Z</time>
      </trkpt>
      <trkpt lat="48.50487" lon="2.67557">
        <ele>49</ele>
        <time>2013-04-14T17:57:16Z</time>
      </trkpt>
      <trkpt lat="48.50499" lon="2.67549">
        <ele>49</ele>
        <time>2013-04-14T17:57:20Z</time>
      </trkpt>
      <trkpt lat="48.50514" lon="2.6754">
        <ele>49</ele>
        <time>2013-04-14T17:57:33Z</time>
      </trkpt>
      <trkpt lat="48.50514" lon="2.6754">
        <ele>49</ele>
        <time>2013-04-14T17:57:37Z</time>
      </trkpt>
      <trkpt lat="48.50514" lon="2.6754">
        <ele>49</ele>
        <time>2013-04-14T17:57:43Z</time>
      </trkpt>
      <trkpt lat="48.50527" lon="2.67557">
        <ele>49.1</ele>
        <time>2013-04-14T17:57:48Z</time>
      </trkpt>
      <trkpt lat="48.50531" lon="2.67568">
        <ele>49.4</ele>
        <time>2013-04-14T17:57:54Z</time>
      </trkpt>
      <trkpt lat="48.50535" lon="2.67579">
        <ele>49.6</ele>
        <time>2013-04-14T17:58:05Z</time>
      </trkpt>
      <trkpt lat="48.50535" lon="2.67579">
        <ele>49.6</ele>
        <time>2013-04-14T17:58:08Z</time>
      </trkpt>
      <trkpt lat="48.50546" lon="2.67598">
        <ele>49.2</ele>
        <time>2013-04-14T17:58:12Z</time>
      </trkpt>
      <trkpt lat="48.50546" lon="2.67598">
        <ele>49.2</ele>
        <time>2013-04-14T17:58:19Z</time>
      </trkpt>
      <trkpt lat="48.50552" lon="2.67617">
        <ele>48.9</ele>
        <time>2013-04-14T17:58:22Z</time>
      </trkpt>
      <trkpt lat="48.50555" lon="2.67626">
        <ele>49</ele>
        <time>2013-04-14T17:58:24Z</time>
      </trkpt>
      <trkpt lat="48.50558" lon="2.67641">
        <ele>49</ele>
        <time>2013-04-14T17:58:31Z</time>
      </trkpt>
      <trkpt lat="48.50562" lon="2.67665">
        <ele>49</ele>
        <time>2013-04-14T17:58:43Z</time>
      </trkpt>
      <trkpt lat="48.50562" lon="2.67665">
        <ele>49</ele>
        <time>2013-04-14T17:58:46Z</time>
      </trkpt>
      <trkpt lat="48.50565" lon="2.6768">
        <ele>49</ele>
        <time>2013-04-14T17:58:50Z</time>
      </trkpt>
      <trkpt lat="48.50577" lon="2.67735">
        <ele>50.2</ele>
        <time>2013-04-14T17:59:19Z</time>
      </trkpt>
      <trkpt lat="48.50577" lon="2.67735">
        <ele>50.2</ele>
        <time>2013-04-14T17:59:22Z</time>
      </trkpt>
      <trkpt lat="48.5058" lon="2.67746">
        <ele>50.7</ele>
        <time>2013-04-14T17:59:25Z</time>
      </trkpt>
      <trkpt lat="48.50584" lon="2.67755">
        <ele>51.2</ele>
        <time>2013-04-14T17:59:35Z</time>
      </trkpt>
      <trkpt lat="48.5059" lon="2.67774">
        <ele>51.9</ele>
        <time>2013-04-14T17:59:38Z</time>
      </trkpt>
      <trkpt lat="48.50594" lon="2.67791">
        <ele>52.5</ele>
        <time>2013-04-14T17:59:47Z</time>
      </trkpt>
      <trkpt lat="48.50594" lon="2.67791">
        <ele>52.5</ele>
        <time>2013-04-14T17:59:49Z</time>
      </trkpt>
      <trkpt lat="48.50594" lon="2.67791">
        <ele>52.5</ele>
        <time>2013-04-14T17:59:52Z</time>
      </trkpt>
      <trkpt lat="48.50597" lon="2.67804">
        <ele>52.9</ele>
        <time>2013-04-14T17:59:56Z</time>
      </trkpt>
      <trkpt lat="48.50602" lon="2.67828">
        <ele>53</ele>
        <time>2013-04-14T18:00:00Z</time>
      </trkpt>
      <trkpt lat="48.50605" lon="2.67836">
        <ele>53.1</ele>
        <time>2013-04-14T18:00:07Z</time>
      </trkpt>
      <trkpt lat="48.50608" lon="2.67845">
        <ele>53.4</ele>
        <time>2013-04-14T18:00:11Z</time>
      </trkpt>
      <trkpt lat="48.50611" lon="2.67853">
        <ele>53.7</ele>
        <time>2013-04-14T18:00:19Z</time>
      </trkpt>
      <trkpt lat="48.50615" lon="2.67864">
        <ele>54</ele>
        <time>2013-04-14T18:00:24Z</time>
      </trkpt>
      <trkpt lat="48.50622" lon="2.67888">
        <ele>54</ele>
        <time>2013-04-14T18:00:38Z</time>
      </trkpt>
      <trkpt lat="48.50622" lon="2.67905">
        <ele>54</ele>
        <time>2013-04-14T18:00:48Z</time>
      </trkpt>
      <trkpt lat="48.5062" lon="2.67909">
        <ele>54</ele>
        <time>2013-04-14T18:00:56Z</time>
      </trkpt>
      <trkpt lat="48.50618" lon="2.67918">
        <ele>54</ele>
        <time>2013-04-14T18:01:00Z</time>
      </trkpt>
      <trkpt lat="48.50612" lon="2.67926">
        <ele>54</ele>
        <time>2013-04-14T18:01:10Z</time>
      </trkpt>
      <trkpt lat="48.5061" lon="2.67933">
        <ele>54</ele>
        <time>2013-04-14T18:01:13Z</time>
      </trkpt>
      <trkpt lat="48.50602" lon="2.67944">
        <ele>54</ele>
        <time>2013-04-14T18:01:19Z</time>
      </trkpt>
      <trkpt lat="48.50575" lon="2.67969">
        <ele>54</ele>
        <time>2013-04-14T18:01:34Z</time>
      </trkpt>
      <trkpt lat="48.50565" lon="2.67974">
        <ele>54</ele>
        <time>2013-04-14T18:01:38Z</time>
      </trkpt>
      <trkpt lat="48.50551" lon="2.67984">
        <ele>53.7</ele>
        <time>2013-04-14T18:01:46Z</time>
      </trkpt>
      <trkpt lat="48.50537" lon="2.67991">
        <ele>53.4</ele>
        <time>2013-04-14T18:01:57Z</time>
      </trkpt>
      <trkpt lat="48.50508" lon="2.68008">
        <ele>52.1</ele>
        <time>2013-04-14T18:02:19Z</time>
      </trkpt>
      <trkpt lat="48.50498" lon="2.68019">
        <ele>52.4</ele>
        <time>2013-04-14T18:02:31Z</time>
      </trkpt>
      <trkpt lat="48.50486" lon="2.68032">
        <ele>53.2</ele>
        <time>2013-04-14T18:02:41Z</time>
      </trkpt>
      <trkpt lat="48.50473" lon="2.6804">
        <ele>53.1</ele>
        <time>2013-04-14T18:02:51Z</time>
      </trkpt>
      <trkpt lat="48.50458" lon="2.68044">
        <ele>53</ele>
        <time>2013-04-14T18:03:00Z</time>
      </trkpt>
      <trkpt lat="48.50443" lon="2.68053">
        <ele>53.8</ele>
        <time>2013-04-14T18:03:09Z</time>
      </trkpt>
      <trkpt lat="48.50435" lon="2.68053">
        <ele>53.8</ele>
        <time>2013-04-14T18:03:13Z</time>
      </trkpt>
      <trkpt lat="48.50427" lon="2.68057">
        <ele>54</ele>
        <time>2013-04-14T18:03:19Z</time>
      </trkpt>
      <trkpt lat="48.50418" lon="2.68055">
        <ele>54</ele>
        <time>2013-04-14T18:03:24Z</time>
      </trkpt>
      <trkpt lat="48.50413" lon="2.68059">
        <ele>54</ele>
        <time>2013-04-14T18:03:30Z</time>
      </trkpt>
      <trkpt lat="48.50405" lon="2.68085">
        <ele>54.5</ele>
        <time>2013-04-14T18:03:39Z</time>
      </trkpt>
      <trkpt lat="48.50407" lon="2.68092">
        <ele>54.6</ele>
        <time>2013-04-14T18:03:45Z</time>
      </trkpt>
      <trkpt lat="48.50413" lon="2.68107">
        <ele>54.9</ele>
        <time>2013-04-14T18:03:50Z</time>
      </trkpt>
      <trkpt lat="48.50413" lon="2.68107">
        <ele>54.9</ele>
        <time>2013-04-14T18:03:57Z</time>
      </trkpt>
      <trkpt lat="48.50413" lon="2.68107">
        <ele>54.9</ele>
        <time>2013-04-14T18:03:59Z</time>
      </trkpt>
      <trkpt lat="48.50413" lon="2.68107">
        <ele>54.9</ele>
        <time>2013-04-14T18:04:02Z</time>
      </trkpt>
      <trkpt lat="48.50423" lon="2.68122">
        <ele>54.8</ele>
        <time>2013-04-14T18:04:06Z</time>
      </trkpt>
      <trkpt lat="48.50426" lon="2.68132">
        <ele>54.7</ele>
        <time>2013-04-14T18:04:10Z</time>
      </trkpt>
      <trkpt lat="48.50435" lon="2.68156">
        <ele>55</ele>
        <time>2013-04-14T18:04:22Z</time>
      </trkpt>
      <trkpt lat="48.50438" lon="2.68169">
        <ele>55.2</ele>
        <time>2013-04-14T18:04:33Z</time>
      </trkpt>
      <trkpt lat="48.50444" lon="2.68184">
        <ele>55</ele>
        <time>2013-04-14T18:04:36Z</time>
      </trkpt>
      <trkpt lat="48.5045" lon="2.68197">
        <ele>54.9</ele>
        <time>2013-04-14T18:04:45Z</time>
      </trkpt>
      <trkpt lat="48.5045" lon="2.68197">
        <ele>54.9</ele>
        <time>2013-04-14T18:04:47Z</time>
      </trkpt>
      <trkpt lat="48.5045" lon="2.68197">
        <ele>54.9</ele>
        <time>2013-04-14T18:04:49Z</time>
      </trkpt>
      <trkpt lat="48.50457" lon="2.68216">
        <ele>55</ele>
        <time>2013-04-14T18:04:52Z</time>
      </trkpt>
      <trkpt lat="48.50458" lon="2.6822">
        <ele>55</ele>
        <time>2013-04-14T18:05:02Z</time>
      </trkpt>
      <trkpt lat="48.50462" lon="2.68235">
        <ele>55</ele>
        <time>2013-04-14T18:05:06Z</time>
      </trkpt>
      <trkpt lat="48.50466" lon="2.6825">
        <ele>55.2</ele>
        <time>2013-04-14T18:05:14Z</time>
      </trkpt>
      <trkpt lat="48.50466" lon="2.68253">
        <ele>55.1</ele>
        <time>2013-04-14T18:05:18Z</time>
      </trkpt>
      <trkpt lat="48.50466" lon="2.68253">
        <ele>55.1</ele>
        <time>2013-04-14T18:05:22Z</time>
      </trkpt>
      <trkpt lat="48.50466" lon="2.68253">
        <ele>55.1</ele>
        <time>2013-04-14T18:05:25Z</time>
      </trkpt>
      <trkpt lat="48.50466" lon="2.68253">
        <ele>55.1</ele>
        <time>2013-04-14T18:05:27Z</time>
      </trkpt>
      <trkpt lat="48.50488" lon="2.6827">
        <ele>54.1</ele>
        <time>2013-04-14T18:05:34Z</time>
      </trkpt>
      <trkpt lat="48.50491" lon="2.68268">
        <ele>54.1</ele>
        <time>2013-04-14T18:05:38Z</time>
      </trkpt>
      <trkpt lat="48.50501" lon="2.6827">
        <ele>54.1</ele>
        <time>2013-04-14T18:05:42Z</time>
      </trkpt>
      <trkpt lat="48.50501" lon="2.6827">
        <ele>54.1</ele>
        <time>2013-04-14T18:05:52Z</time>
      </trkpt>
      <trkpt lat="48.50516" lon="2.68257">
        <ele>54.1</ele>
        <time>2013-04-14T18:05:59Z</time>
      </trkpt>
      <trkpt lat="48.50519" lon="2.68257">
        <ele>54.2</ele>
        <time>2013-04-14T18:06:03Z</time>
      </trkpt>
      <trkpt lat="48.50519" lon="2.68257">
        <ele>54.2</ele>
        <time>2013-04-14T18:06:15Z</time>
      </trkpt>
      <trkpt lat="48.50519" lon="2.68257">
        <ele>54.2</ele>
        <time>2013-04-14T18:06:20Z</time>
      </trkpt>
      <trkpt lat="48.50535" lon="2.68291">
        <ele>55.4</ele>
        <time>2013-04-14T18:06:26Z</time>
      </trkpt>
      <trkpt lat="48.50542" lon="2.68302">
        <ele>53.8</ele>
        <time>2013-04-14T18:06:33Z</time>
      </trkpt>
      <trkpt lat="48.50553" lon="2.68323">
        <ele>53.6</ele>
        <time>2013-04-14T18:06:39Z</time>
      </trkpt>
      <trkpt lat="48.50559" lon="2.68336">
        <ele>54.1</ele>
        <time>2013-04-14T18:06:47Z</time>
      </trkpt>
      <trkpt lat="48.50566" lon="2.68364">
        <ele>54.9</ele>
        <time>2013-04-14T18:06:59Z</time>
      </trkpt>
      <trkpt lat="48.50572" lon="2.68375">
        <ele>55.9</ele>
        <time>2013-04-14T18:07:10Z</time>
      </trkpt>
      <trkpt lat="48.50574" lon="2.68373">
        <ele>55.9</ele>
        <time>2013-04-14T18:07:14Z</time>
      </trkpt>
      <trkpt lat="48.50584" lon="2.68368">
        <ele>56.3</ele>
        <time>2013-04-14T18:07:24Z</time>
      </trkpt>
      <trkpt lat="48.50602" lon="2.68366">
        <ele>56.8</ele>
        <time>2013-04-14T18:07:36Z</time>
      </trkpt>
      <trkpt lat="48.50608" lon="2.68364">
        <ele>57</ele>
        <time>2013-04-14T18:07:44Z</time>
      </trkpt>
      <trkpt lat="48.50608" lon="2.68364">
        <ele>57</ele>
        <time>2013-04-14T18:07:48Z</time>
      </trkpt>
      <trkpt lat="48.50622" lon="2.6836">
        <ele>57.4</ele>
        <time>2013-04-14T18:07:51Z</time>
      </trkpt>
      <trkpt lat="48.50631" lon="2.6836">
        <ele>57.7</ele>
        <time>2013-04-14T18:08:01Z</time>
      </trkpt>
      <trkpt lat="48.50637" lon="2.68362">
        <ele>58</ele>
        <time>2013-04-14T18:08:03Z</time>
      </trkpt>
      <trkpt lat="48.50641" lon="2.68364">
        <ele>58.1</ele>
        <time>2013-04-14T18:08:09Z</time>
      </trkpt>
      <trkpt lat="48.50649" lon="2.68364">
        <ele>58.1</ele>
        <time>2013-04-14T18:08:13Z</time>
      </trkpt>
      <trkpt lat="48.50661" lon="2.68366">
        <ele>58.3</ele>
        <time>2013-04-14T18:08:27Z</time>
      </trkpt>
      <trkpt lat="48.50677" lon="2.68366">
        <ele>58.7</ele>
        <time>2013-04-14T18:08:33Z</time>
      </trkpt>
      <trkpt lat="48.50684" lon="2.68368">
        <ele>59.1</ele>
        <time>2013-04-14T18:08:40Z</time>
      </trkpt>
      <trkpt lat="48.50694" lon="2.68371">
        <ele>59.7</ele>
        <time>2013-04-14T18:08:44Z</time>
      </trkpt>
      <trkpt lat="48.50702" lon="2.68371">
        <ele>59.7</ele>
        <time>2013-04-14T18:08:51Z</time>
      </trkpt>
      <trkpt lat="48.50723" lon="2.68373">
        <ele>59.9</ele>
        <time>2013-04-14T18:09:06Z</time>
      </trkpt>
      <trkpt lat="48.50725" lon="2.68373">
        <ele>60</ele>
        <time>2013-04-14T18:09:12Z</time>
      </trkpt>
      <trkpt lat="48.5074" lon="2.68371">
        <ele>60.5</ele>
        <time>2013-04-14T18:09:17Z</time>
      </trkpt>
      <trkpt lat="48.50748" lon="2.68371">
        <ele>60.9</ele>
        <time>2013-04-14T18:09:23Z</time>
      </trkpt>
      <trkpt lat="48.50756" lon="2.68375">
        <ele>61.1</ele>
        <time>2013-04-14T18:09:28Z</time>
      </trkpt>
      <trkpt lat="48.50762" lon="2.6839">
        <ele>61.5</ele>
        <time>2013-04-14T18:09:36Z</time>
      </trkpt>
      <trkpt lat="48.50762" lon="2.6839">
        <ele>61.5</ele>
        <time>2013-04-14T18:09:41Z</time>
      </trkpt>
      <trkpt lat="48.50762" lon="2.6839">
        <ele>61.5</ele>
        <time>2013-04-14T18:09:43Z</time>
      </trkpt>
      <trkpt lat="48.50762" lon="2.6839">
        <ele>61.5</ele>
        <time>2013-04-14T18:09:45Z</time>
      </trkpt>
      <trkpt lat="48.50777" lon="2.68409">
        <ele>62</ele>
        <time>2013-04-14T18:09:49Z</time>
      </trkpt>
      <trkpt lat="48.50788" lon="2.68426">
        <ele>62.7</ele>
        <time>2013-04-14T18:10:03Z</time>
      </trkpt>
      <trkpt lat="48.50792" lon="2.68439">
        <ele>63.3</ele>
        <time>2013-04-14T18:10:08Z</time>
      </trkpt>
      <trkpt lat="48.50798" lon="2.68461">
        <ele>63.9</ele>
        <time>2013-04-14T18:10:21Z</time>
      </trkpt>
      <trkpt lat="48.50799" lon="2.68469">
        <ele>64</ele>
        <time>2013-04-14T18:10:23Z</time>
      </trkpt>
      <trkpt lat="48.50801" lon="2.68478">
        <ele>64.2</ele>
        <time>2013-04-14T18:10:30Z</time>
      </trkpt>
      <trkpt lat="48.50806" lon="2.68491">
        <ele>64.7</ele>
        <time>2013-04-14T18:10:34Z</time>
      </trkpt>
      <trkpt lat="48.50814" lon="2.68504">
        <ele>65.4</ele>
        <time>2013-04-14T18:10:41Z</time>
      </trkpt>
      <trkpt lat="48.50824" lon="2.68517">
        <ele>66.3</ele>
        <time>2013-04-14T18:10:53Z</time>
      </trkpt>
      <trkpt lat="48.5083" lon="2.68529">
        <ele>66.9</ele>
        <time>2013-04-14T18:10:57Z</time>
      </trkpt>
      <trkpt lat="48.50835" lon="2.68544">
        <ele>67.6</ele>
        <time>2013-04-14T18:11:06Z</time>
      </trkpt>
      <trkpt lat="48.50835" lon="2.68544">
        <ele>67.6</ele>
        <time>2013-04-14T18:11:10Z</time>
      </trkpt>
      <trkpt lat="48.50835" lon="2.68544">
        <ele>67.6</ele>
        <time>2013-04-14T18:11:12Z</time>
      </trkpt>
      <trkpt lat="48.50835" lon="2.68544">
        <ele>67.6</ele>
        <time>2013-04-14T18:11:33Z</time>
      </trkpt>
      <trkpt lat="48.50847" lon="2.68536">
        <ele>67.8</ele>
        <time>2013-04-14T18:11:39Z</time>
      </trkpt>
      <trkpt lat="48.5085" lon="2.68532">
        <ele>67.8</ele>
        <time>2013-04-14T18:11:46Z</time>
      </trkpt>
      <trkpt lat="48.50853" lon="2.68525">
        <ele>67.6</ele>
        <time>2013-04-14T18:11:49Z</time>
      </trkpt>
      <trkpt lat="48.50857" lon="2.68519">
        <ele>67.5</ele>
        <time>2013-04-14T18:11:53Z</time>
      </trkpt>
      <trkpt lat="48.50864" lon="2.68514">
        <ele>67.6</ele>
        <time>2013-04-14T18:12:01Z</time>
      </trkpt>
      <trkpt lat="48.50873" lon="2.68508">
        <ele>67.4</ele>
        <time>2013-04-14T18:12:09Z</time>
      </trkpt>
      <trkpt lat="48.50891" lon="2.68495">
        <ele>67.1</ele>
        <time>2013-04-14T18:12:17Z</time>
      </trkpt>
      <trkpt lat="48.50896" lon="2.68493">
        <ele>67.4</ele>
        <time>2013-04-14T18:12:22Z</time>
      </trkpt>
      <trkpt lat="48.50904" lon="2.68484">
        <ele>67.5</ele>
        <time>2013-04-14T18:12:28Z</time>
      </trkpt>
      <trkpt lat="48.50904" lon="2.68484">
        <ele>67.5</ele>
        <time>2013-04-14T18:12:35Z</time>
      </trkpt>
      <trkpt lat="48.5092" lon="2.68471">
        <ele>67.2</ele>
        <time>2013-04-14T18:12:40Z</time>
      </trkpt>
      <trkpt lat="48.50925" lon="2.68463">
        <ele>67.3</ele>
        <time>2013-04-14T18:12:44Z</time>
      </trkpt>
      <trkpt lat="48.50925" lon="2.68463">
        <ele>67.3</ele>
        <time>2013-04-14T18:12:49Z</time>
      </trkpt>
      <trkpt lat="48.50933" lon="2.68456">
        <ele>67.6</ele>
        <time>2013-04-14T18:12:54Z</time>
      </trkpt>
      <trkpt lat="48.50946" lon="2.68454">
        <ele>68.4</ele>
        <time>2013-04-14T18:13:03Z</time>
      </trkpt>
      <trkpt lat="48.5096" lon="2.68452">
        <ele>68.8</ele>
        <time>2013-04-14T18:13:08Z</time>
      </trkpt>
      <trkpt lat="48.50968" lon="2.68454">
        <ele>69.2</ele>
        <time>2013-04-14T18:13:13Z</time>
      </trkpt>
      <trkpt lat="48.50976" lon="2.68454">
        <ele>69.3</ele>
        <time>2013-04-14T18:13:21Z</time>
      </trkpt>
      <trkpt lat="48.50976" lon="2.68454">
        <ele>69.3</ele>
        <time>2013-04-14T18:13:26Z</time>
      </trkpt>
      <trkpt lat="48.50986" lon="2.68456">
        <ele>69.4</ele>
        <time>2013-04-14T18:13:30Z</time>
      </trkpt>
      <trkpt lat="48.50994" lon="2.68463">
        <ele>69.7</ele>
        <time>2013-04-14T18:13:38Z</time>
      </trkpt>
      <trkpt lat="48.50994" lon="2.68463">
        <ele>69.7</ele>
        <time>2013-04-14T18:13:44Z</time>
      </trkpt>
      <trkpt lat="48.51001" lon="2.68467">
        <ele>69.8</ele>
        <time>2013-04-14T18:13:49Z</time>
      </trkpt>
      <trkpt lat="48.51016" lon="2.68471">
        <ele>70.5</ele>
        <time>2013-04-14T18:13:58Z</time>
      </trkpt>
      <trkpt lat="48.51016" lon="2.68471">
        <ele>70.5</ele>
        <time>2013-04-14T18:14:02Z</time>
      </trkpt>
      <trkpt lat="48.51028" lon="2.68478">
        <ele>71.2</ele>
        <time>2013-04-14T18:14:05Z</time>
      </trkpt>
      <trkpt lat="48.51028" lon="2.68478">
        <ele>71.2</ele>
        <time>2013-04-14T18:14:13Z</time>
      </trkpt>
      <trkpt lat="48.51047" lon="2.68484">
        <ele>72.1</ele>
        <time>2013-04-14T18:14:18Z</time>
      </trkpt>
      <trkpt lat="48.51056" lon="2.68486">
        <ele>72.5</ele>
        <time>2013-04-14T18:14:25Z</time>
      </trkpt>
      <trkpt lat="48.51067" lon="2.68484">
        <ele>72.8</ele>
        <time>2013-04-14T18:14:32Z</time>
      </trkpt>
      <trkpt lat="48.51067" lon="2.68484">
        <ele>72.8</ele>
        <time>2013-04-14T18:14:38Z</time>
      </trkpt>
      <trkpt lat="48.51067" lon="2.68484">
        <ele>72.8</ele>
        <time>2013-04-14T18:14:43Z</time>
      </trkpt>
      <trkpt lat="48.51092" lon="2.68461">
        <ele>72.6</ele>
        <time>2013-04-14T18:14:49Z</time>
      </trkpt>
      <trkpt lat="48.51092" lon="2.68461">
        <ele>72.6</ele>
        <time>2013-04-14T18:14:54Z</time>
      </trkpt>
      <trkpt lat="48.51092" lon="2.68461">
        <ele>72.6</ele>
        <time>2013-04-14T18:14:59Z</time>
      </trkpt>
      <trkpt lat="48.51105" lon="2.68446">
        <ele>72.1</ele>
        <time>2013-04-14T18:15:03Z</time>
      </trkpt>
      <trkpt lat="48.51115" lon="2.68439">
        <ele>72.1</ele>
        <time>2013-04-14T18:15:10Z</time>
      </trkpt>
      <trkpt lat="48.51122" lon="2.68431">
        <ele>72.2</ele>
        <time>2013-04-14T18:15:20Z</time>
      </trkpt>
      <trkpt lat="48.51137" lon="2.6842">
        <ele>72.1</ele>
        <time>2013-04-14T18:15:23Z</time>
      </trkpt>
      <trkpt lat="48.51143" lon="2.68416">
        <ele>72.1</ele>
        <time>2013-04-14T18:15:32Z</time>
      </trkpt>
      <trkpt lat="48.51151" lon="2.68411">
        <ele>72.4</ele>
        <time>2013-04-14T18:15:37Z</time>
      </trkpt>
      <trkpt lat="48.51156" lon="2.68407">
        <ele>72.6</ele>
        <time>2013-04-14T18:15:46Z</time>
      </trkpt>
      <trkpt lat="48.51161" lon="2.68403">
        <ele>72.8</ele>
        <time>2013-04-14T18:15:48Z</time>
      </trkpt>
      <trkpt lat="48.51161" lon="2.68403">
        <ele>72.8</ele>
        <time>2013-04-14T18:15:53Z</time>
      </trkpt>
      <trkpt lat="48.51161" lon="2.68403">
        <ele>72.8</ele>
        <time>2013-04-14T18:15:57Z</time>
      </trkpt>
      <trkpt lat="48.5117" lon="2.68399">
        <ele>73.1</ele>
        <time>2013-04-14T18:16:00Z</time>
      </trkpt>
      <trkpt lat="48.51173" lon="2.68392">
        <ele>73.2</ele>
        <time>2013-04-14T18:16:09Z</time>
      </trkpt>
      <trkpt lat="48.51173" lon="2.68392">
        <ele>73.2</ele>
        <time>2013-04-14T18:16:14Z</time>
      </trkpt>
      <trkpt lat="48.51173" lon="2.68375">
        <ele>72.7</ele>
        <time>2013-04-14T18:16:18Z</time>
      </trkpt>
      <trkpt lat="48.51174" lon="2.6836">
        <ele>72.2</ele>
        <time>2013-04-14T18:16:30Z</time>
      </trkpt>
      <trkpt lat="48.51176" lon="2.68347">
        <ele>71.8</ele>
        <time>2013-04-14T18:16:33Z</time>
      </trkpt>
      <trkpt lat="48.51175" lon="2.68332">
        <ele>71.3</ele>
        <time>2013-04-14T18:16:41Z</time>
      </trkpt>
      <trkpt lat="48.51175" lon="2.68332">
        <ele>71.3</ele>
        <time>2013-04-14T18:16:46Z</time>
      </trkpt>
      <trkpt lat="48.51175" lon="2.68308">
        <ele>71</ele>
        <time>2013-04-14T18:16:50Z</time>
      </trkpt>
      <trkpt lat="48.5117" lon="2.68293">
        <ele>70.6</ele>
        <time>2013-04-14T18:16:58Z</time>
      </trkpt>
      <trkpt lat="48.51163" lon="2.68265">
        <ele>69.7</ele>
        <time>2013-04-14T18:17:09Z</time>
      </trkpt>
      <trkpt lat="48.51158" lon="2.6825">
        <ele>69.4</ele>
        <time>2013-04-14T18:17:19Z</time>
      </trkpt>
      <trkpt lat="48.51155" lon="2.68244">
        <ele>68.8</ele>
        <time>2013-04-14T18:17:28Z</time>
      </trkpt>
      <trkpt lat="48.51151" lon="2.68231">
        <ele>67.9</ele>
        <time>2013-04-14T18:17:34Z</time>
      </trkpt>
      <trkpt lat="48.51151" lon="2.68231">
        <ele>67.9</ele>
        <time>2013-04-14T18:17:40Z</time>
      </trkpt>
      <trkpt lat="48.51145" lon="2.68201">
        <ele>66.5</ele>
        <time>2013-04-14T18:17:44Z</time>
      </trkpt>
      <trkpt lat="48.5114" lon="2.68193">
        <ele>66</ele>
        <time>2013-04-14T18:17:51Z</time>
      </trkpt>
      <trkpt lat="48.51136" lon="2.68184">
        <ele>65.6</ele>
        <time>2013-04-14T18:17:55Z</time>
      </trkpt>
      <trkpt lat="48.51131" lon="2.68162">
        <ele>64.5</ele>
        <time>2013-04-14T18:18:04Z</time>
      </trkpt>
      <trkpt lat="48.51119" lon="2.68124">
        <ele>62.7</ele>
        <time>2013-04-14T18:18:19Z</time>
      </trkpt>
      <trkpt lat="48.51107" lon="2.68109">
        <ele>61.8</ele>
        <time>2013-04-14T18:18:30Z</time>
      </trkpt>
      <trkpt lat="48.51099" lon="2.68109">
        <ele>61.8</ele>
        <time>2013-04-14T18:18:35Z</time>
      </trkpt>
      <trkpt lat="48.51089" lon="2.681">
        <ele>61.2</ele>
        <time>2013-04-14T18:18:43Z</time>
      </trkpt>
      <trkpt lat="48.51083" lon="2.68087">
        <ele>60.3</ele>
        <time>2013-04-14T18:18:48Z</time>
      </trkpt>
      <trkpt lat="48.51079" lon="2.68072">
        <ele>59.1</ele>
        <time>2013-04-14T18:18:58Z</time>
      </trkpt>
      <trkpt lat="48.51078" lon="2.68055">
        <ele>58</ele>
        <time>2013-04-14T18:19:05Z</time>
      </trkpt>
      <trkpt lat="48.51073" lon="2.68032">
        <ele>57.2</ele>
        <time>2013-04-14T18:19:18Z</time>
      </trkpt>
      <trkpt lat="48.51073" lon="2.68032">
        <ele>57.2</ele>
        <time>2013-04-14T18:19:22Z</time>
      </trkpt>
      <trkpt lat="48.51073" lon="2.68032">
        <ele>57.2</ele>
        <time>2013-04-14T18:19:27Z</time>
      </trkpt>
      <trkpt lat="48.51066" lon="2.68014">
        <ele>57</ele>
        <time>2013-04-14T18:19:31Z</time>
      </trkpt>
      <trkpt lat="48.51062" lon="2.67995">
        <ele>56.8</ele>
        <time>2013-04-14T18:19:37Z</time>
      </trkpt>
      <trkpt lat="48.5106" lon="2.67989">
        <ele>56.6</ele>
        <time>2013-04-14T18:19:45Z</time>
      </trkpt>
      <trkpt lat="48.51055" lon="2.67974">
        <ele>56.1</ele>
        <time>2013-04-14T18:19:49Z</time>
      </trkpt>
      <trkpt lat="48.51051" lon="2.67959">
        <ele>55.5</ele>
        <time>2013-04-14T18:19:58Z</time>
      </trkpt>
      <trkpt lat="48.51051" lon="2.67948">
        <ele>55.1</ele>
        <time>2013-04-14T18:20:01Z</time>
      </trkpt>
      <trkpt lat="48.51051" lon="2.67948">
        <ele>55.1</ele>
        <time>2013-04-14T18:20:08Z</time>
      </trkpt>
      <trkpt lat="48.51051" lon="2.67948">
        <ele>55.1</ele>
        <time>2013-04-14T18:20:10Z</time>
      </trkpt>
      <trkpt lat="48.51051" lon="2.67948">
        <ele>55.1</ele>
        <time>2013-04-14T18:20:25Z</time>
      </trkpt>
      <trkpt lat="48.51071" lon="2.67911">
        <ele>55.1</ele>
        <time>2013-04-14T18:20:30Z</time>
      </trkpt>
      <trkpt lat="48.51071" lon="2.67911">
        <ele>55.1</ele>
        <time>2013-04-14T18:20:38Z</time>
      </trkpt>
      <trkpt lat="48.51086" lon="2.67896">
        <ele>54.9</ele>
        <time>2013-04-14T18:20:45Z</time>
      </trkpt>
      <trkpt lat="48.51086" lon="2.67896">
        <ele>54.9</ele>
        <time>2013-04-14T18:20:49Z</time>
      </trkpt>
      <trkpt lat="48.51086" lon="2.67896">
        <ele>54.9</ele>
        <time>2013-04-14T18:20:54Z</time>
      </trkpt>
      <trkpt lat="48.51105" lon="2.67884">
        <ele>54.4</ele>
        <time>2013-04-14T18:20:58Z</time>
      </trkpt>
      <trkpt lat="48.51109" lon="2.67881">
        <ele>54.3</ele>
        <time>2013-04-14T18:21:00Z</time>
      </trkpt>
      <trkpt lat="48.51126" lon="2.67875">
        <ele>54.5</ele>
        <time>2013-04-14T18:21:10Z</time>
      </trkpt>
      <trkpt lat="48.51135" lon="2.67871">
        <ele>54.6</ele>
        <time>2013-04-14T18:21:12Z</time>
      </trkpt>
      <trkpt lat="48.51146" lon="2.67866">
        <ele>54.7</ele>
        <time>2013-04-14T18:21:19Z</time>
      </trkpt>
      <trkpt lat="48.51146" lon="2.67866">
        <ele>54.7</ele>
        <time>2013-04-14T18:21:24Z</time>
      </trkpt>
      <trkpt lat="48.51153" lon="2.67862">
        <ele>54.5</ele>
        <time>2013-04-14T18:21:28Z</time>
      </trkpt>
      <trkpt lat="48.51159" lon="2.6786">
        <ele>54.3</ele>
        <time>2013-04-14T18:21:31Z</time>
      </trkpt>
      <trkpt lat="48.51167" lon="2.67858">
        <ele>54.1</ele>
        <time>2013-04-14T18:21:41Z</time>
      </trkpt>
      <trkpt lat="48.51173" lon="2.67856">
        <ele>54.4</ele>
        <time>2013-04-14T18:21:44Z</time>
      </trkpt>
      <trkpt lat="48.51182" lon="2.67851">
        <ele>54.7</ele>
        <time>2013-04-14T18:21:55Z</time>
      </trkpt>
      <trkpt lat="48.51188" lon="2.67849">
        <ele>54.9</ele>
        <time>2013-04-14T18:21:57Z</time>
      </trkpt>
      <trkpt lat="48.51196" lon="2.67847">
        <ele>55</ele>
        <time>2013-04-14T18:22:06Z</time>
      </trkpt>
      <trkpt lat="48.51212" lon="2.67838">
        <ele>54.5</ele>
        <time>2013-04-14T18:22:19Z</time>
      </trkpt>
      <trkpt lat="48.51221" lon="2.67836">
        <ele>54.1</ele>
        <time>2013-04-14T18:22:23Z</time>
      </trkpt>
      <trkpt lat="48.5123" lon="2.6783">
        <ele>54.3</ele>
        <time>2013-04-14T18:22:31Z</time>
      </trkpt>
      <trkpt lat="48.5123" lon="2.6783">
        <ele>54.3</ele>
        <time>2013-04-14T18:22:36Z</time>
      </trkpt>
      <trkpt lat="48.5123" lon="2.6783">
        <ele>54.3</ele>
        <time>2013-04-14T18:22:40Z</time>
      </trkpt>
      <trkpt lat="48.51254" lon="2.67823">
        <ele>55</ele>
        <time>2013-04-14T18:22:45Z</time>
      </trkpt>
      <trkpt lat="48.51264" lon="2.67817">
        <ele>55</ele>
        <time>2013-04-14T18:22:50Z</time>
      </trkpt>
      <trkpt lat="48.51273" lon="2.67813">
        <ele>55</ele>
        <time>2013-04-14T18:22:58Z</time>
      </trkpt>
      <trkpt lat="48.51296" lon="2.67802">
        <ele>54.8</ele>
        <time>2013-04-14T18:23:13Z</time>
      </trkpt>
      <trkpt lat="48.51296" lon="2.67802">
        <ele>54.8</ele>
        <time>2013-04-14T18:23:17Z</time>
      </trkpt>
      <trkpt lat="48.51305" lon="2.67796">
        <ele>54.6</ele>
        <time>2013-04-14T18:23:20Z</time>
      </trkpt>
      <trkpt lat="48.51313" lon="2.67793">
        <ele>54.5</ele>
        <time>2013-04-14T18:23:28Z</time>
      </trkpt>
      <trkpt lat="48.51328" lon="2.67787">
        <ele>54.3</ele>
        <time>2013-04-14T18:23:39Z</time>
      </trkpt>
      <trkpt lat="48.5133" lon="2.67785">
        <ele>54.3</ele>
        <time>2013-04-14T18:23:45Z</time>
      </trkpt>
      <trkpt lat="48.51341" lon="2.67781">
        <ele>54.4</ele>
        <time>2013-04-14T18:23:48Z</time>
      </trkpt>
      <trkpt lat="48.51352" lon="2.67776">
        <ele>54.6</ele>
        <time>2013-04-14T18:23:52Z</time>
      </trkpt>
      <trkpt lat="48.51369" lon="2.67772">
        <ele>54.8</ele>
        <time>2013-04-14T18:24:03Z</time>
      </trkpt>
      <trkpt lat="48.51382" lon="2.67768">
        <ele>54.6</ele>
        <time>2013-04-14T18:24:07Z</time>
      </trkpt>
      <trkpt lat="48.51386" lon="2.67765">
        <ele>54.5</ele>
        <time>2013-04-14T18:24:14Z</time>
      </trkpt>
      <trkpt lat="48.51394" lon="2.67761">
        <ele>54.4</ele>
        <time>2013-04-14T18:24:17Z</time>
      </trkpt>
      <trkpt lat="48.51401" lon="2.67759">
        <ele>54.3</ele>
        <time>2013-04-14T18:24:27Z</time>
      </trkpt>
      <trkpt lat="48.51413" lon="2.67755">
        <ele>54.2</ele>
        <time>2013-04-14T18:24:32Z</time>
      </trkpt>
      <trkpt lat="48.51419" lon="2.67748">
        <ele>54</ele>
        <time>2013-04-14T18:24:37Z</time>
      </trkpt>
      <trkpt lat="48.51428" lon="2.67738">
        <ele>54</ele>
        <time>2013-04-14T18:24:47Z</time>
      </trkpt>
      <trkpt lat="48.51435" lon="2.67733">
        <ele>54</ele>
        <time>2013-04-14T18:24:50Z</time>
      </trkpt>
      <trkpt lat="48.51447" lon="2.67727">
        <ele>53.9</ele>
        <time>2013-04-14T18:25:01Z</time>
      </trkpt>
      <trkpt lat="48.51464" lon="2.6772">
        <ele>53.3</ele>
        <time>2013-04-14T18:25:11Z</time>
      </trkpt>
      <trkpt lat="48.51468" lon="2.6772">
        <ele>53.1</ele>
        <time>2013-04-14T18:25:12Z</time>
      </trkpt>
      <trkpt lat="48.51468" lon="2.6772">
        <ele>53.1</ele>
        <time>2013-04-14T18:25:17Z</time>
      </trkpt>
      <trkpt lat="48.51478" lon="2.67718">
        <ele>53</ele>
        <time>2013-04-14T18:25:21Z</time>
      </trkpt>
      <trkpt lat="48.51488" lon="2.67716">
        <ele>53</ele>
        <time>2013-04-14T18:25:25Z</time>
      </trkpt>
      <trkpt lat="48.51504" lon="2.67712">
        <ele>53</ele>
        <time>2013-04-14T18:25:36Z</time>
      </trkpt>
      <trkpt lat="48.51504" lon="2.67712">
        <ele>53</ele>
        <time>2013-04-14T18:25:42Z</time>
      </trkpt>
      <trkpt lat="48.51513" lon="2.67708">
        <ele>53</ele>
        <time>2013-04-14T18:25:47Z</time>
      </trkpt>
      <trkpt lat="48.51528" lon="2.67701">
        <ele>53</ele>
        <time>2013-04-14T18:26:00Z</time>
      </trkpt>
      <trkpt lat="48.51538" lon="2.67697">
        <ele>53</ele>
        <time>2013-04-14T18:26:04Z</time>
      </trkpt>
      <trkpt lat="48.51541" lon="2.67697">
        <ele>53</ele>
        <time>2013-04-14T18:26:11Z</time>
      </trkpt>
      <trkpt lat="48.51559" lon="2.67686">
        <ele>53.1</ele>
        <time>2013-04-14T18:26:16Z</time>
      </trkpt>
      <trkpt lat="48.51566" lon="2.67682">
        <ele>53.2</ele>
        <time>2013-04-14T18:26:23Z</time>
      </trkpt>
      <trkpt lat="48.51579" lon="2.67675">
        <ele>53.3</ele>
        <time>2013-04-14T18:26:38Z</time>
      </trkpt>
      <trkpt lat="48.51579" lon="2.67675">
        <ele>53.3</ele>
        <time>2013-04-14T18:26:42Z</time>
      </trkpt>
      <trkpt lat="48.51605" lon="2.6766">
        <ele>53.5</ele>
        <time>2013-04-14T18:26:48Z</time>
      </trkpt>
      <trkpt lat="48.51616" lon="2.67654">
        <ele>53.7</ele>
        <time>2013-04-14T18:26:57Z</time>
      </trkpt>
      <trkpt lat="48.51624" lon="2.67647">
        <ele>53.8</ele>
        <time>2013-04-14T18:27:00Z</time>
      </trkpt>
      <trkpt lat="48.51636" lon="2.67639">
        <ele>53.9</ele>
        <time>2013-04-14T18:27:08Z</time>
      </trkpt>
      <trkpt lat="48.51636" lon="2.67639">
        <ele>53.9</ele>
        <time>2013-04-14T18:27:13Z</time>
      </trkpt>
      <trkpt lat="48.51651" lon="2.67628">
        <ele>53.6</ele>
        <time>2013-04-14T18:27:17Z</time>
      </trkpt>
      <trkpt lat="48.51656" lon="2.67624">
        <ele>53.5</ele>
        <time>2013-04-14T18:27:24Z</time>
      </trkpt>
      <trkpt lat="48.51661" lon="2.6762">
        <ele>53.3</ele>
        <time>2013-04-14T18:27:34Z</time>
      </trkpt>
      <trkpt lat="48.51661" lon="2.6762">
        <ele>53.3</ele>
        <time>2013-04-14T18:27:39Z</time>
      </trkpt>
      <trkpt lat="48.51661" lon="2.6762">
        <ele>53.3</ele>
        <time>2013-04-14T18:27:43Z</time>
      </trkpt>
      <trkpt lat="48.51661" lon="2.6762">
        <ele>53.3</ele>
        <time>2013-04-14T18:27:47Z</time>
      </trkpt>
      <trkpt lat="48.51682" lon="2.67592">
        <ele>52.8</ele>
        <time>2013-04-14T18:27:53Z</time>
      </trkpt>
      <trkpt lat="48.51682" lon="2.67592">
        <ele>52.8</ele>
        <time>2013-04-14T18:27:58Z</time>
      </trkpt>
      <trkpt lat="48.51682" lon="2.67592">
        <ele>52.8</ele>
        <time>2013-04-14T18:28:02Z</time>
      </trkpt>
      <trkpt lat="48.51682" lon="2.67592">
        <ele>52.8</ele>
        <time>2013-04-14T18:28:06Z</time>
      </trkpt>
      <trkpt lat="48.517" lon="2.67572">
        <ele>52.2</ele>
        <time>2013-04-14T18:28:11Z</time>
      </trkpt>
      <trkpt lat="48.517" lon="2.67572">
        <ele>52.2</ele>
        <time>2013-04-14T18:28:20Z</time>
      </trkpt>
      <trkpt lat="48.51711" lon="2.67562">
        <ele>51.9</ele>
        <time>2013-04-14T18:28:23Z</time>
      </trkpt>
      <trkpt lat="48.51716" lon="2.67562">
        <ele>51.6</ele>
        <time>2013-04-14T18:28:32Z</time>
      </trkpt>
      <trkpt lat="48.51722" lon="2.67568">
        <ele>51.5</ele>
        <time>2013-04-14T18:28:39Z</time>
      </trkpt>
      <trkpt lat="48.51722" lon="2.67568">
        <ele>51.5</ele>
        <time>2013-04-14T18:28:43Z</time>
      </trkpt>
      <trkpt lat="48.5173" lon="2.67577">
        <ele>51.5</ele>
        <time>2013-04-14T18:28:46Z</time>
      </trkpt>
      <trkpt lat="48.51742" lon="2.67585">
        <ele>51.5</ele>
        <time>2013-04-14T18:28:58Z</time>
      </trkpt>
      <trkpt lat="48.51748" lon="2.67585">
        <ele>51.3</ele>
        <time>2013-04-14T18:29:04Z</time>
      </trkpt>
      <trkpt lat="48.51758" lon="2.67585">
        <ele>51</ele>
        <time>2013-04-14T18:29:12Z</time>
      </trkpt>
      <trkpt lat="48.51771" lon="2.67585">
        <ele>50.6</ele>
        <time>2013-04-14T18:29:18Z</time>
      </trkpt>
      <trkpt lat="48.51777" lon="2.67585">
        <ele>50.4</ele>
        <time>2013-04-14T18:29:24Z</time>
      </trkpt>
      <trkpt lat="48.51791" lon="2.6759">
        <ele>52.4</ele>
        <time>2013-04-14T18:29:37Z</time>
      </trkpt>
      <trkpt lat="48.51793" lon="2.6759">
        <ele>52.5</ele>
        <time>2013-04-14T18:29:43Z</time>
      </trkpt>
      <trkpt lat="48.51804" lon="2.67587">
        <ele>52.7</ele>
        <time>2013-04-14T18:29:46Z</time>
      </trkpt>
      <trkpt lat="48.51813" lon="2.67585">
        <ele>52.8</ele>
        <time>2013-04-14T18:29:56Z</time>
      </trkpt>
      <trkpt lat="48.51821" lon="2.67583">
        <ele>53</ele>
        <time>2013-04-14T18:29:58Z</time>
      </trkpt>
      <trkpt lat="48.51826" lon="2.67583">
        <ele>53.4</ele>
        <time>2013-04-14T18:30:05Z</time>
      </trkpt>
      <trkpt lat="48.51826" lon="2.67583">
        <ele>53.4</ele>
        <time>2013-04-14T18:30:10Z</time>
      </trkpt>
      <trkpt lat="48.51838" lon="2.67579">
        <ele>52.7</ele>
        <time>2013-04-14T18:30:15Z</time>
      </trkpt>
      <trkpt lat="48.51841" lon="2.67579">
        <ele>52.9</ele>
        <time>2013-04-14T18:30:17Z</time>
      </trkpt>
      <trkpt lat="48.51855" lon="2.67575">
        <ele>52.7</ele>
        <time>2013-04-14T18:30:22Z</time>
      </trkpt>
      <trkpt lat="48.51872" lon="2.67566">
        <ele>52.1</ele>
        <time>2013-04-14T18:30:31Z</time>
      </trkpt>
      <trkpt lat="48.51874" lon="2.67564">
        <ele>51.9</ele>
        <time>2013-04-14T18:30:35Z</time>
      </trkpt>
      <trkpt lat="48.51882" lon="2.6756">
        <ele>52</ele>
        <time>2013-04-14T18:30:40Z</time>
      </trkpt>
      <trkpt lat="48.5189" lon="2.67557">
        <ele>52.2</ele>
        <time>2013-04-14T18:30:52Z</time>
      </trkpt>
      <trkpt lat="48.51897" lon="2.67555">
        <ele>52.2</ele>
        <time>2013-04-14T18:30:55Z</time>
      </trkpt>
      <trkpt lat="48.51913" lon="2.67549">
        <ele>52.2</ele>
        <time>2013-04-14T18:31:06Z</time>
      </trkpt>
      <trkpt lat="48.51916" lon="2.67547">
        <ele>52.3</ele>
        <time>2013-04-14T18:31:12Z</time>
      </trkpt>
      <trkpt lat="48.51928" lon="2.67538">
        <ele>51.7</ele>
        <time>2013-04-14T18:31:16Z</time>
      </trkpt>
      <trkpt lat="48.51934" lon="2.67529">
        <ele>51.1</ele>
        <time>2013-04-14T18:31:25Z</time>
      </trkpt>
      <trkpt lat="48.51942" lon="2.67525">
        <ele>50.9</ele>
        <time>2013-04-14T18:31:36Z</time>
      </trkpt>
      <trkpt lat="48.51942" lon="2.67525">
        <ele>50.9</ele>
        <time>2013-04-14T18:31:40Z</time>
      </trkpt>
      <trkpt lat="48.51942" lon="2.67525">
        <ele>50.9</ele>
        <time>2013-04-14T18:31:44Z</time>
      </trkpt>
      <trkpt lat="48.51942" lon="2.67525">
        <ele>50.9</ele>
        <time>2013-04-14T18:31:49Z</time>
      </trkpt>
      <trkpt lat="48.51953" lon="2.67529">
        <ele>51.1</ele>
        <time>2013-04-14T18:31:55Z</time>
      </trkpt>
      <trkpt lat="48.51954" lon="2.6754">
        <ele>51.7</ele>
        <time>2013-04-14T18:32:00Z</time>
      </trkpt>
      <trkpt lat="48.51956" lon="2.67553">
        <ele>52.4</ele>
        <time>2013-04-14T18:32:10Z</time>
      </trkpt>
      <trkpt lat="48.51956" lon="2.67553">
        <ele>52.4</ele>
        <time>2013-04-14T18:32:12Z</time>
      </trkpt>
      <trkpt lat="48.51956" lon="2.67553">
        <ele>52.4</ele>
        <time>2013-04-14T18:32:14Z</time>
      </trkpt>
      <trkpt lat="48.51956" lon="2.67553">
        <ele>52.4</ele>
        <time>2013-04-14T18:32:23Z</time>
      </trkpt>
      <trkpt lat="48.51948" lon="2.67602">
        <ele>57.3</ele>
        <time>2013-04-14T18:32:29Z</time>
      </trkpt>
      <trkpt lat="48.51948" lon="2.67602">
        <ele>57.3</ele>
        <time>2013-04-14T18:32:36Z</time>
      </trkpt>
      <trkpt lat="48.51948" lon="2.67602">
        <ele>57.3</ele>
        <time>2013-04-14T18:32:38Z</time>
      </trkpt>
      <trkpt lat="48.51947" lon="2.67605">
        <ele>57.6</ele>
        <time>2013-04-14T18:32:40Z</time>
      </trkpt>
      <trkpt lat="48.51944" lon="2.67626">
        <ele>59.1</ele>
        <time>2013-04-14T18:32:44Z</time>
      </trkpt>
      <trkpt lat="48.51936" lon="2.67654">
        <ele>60.5</ele>
        <time>2013-04-14T18:32:57Z</time>
      </trkpt>
      <trkpt lat="48.51935" lon="2.67656">
        <ele>60.6</ele>
        <time>2013-04-14T18:33:01Z</time>
      </trkpt>
      <trkpt lat="48.51933" lon="2.67669">
        <ele>61.1</ele>
        <time>2013-04-14T18:33:04Z</time>
      </trkpt>
      <trkpt lat="48.51932" lon="2.67682">
        <ele>61.8</ele>
        <time>2013-04-14T18:33:08Z</time>
      </trkpt>
      <trkpt lat="48.51932" lon="2.67682">
        <ele>61.8</ele>
        <time>2013-04-14T18:33:14Z</time>
      </trkpt>
      <trkpt lat="48.51931" lon="2.67701">
        <ele>62.8</ele>
        <time>2013-04-14T18:33:17Z</time>
      </trkpt>
      <trkpt lat="48.51942" lon="2.67712">
        <ele>63.3</ele>
        <time>2013-04-14T18:33:27Z</time>
      </trkpt>
      <trkpt lat="48.51949" lon="2.67712">
        <ele>63.2</ele>
        <time>2013-04-14T18:33:33Z</time>
      </trkpt>
      <trkpt lat="48.51957" lon="2.67708">
        <ele>63</ele>
        <time>2013-04-14T18:33:37Z</time>
      </trkpt>
      <trkpt lat="48.51968" lon="2.67705">
        <ele>63</ele>
        <time>2013-04-14T18:33:47Z</time>
      </trkpt>
      <trkpt lat="48.51978" lon="2.67703">
        <ele>62.9</ele>
        <time>2013-04-14T18:33:52Z</time>
      </trkpt>
      <trkpt lat="48.5199" lon="2.67701">
        <ele>62.5</ele>
        <time>2013-04-14T18:34:02Z</time>
      </trkpt>
      <trkpt lat="48.51997" lon="2.67701">
        <ele>62.3</ele>
        <time>2013-04-14T18:34:05Z</time>
      </trkpt>
      <trkpt lat="48.52009" lon="2.67708">
        <ele>62.2</ele>
        <time>2013-04-14T18:34:13Z</time>
      </trkpt>
      <trkpt lat="48.5201" lon="2.6771">
        <ele>62.2</ele>
        <time>2013-04-14T18:34:17Z</time>
      </trkpt>
      <trkpt lat="48.52017" lon="2.67712">
        <ele>62</ele>
        <time>2013-04-14T18:34:21Z</time>
      </trkpt>
      <trkpt lat="48.52017" lon="2.67712">
        <ele>62</ele>
        <time>2013-04-14T18:34:28Z</time>
      </trkpt>
      <trkpt lat="48.5203" lon="2.67718">
        <ele>61.8</ele>
        <time>2013-04-14T18:34:32Z</time>
      </trkpt>
      <trkpt lat="48.52041" lon="2.67723">
        <ele>62</ele>
        <time>2013-04-14T18:34:41Z</time>
      </trkpt>
      <trkpt lat="48.52041" lon="2.67723">
        <ele>62</ele>
        <time>2013-04-14T18:34:45Z</time>
      </trkpt>
      <trkpt lat="48.52041" lon="2.67723">
        <ele>62</ele>
        <time>2013-04-14T18:34:49Z</time>
      </trkpt>
      <trkpt lat="48.52053" lon="2.67727">
        <ele>62.2</ele>
        <time>2013-04-14T18:34:52Z</time>
      </trkpt>
      <trkpt lat="48.52059" lon="2.67731">
        <ele>62.2</ele>
        <time>2013-04-14T18:35:00Z</time>
      </trkpt>
      <trkpt lat="48.52059" lon="2.67731">
        <ele>62.2</ele>
        <time>2013-04-14T18:35:08Z</time>
      </trkpt>
      <trkpt lat="48.52059" lon="2.67731">
        <ele>62.2</ele>
        <time>2013-04-14T18:35:14Z</time>
      </trkpt>
      <trkpt lat="48.52087" lon="2.6775">
        <ele>61.9</ele>
        <time>2013-04-14T18:35:19Z</time>
      </trkpt>
      <trkpt lat="48.52091" lon="2.67757">
        <ele>61.8</ele>
        <time>2013-04-14T18:35:26Z</time>
      </trkpt>
      <trkpt lat="48.52091" lon="2.67757">
        <ele>61.8</ele>
        <time>2013-04-14T18:35:33Z</time>
      </trkpt>
      <trkpt lat="48.52105" lon="2.67763">
        <ele>61.6</ele>
        <time>2013-04-14T18:35:39Z</time>
      </trkpt>
      <trkpt lat="48.52112" lon="2.67768">
        <ele>61.6</ele>
        <time>2013-04-14T18:35:46Z</time>
      </trkpt>
      <trkpt lat="48.52122" lon="2.67774">
        <ele>61.5</ele>
        <time>2013-04-14T18:35:51Z</time>
      </trkpt>
      <trkpt lat="48.52138" lon="2.67783">
        <ele>61.2</ele>
        <time>2013-04-14T18:36:04Z</time>
      </trkpt>
      <trkpt lat="48.52138" lon="2.67783">
        <ele>61.2</ele>
        <time>2013-04-14T18:36:08Z</time>
      </trkpt>
      <trkpt lat="48.52138" lon="2.67783">
        <ele>61.2</ele>
        <time>2013-04-14T18:36:13Z</time>
      </trkpt>
      <trkpt lat="48.5216" lon="2.67787">
        <ele>60.6</ele>
        <time>2013-04-14T18:36:18Z</time>
      </trkpt>
      <trkpt lat="48.5216" lon="2.67787">
        <ele>60.6</ele>
        <time>2013-04-14T18:36:27Z</time>
      </trkpt>
      <trkpt lat="48.5216" lon="2.67787">
        <ele>60.6</ele>
        <time>2013-04-14T18:36:32Z</time>
      </trkpt>
      <trkpt lat="48.52185" lon="2.67804">
        <ele>60.2</ele>
        <time>2013-04-14T18:36:38Z</time>
      </trkpt>
      <trkpt lat="48.52204" lon="2.67815">
        <ele>59.8</ele>
        <time>2013-04-14T18:36:46Z</time>
      </trkpt>
      <trkpt lat="48.52204" lon="2.67815">
        <ele>59.8</ele>
        <time>2013-04-14T18:36:51Z</time>
      </trkpt>
      <trkpt lat="48.52204" lon="2.67815">
        <ele>59.8</ele>
        <time>2013-04-14T18:36:55Z</time>
      </trkpt>
      <trkpt lat="48.52216" lon="2.67819">
        <ele>59.3</ele>
        <time>2013-04-14T18:36:59Z</time>
      </trkpt>
      <trkpt lat="48.52229" lon="2.67813">
        <ele>58</ele>
        <time>2013-04-14T18:37:10Z</time>
      </trkpt>
      <trkpt lat="48.5223" lon="2.67811">
        <ele>57.8</ele>
        <time>2013-04-14T18:37:15Z</time>
      </trkpt>
      <trkpt lat="48.5223" lon="2.67811">
        <ele>57.8</ele>
        <time>2013-04-14T18:37:19Z</time>
      </trkpt>
      <trkpt lat="48.52239" lon="2.67798">
        <ele>56.4</ele>
        <time>2013-04-14T18:37:22Z</time>
      </trkpt>
      <trkpt lat="48.52246" lon="2.67791">
        <ele>55.7</ele>
        <time>2013-04-14T18:37:32Z</time>
      </trkpt>
      <trkpt lat="48.52254" lon="2.67783">
        <ele>54.9</ele>
        <time>2013-04-14T18:37:37Z</time>
      </trkpt>
      <trkpt lat="48.52257" lon="2.67778">
        <ele>54.5</ele>
        <time>2013-04-14T18:37:43Z</time>
      </trkpt>
      <trkpt lat="48.52269" lon="2.67765">
        <ele>52.4</ele>
        <time>2013-04-14T18:37:48Z</time>
      </trkpt>
      <trkpt lat="48.52281" lon="2.67759">
        <ele>50.7</ele>
        <time>2013-04-14T18:37:59Z</time>
      </trkpt>
      <trkpt lat="48.52293" lon="2.67757">
        <ele>49.7</ele>
        <time>2013-04-14T18:38:09Z</time>
      </trkpt>
      <trkpt lat="48.52303" lon="2.67753">
        <ele>48.5</ele>
        <time>2013-04-14T18:38:24Z</time>
      </trkpt>
      <trkpt lat="48.52316" lon="2.67744">
        <ele>48.2</ele>
        <time>2013-04-14T18:38:29Z</time>
      </trkpt>
      <trkpt lat="48.52322" lon="2.67742">
        <ele>48.3</ele>
        <time>2013-04-14T18:38:36Z</time>
      </trkpt>
      <trkpt lat="48.52327" lon="2.67738">
        <ele>48.7</ele>
        <time>2013-04-14T18:38:48Z</time>
      </trkpt>
      <trkpt lat="48.52327" lon="2.67738">
        <ele>48.7</ele>
        <time>2013-04-14T18:38:52Z</time>
      </trkpt>
      <trkpt lat="48.52348" lon="2.67723">
        <ele>51</ele>
        <time>2013-04-14T18:38:56Z</time>
      </trkpt>
      <trkpt lat="48.52359" lon="2.67712">
        <ele>52.2</ele>
        <time>2013-04-14T18:39:05Z</time>
      </trkpt>
      <trkpt lat="48.52359" lon="2.67712">
        <ele>52.2</ele>
        <time>2013-04-14T18:39:09Z</time>
      </trkpt>
      <trkpt lat="48.52368" lon="2.67708">
        <ele>52.9</ele>
        <time>2013-04-14T18:39:14Z</time>
      </trkpt>
      <trkpt lat="48.52372" lon="2.67705">
        <ele>53.3</ele>
        <time>2013-04-14T18:39:16Z</time>
      </trkpt>
      <trkpt lat="48.52385" lon="2.67697">
        <ele>54.5</ele>
        <time>2013-04-14T18:39:30Z</time>
      </trkpt>
      <trkpt lat="48.52393" lon="2.67688">
        <ele>55.8</ele>
        <time>2013-04-14T18:39:34Z</time>
      </trkpt>
      <trkpt lat="48.52402" lon="2.67682">
        <ele>56.9</ele>
        <time>2013-04-14T18:39:43Z</time>
      </trkpt>
      <trkpt lat="48.52411" lon="2.67673">
        <ele>57.7</ele>
        <time>2013-04-14T18:39:49Z</time>
      </trkpt>
      <trkpt lat="48.52416" lon="2.67663">
        <ele>58.1</ele>
        <time>2013-04-14T18:39:51Z</time>
      </trkpt>
      <trkpt lat="48.52431" lon="2.6763">
        <ele>60.4</ele>
        <time>2013-04-14T18:40:05Z</time>
      </trkpt>
      <trkpt lat="48.52431" lon="2.6763">
        <ele>60.4</ele>
        <time>2013-04-14T18:40:11Z</time>
      </trkpt>
      <trkpt lat="48.52434" lon="2.67611">
        <ele>61.2</ele>
        <time>2013-04-14T18:40:15Z</time>
      </trkpt>
      <trkpt lat="48.52431" lon="2.67598">
        <ele>61.3</ele>
        <time>2013-04-14T18:40:22Z</time>
      </trkpt>
      <trkpt lat="48.52422" lon="2.67587">
        <ele>61.1</ele>
        <time>2013-04-14T18:40:26Z</time>
      </trkpt>
      <trkpt lat="48.52409" lon="2.67562">
        <ele>60.7</ele>
        <time>2013-04-14T18:40:39Z</time>
      </trkpt>
      <trkpt lat="48.52405" lon="2.67547">
        <ele>60.6</ele>
        <time>2013-04-14T18:40:46Z</time>
      </trkpt>
      <trkpt lat="48.52402" lon="2.67523">
        <ele>60.4</ele>
        <time>2013-04-14T18:41:01Z</time>
      </trkpt>
      <trkpt lat="48.52403" lon="2.67519">
        <ele>60.4</ele>
        <time>2013-04-14T18:41:09Z</time>
      </trkpt>
      <trkpt lat="48.52403" lon="2.67499">
        <ele>60</ele>
        <time>2013-04-14T18:41:13Z</time>
      </trkpt>
      <trkpt lat="48.52402" lon="2.67474">
        <ele>59</ele>
        <time>2013-04-14T18:41:23Z</time>
      </trkpt>
      <trkpt lat="48.52404" lon="2.67459">
        <ele>58.4</ele>
        <time>2013-04-14T18:41:33Z</time>
      </trkpt>
      <trkpt lat="48.52411" lon="2.67454">
        <ele>58.4</ele>
        <time>2013-04-14T18:41:43Z</time>
      </trkpt>
      <trkpt lat="48.52419" lon="2.67446">
        <ele>58.2</ele>
        <time>2013-04-14T18:41:54Z</time>
      </trkpt>
      <trkpt lat="48.52419" lon="2.67446">
        <ele>58.2</ele>
        <time>2013-04-14T18:41:58Z</time>
      </trkpt>
      <trkpt lat="48.52422" lon="2.67444">
        <ele>58.1</ele>
        <time>2013-04-14T18:42:04Z</time>
      </trkpt>
      <trkpt lat="48.52422" lon="2.67444">
        <ele>58.1</ele>
        <time>2013-04-14T18:42:12Z</time>
      </trkpt>
      <trkpt lat="48.52422" lon="2.67444">
        <ele>58.1</ele>
        <time>2013-04-14T18:42:18Z</time>
      </trkpt>
      <trkpt lat="48.52422" lon="2.67444">
        <ele>58.1</ele>
        <time>2013-04-14T18:42:28Z</time>
      </trkpt>
      <trkpt lat="48.52428" lon="2.67446">
        <ele>58.5</ele>
        <time>2013-04-14T18:42:32Z</time>
      </trkpt>
      <trkpt lat="48.52431" lon="2.67448">
        <ele>58.8</ele>
        <time>2013-04-14T18:42:42Z</time>
      </trkpt>
      <trkpt lat="48.52431" lon="2.67448">
        <ele>58.8</ele>
        <time>2013-04-14T18:42:46Z</time>
      </trkpt>
      <trkpt lat="48.52431" lon="2.67448">
        <ele>58.8</ele>
        <time>2013-04-14T18:42:51Z</time>
      </trkpt>
      <trkpt lat="48.52431" lon="2.67448">
        <ele>58.8</ele>
        <time>2013-04-14T18:43:26Z</time>
      </trkpt>
      <trkpt lat="48.52432" lon="2.67448">
        <ele>58.8</ele>
        <time>2013-04-14T18:43:30Z</time>
      </trkpt>
      <trkpt lat="48.52448" lon="2.67446">
        <ele>59.4</ele>
        <time>2013-04-14T18:43:43Z</time>
      </trkpt>
      <trkpt lat="48.52446" lon="2.67448">
        <ele>59.4</ele>
        <time>2013-04-14T18:43:50Z</time>
      </trkpt>
      <trkpt lat="48.52446" lon="2.67448">
        <ele>59.4</ele>
        <time>2013-04-14T18:43:54Z</time>
      </trkpt>
      <trkpt lat="48.52446" lon="2.67448">
        <ele>59.4</ele>
        <time>2013-04-14T18:43:59Z</time>
      </trkpt>
      <trkpt lat="48.52446" lon="2.67448">
        <ele>59.4</ele>
        <time>2013-04-14T18:44:03Z</time>
      </trkpt>
      <trkpt lat="48.52441" lon="2.67444">
        <ele>58.8</ele>
        <time>2013-04-14T18:44:08Z</time>
      </trkpt>
      <trkpt lat="48.52437" lon="2.67441">
        <ele>58.4</ele>
        <time>2013-04-14T18:44:17Z</time>
      </trkpt>
      <trkpt lat="48.52437" lon="2.67441">
        <ele>58.4</ele>
        <time>2013-04-14T18:44:36Z</time>
      </trkpt>
      <trkpt lat="48.52434" lon="2.67441">
        <ele>58.3</ele>
        <time>2013-04-14T18:44:40Z</time>
      </trkpt>
      <trkpt lat="48.52434" lon="2.67441">
        <ele>58.3</ele>
        <time>2013-04-14T18:44:50Z</time>
      </trkpt>
      <trkpt lat="48.5243" lon="2.6742">
        <ele>55.8</ele>
        <time>2013-04-14T18:44:57Z</time>
      </trkpt>
      <trkpt lat="48.5243" lon="2.6742">
        <ele>55.8</ele>
        <time>2013-04-14T18:45:01Z</time>
      </trkpt>
      <trkpt lat="48.5243" lon="2.6742">
        <ele>55.8</ele>
        <time>2013-04-14T18:45:05Z</time>
      </trkpt>
      <trkpt lat="48.5243" lon="2.6742">
        <ele>55.8</ele>
        <time>2013-04-14T18:45:08Z</time>
      </trkpt>
      <trkpt lat="48.52431" lon="2.67416">
        <ele>55.5</ele>
        <time>2013-04-14T18:45:10Z</time>
      </trkpt>
      <trkpt lat="48.52432" lon="2.67414">
        <ele>55.4</ele>
        <time>2013-04-14T18:45:13Z</time>
      </trkpt>
      <trkpt lat="48.52432" lon="2.67414">
        <ele>55.4</ele>
        <time>2013-04-14T18:45:19Z</time>
      </trkpt>
      <trkpt lat="48.52432" lon="2.67414">
        <ele>55.4</ele>
        <time>2013-04-14T18:45:24Z</time>
      </trkpt>
      <trkpt lat="48.52432" lon="2.67414">
        <ele>55.4</ele>
        <time>2013-04-14T18:45:30Z</time>
      </trkpt>
      <trkpt lat="48.52431" lon="2.67405">
        <ele>54.7</ele>
        <time>2013-04-14T18:45:34Z</time>
      </trkpt>
      <trkpt lat="48.52431" lon="2.67405">
        <ele>54.7</ele>
        <time>2013-04-14T18:45:45Z</time>
      </trkpt>
      <trkpt lat="48.52429" lon="2.67399">
        <ele>54.2</ele>
        <time>2013-04-14T18:45:47Z</time>
      </trkpt>
      <trkpt lat="48.52429" lon="2.67399">
        <ele>54.2</ele>
        <time>2013-04-14T18:45:51Z</time>
      </trkpt>
      <trkpt lat="48.52429" lon="2.67399">
        <ele>54.2</ele>
        <time>2013-04-14T18:45:55Z</time>
      </trkpt>
      <trkpt lat="48.52429" lon="2.67399">
        <ele>54.2</ele>
        <time>2013-04-14T18:46:14Z</time>
      </trkpt>
      <trkpt lat="48.52426" lon="2.67371">
        <ele>51.6</ele>
        <time>2013-04-14T18:46:19Z</time>
      </trkpt>
      <trkpt lat="48.52425" lon="2.67366">
        <ele>51.1</ele>
        <time>2013-04-14T18:46:26Z</time>
      </trkpt>
      <trkpt lat="48.52425" lon="2.67366">
        <ele>51.1</ele>
        <time>2013-04-14T18:46:33Z</time>
      </trkpt>
      <trkpt lat="48.52425" lon="2.67366">
        <ele>51.1</ele>
        <time>2013-04-14T18:46:35Z</time>
      </trkpt>
      <trkpt lat="48.52425" lon="2.67366">
        <ele>51.1</ele>
        <time>2013-04-14T18:46:44Z</time>
      </trkpt>
      <trkpt lat="48.52424" lon="2.6736">
        <ele>50.3</ele>
        <time>2013-04-14T18:46:46Z</time>
      </trkpt>
      <trkpt lat="48.52424" lon="2.6736">
        <ele>50.3</ele>
        <time>2013-04-14T18:46:56Z</time>
      </trkpt>
      <trkpt lat="48.52424" lon="2.6736">
        <ele>50.3</ele>
        <time>2013-04-14T18:47:02Z</time>
      </trkpt>
      <trkpt lat="48.52424" lon="2.6736">
        <ele>50.3</ele>
        <time>2013-04-14T18:47:26Z</time>
      </trkpt>
      <trkpt lat="48.52429" lon="2.67358">
        <ele>50.3</ele>
        <time>2013-04-14T18:47:30Z</time>
      </trkpt>
      <trkpt lat="48.52429" lon="2.67358">
        <ele>50.3</ele>
        <time>2013-04-14T18:47:39Z</time>
      </trkpt>
      <trkpt lat="48.52429" lon="2.67358">
        <ele>50.3</ele>
        <time>2013-04-14T18:47:44Z</time>
      </trkpt>
      <trkpt lat="48.52429" lon="2.67358">
        <ele>50.3</ele>
        <time>2013-04-14T18:48:19Z</time>
      </trkpt>
      <trkpt lat="48.52442" lon="2.67356">
        <ele>50.9</ele>
        <time>2013-04-14T18:48:23Z</time>
      </trkpt>
      <trkpt lat="48.52448" lon="2.67354">
        <ele>50.8</ele>
        <time>2013-04-14T18:48:31Z</time>
      </trkpt>
      <trkpt lat="48.52448" lon="2.67354">
        <ele>50.8</ele>
        <time>2013-04-14T18:48:35Z</time>
      </trkpt>
      <trkpt lat="48.52448" lon="2.67354">
        <ele>50.8</ele>
        <time>2013-04-14T18:48:40Z</time>
      </trkpt>
      <trkpt lat="48.52448" lon="2.67354">
        <ele>50.8</ele>
        <time>2013-04-14T18:48:44Z</time>
      </trkpt>
      <trkpt lat="48.52451" lon="2.67349">
        <ele>50.1</ele>
        <time>2013-04-14T18:48:49Z</time>
      </trkpt>
      <trkpt lat="48.52456" lon="2.67347">
        <ele>49.9</ele>
        <time>2013-04-14T18:48:55Z</time>
      </trkpt>
      <trkpt lat="48.52465" lon="2.67345">
        <ele>49.8</ele>
        <time>2013-04-14T18:49:14Z</time>
      </trkpt>
      <trkpt lat="48.52465" lon="2.67345">
        <ele>49.8</ele>
        <time>2013-04-14T18:49:18Z</time>
      </trkpt>
      <trkpt lat="48.52465" lon="2.67345">
        <ele>49.8</ele>
        <time>2013-04-14T18:49:23Z</time>
      </trkpt>
      <trkpt lat="48.52465" lon="2.67345">
        <ele>49.8</ele>
        <time>2013-04-14T18:50:15Z</time>
      </trkpt>
      <trkpt lat="48.52489" lon="2.67343">
        <ele>51.1</ele>
        <time>2013-04-14T18:50:21Z</time>
      </trkpt>
      <trkpt lat="48.52489" lon="2.67343">
        <ele>51.1</ele>
        <time>2013-04-14T18:50:25Z</time>
      </trkpt>
      <trkpt lat="48.52484" lon="2.67343">
        <ele>50.7</ele>
        <time>2013-04-14T18:50:31Z</time>
      </trkpt>
      <trkpt lat="48.52484" lon="2.67343">
        <ele>50.7</ele>
        <time>2013-04-14T18:50:43Z</time>
      </trkpt>
      <trkpt lat="48.52481" lon="2.67345">
        <ele>50.8</ele>
        <time>2013-04-14T18:50:47Z</time>
      </trkpt>
      <trkpt lat="48.52481" lon="2.67345">
        <ele>50.8</ele>
        <time>2013-04-14T18:50:52Z</time>
      </trkpt>
      <trkpt lat="48.52486" lon="2.67343">
        <ele>50.9</ele>
        <time>2013-04-14T18:50:56Z</time>
      </trkpt>
      <trkpt lat="48.5249" lon="2.67341">
        <ele>50.9</ele>
        <time>2013-04-14T18:51:09Z</time>
      </trkpt>
      <trkpt lat="48.52493" lon="2.67341">
        <ele>51.2</ele>
        <time>2013-04-14T18:51:13Z</time>
      </trkpt>
      <trkpt lat="48.52498" lon="2.67338">
        <ele>51.3</ele>
        <time>2013-04-14T18:51:23Z</time>
      </trkpt>
      <trkpt lat="48.52498" lon="2.67338">
        <ele>51.3</ele>
        <time>2013-04-14T18:51:27Z</time>
      </trkpt>
      <trkpt lat="48.525" lon="2.67336">
        <ele>51.3</ele>
        <time>2013-04-14T18:51:32Z</time>
      </trkpt>
      <trkpt lat="48.52502" lon="2.67334">
        <ele>51.2</ele>
        <time>2013-04-14T18:51:36Z</time>
      </trkpt>
      <trkpt lat="48.52502" lon="2.67334">
        <ele>51.2</ele>
        <time>2013-04-14T18:51:45Z</time>
      </trkpt>
      <trkpt lat="48.52502" lon="2.67334">
        <ele>51.2</ele>
        <time>2013-04-14T18:51:50Z</time>
      </trkpt>
      <trkpt lat="48.52505" lon="2.67328">
        <ele>50.4</ele>
        <time>2013-04-14T18:51:52Z</time>
      </trkpt>
      <trkpt lat="48.5251" lon="2.67326">
        <ele>50.4</ele>
        <time>2013-04-14T18:52:04Z</time>
      </trkpt>
      <trkpt lat="48.5251" lon="2.67326">
        <ele>50.4</ele>
        <time>2013-04-14T18:52:10Z</time>
      </trkpt>
      <trkpt lat="48.52514" lon="2.67326">
        <ele>50.7</ele>
        <time>2013-04-14T18:52:14Z</time>
      </trkpt>
      <trkpt lat="48.52514" lon="2.67326">
        <ele>50.7</ele>
        <time>2013-04-14T18:52:25Z</time>
      </trkpt>
      <trkpt lat="48.52514" lon="2.67326">
        <ele>50.7</ele>
        <time>2013-04-14T18:52:31Z</time>
      </trkpt>
      <trkpt lat="48.52527" lon="2.67319">
        <ele>50.4</ele>
        <time>2013-04-14T18:52:34Z</time>
      </trkpt>
      <trkpt lat="48.52529" lon="2.67326">
        <ele>51.8</ele>
        <time>2013-04-14T18:52:42Z</time>
      </trkpt>
      <trkpt lat="48.52529" lon="2.67326">
        <ele>51.8</ele>
        <time>2013-04-14T18:52:45Z</time>
      </trkpt>
      <trkpt lat="48.52529" lon="2.67326">
        <ele>51.8</ele>
        <time>2013-04-14T18:52:48Z</time>
      </trkpt>
      <trkpt lat="48.52529" lon="2.6733">
        <ele>52.5</ele>
        <time>2013-04-14T18:52:50Z</time>
      </trkpt>
      <trkpt lat="48.52531" lon="2.6733">
        <ele>52.6</ele>
        <time>2013-04-14T18:52:54Z</time>
      </trkpt>
      <trkpt lat="48.52531" lon="2.6733">
        <ele>52.6</ele>
        <time>2013-04-14T18:53:07Z</time>
      </trkpt>
      <trkpt lat="48.52531" lon="2.6733">
        <ele>52.6</ele>
        <time>2013-04-14T18:53:12Z</time>
      </trkpt>
      <trkpt lat="48.52531" lon="2.6733">
        <ele>52.6</ele>
        <time>2013-04-14T18:53:43Z</time>
      </trkpt>
      <trkpt lat="48.52561" lon="2.67321">
        <ele>52.7</ele>
        <time>2013-04-14T18:53:49Z</time>
      </trkpt>
      <trkpt lat="48.52561" lon="2.67321">
        <ele>52.7</ele>
        <time>2013-04-14T18:53:54Z</time>
      </trkpt>
      <trkpt lat="48.52561" lon="2.67321">
        <ele>52.7</ele>
        <time>2013-04-14T18:53:59Z</time>
      </trkpt>
      <trkpt lat="48.52561" lon="2.67321">
        <ele>52.7</ele>
        <time>2013-04-14T18:54:08Z</time>
      </trkpt>
      <trkpt lat="48.52572" lon="2.67317">
        <ele>52.8</ele>
        <time>2013-04-14T18:54:12Z</time>
      </trkpt>
      <trkpt lat="48.52572" lon="2.67317">
        <ele>52.8</ele>
        <time>2013-04-14T18:54:21Z</time>
      </trkpt>
      <trkpt lat="48.52572" lon="2.67317">
        <ele>52.8</ele>
        <time>2013-04-14T18:54:26Z</time>
      </trkpt>
      <trkpt lat="48.52572" lon="2.67317">
        <ele>52.8</ele>
        <time>2013-04-14T18:54:49Z</time>
      </trkpt>
      <trkpt lat="48.52575" lon="2.67313">
        <ele>52.3</ele>
        <time>2013-04-14T18:54:51Z</time>
      </trkpt>
      <trkpt lat="48.52577" lon="2.67311">
        <ele>52.2</ele>
        <time>2013-04-14T18:55:00Z</time>
      </trkpt>
      <trkpt lat="48.52579" lon="2.67311">
        <ele>52.4</ele>
        <time>2013-04-14T18:55:04Z</time>
      </trkpt>
      <trkpt lat="48.52579" lon="2.67311">
        <ele>52.4</ele>
        <time>2013-04-14T18:55:11Z</time>
      </trkpt>
      <trkpt lat="48.52576" lon="2.67304">
        <ele>50.9</ele>
        <time>2013-04-14T18:55:15Z</time>
      </trkpt>
      <trkpt lat="48.52573" lon="2.67287">
        <ele>47.4</ele>
        <time>2013-04-14T18:55:20Z</time>
      </trkpt>
      <trkpt lat="48.52572" lon="2.67255">
        <ele>44</ele>
        <time>2013-04-14T18:55:28Z</time>
      </trkpt>
      <trkpt lat="48.52572" lon="2.67255">
        <ele>44</ele>
        <time>2013-04-14T18:55:32Z</time>
      </trkpt>
      <trkpt lat="48.52572" lon="2.67255">
        <ele>44</ele>
        <time>2013-04-14T18:55:36Z</time>
      </trkpt>
      <trkpt lat="48.52576" lon="2.67214">
        <ele>41.5</ele>
        <time>2013-04-14T18:55:41Z</time>
      </trkpt>
      <trkpt lat="48.52576" lon="2.67214">
        <ele>41.5</ele>
        <time>2013-04-14T18:55:50Z</time>
      </trkpt>
      <trkpt lat="48.52575" lon="2.67188">
        <ele>41</ele>
        <time>2013-04-14T18:55:55Z</time>
      </trkpt>
      <trkpt lat="48.52572" lon="2.67178">
        <ele>41</ele>
        <time>2013-04-14T18:56:02Z</time>
      </trkpt>
      <trkpt lat="48.52572" lon="2.67175">
        <ele>41</ele>
        <time>2013-04-14T18:56:06Z</time>
      </trkpt>
      <trkpt lat="48.52572" lon="2.67175">
        <ele>41</ele>
        <time>2013-04-14T18:56:11Z</time>
      </trkpt>
      <trkpt lat="48.52569" lon="2.67167">
        <ele>41</ele>
        <time>2013-04-14T18:56:13Z</time>
      </trkpt>
      <trkpt lat="48.52574" lon="2.6716">
        <ele>41</ele>
        <time>2013-04-14T18:56:22Z</time>
      </trkpt>
      <trkpt lat="48.52586" lon="2.67154">
        <ele>41</ele>
        <time>2013-04-14T18:56:31Z</time>
      </trkpt>
      <trkpt lat="48.52586" lon="2.67154">
        <ele>41</ele>
        <time>2013-04-14T18:56:35Z</time>
      </trkpt>
      <trkpt lat="48.52589" lon="2.67154">
        <ele>41</ele>
        <time>2013-04-14T18:56:40Z</time>
      </trkpt>
      <trkpt lat="48.52591" lon="2.67154">
        <ele>41</ele>
        <time>2013-04-14T18:56:42Z</time>
      </trkpt>
      <trkpt lat="48.52591" lon="2.67154">
        <ele>41</ele>
        <time>2013-04-14T18:56:51Z</time>
      </trkpt>
      <trkpt lat="48.52591" lon="2.67154">
        <ele>41</ele>
        <time>2013-04-14T18:56:55Z</time>
      </trkpt>
      <trkpt lat="48.52591" lon="2.67154">
        <ele>41</ele>
        <time>2013-04-14T18:56:58Z</time>
      </trkpt>
      <trkpt lat="48.52616" lon="2.67148">
        <ele>41</ele>
        <time>2013-04-14T18:57:04Z</time>
      </trkpt>
      <trkpt lat="48.52627" lon="2.67148">
        <ele>41</ele>
        <time>2013-04-14T18:57:11Z</time>
      </trkpt>
      <trkpt lat="48.52638" lon="2.67143">
        <ele>41</ele>
        <time>2013-04-14T18:57:18Z</time>
      </trkpt>
      <trkpt lat="48.52665" lon="2.6713">
        <ele>40.7</ele>
        <time>2013-04-14T18:57:32Z</time>
      </trkpt>
      <trkpt lat="48.52684" lon="2.67126">
        <ele>40.8</ele>
        <time>2013-04-14T18:57:44Z</time>
      </trkpt>
      <trkpt lat="48.5271" lon="2.6712">
        <ele>41</ele>
        <time>2013-04-14T18:58:02Z</time>
      </trkpt>
      <trkpt lat="48.52717" lon="2.67122">
        <ele>41</ele>
        <time>2013-04-14T18:58:09Z</time>
      </trkpt>
      <trkpt lat="48.52729" lon="2.6713">
        <ele>41</ele>
        <time>2013-04-14T18:58:20Z</time>
      </trkpt>
      <trkpt lat="48.52729" lon="2.6713">
        <ele>41</ele>
        <time>2013-04-14T18:58:24Z</time>
      </trkpt>
      <trkpt lat="48.52729" lon="2.6713">
        <ele>41</ele>
        <time>2013-04-14T18:58:29Z</time>
      </trkpt>
      <trkpt lat="48.52751" lon="2.67124">
        <ele>41</ele>
        <time>2013-04-14T18:58:35Z</time>
      </trkpt>
      <trkpt lat="48.52753" lon="2.67122">
        <ele>41</ele>
        <time>2013-04-14T18:58:40Z</time>
      </trkpt>
      <trkpt lat="48.52758" lon="2.6712">
        <ele>41.1</ele>
        <time>2013-04-14T18:58:42Z</time>
      </trkpt>
      <trkpt lat="48.52767" lon="2.67113">
        <ele>41</ele>
        <time>2013-04-14T18:58:56Z</time>
      </trkpt>
      <trkpt lat="48.52767" lon="2.67113">
        <ele>41</ele>
        <time>2013-04-14T18:59:00Z</time>
      </trkpt>
      <trkpt lat="48.52793" lon="2.67102">
        <ele>41.4</ele>
        <time>2013-04-14T18:59:07Z</time>
      </trkpt>
      <trkpt lat="48.52793" lon="2.67102">
        <ele>41.4</ele>
        <time>2013-04-14T18:59:14Z</time>
      </trkpt>
      <trkpt lat="48.52793" lon="2.67103">
        <ele>41.4</ele>
        <time>2013-04-14T18:59:14Z</time>
      </trkpt>
      <trkpt lat="48.53138" lon="2.66877">
        <ele>42.5</ele>
        <time>2013-04-14T19:02:36Z</time>
      </trkpt>
      <trkpt lat="48.53138" lon="2.66877">
        <ele>42.5</ele>
        <time>2013-04-14T19:02:41Z</time>
      </trkpt>
      <trkpt lat="48.53138" lon="2.66877">
        <ele>42.5</ele>
        <time>2013-04-14T19:02:45Z</time>
      </trkpt>
      <trkpt lat="48.53138" lon="2.66877">
        <ele>42.5</ele>
        <time>2013-04-14T19:02:58Z</time>
      </trkpt>
      <trkpt lat="48.5316" lon="2.66849">
        <ele>42.1</ele>
        <time>2013-04-14T19:03:03Z</time>
      </trkpt>
      <trkpt lat="48.53173" lon="2.66832">
        <ele>42.1</ele>
        <time>2013-04-14T19:03:13Z</time>
      </trkpt>
      <trkpt lat="48.53186" lon="2.66817">
        <ele>41.3</ele>
        <time>2013-04-14T19:03:28Z</time>
      </trkpt>
      <trkpt lat="48.53186" lon="2.66817">
        <ele>41.3</ele>
        <time>2013-04-14T19:03:31Z</time>
      </trkpt>
      <trkpt lat="48.53186" lon="2.66817">
        <ele>41.3</ele>
        <time>2013-04-14T19:03:36Z</time>
      </trkpt>
      <trkpt lat="48.53186" lon="2.66817">
        <ele>41.3</ele>
        <time>2013-04-14T19:03:40Z</time>
      </trkpt>
      <trkpt lat="48.53209" lon="2.66793">
        <ele>41.1</ele>
        <time>2013-04-14T19:03:45Z</time>
      </trkpt>
      <trkpt lat="48.53209" lon="2.66793">
        <ele>41.1</ele>
        <time>2013-04-14T19:03:58Z</time>
      </trkpt>
      <trkpt lat="48.53231" lon="2.66768">
        <ele>41</ele>
        <time>2013-04-14T19:04:05Z</time>
      </trkpt>
      <trkpt lat="48.53231" lon="2.66768">
        <ele>41</ele>
        <time>2013-04-14T19:04:09Z</time>
      </trkpt>
      <trkpt lat="48.53231" lon="2.66768">
        <ele>41</ele>
        <time>2013-04-14T19:04:13Z</time>
      </trkpt>
      <trkpt lat="48.53231" lon="2.66768">
        <ele>41</ele>
        <time>2013-04-14T19:04:18Z</time>
      </trkpt>
      <trkpt lat="48.53257" lon="2.66751">
        <ele>42.3</ele>
        <time>2013-04-14T19:04:24Z</time>
      </trkpt>
      <trkpt lat="48.53257" lon="2.66751">
        <ele>42.3</ele>
        <time>2013-04-14T19:04:30Z</time>
      </trkpt>
      <trkpt lat="48.53257" lon="2.66751">
        <ele>42.3</ele>
        <time>2013-04-14T19:04:35Z</time>
      </trkpt>
      <trkpt lat="48.53257" lon="2.66751">
        <ele>42.3</ele>
        <time>2013-04-14T19:04:40Z</time>
      </trkpt>
      <trkpt lat="48.53282" lon="2.66729">
        <ele>42.5</ele>
        <time>2013-04-14T19:04:46Z</time>
      </trkpt>
      <trkpt lat="48.53304" lon="2.66714">
        <ele>42.6</ele>
        <time>2013-04-14T19:04:55Z</time>
      </trkpt>
      <trkpt lat="48.53305" lon="2.66712">
        <ele>42.6</ele>
        <time>2013-04-14T19:04:58Z</time>
      </trkpt>
      <trkpt lat="48.53312" lon="2.66703">
        <ele>42.8</ele>
        <time>2013-04-14T19:05:04Z</time>
      </trkpt>
      <trkpt lat="48.53312" lon="2.66703">
        <ele>42.8</ele>
        <time>2013-04-14T19:05:11Z</time>
      </trkpt>
      <trkpt lat="48.53312" lon="2.66703">
        <ele>42.8</ele>
        <time>2013-04-14T19:05:17Z</time>
      </trkpt>
      <trkpt lat="48.53312" lon="2.66703">
        <ele>42.8</ele>
        <time>2013-04-14T19:05:28Z</time>
      </trkpt>
      <trkpt lat="48.53332" lon="2.66669">
        <ele>41.9</ele>
        <time>2013-04-14T19:05:35Z</time>
      </trkpt>
      <trkpt lat="48.53332" lon="2.66669">
        <ele>41.9</ele>
        <time>2013-04-14T19:05:39Z</time>
      </trkpt>
      <trkpt lat="48.53346" lon="2.66652">
        <ele>42.1</ele>
        <time>2013-04-14T19:05:45Z</time>
      </trkpt>
      <trkpt lat="48.53357" lon="2.66645">
        <ele>42.8</ele>
        <time>2013-04-14T19:05:51Z</time>
      </trkpt>
      <trkpt lat="48.53366" lon="2.66639">
        <ele>43.5</ele>
        <time>2013-04-14T19:06:02Z</time>
      </trkpt>
      <trkpt lat="48.5337" lon="2.66637">
        <ele>43.8</ele>
        <time>2013-04-14T19:06:04Z</time>
      </trkpt>
      <trkpt lat="48.53372" lon="2.66637">
        <ele>44</ele>
        <time>2013-04-14T19:06:11Z</time>
      </trkpt>
      <trkpt lat="48.53372" lon="2.66637">
        <ele>44</ele>
        <time>2013-04-14T19:06:17Z</time>
      </trkpt>
      <trkpt lat="48.53372" lon="2.66637">
        <ele>44</ele>
        <time>2013-04-14T19:06:23Z</time>
      </trkpt>
      <trkpt lat="48.53396" lon="2.66611">
        <ele>44.3</ele>
        <time>2013-04-14T19:06:32Z</time>
      </trkpt>
      <trkpt lat="48.53422" lon="2.66585">
        <ele>45.2</ele>
        <time>2013-04-14T19:06:45Z</time>
      </trkpt>
      <trkpt lat="48.5343" lon="2.66572">
        <ele>45.4</ele>
        <time>2013-04-14T19:06:50Z</time>
      </trkpt>
      <trkpt lat="48.53432" lon="2.66568">
        <ele>45.3</ele>
        <time>2013-04-14T19:06:59Z</time>
      </trkpt>
      <trkpt lat="48.53432" lon="2.66568">
        <ele>45.3</ele>
        <time>2013-04-14T19:07:05Z</time>
      </trkpt>
      <trkpt lat="48.53432" lon="2.66568">
        <ele>45.3</ele>
        <time>2013-04-14T19:07:09Z</time>
      </trkpt>
      <trkpt lat="48.53448" lon="2.6653">
        <ele>43.7</ele>
        <time>2013-04-14T19:07:15Z</time>
      </trkpt>
      <trkpt lat="48.53448" lon="2.6653">
        <ele>43.7</ele>
        <time>2013-04-14T19:07:20Z</time>
      </trkpt>
      <trkpt lat="48.53461" lon="2.66502">
        <ele>43</ele>
        <time>2013-04-14T19:07:26Z</time>
      </trkpt>
      <trkpt lat="48.53463" lon="2.66499">
        <ele>42.9</ele>
        <time>2013-04-14T19:07:32Z</time>
      </trkpt>
      <trkpt lat="48.53475" lon="2.66491">
        <ele>43.9</ele>
        <time>2013-04-14T19:07:36Z</time>
      </trkpt>
      <trkpt lat="48.53482" lon="2.66487">
        <ele>44.8</ele>
        <time>2013-04-14T19:07:38Z</time>
      </trkpt>
      <trkpt lat="48.53502" lon="2.66472">
        <ele>46.4</ele>
        <time>2013-04-14T19:07:47Z</time>
      </trkpt>
      <trkpt lat="48.53508" lon="2.66459">
        <ele>46.4</ele>
        <time>2013-04-14T19:07:54Z</time>
      </trkpt>
      <trkpt lat="48.53509" lon="2.66454">
        <ele>46.2</ele>
        <time>2013-04-14T19:08:00Z</time>
      </trkpt>
      <trkpt lat="48.53509" lon="2.66454">
        <ele>46.2</ele>
        <time>2013-04-14T19:08:06Z</time>
      </trkpt>
      <trkpt lat="48.53509" lon="2.66454">
        <ele>46.2</ele>
        <time>2013-04-14T19:08:11Z</time>
      </trkpt>
      <trkpt lat="48.53517" lon="2.66437">
        <ele>46.1</ele>
        <time>2013-04-14T19:08:15Z</time>
      </trkpt>
      <trkpt lat="48.53524" lon="2.66433">
        <ele>46.8</ele>
        <time>2013-04-14T19:08:20Z</time>
      </trkpt>
      <trkpt lat="48.53524" lon="2.66433">
        <ele>46.8</ele>
        <time>2013-04-14T19:08:26Z</time>
      </trkpt>
      <trkpt lat="48.53524" lon="2.66433">
        <ele>46.8</ele>
        <time>2013-04-14T19:08:34Z</time>
      </trkpt>
      <trkpt lat="48.53524" lon="2.66433">
        <ele>46.8</ele>
        <time>2013-04-14T19:08:40Z</time>
      </trkpt>
      <trkpt lat="48.53543" lon="2.66401">
        <ele>45.5</ele>
        <time>2013-04-14T19:08:45Z</time>
      </trkpt>
      <trkpt lat="48.53543" lon="2.66401">
        <ele>45.5</ele>
        <time>2013-04-14T19:08:55Z</time>
      </trkpt>
      <trkpt lat="48.53561" lon="2.66366">
        <ele>43.8</ele>
        <time>2013-04-14T19:09:02Z</time>
      </trkpt>
      <trkpt lat="48.53561" lon="2.66366">
        <ele>43.8</ele>
        <time>2013-04-14T19:09:08Z</time>
      </trkpt>
      <trkpt lat="48.53561" lon="2.66366">
        <ele>43.8</ele>
        <time>2013-04-14T19:09:12Z</time>
      </trkpt>
      <trkpt lat="48.53577" lon="2.66349">
        <ele>43.1</ele>
        <time>2013-04-14T19:09:17Z</time>
      </trkpt>
      <trkpt lat="48.53581" lon="2.66354">
        <ele>43.6</ele>
        <time>2013-04-14T19:09:21Z</time>
      </trkpt>
      <trkpt lat="48.53584" lon="2.66354">
        <ele>43.8</ele>
        <time>2013-04-14T19:09:26Z</time>
      </trkpt>
      <trkpt lat="48.53584" lon="2.66354">
        <ele>43.8</ele>
        <time>2013-04-14T19:09:35Z</time>
      </trkpt>
      <trkpt lat="48.53584" lon="2.66354">
        <ele>43.8</ele>
        <time>2013-04-14T19:09:39Z</time>
      </trkpt>
      <trkpt lat="48.53584" lon="2.66354">
        <ele>43.8</ele>
        <time>2013-04-14T19:10:04Z</time>
      </trkpt>
      <trkpt lat="48.53607" lon="2.66324">
        <ele>41.4</ele>
        <time>2013-04-14T19:10:10Z</time>
      </trkpt>
      <trkpt lat="48.53617" lon="2.66309">
        <ele>40.5</ele>
        <time>2013-04-14T19:10:17Z</time>
      </trkpt>
      <trkpt lat="48.53623" lon="2.66302">
        <ele>40.8</ele>
        <time>2013-04-14T19:10:26Z</time>
      </trkpt>
      <trkpt lat="48.53626" lon="2.66304">
        <ele>41</ele>
        <time>2013-04-14T19:10:32Z</time>
      </trkpt>
      <trkpt lat="48.53628" lon="2.66311">
        <ele>41</ele>
        <time>2013-04-14T19:10:36Z</time>
      </trkpt>
      <trkpt lat="48.53633" lon="2.66319">
        <ele>40.6</ele>
        <time>2013-04-14T19:10:41Z</time>
      </trkpt>
      <trkpt lat="48.53643" lon="2.66332">
        <ele>39.4</ele>
        <time>2013-04-14T19:10:52Z</time>
      </trkpt>
      <trkpt lat="48.5365" lon="2.66334">
        <ele>39.8</ele>
        <time>2013-04-14T19:10:57Z</time>
      </trkpt>
      <trkpt lat="48.53657" lon="2.66339">
        <ele>40.3</ele>
        <time>2013-04-14T19:11:08Z</time>
      </trkpt>
      <trkpt lat="48.53662" lon="2.66343">
        <ele>40.3</ele>
        <time>2013-04-14T19:11:10Z</time>
      </trkpt>
      <trkpt lat="48.53664" lon="2.66351">
        <ele>39.8</ele>
        <time>2013-04-14T19:11:17Z</time>
      </trkpt>
      <trkpt lat="48.53666" lon="2.66362">
        <ele>39.2</ele>
        <time>2013-04-14T19:11:27Z</time>
      </trkpt>
      <trkpt lat="48.53671" lon="2.66366">
        <ele>39.6</ele>
        <time>2013-04-14T19:11:33Z</time>
      </trkpt>
      <trkpt lat="48.53671" lon="2.66366">
        <ele>39.6</ele>
        <time>2013-04-14T19:11:42Z</time>
      </trkpt>
      <trkpt lat="48.53671" lon="2.66366">
        <ele>39.6</ele>
        <time>2013-04-14T19:11:46Z</time>
      </trkpt>
      <trkpt lat="48.53671" lon="2.66366">
        <ele>39.6</ele>
        <time>2013-04-14T19:11:59Z</time>
      </trkpt>
      <trkpt lat="48.53697" lon="2.66381">
        <ele>39.4</ele>
        <time>2013-04-14T19:12:04Z</time>
      </trkpt>
      <trkpt lat="48.53697" lon="2.66381">
        <ele>39.4</ele>
        <time>2013-04-14T19:12:12Z</time>
      </trkpt>
      <trkpt lat="48.53725" lon="2.66373">
        <ele>39.9</ele>
        <time>2013-04-14T19:12:20Z</time>
      </trkpt>
      <trkpt lat="48.53725" lon="2.66373">
        <ele>39.9</ele>
        <time>2013-04-14T19:12:25Z</time>
      </trkpt>
      <trkpt lat="48.53757" lon="2.66369">
        <ele>40.5</ele>
        <time>2013-04-14T19:12:31Z</time>
      </trkpt>
      <trkpt lat="48.53757" lon="2.66369">
        <ele>40.5</ele>
        <time>2013-04-14T19:12:36Z</time>
      </trkpt>
      <trkpt lat="48.53757" lon="2.66369">
        <ele>40.5</ele>
        <time>2013-04-14T19:12:42Z</time>
      </trkpt>
      <trkpt lat="48.53776" lon="2.66373">
        <ele>41.4</ele>
        <time>2013-04-14T19:12:46Z</time>
      </trkpt>
      <trkpt lat="48.53786" lon="2.66379">
        <ele>41.5</ele>
        <time>2013-04-14T19:12:55Z</time>
      </trkpt>
      <trkpt lat="48.53801" lon="2.66384">
        <ele>41.7</ele>
        <time>2013-04-14T19:13:02Z</time>
      </trkpt>
      <trkpt lat="48.53819" lon="2.6639">
        <ele>41.5</ele>
        <time>2013-04-14T19:13:14Z</time>
      </trkpt>
      <trkpt lat="48.53844" lon="2.66392">
        <ele>40.7</ele>
        <time>2013-04-14T19:13:18Z</time>
      </trkpt>
      <trkpt lat="48.53853" lon="2.6639">
        <ele>40.3</ele>
        <time>2013-04-14T19:13:23Z</time>
      </trkpt>
      <trkpt lat="48.53864" lon="2.66388">
        <ele>40.1</ele>
        <time>2013-04-14T19:13:30Z</time>
      </trkpt>
      <trkpt lat="48.53868" lon="2.66388">
        <ele>40.3</ele>
        <time>2013-04-14T19:13:35Z</time>
      </trkpt>
      <trkpt lat="48.53876" lon="2.66392">
        <ele>40.6</ele>
        <time>2013-04-14T19:13:40Z</time>
      </trkpt>
      <trkpt lat="48.53884" lon="2.66394">
        <ele>40.9</ele>
        <time>2013-04-14T19:13:51Z</time>
      </trkpt>
      <trkpt lat="48.5389" lon="2.66394">
        <ele>41</ele>
        <time>2013-04-14T19:13:53Z</time>
      </trkpt>
      <trkpt lat="48.53897" lon="2.66396">
        <ele>41</ele>
        <time>2013-04-14T19:14:01Z</time>
      </trkpt>
      <trkpt lat="48.53897" lon="2.66396">
        <ele>41</ele>
        <time>2013-04-14T19:14:05Z</time>
      </trkpt>
      <trkpt lat="48.53897" lon="2.66396">
        <ele>41</ele>
        <time>2013-04-14T19:14:09Z</time>
      </trkpt>
      <trkpt lat="48.53897" lon="2.66396">
        <ele>41</ele>
        <time>2013-04-14T19:14:13Z</time>
      </trkpt>
      <trkpt lat="48.53914" lon="2.66392">
        <ele>41</ele>
        <time>2013-04-14T19:14:18Z</time>
      </trkpt>
      <trkpt lat="48.53923" lon="2.66386">
        <ele>41.1</ele>
        <time>2013-04-14T19:14:26Z</time>
      </trkpt>
      <trkpt lat="48.53923" lon="2.66384">
        <ele>41.1</ele>
        <time>2013-04-14T19:14:31Z</time>
      </trkpt>
      <trkpt lat="48.53923" lon="2.66384">
        <ele>41.1</ele>
        <time>2013-04-14T19:14:40Z</time>
      </trkpt>
      <trkpt lat="48.53923" lon="2.66384">
        <ele>41.1</ele>
        <time>2013-04-14T19:14:45Z</time>
      </trkpt>
      <trkpt lat="48.53923" lon="2.66384">
        <ele>41.1</ele>
        <time>2013-04-14T19:14:59Z</time>
      </trkpt>
      <trkpt lat="48.53924" lon="2.66343">
        <ele>42.6</ele>
        <time>2013-04-14T19:15:05Z</time>
      </trkpt>
      <trkpt lat="48.53924" lon="2.66343">
        <ele>42.6</ele>
        <time>2013-04-14T19:15:10Z</time>
      </trkpt>
      <trkpt lat="48.53924" lon="2.66343">
        <ele>42.6</ele>
        <time>2013-04-14T19:15:15Z</time>
      </trkpt>
      <trkpt lat="48.53942" lon="2.66306">
        <ele>43.9</ele>
        <time>2013-04-14T19:15:23Z</time>
      </trkpt>
      <trkpt lat="48.5397" lon="2.66291">
        <ele>45.9</ele>
        <time>2013-04-14T19:15:28Z</time>
      </trkpt>
      <trkpt lat="48.53997" lon="2.66304">
        <ele>45.8</ele>
        <time>2013-04-14T19:15:37Z</time>
      </trkpt>
      <trkpt lat="48.53997" lon="2.66304">
        <ele>45.8</ele>
        <time>2013-04-14T19:15:41Z</time>
      </trkpt>
      <trkpt lat="48.53997" lon="2.66304">
        <ele>45.8</ele>
        <time>2013-04-14T19:15:46Z</time>
      </trkpt>
      <trkpt lat="48.53997" lon="2.66304">
        <ele>45.8</ele>
        <time>2013-04-14T19:15:59Z</time>
      </trkpt>
      <trkpt lat="48.54024" lon="2.66311">
        <ele>45.2</ele>
        <time>2013-04-14T19:16:04Z</time>
      </trkpt>
      <trkpt lat="48.54025" lon="2.66311">
        <ele>45.2</ele>
        <time>2013-04-14T19:16:10Z</time>
      </trkpt>
      <trkpt lat="48.54024" lon="2.66311">
        <ele>45.2</ele>
        <time>2013-04-14T19:16:22Z</time>
      </trkpt>
      <trkpt lat="48.54024" lon="2.66311">
        <ele>45.2</ele>
        <time>2013-04-14T19:16:27Z</time>
      </trkpt>
      <trkpt lat="48.54047" lon="2.66326">
        <ele>42.9</ele>
        <time>2013-04-14T19:16:31Z</time>
      </trkpt>
      <trkpt lat="48.54054" lon="2.66326">
        <ele>42.8</ele>
        <time>2013-04-14T19:16:41Z</time>
      </trkpt>
      <trkpt lat="48.54055" lon="2.66326">
        <ele>42.8</ele>
        <time>2013-04-14T19:16:41Z</time>
      </trkpt>
      <trkpt lat="48.54054" lon="2.66326">
        <ele>42.8</ele>
        <time>2013-04-14T19:16:51Z</time>
      </trkpt>
      <trkpt lat="48.54054" lon="2.66326">
        <ele>42.8</ele>
        <time>2013-04-14T19:16:56Z</time>
      </trkpt>
      <trkpt lat="48.54055" lon="2.66326">
        <ele>42.8</ele>
        <time>2013-04-14T19:16:56Z</time>
      </trkpt>
      <trkpt lat="48.54111" lon="2.66302">
        <ele>45.5</ele>
        <time>2013-04-14T19:17:24Z</time>
      </trkpt>
      <trkpt lat="48.54126" lon="2.66296">
        <ele>48</ele>
        <time>2013-04-14T19:17:33Z</time>
      </trkpt>
      <trkpt lat="48.54133" lon="2.66304">
        <ele>48.2</ele>
        <time>2013-04-14T19:17:37Z</time>
      </trkpt>
      <trkpt lat="48.54138" lon="2.66306">
        <ele>48.7</ele>
        <time>2013-04-14T19:17:45Z</time>
      </trkpt>
      <trkpt lat="48.54151" lon="2.66309">
        <ele>48</ele>
        <time>2013-04-14T19:17:56Z</time>
      </trkpt>
      <trkpt lat="48.54158" lon="2.66306">
        <ele>48.9</ele>
        <time>2013-04-14T19:18:02Z</time>
      </trkpt>
      <trkpt lat="48.54162" lon="2.66309">
        <ele>48.1</ele>
        <time>2013-04-14T19:18:08Z</time>
      </trkpt>
      <trkpt lat="48.54167" lon="2.66313">
        <ele>47.2</ele>
        <time>2013-04-14T19:18:10Z</time>
      </trkpt>
      <trkpt lat="48.54177" lon="2.66319">
        <ele>46.2</ele>
        <time>2013-04-14T19:18:24Z</time>
      </trkpt>
      <trkpt lat="48.54186" lon="2.66324">
        <ele>45.1</ele>
        <time>2013-04-14T19:18:28Z</time>
      </trkpt>
      <trkpt lat="48.54195" lon="2.6633">
        <ele>43.3</ele>
        <time>2013-04-14T19:18:36Z</time>
      </trkpt>
      <trkpt lat="48.54212" lon="2.66336">
        <ele>45.4</ele>
        <time>2013-04-14T19:18:46Z</time>
      </trkpt>
      <trkpt lat="48.54224" lon="2.66332">
        <ele>48.4</ele>
        <time>2013-04-14T19:18:52Z</time>
      </trkpt>
      <trkpt lat="48.54235" lon="2.66334">
        <ele>48.8</ele>
        <time>2013-04-14T19:19:01Z</time>
      </trkpt>
      <trkpt lat="48.54235" lon="2.66334">
        <ele>48.8</ele>
        <time>2013-04-14T19:19:05Z</time>
      </trkpt>
      <trkpt lat="48.5424" lon="2.66345">
        <ele>46.8</ele>
        <time>2013-04-14T19:19:10Z</time>
      </trkpt>
      <trkpt lat="48.54247" lon="2.66352">
        <ele>45.8</ele>
        <time>2013-04-14T19:19:17Z</time>
      </trkpt>
      <trkpt lat="48.54269" lon="2.66371">
        <ele>45</ele>
        <time>2013-04-14T19:20:24Z</time>
      </trkpt>
      <trkpt lat="48.54297" lon="2.66394">
        <ele>43.6</ele>
        <time>2013-04-14T19:20:29Z</time>
      </trkpt>
      <trkpt lat="48.54297" lon="2.66394">
        <ele>43.6</ele>
        <time>2013-04-14T19:20:36Z</time>
      </trkpt>
      <trkpt lat="48.54297" lon="2.66394">
        <ele>43.6</ele>
        <time>2013-04-14T19:20:40Z</time>
      </trkpt>
      <trkpt lat="48.54309" lon="2.66403">
        <ele>43.6</ele>
        <time>2013-04-14T19:20:46Z</time>
      </trkpt>
      <trkpt lat="48.54324" lon="2.66409">
        <ele>43.2</ele>
        <time>2013-04-14T19:20:59Z</time>
      </trkpt>
      <trkpt lat="48.54342" lon="2.6642">
        <ele>42.5</ele>
        <time>2013-04-14T19:21:11Z</time>
      </trkpt>
      <trkpt lat="48.54344" lon="2.66422">
        <ele>42.5</ele>
        <time>2013-04-14T19:21:17Z</time>
      </trkpt>
      <trkpt lat="48.54355" lon="2.66429">
        <ele>42.8</ele>
        <time>2013-04-14T19:21:21Z</time>
      </trkpt>
      <trkpt lat="48.5436" lon="2.66446">
        <ele>41.9</ele>
        <time>2013-04-14T19:21:31Z</time>
      </trkpt>
      <trkpt lat="48.54373" lon="2.66467">
        <ele>41.7</ele>
        <time>2013-04-14T19:21:41Z</time>
      </trkpt>
      <trkpt lat="48.54375" lon="2.66467">
        <ele>41.8</ele>
        <time>2013-04-14T19:21:45Z</time>
      </trkpt>
      <trkpt lat="48.54375" lon="2.66467">
        <ele>41.8</ele>
        <time>2013-04-14T19:21:54Z</time>
      </trkpt>
      <trkpt lat="48.544" lon="2.66489">
        <ele>42.3</ele>
        <time>2013-04-14T19:21:59Z</time>
      </trkpt>
      <trkpt lat="48.544" lon="2.66489">
        <ele>42.3</ele>
        <time>2013-04-14T19:22:08Z</time>
      </trkpt>
      <trkpt lat="48.54417" lon="2.66523">
        <ele>42</ele>
        <time>2013-04-14T19:22:14Z</time>
      </trkpt>
      <trkpt lat="48.54417" lon="2.66525">
        <ele>42</ele>
        <time>2013-04-14T19:22:19Z</time>
      </trkpt>
      <trkpt lat="48.54417" lon="2.66525">
        <ele>42</ele>
        <time>2013-04-14T19:22:23Z</time>
      </trkpt>
      <trkpt lat="48.54417" lon="2.66525">
        <ele>42</ele>
        <time>2013-04-14T19:22:28Z</time>
      </trkpt>
      <trkpt lat="48.54422" lon="2.66551">
        <ele>41.4</ele>
        <time>2013-04-14T19:22:32Z</time>
      </trkpt>
      <trkpt lat="48.54428" lon="2.6657">
        <ele>41.7</ele>
        <time>2013-04-14T19:22:44Z</time>
      </trkpt>
      <trkpt lat="48.54431" lon="2.66587">
        <ele>42.1</ele>
        <time>2013-04-14T19:22:48Z</time>
      </trkpt>
      <trkpt lat="48.54431" lon="2.66587">
        <ele>42.1</ele>
        <time>2013-04-14T19:22:54Z</time>
      </trkpt>
      <trkpt lat="48.54431" lon="2.66587">
        <ele>42.1</ele>
        <time>2013-04-14T19:22:57Z</time>
      </trkpt>
      <trkpt lat="48.54441" lon="2.66609">
        <ele>42.8</ele>
        <time>2013-04-14T19:23:01Z</time>
      </trkpt>
      <trkpt lat="48.54449" lon="2.6663">
        <ele>42.3</ele>
        <time>2013-04-14T19:23:12Z</time>
      </trkpt>
      <trkpt lat="48.54458" lon="2.6665">
        <ele>42</ele>
        <time>2013-04-14T19:23:27Z</time>
      </trkpt>
      <trkpt lat="48.54458" lon="2.6665">
        <ele>42</ele>
        <time>2013-04-14T19:23:29Z</time>
      </trkpt>
      <trkpt lat="48.54458" lon="2.6665">
        <ele>42</ele>
        <time>2013-04-14T19:23:32Z</time>
      </trkpt>
      <trkpt lat="48.54458" lon="2.6665">
        <ele>42</ele>
        <time>2013-04-14T19:23:38Z</time>
      </trkpt>
      <trkpt lat="48.54471" lon="2.66686">
        <ele>42</ele>
        <time>2013-04-14T19:23:43Z</time>
      </trkpt>
      <trkpt lat="48.54471" lon="2.66686">
        <ele>42</ele>
        <time>2013-04-14T19:23:49Z</time>
      </trkpt>
      <trkpt lat="48.54482" lon="2.66701">
        <ele>42</ele>
        <time>2013-04-14T19:23:54Z</time>
      </trkpt>
      <trkpt lat="48.54488" lon="2.66708">
        <ele>42</ele>
        <time>2013-04-14T19:24:00Z</time>
      </trkpt>
      <trkpt lat="48.54503" lon="2.66727">
        <ele>42</ele>
        <time>2013-04-14T19:24:15Z</time>
      </trkpt>
      <trkpt lat="48.54504" lon="2.66731">
        <ele>42</ele>
        <time>2013-04-14T19:24:21Z</time>
      </trkpt>
      <trkpt lat="48.54504" lon="2.66731">
        <ele>42</ele>
        <time>2013-04-14T19:24:26Z</time>
      </trkpt>
      <trkpt lat="48.54516" lon="2.66768">
        <ele>41.7</ele>
        <time>2013-04-14T19:24:32Z</time>
      </trkpt>
      <trkpt lat="48.54516" lon="2.66768">
        <ele>41.7</ele>
        <time>2013-04-14T19:24:39Z</time>
      </trkpt>
      <trkpt lat="48.54516" lon="2.66768">
        <ele>41.7</ele>
        <time>2013-04-14T19:24:41Z</time>
      </trkpt>
      <trkpt lat="48.54516" lon="2.66768">
        <ele>41.7</ele>
        <time>2013-04-14T19:24:47Z</time>
      </trkpt>
      <trkpt lat="48.54533" lon="2.66802">
        <ele>42</ele>
        <time>2013-04-14T19:24:53Z</time>
      </trkpt>
      <trkpt lat="48.54533" lon="2.66802">
        <ele>42</ele>
        <time>2013-04-14T19:24:58Z</time>
      </trkpt>
      <trkpt lat="48.54533" lon="2.66802">
        <ele>42</ele>
        <time>2013-04-14T19:25:00Z</time>
      </trkpt>
      <trkpt lat="48.54533" lon="2.66802">
        <ele>42</ele>
        <time>2013-04-14T19:25:04Z</time>
      </trkpt>
      <trkpt lat="48.54537" lon="2.66849">
        <ele>41.5</ele>
        <time>2013-04-14T19:25:09Z</time>
      </trkpt>
      <trkpt lat="48.54537" lon="2.66849">
        <ele>41.5</ele>
        <time>2013-04-14T19:25:15Z</time>
      </trkpt>
      <trkpt lat="48.54546" lon="2.66856">
        <ele>41.4</ele>
        <time>2013-04-14T19:25:20Z</time>
      </trkpt>
      <trkpt lat="48.54562" lon="2.66869">
        <ele>41.5</ele>
        <time>2013-04-14T19:25:33Z</time>
      </trkpt>
      <trkpt lat="48.54566" lon="2.66877">
        <ele>41.7</ele>
        <time>2013-04-14T19:25:37Z</time>
      </trkpt>
      <trkpt lat="48.54578" lon="2.66896">
        <ele>42</ele>
        <time>2013-04-14T19:25:50Z</time>
      </trkpt>
      <trkpt lat="48.54582" lon="2.66905">
        <ele>42</ele>
        <time>2013-04-14T19:25:53Z</time>
      </trkpt>
      <trkpt lat="48.54588" lon="2.66924">
        <ele>42</ele>
        <time>2013-04-14T19:26:03Z</time>
      </trkpt>
      <trkpt lat="48.54591" lon="2.66935">
        <ele>42</ele>
        <time>2013-04-14T19:26:05Z</time>
      </trkpt>
      <trkpt lat="48.54596" lon="2.66952">
        <ele>42</ele>
        <time>2013-04-14T19:26:14Z</time>
      </trkpt>
      <trkpt lat="48.54596" lon="2.66952">
        <ele>42</ele>
        <time>2013-04-14T19:26:16Z</time>
      </trkpt>
      <trkpt lat="48.546" lon="2.66961">
        <ele>42</ele>
        <time>2013-04-14T19:26:19Z</time>
      </trkpt>
      <trkpt lat="48.54607" lon="2.66974">
        <ele>42</ele>
        <time>2013-04-14T19:26:31Z</time>
      </trkpt>
      <trkpt lat="48.54607" lon="2.66974">
        <ele>42</ele>
        <time>2013-04-14T19:26:34Z</time>
      </trkpt>
      <trkpt lat="48.54612" lon="2.66989">
        <ele>42</ele>
        <time>2013-04-14T19:26:38Z</time>
      </trkpt>
      <trkpt lat="48.54627" lon="2.6703">
        <ele>42.5</ele>
        <time>2013-04-14T19:26:55Z</time>
      </trkpt>
      <trkpt lat="48.54628" lon="2.67032">
        <ele>42.5</ele>
        <time>2013-04-14T19:26:59Z</time>
      </trkpt>
      <trkpt lat="48.54632" lon="2.6704">
        <ele>42.4</ele>
        <time>2013-04-14T19:27:02Z</time>
      </trkpt>
      <trkpt lat="48.54638" lon="2.67062">
        <ele>42</ele>
        <time>2013-04-14T19:27:18Z</time>
      </trkpt>
      <trkpt lat="48.5464" lon="2.67075">
        <ele>42</ele>
        <time>2013-04-14T19:27:21Z</time>
      </trkpt>
      <trkpt lat="48.54645" lon="2.6709">
        <ele>42.2</ele>
        <time>2013-04-14T19:27:29Z</time>
      </trkpt>
      <trkpt lat="48.54645" lon="2.6709">
        <ele>42.2</ele>
        <time>2013-04-14T19:27:35Z</time>
      </trkpt>
      <trkpt lat="48.54654" lon="2.67113">
        <ele>42.5</ele>
        <time>2013-04-14T19:27:41Z</time>
      </trkpt>
      <trkpt lat="48.54659" lon="2.67128">
        <ele>42.7</ele>
        <time>2013-04-14T19:27:50Z</time>
      </trkpt>
      <trkpt lat="48.54659" lon="2.67128">
        <ele>42.7</ele>
        <time>2013-04-14T19:27:52Z</time>
      </trkpt>
      <trkpt lat="48.54659" lon="2.67128">
        <ele>42.7</ele>
        <time>2013-04-14T19:27:54Z</time>
      </trkpt>
      <trkpt lat="48.54659" lon="2.67128">
        <ele>42.7</ele>
        <time>2013-04-14T19:28:08Z</time>
      </trkpt>
      <trkpt lat="48.5468" lon="2.67158">
        <ele>44</ele>
        <time>2013-04-14T19:28:15Z</time>
      </trkpt>
      <trkpt lat="48.5468" lon="2.67158">
        <ele>44</ele>
        <time>2013-04-14T19:28:19Z</time>
      </trkpt>
      <trkpt lat="48.54691" lon="2.67182">
        <ele>45.1</ele>
        <time>2013-04-14T19:28:23Z</time>
      </trkpt>
      <trkpt lat="48.54694" lon="2.67188">
        <ele>45.5</ele>
        <time>2013-04-14T19:28:31Z</time>
      </trkpt>
      <trkpt lat="48.54698" lon="2.67208">
        <ele>45.2</ele>
        <time>2013-04-14T19:28:35Z</time>
      </trkpt>
      <trkpt lat="48.54701" lon="2.67229">
        <ele>44.6</ele>
        <time>2013-04-14T19:28:46Z</time>
      </trkpt>
      <trkpt lat="48.54701" lon="2.67229">
        <ele>44.6</ele>
        <time>2013-04-14T19:28:48Z</time>
      </trkpt>
      <trkpt lat="48.54701" lon="2.67229">
        <ele>44.6</ele>
        <time>2013-04-14T19:28:51Z</time>
      </trkpt>
      <trkpt lat="48.54701" lon="2.67229">
        <ele>44.6</ele>
        <time>2013-04-14T19:28:58Z</time>
      </trkpt>
      <trkpt lat="48.5471" lon="2.67263">
        <ele>44.7</ele>
        <time>2013-04-14T19:29:02Z</time>
      </trkpt>
      <trkpt lat="48.54715" lon="2.67274">
        <ele>44.9</ele>
        <time>2013-04-14T19:29:11Z</time>
      </trkpt>
      <trkpt lat="48.54721" lon="2.67278">
        <ele>45</ele>
        <time>2013-04-14T19:29:13Z</time>
      </trkpt>
      <trkpt lat="48.54721" lon="2.67278">
        <ele>45</ele>
        <time>2013-04-14T19:29:20Z</time>
      </trkpt>
      <trkpt lat="48.54721" lon="2.67278">
        <ele>45</ele>
        <time>2013-04-14T19:29:22Z</time>
      </trkpt>
      <trkpt lat="48.54722" lon="2.67281">
        <ele>44.9</ele>
        <time>2013-04-14T19:29:24Z</time>
      </trkpt>
      <trkpt lat="48.54742" lon="2.67298">
        <ele>43.4</ele>
        <time>2013-04-14T19:29:28Z</time>
      </trkpt>
      <trkpt lat="48.54742" lon="2.67298">
        <ele>43.4</ele>
        <time>2013-04-14T19:29:39Z</time>
      </trkpt>
      <trkpt lat="48.54766" lon="2.67321">
        <ele>43.8</ele>
        <time>2013-04-14T19:29:46Z</time>
      </trkpt>
      <trkpt lat="48.54766" lon="2.67321">
        <ele>43.8</ele>
        <time>2013-04-14T19:29:53Z</time>
      </trkpt>
      <trkpt lat="48.54766" lon="2.67321">
        <ele>43.8</ele>
        <time>2013-04-14T19:29:57Z</time>
      </trkpt>
      <trkpt lat="48.54792" lon="2.67332">
        <ele>45.1</ele>
        <time>2013-04-14T19:30:03Z</time>
      </trkpt>
      <trkpt lat="48.54792" lon="2.67332">
        <ele>45.1</ele>
        <time>2013-04-14T19:30:09Z</time>
      </trkpt>
      <trkpt lat="48.54792" lon="2.67332">
        <ele>45.1</ele>
        <time>2013-04-14T19:30:14Z</time>
      </trkpt>
      <trkpt lat="48.54818" lon="2.67369">
        <ele>45.3</ele>
        <time>2013-04-14T19:30:20Z</time>
      </trkpt>
      <trkpt lat="48.54821" lon="2.67377">
        <ele>45.3</ele>
        <time>2013-04-14T19:30:25Z</time>
      </trkpt>
      <trkpt lat="48.54821" lon="2.67377">
        <ele>45.3</ele>
        <time>2013-04-14T19:30:35Z</time>
      </trkpt>
      <trkpt lat="48.54827" lon="2.6739">
        <ele>45.5</ele>
        <time>2013-04-14T19:30:40Z</time>
      </trkpt>
      <trkpt lat="48.54831" lon="2.67392">
        <ele>45.7</ele>
        <time>2013-04-14T19:30:44Z</time>
      </trkpt>
      <trkpt lat="48.54835" lon="2.67401">
        <ele>45.6</ele>
        <time>2013-04-14T19:30:51Z</time>
      </trkpt>
      <trkpt lat="48.54841" lon="2.67409">
        <ele>45.6</ele>
        <time>2013-04-14T19:31:02Z</time>
      </trkpt>
      <trkpt lat="48.54841" lon="2.67409">
        <ele>45.6</ele>
        <time>2013-04-14T19:31:04Z</time>
      </trkpt>
      <trkpt lat="48.54841" lon="2.67409">
        <ele>45.6</ele>
        <time>2013-04-14T19:31:07Z</time>
      </trkpt>
      <trkpt lat="48.54841" lon="2.67409">
        <ele>45.6</ele>
        <time>2013-04-14T19:31:15Z</time>
      </trkpt>
      <trkpt lat="48.54863" lon="2.67437">
        <ele>46.2</ele>
        <time>2013-04-14T19:31:20Z</time>
      </trkpt>
      <trkpt lat="48.54863" lon="2.67437">
        <ele>46.2</ele>
        <time>2013-04-14T19:31:30Z</time>
      </trkpt>
      <trkpt lat="48.54863" lon="2.67437">
        <ele>46.2</ele>
        <time>2013-04-14T19:31:34Z</time>
      </trkpt>
      <trkpt lat="48.5488" lon="2.67461">
        <ele>45.8</ele>
        <time>2013-04-14T19:31:40Z</time>
      </trkpt>
      <trkpt lat="48.54901" lon="2.67493">
        <ele>45.6</ele>
        <time>2013-04-14T19:31:55Z</time>
      </trkpt>
      <trkpt lat="48.54901" lon="2.67493">
        <ele>45.6</ele>
        <time>2013-04-14T19:31:58Z</time>
      </trkpt>
      <trkpt lat="48.54906" lon="2.67508">
        <ele>45.2</ele>
        <time>2013-04-14T19:32:02Z</time>
      </trkpt>
      <trkpt lat="48.54915" lon="2.67519">
        <ele>46.1</ele>
        <time>2013-04-14T19:32:08Z</time>
      </trkpt>
      <trkpt lat="48.54923" lon="2.67525">
        <ele>47.2</ele>
        <time>2013-04-14T19:32:17Z</time>
      </trkpt>
      <trkpt lat="48.54923" lon="2.67525">
        <ele>47.2</ele>
        <time>2013-04-14T19:32:22Z</time>
      </trkpt>
      <trkpt lat="48.54934" lon="2.67547">
        <ele>46.7</ele>
        <time>2013-04-14T19:32:29Z</time>
      </trkpt>
      <trkpt lat="48.54934" lon="2.67547">
        <ele>46.7</ele>
        <time>2013-04-14T19:32:35Z</time>
      </trkpt>
      <trkpt lat="48.54934" lon="2.67547">
        <ele>46.7</ele>
        <time>2013-04-14T19:32:38Z</time>
      </trkpt>
      <trkpt lat="48.54934" lon="2.67547">
        <ele>46.7</ele>
        <time>2013-04-14T19:32:43Z</time>
      </trkpt>
      <trkpt lat="48.5495" lon="2.67577">
        <ele>45.7</ele>
        <time>2013-04-14T19:32:49Z</time>
      </trkpt>
      <trkpt lat="48.5495" lon="2.67577">
        <ele>45.7</ele>
        <time>2013-04-14T19:32:54Z</time>
      </trkpt>
      <trkpt lat="48.5495" lon="2.67577">
        <ele>45.7</ele>
        <time>2013-04-14T19:32:56Z</time>
      </trkpt>
      <trkpt lat="48.5495" lon="2.67577">
        <ele>45.7</ele>
        <time>2013-04-14T19:33:00Z</time>
      </trkpt>
      <trkpt lat="48.54962" lon="2.67615">
        <ele>45.8</ele>
        <time>2013-04-14T19:33:05Z</time>
      </trkpt>
      <trkpt lat="48.54962" lon="2.67615">
        <ele>45.8</ele>
        <time>2013-04-14T19:33:11Z</time>
      </trkpt>
      <trkpt lat="48.54962" lon="2.67615">
        <ele>45.8</ele>
        <time>2013-04-14T19:33:13Z</time>
      </trkpt>
      <trkpt lat="48.54962" lon="2.67615">
        <ele>45.8</ele>
        <time>2013-04-14T19:33:20Z</time>
      </trkpt>
      <trkpt lat="48.54973" lon="2.67654">
        <ele>45.1</ele>
        <time>2013-04-14T19:33:26Z</time>
      </trkpt>
      <trkpt lat="48.54973" lon="2.67654">
        <ele>45.1</ele>
        <time>2013-04-14T19:33:32Z</time>
      </trkpt>
      <trkpt lat="48.54973" lon="2.67654">
        <ele>45.1</ele>
        <time>2013-04-14T19:33:34Z</time>
      </trkpt>
      <trkpt lat="48.54986" lon="2.67693">
        <ele>46</ele>
        <time>2013-04-14T19:33:40Z</time>
      </trkpt>
      <trkpt lat="48.54986" lon="2.67693">
        <ele>46</ele>
        <time>2013-04-14T19:33:47Z</time>
      </trkpt>
      <trkpt lat="48.54986" lon="2.67693">
        <ele>46</ele>
        <time>2013-04-14T19:33:49Z</time>
      </trkpt>
      <trkpt lat="48.54986" lon="2.67693">
        <ele>46</ele>
        <time>2013-04-14T19:33:51Z</time>
      </trkpt>
      <trkpt lat="48.54994" lon="2.6774">
        <ele>44.4</ele>
        <time>2013-04-14T19:33:56Z</time>
      </trkpt>
      <trkpt lat="48.54995" lon="2.67748">
        <ele>44.1</ele>
        <time>2013-04-14T19:34:03Z</time>
      </trkpt>
      <trkpt lat="48.54995" lon="2.67748">
        <ele>44.1</ele>
        <time>2013-04-14T19:34:07Z</time>
      </trkpt>
      <trkpt lat="48.54998" lon="2.67761">
        <ele>44</ele>
        <time>2013-04-14T19:34:11Z</time>
      </trkpt>
      <trkpt lat="48.54998" lon="2.67761">
        <ele>44</ele>
        <time>2013-04-14T19:34:18Z</time>
      </trkpt>
      <trkpt lat="48.54998" lon="2.67761">
        <ele>44</ele>
        <time>2013-04-14T19:34:20Z</time>
      </trkpt>
      <trkpt lat="48.54998" lon="2.67761">
        <ele>44</ele>
        <time>2013-04-14T19:34:31Z</time>
      </trkpt>
      <trkpt lat="48.5501" lon="2.67802">
        <ele>44.4</ele>
        <time>2013-04-14T19:34:39Z</time>
      </trkpt>
      <trkpt lat="48.55016" lon="2.67828">
        <ele>44.6</ele>
        <time>2013-04-14T19:34:50Z</time>
      </trkpt>
      <trkpt lat="48.55016" lon="2.67828">
        <ele>44.6</ele>
        <time>2013-04-14T19:34:52Z</time>
      </trkpt>
      <trkpt lat="48.55016" lon="2.67828">
        <ele>44.6</ele>
        <time>2013-04-14T19:34:55Z</time>
      </trkpt>
      <trkpt lat="48.55016" lon="2.67828">
        <ele>44.6</ele>
        <time>2013-04-14T19:35:13Z</time>
      </trkpt>
      <trkpt lat="48.55027" lon="2.67866">
        <ele>44</ele>
        <time>2013-04-14T19:35:18Z</time>
      </trkpt>
      <trkpt lat="48.55027" lon="2.67866">
        <ele>44</ele>
        <time>2013-04-14T19:35:24Z</time>
      </trkpt>
      <trkpt lat="48.55027" lon="2.67866">
        <ele>44</ele>
        <time>2013-04-14T19:35:26Z</time>
      </trkpt>
      <trkpt lat="48.55027" lon="2.67866">
        <ele>44</ele>
        <time>2013-04-14T19:35:28Z</time>
      </trkpt>
      <trkpt lat="48.55033" lon="2.67909">
        <ele>44.2</ele>
        <time>2013-04-14T19:35:33Z</time>
      </trkpt>
      <trkpt lat="48.55036" lon="2.67918">
        <ele>44.3</ele>
        <time>2013-04-14T19:35:40Z</time>
      </trkpt>
      <trkpt lat="48.55036" lon="2.67918">
        <ele>44.3</ele>
        <time>2013-04-14T19:35:44Z</time>
      </trkpt>
      <trkpt lat="48.55036" lon="2.67918">
        <ele>44.3</ele>
        <time>2013-04-14T19:35:46Z</time>
      </trkpt>
      <trkpt lat="48.55036" lon="2.67918">
        <ele>44.3</ele>
        <time>2013-04-14T19:36:01Z</time>
      </trkpt>
      <trkpt lat="48.55028" lon="2.67959">
        <ele>43.5</ele>
        <time>2013-04-14T19:36:07Z</time>
      </trkpt>
      <trkpt lat="48.55023" lon="2.67965">
        <ele>43.1</ele>
        <time>2013-04-14T19:36:10Z</time>
      </trkpt>
      <trkpt lat="48.55023" lon="2.67965">
        <ele>43.1</ele>
        <time>2013-04-14T19:36:16Z</time>
      </trkpt>
      <trkpt lat="48.55023" lon="2.67965">
        <ele>43.1</ele>
        <time>2013-04-14T19:36:21Z</time>
      </trkpt>
      <trkpt lat="48.55023" lon="2.67965">
        <ele>43.1</ele>
        <time>2013-04-14T19:36:26Z</time>
      </trkpt>
      <trkpt lat="48.54998" lon="2.67995">
        <ele>42.8</ele>
        <time>2013-04-14T19:36:32Z</time>
      </trkpt>
      <trkpt lat="48.54995" lon="2.67999">
        <ele>43</ele>
        <time>2013-04-14T19:36:37Z</time>
      </trkpt>
      <trkpt lat="48.54995" lon="2.67999">
        <ele>43</ele>
        <time>2013-04-14T19:36:46Z</time>
      </trkpt>
      <trkpt lat="48.54979" lon="2.68017">
        <ele>43.5</ele>
        <time>2013-04-14T19:36:51Z</time>
      </trkpt>
      <trkpt lat="48.54977" lon="2.68019">
        <ele>43.6</ele>
        <time>2013-04-14T19:36:57Z</time>
      </trkpt>
      <trkpt lat="48.54958" lon="2.6804">
        <ele>43.8</ele>
        <time>2013-04-14T19:37:04Z</time>
      </trkpt>
      <trkpt lat="48.54956" lon="2.6804">
        <ele>43.8</ele>
        <time>2013-04-14T19:37:08Z</time>
      </trkpt>
      <trkpt lat="48.54956" lon="2.6804">
        <ele>43.8</ele>
        <time>2013-04-14T19:37:19Z</time>
      </trkpt>
      <trkpt lat="48.54956" lon="2.6804">
        <ele>43.8</ele>
        <time>2013-04-14T19:37:23Z</time>
      </trkpt>
      <trkpt lat="48.54956" lon="2.6804">
        <ele>43.8</ele>
        <time>2013-04-14T19:37:28Z</time>
      </trkpt>
      <trkpt lat="48.54928" lon="2.6804">
        <ele>44.3</ele>
        <time>2013-04-14T19:37:34Z</time>
      </trkpt>
      <trkpt lat="48.54928" lon="2.6804">
        <ele>44.3</ele>
        <time>2013-04-14T19:37:42Z</time>
      </trkpt>
      <trkpt lat="48.54928" lon="2.6804">
        <ele>44.3</ele>
        <time>2013-04-14T19:37:47Z</time>
      </trkpt>
      <trkpt lat="48.54928" lon="2.6804">
        <ele>44.3</ele>
        <time>2013-04-14T19:37:52Z</time>
      </trkpt>
      <trkpt lat="48.54901" lon="2.68036">
        <ele>45.4</ele>
        <time>2013-04-14T19:37:58Z</time>
      </trkpt>
      <trkpt lat="48.54901" lon="2.68036">
        <ele>45.4</ele>
        <time>2013-04-14T19:38:03Z</time>
      </trkpt>
      <trkpt lat="48.54901" lon="2.68036">
        <ele>45.4</ele>
        <time>2013-04-14T19:38:08Z</time>
      </trkpt>
      <trkpt lat="48.54901" lon="2.68036">
        <ele>45.4</ele>
        <time>2013-04-14T19:38:16Z</time>
      </trkpt>
      <trkpt lat="48.5488" lon="2.68006">
        <ele>46.7</ele>
        <time>2013-04-14T19:38:23Z</time>
      </trkpt>
      <trkpt lat="48.5488" lon="2.68006">
        <ele>46.7</ele>
        <time>2013-04-14T19:38:28Z</time>
      </trkpt>
      <trkpt lat="48.5488" lon="2.68006">
        <ele>46.7</ele>
        <time>2013-04-14T19:38:33Z</time>
      </trkpt>
      <trkpt lat="48.54857" lon="2.67984">
        <ele>47.8</ele>
        <time>2013-04-14T19:38:38Z</time>
      </trkpt>
      <trkpt lat="48.54827" lon="2.67978">
        <ele>49.8</ele>
        <time>2013-04-14T19:38:42Z</time>
      </trkpt>
      <trkpt lat="48.54813" lon="2.67971">
        <ele>50.4</ele>
        <time>2013-04-14T19:38:48Z</time>
      </trkpt>
      <trkpt lat="48.54811" lon="2.67971">
        <ele>50.6</ele>
        <time>2013-04-14T19:38:53Z</time>
      </trkpt>
      <trkpt lat="48.54811" lon="2.67971">
        <ele>50.6</ele>
        <time>2013-04-14T19:39:02Z</time>
      </trkpt>
      <trkpt lat="48.54811" lon="2.67971">
        <ele>50.6</ele>
        <time>2013-04-14T19:39:07Z</time>
      </trkpt>
      <trkpt lat="48.54795" lon="2.67952">
        <ele>51.1</ele>
        <time>2013-04-14T19:39:15Z</time>
      </trkpt>
      <trkpt lat="48.54795" lon="2.67952">
        <ele>51.1</ele>
        <time>2013-04-14T19:39:19Z</time>
      </trkpt>
      <trkpt lat="48.54777" lon="2.67954">
        <ele>52.8</ele>
        <time>2013-04-14T19:39:25Z</time>
      </trkpt>
      <trkpt lat="48.54772" lon="2.67956">
        <ele>53.6</ele>
        <time>2013-04-14T19:39:32Z</time>
      </trkpt>
      <trkpt lat="48.5476" lon="2.67961">
        <ele>55.4</ele>
        <time>2013-04-14T19:39:43Z</time>
      </trkpt>
      <trkpt lat="48.54753" lon="2.67963">
        <ele>56.3</ele>
        <time>2013-04-14T19:39:56Z</time>
      </trkpt>
      <trkpt lat="48.5474" lon="2.67967">
        <ele>58.5</ele>
        <time>2013-04-14T19:39:59Z</time>
      </trkpt>
      <trkpt lat="48.54738" lon="2.67967">
        <ele>58.8</ele>
        <time>2013-04-14T19:40:05Z</time>
      </trkpt>
      <trkpt lat="48.54723" lon="2.67967">
        <ele>61.3</ele>
        <time>2013-04-14T19:40:10Z</time>
      </trkpt>
      <trkpt lat="48.54701" lon="2.67967">
        <ele>62.5</ele>
        <time>2013-04-14T19:40:21Z</time>
      </trkpt>
      <trkpt lat="48.54701" lon="2.67967">
        <ele>62.5</ele>
        <time>2013-04-14T19:40:26Z</time>
      </trkpt>
      <trkpt lat="48.54701" lon="2.67967">
        <ele>62.5</ele>
        <time>2013-04-14T19:40:31Z</time>
      </trkpt>
      <trkpt lat="48.54683" lon="2.67969">
        <ele>63.7</ele>
        <time>2013-04-14T19:40:36Z</time>
      </trkpt>
      <trkpt lat="48.54678" lon="2.67967">
        <ele>64</ele>
        <time>2013-04-14T19:40:38Z</time>
      </trkpt>
      <trkpt lat="48.54678" lon="2.67967">
        <ele>64</ele>
        <time>2013-04-14T19:40:42Z</time>
      </trkpt>
      <trkpt lat="48.54671" lon="2.67965">
        <ele>64.4</ele>
        <time>2013-04-14T19:40:45Z</time>
      </trkpt>
      <trkpt lat="48.54659" lon="2.67965">
        <ele>65.4</ele>
        <time>2013-04-14T19:40:53Z</time>
      </trkpt>
      <trkpt lat="48.54659" lon="2.67965">
        <ele>65.4</ele>
        <time>2013-04-14T19:40:58Z</time>
      </trkpt>
      <trkpt lat="48.54659" lon="2.67965">
        <ele>65.4</ele>
        <time>2013-04-14T19:41:02Z</time>
      </trkpt>
      <trkpt lat="48.54643" lon="2.67971">
        <ele>66.7</ele>
        <time>2013-04-14T19:41:06Z</time>
      </trkpt>
      <trkpt lat="48.54633" lon="2.67989">
        <ele>68.7</ele>
        <time>2013-04-14T19:41:18Z</time>
      </trkpt>
      <trkpt lat="48.54631" lon="2.67991">
        <ele>69</ele>
        <time>2013-04-14T19:41:22Z</time>
      </trkpt>
      <trkpt lat="48.5465" lon="2.67989">
        <ele>67.2</ele>
        <time>2013-04-14T19:41:37Z</time>
      </trkpt>
      <trkpt lat="48.54655" lon="2.67987">
        <ele>66.6</ele>
        <time>2013-04-14T19:41:49Z</time>
      </trkpt>
      <trkpt lat="48.54655" lon="2.67987">
        <ele>66.6</ele>
        <time>2013-04-14T19:41:56Z</time>
      </trkpt>
      <trkpt lat="48.54655" lon="2.67987">
        <ele>66.6</ele>
        <time>2013-04-14T19:42:00Z</time>
      </trkpt>
      <trkpt lat="48.54655" lon="2.67987">
        <ele>66.6</ele>
        <time>2013-04-14T19:42:04Z</time>
      </trkpt>
      <trkpt lat="48.54672" lon="2.68021">
        <ele>66.3</ele>
        <time>2013-04-14T19:42:10Z</time>
      </trkpt>
      <trkpt lat="48.54672" lon="2.68021">
        <ele>66.3</ele>
        <time>2013-04-14T19:42:17Z</time>
      </trkpt>
      <trkpt lat="48.54676" lon="2.68059">
        <ele>68.2</ele>
        <time>2013-04-14T19:42:21Z</time>
      </trkpt>
      <trkpt lat="48.54682" lon="2.68068">
        <ele>68</ele>
        <time>2013-04-14T19:42:30Z</time>
      </trkpt>
      <trkpt lat="48.54682" lon="2.68068">
        <ele>68</ele>
        <time>2013-04-14T19:42:38Z</time>
      </trkpt>
      <trkpt lat="48.54682" lon="2.68068">
        <ele>68</ele>
        <time>2013-04-14T19:42:42Z</time>
      </trkpt>
      <trkpt lat="48.54687" lon="2.68111">
        <ele>68.3</ele>
        <time>2013-04-14T19:42:48Z</time>
      </trkpt>
      <trkpt lat="48.54687" lon="2.68135">
        <ele>70.5</ele>
        <time>2013-04-14T19:42:50Z</time>
      </trkpt>
      <trkpt lat="48.54689" lon="2.6815">
        <ele>71</ele>
        <time>2013-04-14T19:42:58Z</time>
      </trkpt>
      <trkpt lat="48.54689" lon="2.6815">
        <ele>71</ele>
        <time>2013-04-14T19:43:02Z</time>
      </trkpt>
      <trkpt lat="48.54689" lon="2.6815">
        <ele>71</ele>
        <time>2013-04-14T19:43:04Z</time>
      </trkpt>
      <trkpt lat="48.54689" lon="2.6815">
        <ele>71</ele>
        <time>2013-04-14T19:43:08Z</time>
      </trkpt>
      <trkpt lat="48.54696" lon="2.68175">
        <ele>71.5</ele>
        <time>2013-04-14T19:43:13Z</time>
      </trkpt>
      <trkpt lat="48.54696" lon="2.68175">
        <ele>71.5</ele>
        <time>2013-04-14T19:43:20Z</time>
      </trkpt>
      <trkpt lat="48.54696" lon="2.68175">
        <ele>71.5</ele>
        <time>2013-04-14T19:43:22Z</time>
      </trkpt>
      <trkpt lat="48.54696" lon="2.68175">
        <ele>71.5</ele>
        <time>2013-04-14T19:43:24Z</time>
      </trkpt>
      <trkpt lat="48.54701" lon="2.68216">
        <ele>73.7</ele>
        <time>2013-04-14T19:43:32Z</time>
      </trkpt>
      <trkpt lat="48.54701" lon="2.68216">
        <ele>73.7</ele>
        <time>2013-04-14T19:43:37Z</time>
      </trkpt>
      <trkpt lat="48.54708" lon="2.68253">
        <ele>73.6</ele>
        <time>2013-04-14T19:43:42Z</time>
      </trkpt>
      <trkpt lat="48.54712" lon="2.68265">
        <ele>73.6</ele>
        <time>2013-04-14T19:43:50Z</time>
      </trkpt>
      <trkpt lat="48.54717" lon="2.68296">
        <ele>74.6</ele>
        <time>2013-04-14T19:44:03Z</time>
      </trkpt>
      <trkpt lat="48.54718" lon="2.68302">
        <ele>74.9</ele>
        <time>2013-04-14T19:44:10Z</time>
      </trkpt>
      <trkpt lat="48.54719" lon="2.68313">
        <ele>75.4</ele>
        <time>2013-04-14T19:44:13Z</time>
      </trkpt>
      <trkpt lat="48.54719" lon="2.68313">
        <ele>75.4</ele>
        <time>2013-04-14T19:44:24Z</time>
      </trkpt>
      <trkpt lat="48.54719" lon="2.68334">
        <ele>76.1</ele>
        <time>2013-04-14T19:44:28Z</time>
      </trkpt>
      <trkpt lat="48.54719" lon="2.68334">
        <ele>76.1</ele>
        <time>2013-04-14T19:44:35Z</time>
      </trkpt>
      <trkpt lat="48.54719" lon="2.68334">
        <ele>76.1</ele>
        <time>2013-04-14T19:44:37Z</time>
      </trkpt>
      <trkpt lat="48.54719" lon="2.68334">
        <ele>76.1</ele>
        <time>2013-04-14T19:44:41Z</time>
      </trkpt>
      <trkpt lat="48.54723" lon="2.68362">
        <ele>76.9</ele>
        <time>2013-04-14T19:44:45Z</time>
      </trkpt>
      <trkpt lat="48.54728" lon="2.68366">
        <ele>76.4</ele>
        <time>2013-04-14T19:44:53Z</time>
      </trkpt>
      <trkpt lat="48.54728" lon="2.68366">
        <ele>76.4</ele>
        <time>2013-04-14T19:44:58Z</time>
      </trkpt>
      <trkpt lat="48.54728" lon="2.68366">
        <ele>76.4</ele>
        <time>2013-04-14T19:45:03Z</time>
      </trkpt>
      <trkpt lat="48.5474" lon="2.68394">
        <ele>75.7</ele>
        <time>2013-04-14T19:45:07Z</time>
      </trkpt>
      <trkpt lat="48.5474" lon="2.68394">
        <ele>75.7</ele>
        <time>2013-04-14T19:45:15Z</time>
      </trkpt>
      <trkpt lat="48.5474" lon="2.68394">
        <ele>75.7</ele>
        <time>2013-04-14T19:45:17Z</time>
      </trkpt>
      <trkpt lat="48.5474" lon="2.68394">
        <ele>75.7</ele>
        <time>2013-04-14T19:45:19Z</time>
      </trkpt>
      <trkpt lat="48.54755" lon="2.68429">
        <ele>75.4</ele>
        <time>2013-04-14T19:45:25Z</time>
      </trkpt>
      <trkpt lat="48.54758" lon="2.68439">
        <ele>75.8</ele>
        <time>2013-04-14T19:45:33Z</time>
      </trkpt>
      <trkpt lat="48.54766" lon="2.68465">
        <ele>75.7</ele>
        <time>2013-04-14T19:45:37Z</time>
      </trkpt>
      <trkpt lat="48.54767" lon="2.68471">
        <ele>75.7</ele>
        <time>2013-04-14T19:45:44Z</time>
      </trkpt>
      <trkpt lat="48.54772" lon="2.68489">
        <ele>75.4</ele>
        <time>2013-04-14T19:45:48Z</time>
      </trkpt>
      <trkpt lat="48.54772" lon="2.68489">
        <ele>75.4</ele>
        <time>2013-04-14T19:45:54Z</time>
      </trkpt>
      <trkpt lat="48.54772" lon="2.68489">
        <ele>75.4</ele>
        <time>2013-04-14T19:45:58Z</time>
      </trkpt>
      <trkpt lat="48.54777" lon="2.68519">
        <ele>75.7</ele>
        <time>2013-04-14T19:46:02Z</time>
      </trkpt>
      <trkpt lat="48.5478" lon="2.68538">
        <ele>75.8</ele>
        <time>2013-04-14T19:46:11Z</time>
      </trkpt>
      <trkpt lat="48.54786" lon="2.68557">
        <ele>75.2</ele>
        <time>2013-04-14T19:46:21Z</time>
      </trkpt>
      <trkpt lat="48.54786" lon="2.68557">
        <ele>75.2</ele>
        <time>2013-04-14T19:46:23Z</time>
      </trkpt>
      <trkpt lat="48.5479" lon="2.68568">
        <ele>75.1</ele>
        <time>2013-04-14T19:46:27Z</time>
      </trkpt>
      <trkpt lat="48.548" lon="2.68602">
        <ele>74.6</ele>
        <time>2013-04-14T19:46:40Z</time>
      </trkpt>
      <trkpt lat="48.54801" lon="2.68609">
        <ele>74.5</ele>
        <time>2013-04-14T19:46:46Z</time>
      </trkpt>
      <trkpt lat="48.54804" lon="2.68626">
        <ele>74.7</ele>
        <time>2013-04-14T19:46:50Z</time>
      </trkpt>
      <trkpt lat="48.54811" lon="2.68675">
        <ele>75.4</ele>
        <time>2013-04-14T19:47:13Z</time>
      </trkpt>
      <trkpt lat="48.54813" lon="2.68686">
        <ele>75.2</ele>
        <time>2013-04-14T19:47:15Z</time>
      </trkpt>
      <trkpt lat="48.54814" lon="2.6869">
        <ele>75.1</ele>
        <time>2013-04-14T19:47:21Z</time>
      </trkpt>
      <trkpt lat="48.54812" lon="2.68703">
        <ele>75.3</ele>
        <time>2013-04-14T19:47:24Z</time>
      </trkpt>
      <trkpt lat="48.54812" lon="2.6871">
        <ele>75.3</ele>
        <time>2013-04-14T19:47:26Z</time>
      </trkpt>
      <trkpt lat="48.54813" lon="2.6872">
        <ele>75.2</ele>
        <time>2013-04-14T19:47:33Z</time>
      </trkpt>
      <trkpt lat="48.54822" lon="2.68759">
        <ele>74.8</ele>
        <time>2013-04-14T19:47:50Z</time>
      </trkpt>
      <trkpt lat="48.54836" lon="2.68806">
        <ele>74.7</ele>
        <time>2013-04-14T19:48:14Z</time>
      </trkpt>
      <trkpt lat="48.54836" lon="2.6881">
        <ele>74.9</ele>
        <time>2013-04-14T19:48:20Z</time>
      </trkpt>
      <trkpt lat="48.54845" lon="2.68821">
        <ele>74.3</ele>
        <time>2013-04-14T19:48:26Z</time>
      </trkpt>
      <trkpt lat="48.54849" lon="2.68834">
        <ele>74.3</ele>
        <time>2013-04-14T19:48:35Z</time>
      </trkpt>
      <trkpt lat="48.54857" lon="2.68858">
        <ele>73.4</ele>
        <time>2013-04-14T19:48:46Z</time>
      </trkpt>
      <trkpt lat="48.54858" lon="2.6886">
        <ele>73.3</ele>
        <time>2013-04-14T19:48:50Z</time>
      </trkpt>
      <trkpt lat="48.54859" lon="2.68871">
        <ele>73.9</ele>
        <time>2013-04-14T19:48:53Z</time>
      </trkpt>
      <trkpt lat="48.54861" lon="2.68886">
        <ele>74.8</ele>
        <time>2013-04-14T19:49:07Z</time>
      </trkpt>
      <trkpt lat="48.54868" lon="2.68916">
        <ele>73.8</ele>
        <time>2013-04-14T19:49:11Z</time>
      </trkpt>
      <trkpt lat="48.54871" lon="2.68933">
        <ele>73.4</ele>
        <time>2013-04-14T19:49:18Z</time>
      </trkpt>
      <trkpt lat="48.54876" lon="2.68965">
        <ele>73.3</ele>
        <time>2013-04-14T19:49:37Z</time>
      </trkpt>
      <trkpt lat="48.54878" lon="2.68978">
        <ele>73.3</ele>
        <time>2013-04-14T19:49:40Z</time>
      </trkpt>
      <trkpt lat="48.54884" lon="2.68999">
        <ele>73.3</ele>
        <time>2013-04-14T19:49:50Z</time>
      </trkpt>
      <trkpt lat="48.54884" lon="2.68999">
        <ele>73.3</ele>
        <time>2013-04-14T19:49:53Z</time>
      </trkpt>
      <trkpt lat="48.54884" lon="2.68999">
        <ele>73.3</ele>
        <time>2013-04-14T19:49:55Z</time>
      </trkpt>
      <trkpt lat="48.54884" lon="2.68999">
        <ele>73.3</ele>
        <time>2013-04-14T19:50:10Z</time>
      </trkpt>
      <trkpt lat="48.5489" lon="2.69042">
        <ele>74.2</ele>
        <time>2013-04-14T19:50:16Z</time>
      </trkpt>
      <trkpt lat="48.54895" lon="2.69072">
        <ele>73.5</ele>
        <time>2013-04-14T19:50:27Z</time>
      </trkpt>
      <trkpt lat="48.54895" lon="2.69074">
        <ele>73.5</ele>
        <time>2013-04-14T19:50:31Z</time>
      </trkpt>
      <trkpt lat="48.54899" lon="2.69083">
        <ele>72.8</ele>
        <time>2013-04-14T19:50:33Z</time>
      </trkpt>
      <trkpt lat="48.54915" lon="2.69115">
        <ele>71.6</ele>
        <time>2013-04-14T19:50:49Z</time>
      </trkpt>
      <trkpt lat="48.54915" lon="2.69115">
        <ele>71.6</ele>
        <time>2013-04-14T19:50:51Z</time>
      </trkpt>
      <trkpt lat="48.54915" lon="2.69115">
        <ele>71.6</ele>
        <time>2013-04-14T19:50:53Z</time>
      </trkpt>
      <trkpt lat="48.54919" lon="2.69122">
        <ele>71.6</ele>
        <time>2013-04-14T19:50:55Z</time>
      </trkpt>
      <trkpt lat="48.54927" lon="2.69145">
        <ele>71.6</ele>
        <time>2013-04-14T19:51:09Z</time>
      </trkpt>
      <trkpt lat="48.54924" lon="2.69162">
        <ele>72.8</ele>
        <time>2013-04-14T19:51:16Z</time>
      </trkpt>
      <trkpt lat="48.54923" lon="2.69173">
        <ele>73.2</ele>
        <time>2013-04-14T19:51:24Z</time>
      </trkpt>
      <trkpt lat="48.54922" lon="2.69186">
        <ele>73.5</ele>
        <time>2013-04-14T19:51:28Z</time>
      </trkpt>
      <trkpt lat="48.54923" lon="2.69201">
        <ele>73.5</ele>
        <time>2013-04-14T19:51:37Z</time>
      </trkpt>
      <trkpt lat="48.54922" lon="2.69218">
        <ele>73.6</ele>
        <time>2013-04-14T19:51:43Z</time>
      </trkpt>
      <trkpt lat="48.54923" lon="2.69227">
        <ele>73.5</ele>
        <time>2013-04-14T19:51:50Z</time>
      </trkpt>
      <trkpt lat="48.54925" lon="2.69253">
        <ele>73.4</ele>
        <time>2013-04-14T19:52:06Z</time>
      </trkpt>
      <trkpt lat="48.54925" lon="2.69259">
        <ele>73.4</ele>
        <time>2013-04-14T19:52:15Z</time>
      </trkpt>
      <trkpt lat="48.54925" lon="2.69259">
        <ele>73.4</ele>
        <time>2013-04-14T19:52:18Z</time>
      </trkpt>
      <trkpt lat="48.54928" lon="2.69274">
        <ele>73.2</ele>
        <time>2013-04-14T19:52:22Z</time>
      </trkpt>
      <trkpt lat="48.5493" lon="2.69283">
        <ele>73</ele>
        <time>2013-04-14T19:52:32Z</time>
      </trkpt>
      <trkpt lat="48.5493" lon="2.69283">
        <ele>73</ele>
        <time>2013-04-14T19:52:34Z</time>
      </trkpt>
      <trkpt lat="48.54931" lon="2.69313">
        <ele>73.1</ele>
        <time>2013-04-14T19:52:38Z</time>
      </trkpt>
      <trkpt lat="48.54931" lon="2.69317">
        <ele>73.2</ele>
        <time>2013-04-14T19:52:47Z</time>
      </trkpt>
      <trkpt lat="48.54931" lon="2.69317">
        <ele>73.2</ele>
        <time>2013-04-14T19:52:50Z</time>
      </trkpt>
      <trkpt lat="48.5493" lon="2.69353">
        <ele>73.5</ele>
        <time>2013-04-14T19:52:54Z</time>
      </trkpt>
      <trkpt lat="48.54929" lon="2.69373">
        <ele>73.4</ele>
        <time>2013-04-14T19:53:02Z</time>
      </trkpt>
      <trkpt lat="48.54929" lon="2.69375">
        <ele>73.3</ele>
        <time>2013-04-14T19:53:06Z</time>
      </trkpt>
      <trkpt lat="48.54929" lon="2.69381">
        <ele>73.2</ele>
        <time>2013-04-14T19:53:10Z</time>
      </trkpt>
      <trkpt lat="48.54929" lon="2.69398">
        <ele>72.9</ele>
        <time>2013-04-14T19:53:16Z</time>
      </trkpt>
      <trkpt lat="48.54929" lon="2.69411">
        <ele>72.7</ele>
        <time>2013-04-14T19:53:26Z</time>
      </trkpt>
      <trkpt lat="48.54929" lon="2.69411">
        <ele>72.7</ele>
        <time>2013-04-14T19:53:29Z</time>
      </trkpt>
      <trkpt lat="48.54927" lon="2.69437">
        <ele>72.4</ele>
        <time>2013-04-14T19:53:34Z</time>
      </trkpt>
      <trkpt lat="48.54923" lon="2.69465">
        <ele>72.5</ele>
        <time>2013-04-14T19:53:39Z</time>
      </trkpt>
      <trkpt lat="48.54922" lon="2.69471">
        <ele>72.6</ele>
        <time>2013-04-14T19:53:45Z</time>
      </trkpt>
      <trkpt lat="48.54922" lon="2.69484">
        <ele>72.6</ele>
        <time>2013-04-14T19:53:48Z</time>
      </trkpt>
      <trkpt lat="48.54927" lon="2.69495">
        <ele>72.3</ele>
        <time>2013-04-14T19:53:54Z</time>
      </trkpt>
      <trkpt lat="48.54936" lon="2.69508">
        <ele>71.4</ele>
        <time>2013-04-14T19:54:04Z</time>
      </trkpt>
      <trkpt lat="48.54946" lon="2.69501">
        <ele>70.9</ele>
        <time>2013-04-14T19:54:15Z</time>
      </trkpt>
      <trkpt lat="48.54956" lon="2.69489">
        <ele>70.2</ele>
        <time>2013-04-14T19:54:20Z</time>
      </trkpt>
      <trkpt lat="48.5496" lon="2.69486">
        <ele>69.9</ele>
        <time>2013-04-14T19:54:28Z</time>
      </trkpt>
      <trkpt lat="48.54967" lon="2.69486">
        <ele>69.4</ele>
        <time>2013-04-14T19:54:32Z</time>
      </trkpt>
      <trkpt lat="48.54972" lon="2.69486">
        <ele>69</ele>
        <time>2013-04-14T19:54:39Z</time>
      </trkpt>
      <trkpt lat="48.54979" lon="2.69486">
        <ele>68.4</ele>
        <time>2013-04-14T19:54:41Z</time>
      </trkpt>
      <trkpt lat="48.54988" lon="2.69491">
        <ele>67.5</ele>
        <time>2013-04-14T19:54:52Z</time>
      </trkpt>
      <trkpt lat="48.54994" lon="2.69491">
        <ele>66.9</ele>
        <time>2013-04-14T19:54:59Z</time>
      </trkpt>
      <trkpt lat="48.55005" lon="2.69491">
        <ele>65.9</ele>
        <time>2013-04-14T19:55:04Z</time>
      </trkpt>
      <trkpt lat="48.55027" lon="2.69495">
        <ele>64.1</ele>
        <time>2013-04-14T19:55:19Z</time>
      </trkpt>
      <trkpt lat="48.55032" lon="2.69497">
        <ele>63.6</ele>
        <time>2013-04-14T19:55:26Z</time>
      </trkpt>
      <trkpt lat="48.55032" lon="2.69497">
        <ele>63.6</ele>
        <time>2013-04-14T19:55:32Z</time>
      </trkpt>
      <trkpt lat="48.55032" lon="2.69497">
        <ele>63.6</ele>
        <time>2013-04-14T19:55:34Z</time>
      </trkpt>
      <trkpt lat="48.55032" lon="2.69497">
        <ele>63.6</ele>
        <time>2013-04-14T19:55:36Z</time>
      </trkpt>
      <trkpt lat="48.55047" lon="2.69501">
        <ele>61.9</ele>
        <time>2013-04-14T19:55:39Z</time>
      </trkpt>
      <trkpt lat="48.55067" lon="2.69504">
        <ele>60.2</ele>
        <time>2013-04-14T19:55:48Z</time>
      </trkpt>
      <trkpt lat="48.55079" lon="2.69501">
        <ele>59.3</ele>
        <time>2013-04-14T19:55:57Z</time>
      </trkpt>
      <trkpt lat="48.55099" lon="2.69499">
        <ele>57.3</ele>
        <time>2013-04-14T19:56:17Z</time>
      </trkpt>
      <trkpt lat="48.55113" lon="2.69486">
        <ele>55.9</ele>
        <time>2013-04-14T19:56:30Z</time>
      </trkpt>
      <trkpt lat="48.55114" lon="2.6948">
        <ele>55.8</ele>
        <time>2013-04-14T19:56:35Z</time>
      </trkpt>
      <trkpt lat="48.55123" lon="2.69454">
        <ele>54.5</ele>
        <time>2013-04-14T19:56:50Z</time>
      </trkpt>
      <trkpt lat="48.55126" lon="2.69431">
        <ele>53.4</ele>
        <time>2013-04-14T19:56:59Z</time>
      </trkpt>
      <trkpt lat="48.55127" lon="2.6942">
        <ele>53</ele>
        <time>2013-04-14T19:57:08Z</time>
      </trkpt>
      <trkpt lat="48.55127" lon="2.69411">
        <ele>52.8</ele>
        <time>2013-04-14T19:57:10Z</time>
      </trkpt>
      <trkpt lat="48.55126" lon="2.69396">
        <ele>52.9</ele>
        <time>2013-04-14T19:57:19Z</time>
      </trkpt>
      <trkpt lat="48.55124" lon="2.69377">
        <ele>52.7</ele>
        <time>2013-04-14T19:57:34Z</time>
      </trkpt>
      <trkpt lat="48.55124" lon="2.69377">
        <ele>52.7</ele>
        <time>2013-04-14T19:57:38Z</time>
      </trkpt>
      <trkpt lat="48.55121" lon="2.69353">
        <ele>52</ele>
        <time>2013-04-14T19:57:42Z</time>
      </trkpt>
      <trkpt lat="48.55119" lon="2.69323">
        <ele>50.2</ele>
        <time>2013-04-14T19:57:56Z</time>
      </trkpt>
      <trkpt lat="48.55116" lon="2.69313">
        <ele>50</ele>
        <time>2013-04-14T19:57:58Z</time>
      </trkpt>
      <trkpt lat="48.55116" lon="2.69313">
        <ele>50</ele>
        <time>2013-04-14T19:58:04Z</time>
      </trkpt>
      <trkpt lat="48.55116" lon="2.69313">
        <ele>50</ele>
        <time>2013-04-14T19:58:08Z</time>
      </trkpt>
      <trkpt lat="48.55116" lon="2.69313">
        <ele>50</ele>
        <time>2013-04-14T19:58:26Z</time>
      </trkpt>
      <trkpt lat="48.55111" lon="2.69272">
        <ele>48.8</ele>
        <time>2013-04-14T19:58:32Z</time>
      </trkpt>
      <trkpt lat="48.55112" lon="2.69229">
        <ele>47.2</ele>
        <time>2013-04-14T19:58:38Z</time>
      </trkpt>
      <trkpt lat="48.55111" lon="2.69205">
        <ele>47</ele>
        <time>2013-04-14T19:58:46Z</time>
      </trkpt>
      <trkpt lat="48.55111" lon="2.69205">
        <ele>47</ele>
        <time>2013-04-14T19:58:51Z</time>
      </trkpt>
      <trkpt lat="48.55109" lon="2.6919">
        <ele>47.1</ele>
        <time>2013-04-14T19:58:54Z</time>
      </trkpt>
      <trkpt lat="48.55109" lon="2.6918">
        <ele>47</ele>
        <time>2013-04-14T19:58:58Z</time>
      </trkpt>
      <trkpt lat="48.55109" lon="2.69177">
        <ele>47</ele>
        <time>2013-04-14T19:59:03Z</time>
      </trkpt>
      <trkpt lat="48.55111" lon="2.69162">
        <ele>46.8</ele>
        <time>2013-04-14T19:59:09Z</time>
      </trkpt>
      <trkpt lat="48.55118" lon="2.69143">
        <ele>45.9</ele>
        <time>2013-04-14T19:59:14Z</time>
      </trkpt>
      <trkpt lat="48.55125" lon="2.69128">
        <ele>45.7</ele>
        <time>2013-04-14T19:59:23Z</time>
      </trkpt>
      <trkpt lat="48.55125" lon="2.69128">
        <ele>45.7</ele>
        <time>2013-04-14T19:59:27Z</time>
      </trkpt>
      <trkpt lat="48.55125" lon="2.69128">
        <ele>45.7</ele>
        <time>2013-04-14T19:59:32Z</time>
      </trkpt>
      <trkpt lat="48.55138" lon="2.69104">
        <ele>46.4</ele>
        <time>2013-04-14T19:59:36Z</time>
      </trkpt>
      <trkpt lat="48.55152" lon="2.6907">
        <ele>46.2</ele>
        <time>2013-04-14T19:59:50Z</time>
      </trkpt>
      <trkpt lat="48.55152" lon="2.6907">
        <ele>46.2</ele>
        <time>2013-04-14T19:59:55Z</time>
      </trkpt>
      <trkpt lat="48.55162" lon="2.69059">
        <ele>46.9</ele>
        <time>2013-04-14T19:59:59Z</time>
      </trkpt>
      <trkpt lat="48.55167" lon="2.69057">
        <ele>46.9</ele>
        <time>2013-04-14T20:00:08Z</time>
      </trkpt>
      <trkpt lat="48.55174" lon="2.69059">
        <ele>46.6</ele>
        <time>2013-04-14T20:00:12Z</time>
      </trkpt>
      <trkpt lat="48.55181" lon="2.69059">
        <ele>46.4</ele>
        <time>2013-04-14T20:00:20Z</time>
      </trkpt>
      <trkpt lat="48.5519" lon="2.69062">
        <ele>46.1</ele>
        <time>2013-04-14T20:00:24Z</time>
      </trkpt>
      <trkpt lat="48.55196" lon="2.69066">
        <ele>46.1</ele>
        <time>2013-04-14T20:00:31Z</time>
      </trkpt>
      <trkpt lat="48.55199" lon="2.69068">
        <ele>46.4</ele>
        <time>2013-04-14T20:00:39Z</time>
      </trkpt>
      <trkpt lat="48.55207" lon="2.69077">
        <ele>47</ele>
        <time>2013-04-14T20:00:42Z</time>
      </trkpt>
      <trkpt lat="48.55215" lon="2.69081">
        <ele>47.5</ele>
        <time>2013-04-14T20:00:51Z</time>
      </trkpt>
      <trkpt lat="48.55215" lon="2.69081">
        <ele>47.5</ele>
        <time>2013-04-14T20:00:55Z</time>
      </trkpt>
      <trkpt lat="48.55223" lon="2.69083">
        <ele>48.1</ele>
        <time>2013-04-14T20:00:58Z</time>
      </trkpt>
      <trkpt lat="48.55233" lon="2.69087">
        <ele>49.3</ele>
        <time>2013-04-14T20:01:04Z</time>
      </trkpt>
      <trkpt lat="48.55253" lon="2.69098">
        <ele>50.8</ele>
        <time>2013-04-14T20:01:18Z</time>
      </trkpt>
      <trkpt lat="48.55254" lon="2.69104">
        <ele>50.3</ele>
        <time>2013-04-14T20:01:23Z</time>
      </trkpt>
      <trkpt lat="48.55259" lon="2.69113">
        <ele>50.1</ele>
        <time>2013-04-14T20:01:25Z</time>
      </trkpt>
      <trkpt lat="48.55288" lon="2.69165">
        <ele>48.3</ele>
        <time>2013-04-14T20:01:55Z</time>
      </trkpt>
      <trkpt lat="48.55301" lon="2.6918">
        <ele>48.2</ele>
        <time>2013-04-14T20:02:06Z</time>
      </trkpt>
      <trkpt lat="48.55322" lon="2.69197">
        <ele>48.6</ele>
        <time>2013-04-14T20:02:24Z</time>
      </trkpt>
      <trkpt lat="48.55333" lon="2.69201">
        <ele>49.3</ele>
        <time>2013-04-14T20:02:31Z</time>
      </trkpt>
      <trkpt lat="48.55341" lon="2.69207">
        <ele>49.5</ele>
        <time>2013-04-14T20:02:41Z</time>
      </trkpt>
      <trkpt lat="48.55341" lon="2.69208">
        <ele>49.4</ele>
        <time>2013-04-14T20:02:41Z</time>
      </trkpt>
      <trkpt lat="48.55349" lon="2.6921">
        <ele>50</ele>
        <time>2013-04-14T20:02:49Z</time>
      </trkpt>
      <trkpt lat="48.55349" lon="2.6921">
        <ele>50</ele>
        <time>2013-04-14T20:02:58Z</time>
      </trkpt>
      <trkpt lat="48.55349" lon="2.6921">
        <ele>50</ele>
        <time>2013-04-14T20:03:07Z</time>
      </trkpt>
      <trkpt lat="48.55371" lon="2.69218">
        <ele>51.5</ele>
        <time>2013-04-14T20:03:11Z</time>
      </trkpt>
      <trkpt lat="48.55379" lon="2.69222">
        <ele>52</ele>
        <time>2013-04-14T20:03:18Z</time>
      </trkpt>
      <trkpt lat="48.55386" lon="2.69233">
        <ele>51.6</ele>
        <time>2013-04-14T20:03:22Z</time>
      </trkpt>
      <trkpt lat="48.5539" lon="2.69248">
        <ele>50.3</ele>
        <time>2013-04-14T20:03:27Z</time>
      </trkpt>
      <trkpt lat="48.55396" lon="2.69263">
        <ele>49.2</ele>
        <time>2013-04-14T20:03:36Z</time>
      </trkpt>
      <trkpt lat="48.55403" lon="2.69272">
        <ele>48.7</ele>
        <time>2013-04-14T20:03:38Z</time>
      </trkpt>
      <trkpt lat="48.55412" lon="2.6928">
        <ele>48.5</ele>
        <time>2013-04-14T20:03:47Z</time>
      </trkpt>
      <trkpt lat="48.55412" lon="2.6928">
        <ele>48.5</ele>
        <time>2013-04-14T20:03:51Z</time>
      </trkpt>
      <trkpt lat="48.55412" lon="2.6928">
        <ele>48.5</ele>
        <time>2013-04-14T20:03:59Z</time>
      </trkpt>
      <trkpt lat="48.55434" lon="2.69304">
        <ele>48.4</ele>
        <time>2013-04-14T20:04:05Z</time>
      </trkpt>
      <trkpt lat="48.55442" lon="2.69315">
        <ele>47.9</ele>
        <time>2013-04-14T20:04:11Z</time>
      </trkpt>
      <trkpt lat="48.55457" lon="2.69332">
        <ele>47.5</ele>
        <time>2013-04-14T20:04:27Z</time>
      </trkpt>
      <trkpt lat="48.55466" lon="2.69345">
        <ele>47.4</ele>
        <time>2013-04-14T20:04:31Z</time>
      </trkpt>
      <trkpt lat="48.55479" lon="2.69358">
        <ele>46.8</ele>
        <time>2013-04-14T20:04:40Z</time>
      </trkpt>
      <trkpt lat="48.55482" lon="2.69362">
        <ele>46.7</ele>
        <time>2013-04-14T20:04:47Z</time>
      </trkpt>
      <trkpt lat="48.55489" lon="2.69371">
        <ele>47</ele>
        <time>2013-04-14T20:04:51Z</time>
      </trkpt>
      <trkpt lat="48.55496" lon="2.69383">
        <ele>47</ele>
        <time>2013-04-14T20:05:00Z</time>
      </trkpt>
      <trkpt lat="48.5551" lon="2.69403">
        <ele>47</ele>
        <time>2013-04-14T20:05:11Z</time>
      </trkpt>
      <trkpt lat="48.5553" lon="2.69426">
        <ele>46.8</ele>
        <time>2013-04-14T20:05:29Z</time>
      </trkpt>
      <trkpt lat="48.55532" lon="2.69431">
        <ele>46.7</ele>
        <time>2013-04-14T20:05:35Z</time>
      </trkpt>
      <trkpt lat="48.55537" lon="2.69448">
        <ele>46.3</ele>
        <time>2013-04-14T20:05:39Z</time>
      </trkpt>
      <trkpt lat="48.55546" lon="2.69463">
        <ele>46.7</ele>
        <time>2013-04-14T20:05:51Z</time>
      </trkpt>
      <trkpt lat="48.55553" lon="2.69471">
        <ele>46.9</ele>
        <time>2013-04-14T20:06:04Z</time>
      </trkpt>
      <trkpt lat="48.55567" lon="2.6948">
        <ele>47.3</ele>
        <time>2013-04-14T20:06:11Z</time>
      </trkpt>
      <trkpt lat="48.55584" lon="2.69486">
        <ele>47.6</ele>
        <time>2013-04-14T20:06:22Z</time>
      </trkpt>
      <trkpt lat="48.55593" lon="2.69486">
        <ele>48.7</ele>
        <time>2013-04-14T20:06:28Z</time>
      </trkpt>
      <trkpt lat="48.55595" lon="2.69486">
        <ele>49</ele>
        <time>2013-04-14T20:06:33Z</time>
      </trkpt>
      <trkpt lat="48.55598" lon="2.69482">
        <ele>49.6</ele>
        <time>2013-04-14T20:06:37Z</time>
      </trkpt>
      <trkpt lat="48.55608" lon="2.69465">
        <ele>51.8</ele>
        <time>2013-04-14T20:06:50Z</time>
      </trkpt>
      <trkpt lat="48.55618" lon="2.69446">
        <ele>54.2</ele>
        <time>2013-04-14T20:07:06Z</time>
      </trkpt>
      <trkpt lat="48.55618" lon="2.69439">
        <ele>54.9</ele>
        <time>2013-04-14T20:07:08Z</time>
      </trkpt>
      <trkpt lat="48.55618" lon="2.69424">
        <ele>56.8</ele>
        <time>2013-04-14T20:07:17Z</time>
      </trkpt>
      <trkpt lat="48.55619" lon="2.69407">
        <ele>59</ele>
        <time>2013-04-14T20:07:30Z</time>
      </trkpt>
      <trkpt lat="48.55624" lon="2.69394">
        <ele>61.2</ele>
        <time>2013-04-14T20:07:41Z</time>
      </trkpt>
      <trkpt lat="48.55628" lon="2.6939">
        <ele>62.3</ele>
        <time>2013-04-14T20:07:52Z</time>
      </trkpt>
      <trkpt lat="48.55641" lon="2.69388">
        <ele>64.4</ele>
        <time>2013-04-14T20:08:01Z</time>
      </trkpt>
      <trkpt lat="48.55645" lon="2.6939">
        <ele>64.7</ele>
        <time>2013-04-14T20:08:05Z</time>
      </trkpt>
      <trkpt lat="48.55656" lon="2.69392">
        <ele>66.1</ele>
        <time>2013-04-14T20:08:14Z</time>
      </trkpt>
      <trkpt lat="48.55656" lon="2.69392">
        <ele>66.1</ele>
        <time>2013-04-14T20:08:19Z</time>
      </trkpt>
      <trkpt lat="48.55656" lon="2.69392">
        <ele>66.1</ele>
        <time>2013-04-14T20:08:25Z</time>
      </trkpt>
      <trkpt lat="48.55675" lon="2.69403">
        <ele>67.5</ele>
        <time>2013-04-14T20:08:30Z</time>
      </trkpt>
      <trkpt lat="48.55675" lon="2.69403">
        <ele>67.5</ele>
        <time>2013-04-14T20:08:40Z</time>
      </trkpt>
      <trkpt lat="48.55675" lon="2.69403">
        <ele>67.5</ele>
        <time>2013-04-14T20:08:44Z</time>
      </trkpt>
      <trkpt lat="48.55687" lon="2.6945">
        <ele>64.9</ele>
        <time>2013-04-14T20:08:51Z</time>
      </trkpt>
      <trkpt lat="48.55688" lon="2.69454">
        <ele>64.8</ele>
        <time>2013-04-14T20:08:56Z</time>
      </trkpt>
      <trkpt lat="48.55694" lon="2.69463">
        <ele>65.3</ele>
        <time>2013-04-14T20:09:00Z</time>
      </trkpt>
      <trkpt lat="48.55703" lon="2.6948">
        <ele>66.1</ele>
        <time>2013-04-14T20:09:16Z</time>
      </trkpt>
      <trkpt lat="48.55703" lon="2.6948">
        <ele>66.1</ele>
        <time>2013-04-14T20:09:18Z</time>
      </trkpt>
      <trkpt lat="48.55703" lon="2.6948">
        <ele>66.1</ele>
        <time>2013-04-14T20:09:20Z</time>
      </trkpt>
      <trkpt lat="48.55711" lon="2.69497">
        <ele>66.3</ele>
        <time>2013-04-14T20:09:25Z</time>
      </trkpt>
      <trkpt lat="48.55726" lon="2.69521">
        <ele>67</ele>
        <time>2013-04-14T20:09:40Z</time>
      </trkpt>
      <trkpt lat="48.55726" lon="2.69521">
        <ele>67</ele>
        <time>2013-04-14T20:09:44Z</time>
      </trkpt>
      <trkpt lat="48.55731" lon="2.69527">
        <ele>67.9</ele>
        <time>2013-04-14T20:09:48Z</time>
      </trkpt>
      <trkpt lat="48.55731" lon="2.69527">
        <ele>67.9</ele>
        <time>2013-04-14T20:09:58Z</time>
      </trkpt>
      <trkpt lat="48.55752" lon="2.69594">
        <ele>66</ele>
        <time>2013-04-14T20:10:05Z</time>
      </trkpt>
      <trkpt lat="48.55755" lon="2.69602">
        <ele>66</ele>
        <time>2013-04-14T20:10:09Z</time>
      </trkpt>
      <trkpt lat="48.5576" lon="2.69609">
        <ele>66</ele>
        <time>2013-04-14T20:10:19Z</time>
      </trkpt>
      <trkpt lat="48.5577" lon="2.69619">
        <ele>65.7</ele>
        <time>2013-04-14T20:10:23Z</time>
      </trkpt>
      <trkpt lat="48.55773" lon="2.69628">
        <ele>65.6</ele>
        <time>2013-04-14T20:10:30Z</time>
      </trkpt>
      <trkpt lat="48.55777" lon="2.69632">
        <ele>65.9</ele>
        <time>2013-04-14T20:10:40Z</time>
      </trkpt>
      <trkpt lat="48.55785" lon="2.69645">
        <ele>65.8</ele>
        <time>2013-04-14T20:10:45Z</time>
      </trkpt>
      <trkpt lat="48.55791" lon="2.6966">
        <ele>65.2</ele>
        <time>2013-04-14T20:10:54Z</time>
      </trkpt>
      <trkpt lat="48.55793" lon="2.69667">
        <ele>65</ele>
        <time>2013-04-14T20:10:56Z</time>
      </trkpt>
      <trkpt lat="48.55795" lon="2.69669">
        <ele>64.8</ele>
        <time>2013-04-14T20:11:02Z</time>
      </trkpt>
      <trkpt lat="48.55795" lon="2.69669">
        <ele>64.8</ele>
        <time>2013-04-14T20:11:06Z</time>
      </trkpt>
      <trkpt lat="48.55795" lon="2.69669">
        <ele>64.8</ele>
        <time>2013-04-14T20:11:09Z</time>
      </trkpt>
      <trkpt lat="48.55795" lon="2.69669">
        <ele>64.8</ele>
        <time>2013-04-14T20:11:11Z</time>
      </trkpt>
      <trkpt lat="48.55804" lon="2.69703">
        <ele>62.6</ele>
        <time>2013-04-14T20:11:16Z</time>
      </trkpt>
      <trkpt lat="48.55806" lon="2.69714">
        <ele>62.3</ele>
        <time>2013-04-14T20:11:23Z</time>
      </trkpt>
      <trkpt lat="48.55807" lon="2.69725">
        <ele>61.9</ele>
        <time>2013-04-14T20:11:27Z</time>
      </trkpt>
      <trkpt lat="48.55808" lon="2.69737">
        <ele>61.5</ele>
        <time>2013-04-14T20:11:36Z</time>
      </trkpt>
      <trkpt lat="48.55811" lon="2.6977">
        <ele>61</ele>
        <time>2013-04-14T20:11:40Z</time>
      </trkpt>
      <trkpt lat="48.55813" lon="2.69795">
        <ele>60.1</ele>
        <time>2013-04-14T20:11:47Z</time>
      </trkpt>
      <trkpt lat="48.55813" lon="2.69795">
        <ele>60.1</ele>
        <time>2013-04-14T20:11:51Z</time>
      </trkpt>
      <trkpt lat="48.55813" lon="2.69795">
        <ele>60.1</ele>
        <time>2013-04-14T20:11:53Z</time>
      </trkpt>
      <trkpt lat="48.55813" lon="2.69795">
        <ele>60.1</ele>
        <time>2013-04-14T20:11:58Z</time>
      </trkpt>
      <trkpt lat="48.55815" lon="2.6981">
        <ele>59.7</ele>
        <time>2013-04-14T20:12:01Z</time>
      </trkpt>
      <trkpt lat="48.55817" lon="2.69825">
        <ele>59.8</ele>
        <time>2013-04-14T20:12:03Z</time>
      </trkpt>
      <trkpt lat="48.55823" lon="2.69838">
        <ele>60.4</ele>
        <time>2013-04-14T20:12:14Z</time>
      </trkpt>
      <trkpt lat="48.55827" lon="2.6984">
        <ele>60.7</ele>
        <time>2013-04-14T20:12:16Z</time>
      </trkpt>
      <trkpt lat="48.55839" lon="2.69853">
        <ele>62.2</ele>
        <time>2013-04-14T20:12:26Z</time>
      </trkpt>
      <trkpt lat="48.55843" lon="2.6986">
        <ele>62.7</ele>
        <time>2013-04-14T20:12:34Z</time>
      </trkpt>
      <trkpt lat="48.55848" lon="2.6987">
        <ele>63.7</ele>
        <time>2013-04-14T20:12:38Z</time>
      </trkpt>
      <trkpt lat="48.55848" lon="2.6987">
        <ele>63.7</ele>
        <time>2013-04-14T20:12:44Z</time>
      </trkpt>
      <trkpt lat="48.55856" lon="2.69881">
        <ele>65.5</ele>
        <time>2013-04-14T20:12:48Z</time>
      </trkpt>
      <trkpt lat="48.55861" lon="2.69894">
        <ele>67</ele>
        <time>2013-04-14T20:12:51Z</time>
      </trkpt>
      <trkpt lat="48.55861" lon="2.69894">
        <ele>67</ele>
        <time>2013-04-14T20:12:57Z</time>
      </trkpt>
      <trkpt lat="48.55864" lon="2.69907">
        <ele>67.2</ele>
        <time>2013-04-14T20:13:01Z</time>
      </trkpt>
      <trkpt lat="48.55867" lon="2.69918">
        <ele>67.4</ele>
        <time>2013-04-14T20:13:03Z</time>
      </trkpt>
      <trkpt lat="48.55869" lon="2.69933">
        <ele>67.4</ele>
        <time>2013-04-14T20:13:13Z</time>
      </trkpt>
      <trkpt lat="48.55869" lon="2.69933">
        <ele>67.4</ele>
        <time>2013-04-14T20:13:15Z</time>
      </trkpt>
      <trkpt lat="48.55869" lon="2.69941">
        <ele>67.3</ele>
        <time>2013-04-14T20:13:17Z</time>
      </trkpt>
      <trkpt lat="48.55873" lon="2.6995">
        <ele>67.3</ele>
        <time>2013-04-14T20:13:26Z</time>
      </trkpt>
      <trkpt lat="48.55873" lon="2.6995">
        <ele>67.3</ele>
        <time>2013-04-14T20:13:29Z</time>
      </trkpt>
      <trkpt lat="48.55875" lon="2.69963">
        <ele>67.2</ele>
        <time>2013-04-14T20:13:32Z</time>
      </trkpt>
      <trkpt lat="48.55875" lon="2.69967">
        <ele>67.1</ele>
        <time>2013-04-14T20:13:41Z</time>
      </trkpt>
      <trkpt lat="48.55875" lon="2.69967">
        <ele>67.1</ele>
        <time>2013-04-14T20:13:43Z</time>
      </trkpt>
      <trkpt lat="48.55875" lon="2.69967">
        <ele>67.1</ele>
        <time>2013-04-14T20:13:45Z</time>
      </trkpt>
      <trkpt lat="48.55879" lon="2.69986">
        <ele>67.5</ele>
        <time>2013-04-14T20:13:48Z</time>
      </trkpt>
      <trkpt lat="48.5588" lon="2.70004">
        <ele>68.2</ele>
        <time>2013-04-14T20:13:58Z</time>
      </trkpt>
      <trkpt lat="48.5588" lon="2.70004">
        <ele>68.2</ele>
        <time>2013-04-14T20:14:01Z</time>
      </trkpt>
      <trkpt lat="48.55887" lon="2.70027">
        <ele>69.8</ele>
        <time>2013-04-14T20:14:05Z</time>
      </trkpt>
      <trkpt lat="48.55888" lon="2.7004">
        <ele>69.9</ele>
        <time>2013-04-14T20:14:13Z</time>
      </trkpt>
      <trkpt lat="48.55889" lon="2.70051">
        <ele>70</ele>
        <time>2013-04-14T20:14:17Z</time>
      </trkpt>
      <trkpt lat="48.55891" lon="2.70068">
        <ele>70.4</ele>
        <time>2013-04-14T20:14:28Z</time>
      </trkpt>
      <trkpt lat="48.55895" lon="2.70074">
        <ele>70.7</ele>
        <time>2013-04-14T20:14:31Z</time>
      </trkpt>
      <trkpt lat="48.55903" lon="2.70094">
        <ele>71.5</ele>
        <time>2013-04-14T20:14:41Z</time>
      </trkpt>
      <trkpt lat="48.55909" lon="2.70113">
        <ele>71.7</ele>
        <time>2013-04-14T20:14:54Z</time>
      </trkpt>
      <trkpt lat="48.55911" lon="2.70119">
        <ele>71.7</ele>
        <time>2013-04-14T20:14:56Z</time>
      </trkpt>
      <trkpt lat="48.55913" lon="2.70122">
        <ele>71.8</ele>
        <time>2013-04-14T20:15:02Z</time>
      </trkpt>
      <trkpt lat="48.55916" lon="2.70134">
        <ele>72</ele>
        <time>2013-04-14T20:15:08Z</time>
      </trkpt>
      <trkpt lat="48.55926" lon="2.70164">
        <ele>71.4</ele>
        <time>2013-04-14T20:15:19Z</time>
      </trkpt>
      <trkpt lat="48.55926" lon="2.70164">
        <ele>71.4</ele>
        <time>2013-04-14T20:15:22Z</time>
      </trkpt>
      <trkpt lat="48.55929" lon="2.70173">
        <ele>71.1</ele>
        <time>2013-04-14T20:15:25Z</time>
      </trkpt>
      <trkpt lat="48.55933" lon="2.70184">
        <ele>70.8</ele>
        <time>2013-04-14T20:15:31Z</time>
      </trkpt>
      <trkpt lat="48.55933" lon="2.70184">
        <ele>70.8</ele>
        <time>2013-04-14T20:15:38Z</time>
      </trkpt>
      <trkpt lat="48.55945" lon="2.70199">
        <ele>70.7</ele>
        <time>2013-04-14T20:15:44Z</time>
      </trkpt>
      <trkpt lat="48.55945" lon="2.70199">
        <ele>70.7</ele>
        <time>2013-04-14T20:15:50Z</time>
      </trkpt>
      <trkpt lat="48.5596" lon="2.7022">
        <ele>73.7</ele>
        <time>2013-04-14T20:15:55Z</time>
      </trkpt>
      <trkpt lat="48.55966" lon="2.70227">
        <ele>74.1</ele>
        <time>2013-04-14T20:16:02Z</time>
      </trkpt>
      <trkpt lat="48.55966" lon="2.70227">
        <ele>74.1</ele>
        <time>2013-04-14T20:16:06Z</time>
      </trkpt>
      <trkpt lat="48.55982" lon="2.70244">
        <ele>75.2</ele>
        <time>2013-04-14T20:16:10Z</time>
      </trkpt>
      <trkpt lat="48.55995" lon="2.7025">
        <ele>75.8</ele>
        <time>2013-04-14T20:16:19Z</time>
      </trkpt>
      <trkpt lat="48.55997" lon="2.7025">
        <ele>75.9</ele>
        <time>2013-04-14T20:16:25Z</time>
      </trkpt>
      <trkpt lat="48.55997" lon="2.7025">
        <ele>75.9</ele>
        <time>2013-04-14T20:16:30Z</time>
      </trkpt>
      <trkpt lat="48.55997" lon="2.7025">
        <ele>75.9</ele>
        <time>2013-04-14T20:16:34Z</time>
      </trkpt>
      <trkpt lat="48.56009" lon="2.70259">
        <ele>76</ele>
        <time>2013-04-14T20:16:39Z</time>
      </trkpt>
      <trkpt lat="48.56009" lon="2.70259">
        <ele>76</ele>
        <time>2013-04-14T20:16:47Z</time>
      </trkpt>
      <trkpt lat="48.56028" lon="2.70272">
        <ele>76</ele>
        <time>2013-04-14T20:16:51Z</time>
      </trkpt>
      <trkpt lat="48.56036" lon="2.7028">
        <ele>76.1</ele>
        <time>2013-04-14T20:16:59Z</time>
      </trkpt>
      <trkpt lat="48.56042" lon="2.70295">
        <ele>76.3</ele>
        <time>2013-04-14T20:17:08Z</time>
      </trkpt>
      <trkpt lat="48.56057" lon="2.70323">
        <ele>76</ele>
        <time>2013-04-14T20:17:22Z</time>
      </trkpt>
      <trkpt lat="48.56065" lon="2.70336">
        <ele>76.3</ele>
        <time>2013-04-14T20:17:34Z</time>
      </trkpt>
      <trkpt lat="48.56065" lon="2.70336">
        <ele>76.3</ele>
        <time>2013-04-14T20:17:36Z</time>
      </trkpt>
      <trkpt lat="48.56065" lon="2.70336">
        <ele>76.3</ele>
        <time>2013-04-14T20:17:38Z</time>
      </trkpt>
      <trkpt lat="48.56065" lon="2.70336">
        <ele>76.3</ele>
        <time>2013-04-14T20:17:43Z</time>
      </trkpt>
      <trkpt lat="48.56087" lon="2.7036">
        <ele>76.9</ele>
        <time>2013-04-14T20:17:48Z</time>
      </trkpt>
      <trkpt lat="48.56095" lon="2.70364">
        <ele>76.6</ele>
        <time>2013-04-14T20:17:57Z</time>
      </trkpt>
      <trkpt lat="48.561" lon="2.70368">
        <ele>76.5</ele>
        <time>2013-04-14T20:18:00Z</time>
      </trkpt>
      <trkpt lat="48.56117" lon="2.70385">
        <ele>76.9</ele>
        <time>2013-04-14T20:18:13Z</time>
      </trkpt>
      <trkpt lat="48.56128" lon="2.70394">
        <ele>76.9</ele>
        <time>2013-04-14T20:18:25Z</time>
      </trkpt>
      <trkpt lat="48.56139" lon="2.70394">
        <ele>77</ele>
        <time>2013-04-14T20:18:29Z</time>
      </trkpt>
      <trkpt lat="48.56145" lon="2.70403">
        <ele>77</ele>
        <time>2013-04-14T20:18:38Z</time>
      </trkpt>
      <trkpt lat="48.56145" lon="2.70403">
        <ele>77</ele>
        <time>2013-04-14T20:18:44Z</time>
      </trkpt>
      <trkpt lat="48.56145" lon="2.70403">
        <ele>77</ele>
        <time>2013-04-14T20:18:48Z</time>
      </trkpt>
      <trkpt lat="48.56145" lon="2.70403">
        <ele>77</ele>
        <time>2013-04-14T20:18:54Z</time>
      </trkpt>
      <trkpt lat="48.56181" lon="2.70409">
        <ele>77</ele>
        <time>2013-04-14T20:19:01Z</time>
      </trkpt>
      <trkpt lat="48.56186" lon="2.70411">
        <ele>77</ele>
        <time>2013-04-14T20:19:06Z</time>
      </trkpt>
      <trkpt lat="48.56193" lon="2.70418">
        <ele>77</ele>
        <time>2013-04-14T20:19:10Z</time>
      </trkpt>
      <trkpt lat="48.56205" lon="2.70431">
        <ele>77.2</ele>
        <time>2013-04-14T20:19:24Z</time>
      </trkpt>
      <trkpt lat="48.56205" lon="2.70431">
        <ele>77.2</ele>
        <time>2013-04-14T20:19:29Z</time>
      </trkpt>
      <trkpt lat="48.56205" lon="2.70431">
        <ele>77.2</ele>
        <time>2013-04-14T20:19:35Z</time>
      </trkpt>
      <trkpt lat="48.56205" lon="2.70431">
        <ele>77.2</ele>
        <time>2013-04-14T20:19:50Z</time>
      </trkpt>
      <trkpt lat="48.56233" lon="2.70446">
        <ele>78</ele>
        <time>2013-04-14T20:19:55Z</time>
      </trkpt>
      <trkpt lat="48.56233" lon="2.70446">
        <ele>78</ele>
        <time>2013-04-14T20:20:05Z</time>
      </trkpt>
      <trkpt lat="48.56233" lon="2.70446">
        <ele>78</ele>
        <time>2013-04-14T20:20:09Z</time>
      </trkpt>
      <trkpt lat="48.56262" lon="2.7045">
        <ele>78</ele>
        <time>2013-04-14T20:20:14Z</time>
      </trkpt>
      <trkpt lat="48.56262" lon="2.7045">
        <ele>78</ele>
        <time>2013-04-14T20:20:23Z</time>
      </trkpt>
      <trkpt lat="48.56262" lon="2.7045">
        <ele>78</ele>
        <time>2013-04-14T20:20:27Z</time>
      </trkpt>
      <trkpt lat="48.56292" lon="2.70471">
        <ele>78.5</ele>
        <time>2013-04-14T20:20:32Z</time>
      </trkpt>
      <trkpt lat="48.56301" lon="2.70482">
        <ele>78.5</ele>
        <time>2013-04-14T20:20:38Z</time>
      </trkpt>
      <trkpt lat="48.56314" lon="2.70497">
        <ele>78.4</ele>
        <time>2013-04-14T20:20:53Z</time>
      </trkpt>
      <trkpt lat="48.56314" lon="2.70497">
        <ele>78.4</ele>
        <time>2013-04-14T20:20:59Z</time>
      </trkpt>
      <trkpt lat="48.56319" lon="2.70516">
        <ele>78.5</ele>
        <time>2013-04-14T20:21:03Z</time>
      </trkpt>
      <trkpt lat="48.56323" lon="2.70538">
        <ele>78.4</ele>
        <time>2013-04-14T20:21:19Z</time>
      </trkpt>
      <trkpt lat="48.56323" lon="2.70538">
        <ele>78.4</ele>
        <time>2013-04-14T20:21:21Z</time>
      </trkpt>
      <trkpt lat="48.5633" lon="2.7057">
        <ele>77.9</ele>
        <time>2013-04-14T20:21:26Z</time>
      </trkpt>
      <trkpt lat="48.56335" lon="2.70587">
        <ele>77.9</ele>
        <time>2013-04-14T20:21:37Z</time>
      </trkpt>
      <trkpt lat="48.56342" lon="2.70594">
        <ele>77.7</ele>
        <time>2013-04-14T20:21:44Z</time>
      </trkpt>
      <trkpt lat="48.5635" lon="2.706">
        <ele>77.8</ele>
        <time>2013-04-14T20:21:56Z</time>
      </trkpt>
      <trkpt lat="48.56359" lon="2.70622">
        <ele>77.5</ele>
        <time>2013-04-14T20:21:59Z</time>
      </trkpt>
      <trkpt lat="48.56359" lon="2.70622">
        <ele>77.5</ele>
        <time>2013-04-14T20:22:05Z</time>
      </trkpt>
      <trkpt lat="48.56361" lon="2.70639">
        <ele>77</ele>
        <time>2013-04-14T20:22:08Z</time>
      </trkpt>
      <trkpt lat="48.56361" lon="2.70641">
        <ele>76.9</ele>
        <time>2013-04-14T20:22:10Z</time>
      </trkpt>
      <trkpt lat="48.56366" lon="2.70656">
        <ele>76.7</ele>
        <time>2013-04-14T20:22:17Z</time>
      </trkpt>
      <trkpt lat="48.56367" lon="2.70658">
        <ele>76.7</ele>
        <time>2013-04-14T20:22:23Z</time>
      </trkpt>
      <trkpt lat="48.56373" lon="2.70677">
        <ele>76.3</ele>
        <time>2013-04-14T20:22:26Z</time>
      </trkpt>
      <trkpt lat="48.56375" lon="2.70686">
        <ele>76</ele>
        <time>2013-04-14T20:22:28Z</time>
      </trkpt>
      <trkpt lat="48.56377" lon="2.70703">
        <ele>75.4</ele>
        <time>2013-04-14T20:22:36Z</time>
      </trkpt>
      <trkpt lat="48.56376" lon="2.70705">
        <ele>75.4</ele>
        <time>2013-04-14T20:22:40Z</time>
      </trkpt>
      <trkpt lat="48.56376" lon="2.70705">
        <ele>75.4</ele>
        <time>2013-04-14T20:22:45Z</time>
      </trkpt>
      <trkpt lat="48.56367" lon="2.70714">
        <ele>74.7</ele>
        <time>2013-04-14T20:22:49Z</time>
      </trkpt>
      <trkpt lat="48.56359" lon="2.70716">
        <ele>74.1</ele>
        <time>2013-04-14T20:22:55Z</time>
      </trkpt>
      <trkpt lat="48.56359" lon="2.70716">
        <ele>74.1</ele>
        <time>2013-04-14T20:23:04Z</time>
      </trkpt>
      <trkpt lat="48.56347" lon="2.70718">
        <ele>73.2</ele>
        <time>2013-04-14T20:23:08Z</time>
      </trkpt>
      <trkpt lat="48.56338" lon="2.70718">
        <ele>72.6</ele>
        <time>2013-04-14T20:23:15Z</time>
      </trkpt>
      <trkpt lat="48.56338" lon="2.70718">
        <ele>72.6</ele>
        <time>2013-04-14T20:23:19Z</time>
      </trkpt>
      <trkpt lat="48.56327" lon="2.7072">
        <ele>71.7</ele>
        <time>2013-04-14T20:23:23Z</time>
      </trkpt>
      <trkpt lat="48.56294" lon="2.70722">
        <ele>69.2</ele>
        <time>2013-04-14T20:23:43Z</time>
      </trkpt>
      <trkpt lat="48.56294" lon="2.70722">
        <ele>69.2</ele>
        <time>2013-04-14T20:23:47Z</time>
      </trkpt>
      <trkpt lat="48.56285" lon="2.70725">
        <ele>68.5</ele>
        <time>2013-04-14T20:23:50Z</time>
      </trkpt>
      <trkpt lat="48.56285" lon="2.70725">
        <ele>68.5</ele>
        <time>2013-04-14T20:23:58Z</time>
      </trkpt>
      <trkpt lat="48.56272" lon="2.70727">
        <ele>67.5</ele>
        <time>2013-04-14T20:24:01Z</time>
      </trkpt>
      <trkpt lat="48.56261" lon="2.70729">
        <ele>66.6</ele>
        <time>2013-04-14T20:24:10Z</time>
      </trkpt>
      <trkpt lat="48.56249" lon="2.70731">
        <ele>65.6</ele>
        <time>2013-04-14T20:24:15Z</time>
      </trkpt>
      <trkpt lat="48.56244" lon="2.70731">
        <ele>65.3</ele>
        <time>2013-04-14T20:24:21Z</time>
      </trkpt>
      <trkpt lat="48.56233" lon="2.70733">
        <ele>64.4</ele>
        <time>2013-04-14T20:24:26Z</time>
      </trkpt>
      <trkpt lat="48.56233" lon="2.70733">
        <ele>64.4</ele>
        <time>2013-04-14T20:24:34Z</time>
      </trkpt>
      <trkpt lat="48.56223" lon="2.70735">
        <ele>63.6</ele>
        <time>2013-04-14T20:24:38Z</time>
      </trkpt>
      <trkpt lat="48.56214" lon="2.70737">
        <ele>62.9</ele>
        <time>2013-04-14T20:24:46Z</time>
      </trkpt>
      <trkpt lat="48.56214" lon="2.70737">
        <ele>62.9</ele>
        <time>2013-04-14T20:24:50Z</time>
      </trkpt>
      <trkpt lat="48.56204" lon="2.7074">
        <ele>62</ele>
        <time>2013-04-14T20:24:53Z</time>
      </trkpt>
      <trkpt lat="48.56191" lon="2.70742">
        <ele>61</ele>
        <time>2013-04-14T20:25:06Z</time>
      </trkpt>
      <trkpt lat="48.56183" lon="2.70744">
        <ele>60.4</ele>
        <time>2013-04-14T20:25:11Z</time>
      </trkpt>
      <trkpt lat="48.56172" lon="2.70744">
        <ele>59.6</ele>
        <time>2013-04-14T20:25:22Z</time>
      </trkpt>
      <trkpt lat="48.56156" lon="2.70746">
        <ele>58.4</ele>
        <time>2013-04-14T20:25:30Z</time>
      </trkpt>
      <trkpt lat="48.56157" lon="2.70746">
        <ele>58.5</ele>
        <time>2013-04-14T20:25:30Z</time>
      </trkpt>
    </trkseg>
  </trk>
</gpx>